<?xml version="1.0" encoding="UTF-8" standalone="no" ?>
<gpx xmlns="http://www.topografix.com/GPX/1/1" xmlns:xsi="http://www.w3.org/2001/XMLSchema-instance" xsi:schemaLocation="http://www.topografix.com/GPX/1/1 http://www.topografix.com/GPX/1/1/gpx.xsd" version="1.1" creator="VisuGPX - https://www.visugpx.com">
  <metadata>
    <name>Tarentese la jaserie 12 AVR 2017 09:51</name>
  </metadata>
  <trk>
    <name><![CDATA[Tracé actuel: 12 AVR 2017 09:51]]></name>
    <trkseg>
      <trkpt lat="45.37414" lon="4.48903">
        <ele>1056.63</ele>
        <time>2017-04-12T07:51:51Z</time>
      </trkpt>
      <trkpt lat="45.37407" lon="4.48913">
        <ele>1057.59</ele>
        <time>2017-04-12T07:52:04Z</time>
      </trkpt>
      <trkpt lat="45.37403" lon="4.48914">
        <ele>1057.59</ele>
        <time>2017-04-12T07:52:27Z</time>
      </trkpt>
      <trkpt lat="45.374" lon="4.48914">
        <ele>1056.63</ele>
        <time>2017-04-12T07:52:45Z</time>
      </trkpt>
      <trkpt lat="45.3742" lon="4.4891">
        <ele>1057.11</ele>
        <time>2017-04-12T07:53:03Z</time>
      </trkpt>
      <trkpt lat="45.3743" lon="4.48913">
        <ele>1057.59</ele>
        <time>2017-04-12T07:53:27Z</time>
      </trkpt>
      <trkpt lat="45.3743" lon="4.48915">
        <ele>1057.59</ele>
        <time>2017-04-12T07:53:53Z</time>
      </trkpt>
      <trkpt lat="45.37428" lon="4.48916">
        <ele>1059.03</ele>
        <time>2017-04-12T07:54:16Z</time>
      </trkpt>
      <trkpt lat="45.37428" lon="4.48918">
        <ele>1059.03</ele>
        <time>2017-04-12T07:54:39Z</time>
      </trkpt>
      <trkpt lat="45.37431" lon="4.48918">
        <ele>1059.51</ele>
        <time>2017-04-12T07:55:07Z</time>
      </trkpt>
      <trkpt lat="45.3743" lon="4.48916">
        <ele>1060.95</ele>
        <time>2017-04-12T07:55:26Z</time>
      </trkpt>
      <trkpt lat="45.37431" lon="4.48913">
        <ele>1059.99</ele>
        <time>2017-04-12T07:55:45Z</time>
      </trkpt>
      <trkpt lat="45.37429" lon="4.48912">
        <ele>1060.47</ele>
        <time>2017-04-12T07:56:10Z</time>
      </trkpt>
      <trkpt lat="45.37429" lon="4.48917">
        <ele>1060.95</ele>
        <time>2017-04-12T07:56:38Z</time>
      </trkpt>
      <trkpt lat="45.37428" lon="4.48919">
        <ele>1061.43</ele>
        <time>2017-04-12T07:57:11Z</time>
      </trkpt>
      <trkpt lat="45.37429" lon="4.48921">
        <ele>1061.91</ele>
        <time>2017-04-12T07:57:32Z</time>
      </trkpt>
      <trkpt lat="45.37429" lon="4.48919">
        <ele>1062.87</ele>
        <time>2017-04-12T07:57:44Z</time>
      </trkpt>
      <trkpt lat="45.37429" lon="4.48919">
        <ele>1059.51</ele>
        <time>2017-04-12T07:57:45Z</time>
      </trkpt>
      <trkpt lat="45.37429" lon="4.48918">
        <ele>1065.28</ele>
        <time>2017-04-12T07:57:46Z</time>
      </trkpt>
      <trkpt lat="45.37428" lon="4.4892">
        <ele>1063.36</ele>
        <time>2017-04-12T07:57:59Z</time>
      </trkpt>
      <trkpt lat="45.37427" lon="4.48914">
        <ele>1063.36</ele>
        <time>2017-04-12T07:58:11Z</time>
      </trkpt>
      <trkpt lat="45.3743" lon="4.48914">
        <ele>1063.36</ele>
        <time>2017-04-12T07:58:28Z</time>
      </trkpt>
      <trkpt lat="45.37429" lon="4.48913">
        <ele>1063.36</ele>
        <time>2017-04-12T07:58:50Z</time>
      </trkpt>
      <trkpt lat="45.37427" lon="4.48907">
        <ele>1063.84</ele>
        <time>2017-04-12T07:59:07Z</time>
      </trkpt>
      <trkpt lat="45.37425" lon="4.48917">
        <ele>1063.84</ele>
        <time>2017-04-12T07:59:11Z</time>
      </trkpt>
      <trkpt lat="45.37432" lon="4.48938">
        <ele>1064.32</ele>
        <time>2017-04-12T07:59:18Z</time>
      </trkpt>
      <trkpt lat="45.37434" lon="4.48947">
        <ele>1064.8</ele>
        <time>2017-04-12T07:59:21Z</time>
      </trkpt>
      <trkpt lat="45.37474" lon="4.48987">
        <ele>1063.84</ele>
        <time>2017-04-12T07:59:36Z</time>
      </trkpt>
      <trkpt lat="45.37494" lon="4.49013">
        <ele>1063.36</ele>
        <time>2017-04-12T07:59:42Z</time>
      </trkpt>
      <trkpt lat="45.3752" lon="4.49055">
        <ele>1063.36</ele>
        <time>2017-04-12T07:59:50Z</time>
      </trkpt>
      <trkpt lat="45.37532" lon="4.49083">
        <ele>1063.36</ele>
        <time>2017-04-12T07:59:55Z</time>
      </trkpt>
      <trkpt lat="45.3754" lon="4.49097">
        <ele>1063.84</ele>
        <time>2017-04-12T07:59:58Z</time>
      </trkpt>
      <trkpt lat="45.37547" lon="4.49104">
        <ele>1063.84</ele>
        <time>2017-04-12T08:00:00Z</time>
      </trkpt>
      <trkpt lat="45.37551" lon="4.49106">
        <ele>1063.84</ele>
        <time>2017-04-12T08:00:01Z</time>
      </trkpt>
      <trkpt lat="45.3756" lon="4.49108">
        <ele>1063.84</ele>
        <time>2017-04-12T08:00:03Z</time>
      </trkpt>
      <trkpt lat="45.37602" lon="4.49089">
        <ele>1065.76</ele>
        <time>2017-04-12T08:00:15Z</time>
      </trkpt>
      <trkpt lat="45.37645" lon="4.49072">
        <ele>1067.68</ele>
        <time>2017-04-12T08:00:28Z</time>
      </trkpt>
      <trkpt lat="45.37695" lon="4.49058">
        <ele>1071.05</ele>
        <time>2017-04-12T08:00:44Z</time>
      </trkpt>
      <trkpt lat="45.37763" lon="4.49022">
        <ele>1072.01</ele>
        <time>2017-04-12T08:01:03Z</time>
      </trkpt>
      <trkpt lat="45.37791" lon="4.49008">
        <ele>1072.49</ele>
        <time>2017-04-12T08:01:11Z</time>
      </trkpt>
      <trkpt lat="45.3785" lon="4.48974">
        <ele>1069.6</ele>
        <time>2017-04-12T08:01:22Z</time>
      </trkpt>
      <trkpt lat="45.37928" lon="4.48916">
        <ele>1066.72</ele>
        <time>2017-04-12T08:01:35Z</time>
      </trkpt>
      <trkpt lat="45.38015" lon="4.48854">
        <ele>1064.8</ele>
        <time>2017-04-12T08:01:51Z</time>
      </trkpt>
      <trkpt lat="45.38019" lon="4.4885">
        <ele>1064.8</ele>
        <time>2017-04-12T08:01:52Z</time>
      </trkpt>
      <trkpt lat="45.38023" lon="4.48845">
        <ele>1064.32</ele>
        <time>2017-04-12T08:01:53Z</time>
      </trkpt>
      <trkpt lat="45.38027" lon="4.48839">
        <ele>1064.32</ele>
        <time>2017-04-12T08:01:54Z</time>
      </trkpt>
      <trkpt lat="45.3803" lon="4.48833">
        <ele>1064.32</ele>
        <time>2017-04-12T08:01:55Z</time>
      </trkpt>
      <trkpt lat="45.38034" lon="4.48827">
        <ele>1063.84</ele>
        <time>2017-04-12T08:01:56Z</time>
      </trkpt>
      <trkpt lat="45.38071" lon="4.48776">
        <ele>1060.47</ele>
        <time>2017-04-12T08:02:03Z</time>
      </trkpt>
      <trkpt lat="45.3811" lon="4.48739">
        <ele>1057.59</ele>
        <time>2017-04-12T08:02:09Z</time>
      </trkpt>
      <trkpt lat="45.38123" lon="4.48726">
        <ele>1056.63</ele>
        <time>2017-04-12T08:02:11Z</time>
      </trkpt>
      <trkpt lat="45.38136" lon="4.48712">
        <ele>1055.67</ele>
        <time>2017-04-12T08:02:13Z</time>
      </trkpt>
      <trkpt lat="45.38141" lon="4.48703">
        <ele>1055.18</ele>
        <time>2017-04-12T08:02:14Z</time>
      </trkpt>
      <trkpt lat="45.38145" lon="4.48693">
        <ele>1054.22</ele>
        <time>2017-04-12T08:02:15Z</time>
      </trkpt>
      <trkpt lat="45.38147" lon="4.48682">
        <ele>1053.26</ele>
        <time>2017-04-12T08:02:16Z</time>
      </trkpt>
      <trkpt lat="45.38149" lon="4.4867">
        <ele>1051.82</ele>
        <time>2017-04-12T08:02:17Z</time>
      </trkpt>
      <trkpt lat="45.38152" lon="4.4866">
        <ele>1050.86</ele>
        <time>2017-04-12T08:02:18Z</time>
      </trkpt>
      <trkpt lat="45.38155" lon="4.4865">
        <ele>1050.86</ele>
        <time>2017-04-12T08:02:19Z</time>
      </trkpt>
      <trkpt lat="45.38158" lon="4.48641">
        <ele>1050.86</ele>
        <time>2017-04-12T08:02:20Z</time>
      </trkpt>
      <trkpt lat="45.38159" lon="4.48632">
        <ele>1049.9</ele>
        <time>2017-04-12T08:02:21Z</time>
      </trkpt>
      <trkpt lat="45.38159" lon="4.48623">
        <ele>1048.94</ele>
        <time>2017-04-12T08:02:22Z</time>
      </trkpt>
      <trkpt lat="45.38157" lon="4.48613">
        <ele>1047.97</ele>
        <time>2017-04-12T08:02:23Z</time>
      </trkpt>
      <trkpt lat="45.38156" lon="4.48603">
        <ele>1047.49</ele>
        <time>2017-04-12T08:02:24Z</time>
      </trkpt>
      <trkpt lat="45.38156" lon="4.48592">
        <ele>1046.05</ele>
        <time>2017-04-12T08:02:25Z</time>
      </trkpt>
      <trkpt lat="45.38157" lon="4.4858">
        <ele>1045.57</ele>
        <time>2017-04-12T08:02:26Z</time>
      </trkpt>
      <trkpt lat="45.3816" lon="4.48569">
        <ele>1045.09</ele>
        <time>2017-04-12T08:02:27Z</time>
      </trkpt>
      <trkpt lat="45.38163" lon="4.48557">
        <ele>1044.61</ele>
        <time>2017-04-12T08:02:28Z</time>
      </trkpt>
      <trkpt lat="45.38165" lon="4.48546">
        <ele>1044.13</ele>
        <time>2017-04-12T08:02:29Z</time>
      </trkpt>
      <trkpt lat="45.3817" lon="4.48522">
        <ele>1043.17</ele>
        <time>2017-04-12T08:02:31Z</time>
      </trkpt>
      <trkpt lat="45.38174" lon="4.48498">
        <ele>1041.73</ele>
        <time>2017-04-12T08:02:33Z</time>
      </trkpt>
      <trkpt lat="45.38178" lon="4.48486">
        <ele>1041.25</ele>
        <time>2017-04-12T08:02:34Z</time>
      </trkpt>
      <trkpt lat="45.38183" lon="4.48477">
        <ele>1041.25</ele>
        <time>2017-04-12T08:02:35Z</time>
      </trkpt>
      <trkpt lat="45.38234" lon="4.48363">
        <ele>1039.8</ele>
        <time>2017-04-12T08:02:48Z</time>
      </trkpt>
      <trkpt lat="45.38288" lon="4.48258">
        <ele>1038.36</ele>
        <time>2017-04-12T08:03:02Z</time>
      </trkpt>
      <trkpt lat="45.38341" lon="4.48185">
        <ele>1039.8</ele>
        <time>2017-04-12T08:03:16Z</time>
      </trkpt>
      <trkpt lat="45.38373" lon="4.48153">
        <ele>1042.21</ele>
        <time>2017-04-12T08:03:26Z</time>
      </trkpt>
      <trkpt lat="45.38398" lon="4.48131">
        <ele>1043.65</ele>
        <time>2017-04-12T08:03:36Z</time>
      </trkpt>
      <trkpt lat="45.384" lon="4.48125">
        <ele>1044.13</ele>
        <time>2017-04-12T08:03:38Z</time>
      </trkpt>
      <trkpt lat="45.384" lon="4.48121">
        <ele>1043.65</ele>
        <time>2017-04-12T08:03:39Z</time>
      </trkpt>
      <trkpt lat="45.38401" lon="4.48094">
        <ele>1041.73</ele>
        <time>2017-04-12T08:03:44Z</time>
      </trkpt>
      <trkpt lat="45.38401" lon="4.48086">
        <ele>1040.76</ele>
        <time>2017-04-12T08:03:45Z</time>
      </trkpt>
      <trkpt lat="45.38402" lon="4.48077">
        <ele>1040.76</ele>
        <time>2017-04-12T08:03:46Z</time>
      </trkpt>
      <trkpt lat="45.38405" lon="4.48037">
        <ele>1038.84</ele>
        <time>2017-04-12T08:03:50Z</time>
      </trkpt>
      <trkpt lat="45.38408" lon="4.48018">
        <ele>1037.4</ele>
        <time>2017-04-12T08:03:52Z</time>
      </trkpt>
      <trkpt lat="45.38411" lon="4.48008">
        <ele>1036.92</ele>
        <time>2017-04-12T08:03:53Z</time>
      </trkpt>
      <trkpt lat="45.38414" lon="4.48">
        <ele>1035.96</ele>
        <time>2017-04-12T08:03:54Z</time>
      </trkpt>
      <trkpt lat="45.38418" lon="4.47991">
        <ele>1035.96</ele>
        <time>2017-04-12T08:03:55Z</time>
      </trkpt>
      <trkpt lat="45.38445" lon="4.47925">
        <ele>1032.59</ele>
        <time>2017-04-12T08:04:03Z</time>
      </trkpt>
      <trkpt lat="45.38449" lon="4.47919">
        <ele>1032.11</ele>
        <time>2017-04-12T08:04:04Z</time>
      </trkpt>
      <trkpt lat="45.38459" lon="4.47909">
        <ele>1031.63</ele>
        <time>2017-04-12T08:04:06Z</time>
      </trkpt>
      <trkpt lat="45.38464" lon="4.47906">
        <ele>1031.63</ele>
        <time>2017-04-12T08:04:07Z</time>
      </trkpt>
      <trkpt lat="45.38469" lon="4.47904">
        <ele>1031.15</ele>
        <time>2017-04-12T08:04:08Z</time>
      </trkpt>
      <trkpt lat="45.38474" lon="4.47903">
        <ele>1031.15</ele>
        <time>2017-04-12T08:04:09Z</time>
      </trkpt>
      <trkpt lat="45.38479" lon="4.47902">
        <ele>1031.15</ele>
        <time>2017-04-12T08:04:10Z</time>
      </trkpt>
      <trkpt lat="45.38537" lon="4.47884">
        <ele>1028.75</ele>
        <time>2017-04-12T08:04:24Z</time>
      </trkpt>
      <trkpt lat="45.38584" lon="4.47879">
        <ele>1024.9</ele>
        <time>2017-04-12T08:04:33Z</time>
      </trkpt>
      <trkpt lat="45.38589" lon="4.4788">
        <ele>1023.94</ele>
        <time>2017-04-12T08:04:34Z</time>
      </trkpt>
      <trkpt lat="45.38594" lon="4.47881">
        <ele>1023.94</ele>
        <time>2017-04-12T08:04:35Z</time>
      </trkpt>
      <trkpt lat="45.38626" lon="4.47894">
        <ele>1021.54</ele>
        <time>2017-04-12T08:04:41Z</time>
      </trkpt>
      <trkpt lat="45.38631" lon="4.47898">
        <ele>1021.06</ele>
        <time>2017-04-12T08:04:42Z</time>
      </trkpt>
      <trkpt lat="45.38635" lon="4.47903">
        <ele>1021.06</ele>
        <time>2017-04-12T08:04:43Z</time>
      </trkpt>
      <trkpt lat="45.3867" lon="4.47939">
        <ele>1017.69</ele>
        <time>2017-04-12T08:04:51Z</time>
      </trkpt>
      <trkpt lat="45.38697" lon="4.47953">
        <ele>1014.33</ele>
        <time>2017-04-12T08:04:56Z</time>
      </trkpt>
      <trkpt lat="45.38703" lon="4.47956">
        <ele>1013.37</ele>
        <time>2017-04-12T08:04:57Z</time>
      </trkpt>
      <trkpt lat="45.38708" lon="4.47961">
        <ele>1012.89</ele>
        <time>2017-04-12T08:04:58Z</time>
      </trkpt>
      <trkpt lat="45.38731" lon="4.47983">
        <ele>1009.04</ele>
        <time>2017-04-12T08:05:02Z</time>
      </trkpt>
      <trkpt lat="45.38737" lon="4.47988">
        <ele>1008.08</ele>
        <time>2017-04-12T08:05:03Z</time>
      </trkpt>
      <trkpt lat="45.38744" lon="4.47991">
        <ele>1007.12</ele>
        <time>2017-04-12T08:05:04Z</time>
      </trkpt>
      <trkpt lat="45.38751" lon="4.47992">
        <ele>1006.16</ele>
        <time>2017-04-12T08:05:05Z</time>
      </trkpt>
      <trkpt lat="45.3877" lon="4.47995">
        <ele>1002.79</ele>
        <time>2017-04-12T08:05:08Z</time>
      </trkpt>
      <trkpt lat="45.38776" lon="4.47998">
        <ele>1003.27</ele>
        <time>2017-04-12T08:05:09Z</time>
      </trkpt>
      <trkpt lat="45.38785" lon="4.48005">
        <ele>1003.75</ele>
        <time>2017-04-12T08:05:11Z</time>
      </trkpt>
      <trkpt lat="45.38789" lon="4.48005">
        <ele>1003.75</ele>
        <time>2017-04-12T08:05:12Z</time>
      </trkpt>
      <trkpt lat="45.38794" lon="4.48003">
        <ele>1003.75</ele>
        <time>2017-04-12T08:05:13Z</time>
      </trkpt>
      <trkpt lat="45.38799" lon="4.48001">
        <ele>1004.23</ele>
        <time>2017-04-12T08:05:14Z</time>
      </trkpt>
      <trkpt lat="45.38803" lon="4.47999">
        <ele>1004.72</ele>
        <time>2017-04-12T08:05:15Z</time>
      </trkpt>
      <trkpt lat="45.38837" lon="4.47987">
        <ele>1007.12</ele>
        <time>2017-04-12T08:05:23Z</time>
      </trkpt>
      <trkpt lat="45.38841" lon="4.47992">
        <ele>1008.08</ele>
        <time>2017-04-12T08:05:25Z</time>
      </trkpt>
      <trkpt lat="45.38843" lon="4.47994">
        <ele>1008.08</ele>
        <time>2017-04-12T08:05:26Z</time>
      </trkpt>
      <trkpt lat="45.38846" lon="4.48002">
        <ele>1009.04</ele>
        <time>2017-04-12T08:05:29Z</time>
      </trkpt>
      <trkpt lat="45.38854" lon="4.48018">
        <ele>1010.48</ele>
        <time>2017-04-12T08:05:35Z</time>
      </trkpt>
      <trkpt lat="45.38869" lon="4.48054">
        <ele>1012.89</ele>
        <time>2017-04-12T08:05:47Z</time>
      </trkpt>
      <trkpt lat="45.38874" lon="4.4807">
        <ele>1013.85</ele>
        <time>2017-04-12T08:05:52Z</time>
      </trkpt>
      <trkpt lat="45.38894" lon="4.48116">
        <ele>1016.25</ele>
        <time>2017-04-12T08:06:08Z</time>
      </trkpt>
      <trkpt lat="45.38908" lon="4.48145">
        <ele>1019.13</ele>
        <time>2017-04-12T08:06:21Z</time>
      </trkpt>
      <trkpt lat="45.3891" lon="4.48148">
        <ele>1020.1</ele>
        <time>2017-04-12T08:06:24Z</time>
      </trkpt>
      <trkpt lat="45.38914" lon="4.48157">
        <ele>1021.06</ele>
        <time>2017-04-12T08:06:30Z</time>
      </trkpt>
      <trkpt lat="45.3892" lon="4.48171">
        <ele>1021.06</ele>
        <time>2017-04-12T08:06:37Z</time>
      </trkpt>
      <trkpt lat="45.38927" lon="4.48167">
        <ele>1021.54</ele>
        <time>2017-04-12T08:06:42Z</time>
      </trkpt>
      <trkpt lat="45.38959" lon="4.4812">
        <ele>1021.54</ele>
        <time>2017-04-12T08:06:58Z</time>
      </trkpt>
      <trkpt lat="45.39001" lon="4.48052">
        <ele>1021.54</ele>
        <time>2017-04-12T08:07:15Z</time>
      </trkpt>
      <trkpt lat="45.39013" lon="4.47959">
        <ele>1022.02</ele>
        <time>2017-04-12T08:07:31Z</time>
      </trkpt>
      <trkpt lat="45.39027" lon="4.47904">
        <ele>1022.98</ele>
        <time>2017-04-12T08:07:40Z</time>
      </trkpt>
      <trkpt lat="45.39029" lon="4.47899">
        <ele>1023.46</ele>
        <time>2017-04-12T08:07:41Z</time>
      </trkpt>
      <trkpt lat="45.39031" lon="4.47894">
        <ele>1023.46</ele>
        <time>2017-04-12T08:07:42Z</time>
      </trkpt>
      <trkpt lat="45.39045" lon="4.47826">
        <ele>1026.83</ele>
        <time>2017-04-12T08:07:55Z</time>
      </trkpt>
      <trkpt lat="45.39056" lon="4.47785">
        <ele>1029.71</ele>
        <time>2017-04-12T08:08:05Z</time>
      </trkpt>
      <trkpt lat="45.39062" lon="4.47744">
        <ele>1033.07</ele>
        <time>2017-04-12T08:08:15Z</time>
      </trkpt>
      <trkpt lat="45.39069" lon="4.47675">
        <ele>1035.48</ele>
        <time>2017-04-12T08:08:32Z</time>
      </trkpt>
      <trkpt lat="45.39083" lon="4.47627">
        <ele>1038.36</ele>
        <time>2017-04-12T08:08:46Z</time>
      </trkpt>
      <trkpt lat="45.39094" lon="4.476">
        <ele>1040.28</ele>
        <time>2017-04-12T08:08:56Z</time>
      </trkpt>
      <trkpt lat="45.39106" lon="4.47573">
        <ele>1042.69</ele>
        <time>2017-04-12T08:09:05Z</time>
      </trkpt>
      <trkpt lat="45.39106" lon="4.47571">
        <ele>1042.69</ele>
        <time>2017-04-12T08:09:06Z</time>
      </trkpt>
      <trkpt lat="45.39107" lon="4.47566">
        <ele>1043.17</ele>
        <time>2017-04-12T08:09:08Z</time>
      </trkpt>
      <trkpt lat="45.39109" lon="4.47564">
        <ele>1043.17</ele>
        <time>2017-04-12T08:09:09Z</time>
      </trkpt>
      <trkpt lat="45.3911" lon="4.47561">
        <ele>1043.65</ele>
        <time>2017-04-12T08:09:10Z</time>
      </trkpt>
      <trkpt lat="45.3911" lon="4.47557">
        <ele>1043.65</ele>
        <time>2017-04-12T08:09:11Z</time>
      </trkpt>
      <trkpt lat="45.39111" lon="4.47553">
        <ele>1043.65</ele>
        <time>2017-04-12T08:09:12Z</time>
      </trkpt>
      <trkpt lat="45.39113" lon="4.47549">
        <ele>1043.65</ele>
        <time>2017-04-12T08:09:13Z</time>
      </trkpt>
      <trkpt lat="45.39115" lon="4.47546">
        <ele>1043.65</ele>
        <time>2017-04-12T08:09:14Z</time>
      </trkpt>
      <trkpt lat="45.39116" lon="4.47541">
        <ele>1043.65</ele>
        <time>2017-04-12T08:09:15Z</time>
      </trkpt>
      <trkpt lat="45.39118" lon="4.47537">
        <ele>1043.65</ele>
        <time>2017-04-12T08:09:16Z</time>
      </trkpt>
      <trkpt lat="45.39119" lon="4.47532">
        <ele>1043.65</ele>
        <time>2017-04-12T08:09:17Z</time>
      </trkpt>
      <trkpt lat="45.39127" lon="4.47515">
        <ele>1044.13</ele>
        <time>2017-04-12T08:09:22Z</time>
      </trkpt>
      <trkpt lat="45.39129" lon="4.47512">
        <ele>1044.13</ele>
        <time>2017-04-12T08:09:23Z</time>
      </trkpt>
      <trkpt lat="45.39146" lon="4.47469">
        <ele>1045.09</ele>
        <time>2017-04-12T08:09:34Z</time>
      </trkpt>
      <trkpt lat="45.3915" lon="4.47456">
        <ele>1045.57</ele>
        <time>2017-04-12T08:09:37Z</time>
      </trkpt>
      <trkpt lat="45.39151" lon="4.47452">
        <ele>1045.57</ele>
        <time>2017-04-12T08:09:38Z</time>
      </trkpt>
      <trkpt lat="45.39152" lon="4.47449">
        <ele>1046.05</ele>
        <time>2017-04-12T08:09:39Z</time>
      </trkpt>
      <trkpt lat="45.39154" lon="4.47445">
        <ele>1046.05</ele>
        <time>2017-04-12T08:09:40Z</time>
      </trkpt>
      <trkpt lat="45.39155" lon="4.47441">
        <ele>1046.53</ele>
        <time>2017-04-12T08:09:41Z</time>
      </trkpt>
      <trkpt lat="45.39156" lon="4.47436">
        <ele>1046.53</ele>
        <time>2017-04-12T08:09:42Z</time>
      </trkpt>
      <trkpt lat="45.39156" lon="4.47431">
        <ele>1046.53</ele>
        <time>2017-04-12T08:09:43Z</time>
      </trkpt>
      <trkpt lat="45.39172" lon="4.47377">
        <ele>1049.42</ele>
        <time>2017-04-12T08:09:57Z</time>
      </trkpt>
      <trkpt lat="45.39188" lon="4.47327">
        <ele>1050.38</ele>
        <time>2017-04-12T08:10:10Z</time>
      </trkpt>
      <trkpt lat="45.39208" lon="4.47264">
        <ele>1053.26</ele>
        <time>2017-04-12T08:10:27Z</time>
      </trkpt>
      <trkpt lat="45.39221" lon="4.47221">
        <ele>1056.63</ele>
        <time>2017-04-12T08:10:40Z</time>
      </trkpt>
      <trkpt lat="45.39233" lon="4.47185">
        <ele>1059.51</ele>
        <time>2017-04-12T08:10:53Z</time>
      </trkpt>
      <trkpt lat="45.39241" lon="4.47152">
        <ele>1062.87</ele>
        <time>2017-04-12T08:11:06Z</time>
      </trkpt>
      <trkpt lat="45.39245" lon="4.4709">
        <ele>1065.28</ele>
        <time>2017-04-12T08:11:25Z</time>
      </trkpt>
      <trkpt lat="45.39263" lon="4.47031">
        <ele>1066.72</ele>
        <time>2017-04-12T08:11:43Z</time>
      </trkpt>
      <trkpt lat="45.39299" lon="4.46986">
        <ele>1066.72</ele>
        <time>2017-04-12T08:11:58Z</time>
      </trkpt>
      <trkpt lat="45.39344" lon="4.46949">
        <ele>1066.72</ele>
        <time>2017-04-12T08:12:11Z</time>
      </trkpt>
      <trkpt lat="45.3937" lon="4.46929">
        <ele>1066.72</ele>
        <time>2017-04-12T08:12:18Z</time>
      </trkpt>
      <trkpt lat="45.394" lon="4.46907">
        <ele>1069.6</ele>
        <time>2017-04-12T08:12:30Z</time>
      </trkpt>
      <trkpt lat="45.39409" lon="4.46902">
        <ele>1070.57</ele>
        <time>2017-04-12T08:12:35Z</time>
      </trkpt>
      <trkpt lat="45.39411" lon="4.46901">
        <ele>1070.57</ele>
        <time>2017-04-12T08:12:36Z</time>
      </trkpt>
      <trkpt lat="45.39412" lon="4.469">
        <ele>1071.05</ele>
        <time>2017-04-12T08:12:37Z</time>
      </trkpt>
      <trkpt lat="45.39413" lon="4.46898">
        <ele>1071.05</ele>
        <time>2017-04-12T08:12:38Z</time>
      </trkpt>
      <trkpt lat="45.39413" lon="4.46896">
        <ele>1071.05</ele>
        <time>2017-04-12T08:12:39Z</time>
      </trkpt>
      <trkpt lat="45.39413" lon="4.46895">
        <ele>1071.05</ele>
        <time>2017-04-12T08:12:40Z</time>
      </trkpt>
      <trkpt lat="45.39411" lon="4.46894">
        <ele>1071.05</ele>
        <time>2017-04-12T08:12:41Z</time>
      </trkpt>
      <trkpt lat="45.3941" lon="4.46895">
        <ele>1071.05</ele>
        <time>2017-04-12T08:12:42Z</time>
      </trkpt>
      <trkpt lat="45.39408" lon="4.46897">
        <ele>1071.05</ele>
        <time>2017-04-12T08:12:43Z</time>
      </trkpt>
      <trkpt lat="45.39406" lon="4.46898">
        <ele>1070.57</ele>
        <time>2017-04-12T08:12:44Z</time>
      </trkpt>
      <trkpt lat="45.39403" lon="4.469">
        <ele>1070.57</ele>
        <time>2017-04-12T08:12:45Z</time>
      </trkpt>
      <trkpt lat="45.39379" lon="4.46916">
        <ele>1067.2</ele>
        <time>2017-04-12T08:12:52Z</time>
      </trkpt>
      <trkpt lat="45.3938" lon="4.46911">
        <ele>1066.24</ele>
        <time>2017-04-12T08:12:54Z</time>
      </trkpt>
      <trkpt lat="45.39381" lon="4.46909">
        <ele>1066.24</ele>
        <time>2017-04-12T08:12:55Z</time>
      </trkpt>
      <trkpt lat="45.39384" lon="4.46906">
        <ele>1066.24</ele>
        <time>2017-04-12T08:12:56Z</time>
      </trkpt>
      <trkpt lat="45.39386" lon="4.46904">
        <ele>1066.24</ele>
        <time>2017-04-12T08:12:57Z</time>
      </trkpt>
      <trkpt lat="45.39399" lon="4.46879">
        <ele>1065.76</ele>
        <time>2017-04-12T08:13:03Z</time>
      </trkpt>
      <trkpt lat="45.39401" lon="4.46873">
        <ele>1065.76</ele>
        <time>2017-04-12T08:13:04Z</time>
      </trkpt>
      <trkpt lat="45.39403" lon="4.46868">
        <ele>1065.76</ele>
        <time>2017-04-12T08:13:05Z</time>
      </trkpt>
      <trkpt lat="45.39404" lon="4.46863">
        <ele>1065.76</ele>
        <time>2017-04-12T08:13:06Z</time>
      </trkpt>
      <trkpt lat="45.39405" lon="4.46858">
        <ele>1065.76</ele>
        <time>2017-04-12T08:13:07Z</time>
      </trkpt>
      <trkpt lat="45.39406" lon="4.46852">
        <ele>1065.76</ele>
        <time>2017-04-12T08:13:08Z</time>
      </trkpt>
      <trkpt lat="45.39422" lon="4.46752">
        <ele>1065.28</ele>
        <time>2017-04-12T08:13:23Z</time>
      </trkpt>
      <trkpt lat="45.39431" lon="4.46718">
        <ele>1066.24</ele>
        <time>2017-04-12T08:13:28Z</time>
      </trkpt>
      <trkpt lat="45.39433" lon="4.46712">
        <ele>1065.76</ele>
        <time>2017-04-12T08:13:29Z</time>
      </trkpt>
      <trkpt lat="45.3944" lon="4.46684">
        <ele>1066.72</ele>
        <time>2017-04-12T08:13:33Z</time>
      </trkpt>
      <trkpt lat="45.39442" lon="4.46678">
        <ele>1066.72</ele>
        <time>2017-04-12T08:13:34Z</time>
      </trkpt>
      <trkpt lat="45.39445" lon="4.46671">
        <ele>1066.72</ele>
        <time>2017-04-12T08:13:35Z</time>
      </trkpt>
      <trkpt lat="45.39447" lon="4.46664">
        <ele>1066.24</ele>
        <time>2017-04-12T08:13:36Z</time>
      </trkpt>
      <trkpt lat="45.39449" lon="4.46658">
        <ele>1066.72</ele>
        <time>2017-04-12T08:13:37Z</time>
      </trkpt>
      <trkpt lat="45.39485" lon="4.46565">
        <ele>1066.24</ele>
        <time>2017-04-12T08:13:51Z</time>
      </trkpt>
      <trkpt lat="45.39496" lon="4.46544">
        <ele>1065.28</ele>
        <time>2017-04-12T08:13:54Z</time>
      </trkpt>
      <trkpt lat="45.39551" lon="4.46493">
        <ele>1061.91</ele>
        <time>2017-04-12T08:14:05Z</time>
      </trkpt>
      <trkpt lat="45.39557" lon="4.4649">
        <ele>1060.95</ele>
        <time>2017-04-12T08:14:06Z</time>
      </trkpt>
      <trkpt lat="45.39561" lon="4.46487">
        <ele>1060.95</ele>
        <time>2017-04-12T08:14:07Z</time>
      </trkpt>
      <trkpt lat="45.39566" lon="4.46486">
        <ele>1060.47</ele>
        <time>2017-04-12T08:14:08Z</time>
      </trkpt>
      <trkpt lat="45.39571" lon="4.46484">
        <ele>1060.47</ele>
        <time>2017-04-12T08:14:09Z</time>
      </trkpt>
      <trkpt lat="45.39577" lon="4.46481">
        <ele>1059.99</ele>
        <time>2017-04-12T08:14:10Z</time>
      </trkpt>
      <trkpt lat="45.39583" lon="4.46479">
        <ele>1059.99</ele>
        <time>2017-04-12T08:14:11Z</time>
      </trkpt>
      <trkpt lat="45.39647" lon="4.46446">
        <ele>1058.07</ele>
        <time>2017-04-12T08:14:22Z</time>
      </trkpt>
      <trkpt lat="45.39652" lon="4.46442">
        <ele>1058.07</ele>
        <time>2017-04-12T08:14:23Z</time>
      </trkpt>
      <trkpt lat="45.39657" lon="4.46439">
        <ele>1057.59</ele>
        <time>2017-04-12T08:14:24Z</time>
      </trkpt>
      <trkpt lat="45.39687" lon="4.46426">
        <ele>1055.18</ele>
        <time>2017-04-12T08:14:29Z</time>
      </trkpt>
      <trkpt lat="45.39718" lon="4.46418">
        <ele>1052.3</ele>
        <time>2017-04-12T08:14:33Z</time>
      </trkpt>
      <trkpt lat="45.39727" lon="4.46416">
        <ele>1051.34</ele>
        <time>2017-04-12T08:14:34Z</time>
      </trkpt>
      <trkpt lat="45.39772" lon="4.46404">
        <ele>1047.97</ele>
        <time>2017-04-12T08:14:39Z</time>
      </trkpt>
      <trkpt lat="45.3978" lon="4.46401">
        <ele>1047.01</ele>
        <time>2017-04-12T08:14:40Z</time>
      </trkpt>
      <trkpt lat="45.39788" lon="4.46396">
        <ele>1046.53</ele>
        <time>2017-04-12T08:14:41Z</time>
      </trkpt>
      <trkpt lat="45.3981" lon="4.46378">
        <ele>1044.13</ele>
        <time>2017-04-12T08:14:44Z</time>
      </trkpt>
      <trkpt lat="45.39815" lon="4.46369">
        <ele>1043.65</ele>
        <time>2017-04-12T08:14:45Z</time>
      </trkpt>
      <trkpt lat="45.39819" lon="4.4636">
        <ele>1042.69</ele>
        <time>2017-04-12T08:14:46Z</time>
      </trkpt>
      <trkpt lat="45.39825" lon="4.46351">
        <ele>1042.21</ele>
        <time>2017-04-12T08:14:47Z</time>
      </trkpt>
      <trkpt lat="45.3983" lon="4.46343">
        <ele>1041.25</ele>
        <time>2017-04-12T08:14:48Z</time>
      </trkpt>
      <trkpt lat="45.39833" lon="4.46338">
        <ele>1042.69</ele>
        <time>2017-04-12T08:14:49Z</time>
      </trkpt>
      <trkpt lat="45.39837" lon="4.46336">
        <ele>1042.21</ele>
        <time>2017-04-12T08:14:50Z</time>
      </trkpt>
      <trkpt lat="45.39841" lon="4.46334">
        <ele>1043.17</ele>
        <time>2017-04-12T08:14:51Z</time>
      </trkpt>
      <trkpt lat="45.39844" lon="4.46333">
        <ele>1043.65</ele>
        <time>2017-04-12T08:14:52Z</time>
      </trkpt>
      <trkpt lat="45.39847" lon="4.46331">
        <ele>1044.13</ele>
        <time>2017-04-12T08:14:53Z</time>
      </trkpt>
      <trkpt lat="45.39858" lon="4.4633">
        <ele>1046.05</ele>
        <time>2017-04-12T08:14:57Z</time>
      </trkpt>
      <trkpt lat="45.39885" lon="4.46334">
        <ele>1048.45</ele>
        <time>2017-04-12T08:15:08Z</time>
      </trkpt>
      <trkpt lat="45.39919" lon="4.46353">
        <ele>1048.94</ele>
        <time>2017-04-12T08:15:21Z</time>
      </trkpt>
      <trkpt lat="45.39943" lon="4.46368">
        <ele>1047.01</ele>
        <time>2017-04-12T08:15:27Z</time>
      </trkpt>
      <trkpt lat="45.39977" lon="4.46383">
        <ele>1043.65</ele>
        <time>2017-04-12T08:15:32Z</time>
      </trkpt>
      <trkpt lat="45.39999" lon="4.46398">
        <ele>1042.21</ele>
        <time>2017-04-12T08:15:35Z</time>
      </trkpt>
      <trkpt lat="45.40029" lon="4.46414">
        <ele>1040.28</ele>
        <time>2017-04-12T08:15:39Z</time>
      </trkpt>
      <trkpt lat="45.40112" lon="4.4646">
        <ele>1037.4</ele>
        <time>2017-04-12T08:15:51Z</time>
      </trkpt>
      <trkpt lat="45.40144" lon="4.46472">
        <ele>1036.44</ele>
        <time>2017-04-12T08:15:56Z</time>
      </trkpt>
      <trkpt lat="45.4015" lon="4.46475">
        <ele>1036.44</ele>
        <time>2017-04-12T08:15:57Z</time>
      </trkpt>
      <trkpt lat="45.40156" lon="4.46476">
        <ele>1036.44</ele>
        <time>2017-04-12T08:15:58Z</time>
      </trkpt>
      <trkpt lat="45.40162" lon="4.46477">
        <ele>1035.96</ele>
        <time>2017-04-12T08:15:59Z</time>
      </trkpt>
      <trkpt lat="45.40168" lon="4.46479">
        <ele>1035.48</ele>
        <time>2017-04-12T08:16:00Z</time>
      </trkpt>
      <trkpt lat="45.40173" lon="4.46484">
        <ele>1035</ele>
        <time>2017-04-12T08:16:01Z</time>
      </trkpt>
      <trkpt lat="45.40178" lon="4.46487">
        <ele>1035</ele>
        <time>2017-04-12T08:16:02Z</time>
      </trkpt>
      <trkpt lat="45.40184" lon="4.46489">
        <ele>1034.52</ele>
        <time>2017-04-12T08:16:03Z</time>
      </trkpt>
      <trkpt lat="45.40194" lon="4.46492">
        <ele>1034.52</ele>
        <time>2017-04-12T08:16:05Z</time>
      </trkpt>
      <trkpt lat="45.40199" lon="4.46492">
        <ele>1034.52</ele>
        <time>2017-04-12T08:16:06Z</time>
      </trkpt>
      <trkpt lat="45.40211" lon="4.46491">
        <ele>1033.55</ele>
        <time>2017-04-12T08:16:08Z</time>
      </trkpt>
      <trkpt lat="45.40222" lon="4.4649">
        <ele>1033.07</ele>
        <time>2017-04-12T08:16:10Z</time>
      </trkpt>
      <trkpt lat="45.40227" lon="4.4649">
        <ele>1032.59</ele>
        <time>2017-04-12T08:16:11Z</time>
      </trkpt>
      <trkpt lat="45.40233" lon="4.46491">
        <ele>1032.11</ele>
        <time>2017-04-12T08:16:12Z</time>
      </trkpt>
      <trkpt lat="45.40266" lon="4.46498">
        <ele>1031.15</ele>
        <time>2017-04-12T08:16:18Z</time>
      </trkpt>
      <trkpt lat="45.40272" lon="4.46498">
        <ele>1030.67</ele>
        <time>2017-04-12T08:16:19Z</time>
      </trkpt>
      <trkpt lat="45.40296" lon="4.46494">
        <ele>1029.23</ele>
        <time>2017-04-12T08:16:23Z</time>
      </trkpt>
      <trkpt lat="45.4033" lon="4.46486">
        <ele>1027.79</ele>
        <time>2017-04-12T08:16:28Z</time>
      </trkpt>
      <trkpt lat="45.40336" lon="4.46485">
        <ele>1027.79</ele>
        <time>2017-04-12T08:16:29Z</time>
      </trkpt>
      <trkpt lat="45.404" lon="4.46485">
        <ele>1026.83</ele>
        <time>2017-04-12T08:16:40Z</time>
      </trkpt>
      <trkpt lat="45.40406" lon="4.46485">
        <ele>1026.83</ele>
        <time>2017-04-12T08:16:41Z</time>
      </trkpt>
      <trkpt lat="45.40425" lon="4.46484">
        <ele>1026.83</ele>
        <time>2017-04-12T08:16:45Z</time>
      </trkpt>
      <trkpt lat="45.4043" lon="4.46485">
        <ele>1026.83</ele>
        <time>2017-04-12T08:16:46Z</time>
      </trkpt>
      <trkpt lat="45.40435" lon="4.46485">
        <ele>1026.34</ele>
        <time>2017-04-12T08:16:47Z</time>
      </trkpt>
      <trkpt lat="45.4044" lon="4.46485">
        <ele>1026.34</ele>
        <time>2017-04-12T08:16:48Z</time>
      </trkpt>
      <trkpt lat="45.40446" lon="4.46486">
        <ele>1025.86</ele>
        <time>2017-04-12T08:16:49Z</time>
      </trkpt>
      <trkpt lat="45.40451" lon="4.46486">
        <ele>1026.34</ele>
        <time>2017-04-12T08:16:50Z</time>
      </trkpt>
      <trkpt lat="45.4047" lon="4.46488">
        <ele>1026.34</ele>
        <time>2017-04-12T08:16:54Z</time>
      </trkpt>
      <trkpt lat="45.40475" lon="4.46488">
        <ele>1026.34</ele>
        <time>2017-04-12T08:16:55Z</time>
      </trkpt>
      <trkpt lat="45.40516" lon="4.46501">
        <ele>1027.31</ele>
        <time>2017-04-12T08:17:03Z</time>
      </trkpt>
      <trkpt lat="45.40522" lon="4.46502">
        <ele>1027.31</ele>
        <time>2017-04-12T08:17:04Z</time>
      </trkpt>
      <trkpt lat="45.40527" lon="4.46504">
        <ele>1027.31</ele>
        <time>2017-04-12T08:17:05Z</time>
      </trkpt>
      <trkpt lat="45.40531" lon="4.46507">
        <ele>1027.79</ele>
        <time>2017-04-12T08:17:06Z</time>
      </trkpt>
      <trkpt lat="45.40536" lon="4.46509">
        <ele>1027.79</ele>
        <time>2017-04-12T08:17:07Z</time>
      </trkpt>
      <trkpt lat="45.40541" lon="4.46511">
        <ele>1027.79</ele>
        <time>2017-04-12T08:17:08Z</time>
      </trkpt>
      <trkpt lat="45.4055" lon="4.46514">
        <ele>1028.27</ele>
        <time>2017-04-12T08:17:10Z</time>
      </trkpt>
      <trkpt lat="45.40554" lon="4.46516">
        <ele>1028.27</ele>
        <time>2017-04-12T08:17:11Z</time>
      </trkpt>
      <trkpt lat="45.40558" lon="4.46518">
        <ele>1028.27</ele>
        <time>2017-04-12T08:17:12Z</time>
      </trkpt>
      <trkpt lat="45.4057" lon="4.46524">
        <ele>1028.75</ele>
        <time>2017-04-12T08:17:15Z</time>
      </trkpt>
      <trkpt lat="45.40574" lon="4.46526">
        <ele>1028.75</ele>
        <time>2017-04-12T08:17:16Z</time>
      </trkpt>
      <trkpt lat="45.40586" lon="4.46532">
        <ele>1029.23</ele>
        <time>2017-04-12T08:17:19Z</time>
      </trkpt>
      <trkpt lat="45.40613" lon="4.46542">
        <ele>1029.71</ele>
        <time>2017-04-12T08:17:25Z</time>
      </trkpt>
      <trkpt lat="45.40618" lon="4.46543">
        <ele>1029.23</ele>
        <time>2017-04-12T08:17:26Z</time>
      </trkpt>
      <trkpt lat="45.40636" lon="4.46549">
        <ele>1029.23</ele>
        <time>2017-04-12T08:17:30Z</time>
      </trkpt>
      <trkpt lat="45.40667" lon="4.46552">
        <ele>1028.75</ele>
        <time>2017-04-12T08:17:36Z</time>
      </trkpt>
      <trkpt lat="45.40671" lon="4.46555">
        <ele>1028.27</ele>
        <time>2017-04-12T08:17:37Z</time>
      </trkpt>
      <trkpt lat="45.40674" lon="4.46559">
        <ele>1028.27</ele>
        <time>2017-04-12T08:17:38Z</time>
      </trkpt>
      <trkpt lat="45.40675" lon="4.46564">
        <ele>1028.27</ele>
        <time>2017-04-12T08:17:39Z</time>
      </trkpt>
      <trkpt lat="45.40675" lon="4.46569">
        <ele>1027.79</ele>
        <time>2017-04-12T08:17:40Z</time>
      </trkpt>
      <trkpt lat="45.40674" lon="4.46574">
        <ele>1027.31</ele>
        <time>2017-04-12T08:17:41Z</time>
      </trkpt>
      <trkpt lat="45.40672" lon="4.46579">
        <ele>1027.31</ele>
        <time>2017-04-12T08:17:42Z</time>
      </trkpt>
      <trkpt lat="45.40669" lon="4.46581">
        <ele>1027.31</ele>
        <time>2017-04-12T08:17:43Z</time>
      </trkpt>
      <trkpt lat="45.40665" lon="4.46583">
        <ele>1026.83</ele>
        <time>2017-04-12T08:17:44Z</time>
      </trkpt>
      <trkpt lat="45.40661" lon="4.46583">
        <ele>1026.34</ele>
        <time>2017-04-12T08:17:45Z</time>
      </trkpt>
      <trkpt lat="45.40657" lon="4.46583">
        <ele>1026.34</ele>
        <time>2017-04-12T08:17:46Z</time>
      </trkpt>
      <trkpt lat="45.40613" lon="4.4658">
        <ele>1023.46</ele>
        <time>2017-04-12T08:17:54Z</time>
      </trkpt>
      <trkpt lat="45.40564" lon="4.4658">
        <ele>1020.58</ele>
        <time>2017-04-12T08:18:01Z</time>
      </trkpt>
      <trkpt lat="45.40462" lon="4.46573">
        <ele>1018.17</ele>
        <time>2017-04-12T08:18:16Z</time>
      </trkpt>
      <trkpt lat="45.40406" lon="4.46584">
        <ele>1017.69</ele>
        <time>2017-04-12T08:18:25Z</time>
      </trkpt>
      <trkpt lat="45.40394" lon="4.46587">
        <ele>1017.21</ele>
        <time>2017-04-12T08:18:27Z</time>
      </trkpt>
      <trkpt lat="45.40389" lon="4.4659">
        <ele>1017.69</ele>
        <time>2017-04-12T08:18:28Z</time>
      </trkpt>
      <trkpt lat="45.40383" lon="4.46593">
        <ele>1017.21</ele>
        <time>2017-04-12T08:18:29Z</time>
      </trkpt>
      <trkpt lat="45.40379" lon="4.46596">
        <ele>1017.21</ele>
        <time>2017-04-12T08:18:30Z</time>
      </trkpt>
      <trkpt lat="45.40374" lon="4.466">
        <ele>1017.21</ele>
        <time>2017-04-12T08:18:31Z</time>
      </trkpt>
      <trkpt lat="45.40365" lon="4.46608">
        <ele>1016.73</ele>
        <time>2017-04-12T08:18:33Z</time>
      </trkpt>
      <trkpt lat="45.40361" lon="4.46613">
        <ele>1017.21</ele>
        <time>2017-04-12T08:18:34Z</time>
      </trkpt>
      <trkpt lat="45.40352" lon="4.46623">
        <ele>1016.73</ele>
        <time>2017-04-12T08:18:36Z</time>
      </trkpt>
      <trkpt lat="45.40325" lon="4.46649">
        <ele>1016.73</ele>
        <time>2017-04-12T08:18:42Z</time>
      </trkpt>
      <trkpt lat="45.4032" lon="4.46654">
        <ele>1016.73</ele>
        <time>2017-04-12T08:18:43Z</time>
      </trkpt>
      <trkpt lat="45.40296" lon="4.46685">
        <ele>1017.21</ele>
        <time>2017-04-12T08:18:49Z</time>
      </trkpt>
      <trkpt lat="45.40293" lon="4.4669">
        <ele>1016.73</ele>
        <time>2017-04-12T08:18:50Z</time>
      </trkpt>
      <trkpt lat="45.4029" lon="4.46695">
        <ele>1016.73</ele>
        <time>2017-04-12T08:18:51Z</time>
      </trkpt>
      <trkpt lat="45.40283" lon="4.46704">
        <ele>1017.69</ele>
        <time>2017-04-12T08:18:53Z</time>
      </trkpt>
      <trkpt lat="45.40277" lon="4.46713">
        <ele>1017.69</ele>
        <time>2017-04-12T08:18:55Z</time>
      </trkpt>
      <trkpt lat="45.40274" lon="4.46718">
        <ele>1017.69</ele>
        <time>2017-04-12T08:18:56Z</time>
      </trkpt>
      <trkpt lat="45.40258" lon="4.46753">
        <ele>1018.17</ele>
        <time>2017-04-12T08:19:03Z</time>
      </trkpt>
      <trkpt lat="45.40255" lon="4.46766">
        <ele>1018.17</ele>
        <time>2017-04-12T08:19:05Z</time>
      </trkpt>
      <trkpt lat="45.40254" lon="4.46773">
        <ele>1017.69</ele>
        <time>2017-04-12T08:19:06Z</time>
      </trkpt>
      <trkpt lat="45.40251" lon="4.4678">
        <ele>1017.69</ele>
        <time>2017-04-12T08:19:07Z</time>
      </trkpt>
      <trkpt lat="45.40249" lon="4.46788">
        <ele>1016.73</ele>
        <time>2017-04-12T08:19:08Z</time>
      </trkpt>
      <trkpt lat="45.40246" lon="4.46796">
        <ele>1016.25</ele>
        <time>2017-04-12T08:19:09Z</time>
      </trkpt>
      <trkpt lat="45.40243" lon="4.46805">
        <ele>1016.25</ele>
        <time>2017-04-12T08:19:10Z</time>
      </trkpt>
      <trkpt lat="45.40236" lon="4.46833">
        <ele>1013.37</ele>
        <time>2017-04-12T08:19:13Z</time>
      </trkpt>
      <trkpt lat="45.40234" lon="4.46843">
        <ele>1013.37</ele>
        <time>2017-04-12T08:19:14Z</time>
      </trkpt>
      <trkpt lat="45.40232" lon="4.46853">
        <ele>1012.41</ele>
        <time>2017-04-12T08:19:15Z</time>
      </trkpt>
      <trkpt lat="45.40226" lon="4.46874">
        <ele>1011.44</ele>
        <time>2017-04-12T08:19:17Z</time>
      </trkpt>
      <trkpt lat="45.40212" lon="4.46918">
        <ele>1008.08</ele>
        <time>2017-04-12T08:19:21Z</time>
      </trkpt>
      <trkpt lat="45.40199" lon="4.46951">
        <ele>1005.68</ele>
        <time>2017-04-12T08:19:24Z</time>
      </trkpt>
      <trkpt lat="45.40193" lon="4.46958">
        <ele>1005.2</ele>
        <time>2017-04-12T08:19:25Z</time>
      </trkpt>
      <trkpt lat="45.40182" lon="4.46968">
        <ele>1003.75</ele>
        <time>2017-04-12T08:19:27Z</time>
      </trkpt>
      <trkpt lat="45.40166" lon="4.46981">
        <ele>1001.83</ele>
        <time>2017-04-12T08:19:30Z</time>
      </trkpt>
      <trkpt lat="45.40152" lon="4.46995">
        <ele>1000.87</ele>
        <time>2017-04-12T08:19:32Z</time>
      </trkpt>
      <trkpt lat="45.40128" lon="4.4705">
        <ele>998.47</ele>
        <time>2017-04-12T08:19:38Z</time>
      </trkpt>
      <trkpt lat="45.40129" lon="4.47057">
        <ele>997.99</ele>
        <time>2017-04-12T08:19:39Z</time>
      </trkpt>
      <trkpt lat="45.40136" lon="4.47068">
        <ele>997.51</ele>
        <time>2017-04-12T08:19:40Z</time>
      </trkpt>
      <trkpt lat="45.40141" lon="4.47078">
        <ele>997.02</ele>
        <time>2017-04-12T08:19:41Z</time>
      </trkpt>
      <trkpt lat="45.40146" lon="4.47089">
        <ele>996.54</ele>
        <time>2017-04-12T08:19:42Z</time>
      </trkpt>
      <trkpt lat="45.40149" lon="4.47099">
        <ele>996.06</ele>
        <time>2017-04-12T08:19:43Z</time>
      </trkpt>
      <trkpt lat="45.40152" lon="4.47111">
        <ele>995.1</ele>
        <time>2017-04-12T08:19:44Z</time>
      </trkpt>
      <trkpt lat="45.40154" lon="4.47122">
        <ele>994.62</ele>
        <time>2017-04-12T08:19:45Z</time>
      </trkpt>
      <trkpt lat="45.40154" lon="4.47133">
        <ele>994.14</ele>
        <time>2017-04-12T08:19:46Z</time>
      </trkpt>
      <trkpt lat="45.40153" lon="4.47145">
        <ele>993.18</ele>
        <time>2017-04-12T08:19:47Z</time>
      </trkpt>
      <trkpt lat="45.4015" lon="4.47156">
        <ele>992.22</ele>
        <time>2017-04-12T08:19:48Z</time>
      </trkpt>
      <trkpt lat="45.40147" lon="4.47167">
        <ele>991.74</ele>
        <time>2017-04-12T08:19:49Z</time>
      </trkpt>
      <trkpt lat="45.40141" lon="4.4719">
        <ele>990.3</ele>
        <time>2017-04-12T08:19:51Z</time>
      </trkpt>
      <trkpt lat="45.40136" lon="4.47208">
        <ele>989.33</ele>
        <time>2017-04-12T08:19:53Z</time>
      </trkpt>
      <trkpt lat="45.40137" lon="4.47241">
        <ele>987.41</ele>
        <time>2017-04-12T08:19:55Z</time>
      </trkpt>
      <trkpt lat="45.4014" lon="4.47251">
        <ele>986.45</ele>
        <time>2017-04-12T08:19:56Z</time>
      </trkpt>
      <trkpt lat="45.40145" lon="4.47258">
        <ele>986.45</ele>
        <time>2017-04-12T08:19:57Z</time>
      </trkpt>
      <trkpt lat="45.40153" lon="4.47261">
        <ele>985.97</ele>
        <time>2017-04-12T08:19:58Z</time>
      </trkpt>
      <trkpt lat="45.40163" lon="4.47264">
        <ele>985.49</ele>
        <time>2017-04-12T08:19:59Z</time>
      </trkpt>
      <trkpt lat="45.40174" lon="4.47265">
        <ele>984.05</ele>
        <time>2017-04-12T08:20:00Z</time>
      </trkpt>
      <trkpt lat="45.40184" lon="4.47265">
        <ele>983.09</ele>
        <time>2017-04-12T08:20:01Z</time>
      </trkpt>
      <trkpt lat="45.40195" lon="4.47263">
        <ele>982.6</ele>
        <time>2017-04-12T08:20:02Z</time>
      </trkpt>
      <trkpt lat="45.40218" lon="4.47254">
        <ele>979.72</ele>
        <time>2017-04-12T08:20:04Z</time>
      </trkpt>
      <trkpt lat="45.40247" lon="4.47235">
        <ele>976.84</ele>
        <time>2017-04-12T08:20:07Z</time>
      </trkpt>
      <trkpt lat="45.40273" lon="4.47223">
        <ele>973.95</ele>
        <time>2017-04-12T08:20:10Z</time>
      </trkpt>
      <trkpt lat="45.40282" lon="4.47224">
        <ele>973.95</ele>
        <time>2017-04-12T08:20:11Z</time>
      </trkpt>
      <trkpt lat="45.40331" lon="4.47229">
        <ele>973.47</ele>
        <time>2017-04-12T08:20:17Z</time>
      </trkpt>
      <trkpt lat="45.40338" lon="4.47227">
        <ele>973.95</ele>
        <time>2017-04-12T08:20:18Z</time>
      </trkpt>
      <trkpt lat="45.40345" lon="4.47225">
        <ele>973.95</ele>
        <time>2017-04-12T08:20:19Z</time>
      </trkpt>
      <trkpt lat="45.40351" lon="4.47221">
        <ele>973.95</ele>
        <time>2017-04-12T08:20:20Z</time>
      </trkpt>
      <trkpt lat="45.40358" lon="4.47217">
        <ele>974.43</ele>
        <time>2017-04-12T08:20:21Z</time>
      </trkpt>
      <trkpt lat="45.40372" lon="4.47208">
        <ele>973.95</ele>
        <time>2017-04-12T08:20:23Z</time>
      </trkpt>
      <trkpt lat="45.40396" lon="4.47191">
        <ele>974.43</ele>
        <time>2017-04-12T08:20:27Z</time>
      </trkpt>
      <trkpt lat="45.40443" lon="4.4717">
        <ele>974.43</ele>
        <time>2017-04-12T08:20:35Z</time>
      </trkpt>
      <trkpt lat="45.40449" lon="4.47167">
        <ele>974.43</ele>
        <time>2017-04-12T08:20:36Z</time>
      </trkpt>
      <trkpt lat="45.40454" lon="4.47164">
        <ele>974.91</ele>
        <time>2017-04-12T08:20:37Z</time>
      </trkpt>
      <trkpt lat="45.40459" lon="4.4716">
        <ele>974.43</ele>
        <time>2017-04-12T08:20:38Z</time>
      </trkpt>
      <trkpt lat="45.40465" lon="4.47158">
        <ele>974.43</ele>
        <time>2017-04-12T08:20:39Z</time>
      </trkpt>
      <trkpt lat="45.40486" lon="4.47153">
        <ele>974.91</ele>
        <time>2017-04-12T08:20:43Z</time>
      </trkpt>
      <trkpt lat="45.40492" lon="4.47152">
        <ele>974.91</ele>
        <time>2017-04-12T08:20:44Z</time>
      </trkpt>
      <trkpt lat="45.40498" lon="4.47152">
        <ele>974.91</ele>
        <time>2017-04-12T08:20:45Z</time>
      </trkpt>
      <trkpt lat="45.40504" lon="4.47153">
        <ele>975.39</ele>
        <time>2017-04-12T08:20:46Z</time>
      </trkpt>
      <trkpt lat="45.4051" lon="4.47153">
        <ele>974.91</ele>
        <time>2017-04-12T08:20:47Z</time>
      </trkpt>
      <trkpt lat="45.40516" lon="4.47153">
        <ele>975.39</ele>
        <time>2017-04-12T08:20:48Z</time>
      </trkpt>
      <trkpt lat="45.40521" lon="4.47151">
        <ele>975.39</ele>
        <time>2017-04-12T08:20:49Z</time>
      </trkpt>
      <trkpt lat="45.40527" lon="4.4715">
        <ele>975.39</ele>
        <time>2017-04-12T08:20:50Z</time>
      </trkpt>
      <trkpt lat="45.40532" lon="4.47149">
        <ele>975.88</ele>
        <time>2017-04-12T08:20:51Z</time>
      </trkpt>
      <trkpt lat="45.40605" lon="4.4717">
        <ele>976.36</ele>
        <time>2017-04-12T08:21:05Z</time>
      </trkpt>
      <trkpt lat="45.4061" lon="4.47171">
        <ele>976.36</ele>
        <time>2017-04-12T08:21:06Z</time>
      </trkpt>
      <trkpt lat="45.40615" lon="4.47172">
        <ele>976.36</ele>
        <time>2017-04-12T08:21:07Z</time>
      </trkpt>
      <trkpt lat="45.4062" lon="4.47172">
        <ele>976.36</ele>
        <time>2017-04-12T08:21:08Z</time>
      </trkpt>
      <trkpt lat="45.40625" lon="4.47173">
        <ele>976.36</ele>
        <time>2017-04-12T08:21:09Z</time>
      </trkpt>
      <trkpt lat="45.4063" lon="4.47173">
        <ele>975.88</ele>
        <time>2017-04-12T08:21:10Z</time>
      </trkpt>
      <trkpt lat="45.40699" lon="4.47186">
        <ele>975.39</ele>
        <time>2017-04-12T08:21:23Z</time>
      </trkpt>
      <trkpt lat="45.4071" lon="4.47188">
        <ele>975.39</ele>
        <time>2017-04-12T08:21:25Z</time>
      </trkpt>
      <trkpt lat="45.40715" lon="4.47188">
        <ele>974.91</ele>
        <time>2017-04-12T08:21:26Z</time>
      </trkpt>
      <trkpt lat="45.4072" lon="4.47187">
        <ele>974.91</ele>
        <time>2017-04-12T08:21:27Z</time>
      </trkpt>
      <trkpt lat="45.40767" lon="4.4719">
        <ele>974.43</ele>
        <time>2017-04-12T08:21:36Z</time>
      </trkpt>
      <trkpt lat="45.40771" lon="4.4719">
        <ele>974.43</ele>
        <time>2017-04-12T08:21:37Z</time>
      </trkpt>
      <trkpt lat="45.40833" lon="4.47203">
        <ele>973.95</ele>
        <time>2017-04-12T08:21:49Z</time>
      </trkpt>
      <trkpt lat="45.40852" lon="4.47218">
        <ele>973.47</ele>
        <time>2017-04-12T08:21:53Z</time>
      </trkpt>
      <trkpt lat="45.40856" lon="4.47225">
        <ele>973.95</ele>
        <time>2017-04-12T08:21:54Z</time>
      </trkpt>
      <trkpt lat="45.4087" lon="4.47252">
        <ele>973.47</ele>
        <time>2017-04-12T08:21:57Z</time>
      </trkpt>
      <trkpt lat="45.40881" lon="4.4728">
        <ele>973.47</ele>
        <time>2017-04-12T08:22:01Z</time>
      </trkpt>
      <trkpt lat="45.40883" lon="4.47293">
        <ele>973.47</ele>
        <time>2017-04-12T08:22:03Z</time>
      </trkpt>
      <trkpt lat="45.40883" lon="4.47321">
        <ele>973.95</ele>
        <time>2017-04-12T08:22:08Z</time>
      </trkpt>
      <trkpt lat="45.40882" lon="4.47327">
        <ele>973.95</ele>
        <time>2017-04-12T08:22:09Z</time>
      </trkpt>
      <trkpt lat="45.4088" lon="4.47346">
        <ele>974.43</ele>
        <time>2017-04-12T08:22:12Z</time>
      </trkpt>
      <trkpt lat="45.40878" lon="4.47377">
        <ele>973.95</ele>
        <time>2017-04-12T08:22:17Z</time>
      </trkpt>
      <trkpt lat="45.40879" lon="4.47384">
        <ele>973.95</ele>
        <time>2017-04-12T08:22:18Z</time>
      </trkpt>
      <trkpt lat="45.4088" lon="4.47391">
        <ele>973.95</ele>
        <time>2017-04-12T08:22:19Z</time>
      </trkpt>
      <trkpt lat="45.40907" lon="4.4745">
        <ele>973.95</ele>
        <time>2017-04-12T08:22:29Z</time>
      </trkpt>
      <trkpt lat="45.40916" lon="4.47451">
        <ele>973.47</ele>
        <time>2017-04-12T08:22:31Z</time>
      </trkpt>
      <trkpt lat="45.40939" lon="4.47451">
        <ele>971.07</ele>
        <time>2017-04-12T08:22:35Z</time>
      </trkpt>
      <trkpt lat="45.40981" lon="4.47443">
        <ele>968.18</ele>
        <time>2017-04-12T08:22:41Z</time>
      </trkpt>
      <trkpt lat="45.41054" lon="4.47419">
        <ele>964.82</ele>
        <time>2017-04-12T08:22:50Z</time>
      </trkpt>
      <trkpt lat="45.41093" lon="4.47405">
        <ele>962.9</ele>
        <time>2017-04-12T08:22:55Z</time>
      </trkpt>
      <trkpt lat="45.41101" lon="4.47405">
        <ele>963.38</ele>
        <time>2017-04-12T08:22:56Z</time>
      </trkpt>
      <trkpt lat="45.41124" lon="4.47407">
        <ele>962.42</ele>
        <time>2017-04-12T08:22:59Z</time>
      </trkpt>
      <trkpt lat="45.41208" lon="4.4742">
        <ele>961.94</ele>
        <time>2017-04-12T08:23:11Z</time>
      </trkpt>
      <trkpt lat="45.4125" lon="4.47411">
        <ele>963.38</ele>
        <time>2017-04-12T08:23:18Z</time>
      </trkpt>
      <trkpt lat="45.41267" lon="4.47403">
        <ele>963.38</ele>
        <time>2017-04-12T08:23:21Z</time>
      </trkpt>
      <trkpt lat="45.41272" lon="4.47399">
        <ele>962.42</ele>
        <time>2017-04-12T08:23:22Z</time>
      </trkpt>
      <trkpt lat="45.41278" lon="4.47396">
        <ele>961.94</ele>
        <time>2017-04-12T08:23:23Z</time>
      </trkpt>
      <trkpt lat="45.41291" lon="4.47389">
        <ele>960.49</ele>
        <time>2017-04-12T08:23:25Z</time>
      </trkpt>
      <trkpt lat="45.4133" lon="4.47382">
        <ele>957.13</ele>
        <time>2017-04-12T08:23:30Z</time>
      </trkpt>
      <trkpt lat="45.41346" lon="4.47385">
        <ele>954.25</ele>
        <time>2017-04-12T08:23:32Z</time>
      </trkpt>
      <trkpt lat="45.41353" lon="4.47388">
        <ele>953.28</ele>
        <time>2017-04-12T08:23:33Z</time>
      </trkpt>
      <trkpt lat="45.4136" lon="4.47393">
        <ele>952.32</ele>
        <time>2017-04-12T08:23:34Z</time>
      </trkpt>
      <trkpt lat="45.41366" lon="4.474">
        <ele>951.36</ele>
        <time>2017-04-12T08:23:35Z</time>
      </trkpt>
      <trkpt lat="45.41372" lon="4.47408">
        <ele>950.4</ele>
        <time>2017-04-12T08:23:36Z</time>
      </trkpt>
      <trkpt lat="45.41378" lon="4.47416">
        <ele>949.44</ele>
        <time>2017-04-12T08:23:37Z</time>
      </trkpt>
      <trkpt lat="45.41384" lon="4.47425">
        <ele>948</ele>
        <time>2017-04-12T08:23:38Z</time>
      </trkpt>
      <trkpt lat="45.41389" lon="4.47436">
        <ele>948</ele>
        <time>2017-04-12T08:23:39Z</time>
      </trkpt>
      <trkpt lat="45.41398" lon="4.47455">
        <ele>945.11</ele>
        <time>2017-04-12T08:23:41Z</time>
      </trkpt>
      <trkpt lat="45.41403" lon="4.47461">
        <ele>944.63</ele>
        <time>2017-04-12T08:23:42Z</time>
      </trkpt>
      <trkpt lat="45.41409" lon="4.47464">
        <ele>943.67</ele>
        <time>2017-04-12T08:23:43Z</time>
      </trkpt>
      <trkpt lat="45.41415" lon="4.47465">
        <ele>944.15</ele>
        <time>2017-04-12T08:23:44Z</time>
      </trkpt>
      <trkpt lat="45.41421" lon="4.47463">
        <ele>943.67</ele>
        <time>2017-04-12T08:23:45Z</time>
      </trkpt>
      <trkpt lat="45.41426" lon="4.4746">
        <ele>943.19</ele>
        <time>2017-04-12T08:23:46Z</time>
      </trkpt>
      <trkpt lat="45.41432" lon="4.47456">
        <ele>943.67</ele>
        <time>2017-04-12T08:23:47Z</time>
      </trkpt>
      <trkpt lat="45.41494" lon="4.47404">
        <ele>945.11</ele>
        <time>2017-04-12T08:23:58Z</time>
      </trkpt>
      <trkpt lat="45.41542" lon="4.47372">
        <ele>947.04</ele>
        <time>2017-04-12T08:24:08Z</time>
      </trkpt>
      <trkpt lat="45.41624" lon="4.47331">
        <ele>947.04</ele>
        <time>2017-04-12T08:24:25Z</time>
      </trkpt>
      <trkpt lat="45.41639" lon="4.47326">
        <ele>947.52</ele>
        <time>2017-04-12T08:24:28Z</time>
      </trkpt>
      <trkpt lat="45.41644" lon="4.47325">
        <ele>947.52</ele>
        <time>2017-04-12T08:24:29Z</time>
      </trkpt>
      <trkpt lat="45.41648" lon="4.47325">
        <ele>948</ele>
        <time>2017-04-12T08:24:30Z</time>
      </trkpt>
      <trkpt lat="45.41653" lon="4.47325">
        <ele>947.52</ele>
        <time>2017-04-12T08:24:31Z</time>
      </trkpt>
      <trkpt lat="45.41657" lon="4.47325">
        <ele>948</ele>
        <time>2017-04-12T08:24:32Z</time>
      </trkpt>
      <trkpt lat="45.41688" lon="4.47329">
        <ele>948.48</ele>
        <time>2017-04-12T08:24:40Z</time>
      </trkpt>
      <trkpt lat="45.41697" lon="4.47331">
        <ele>948.48</ele>
        <time>2017-04-12T08:24:42Z</time>
      </trkpt>
      <trkpt lat="45.41776" lon="4.47388">
        <ele>945.59</ele>
        <time>2017-04-12T08:24:58Z</time>
      </trkpt>
      <trkpt lat="45.41851" lon="4.4749">
        <ele>944.15</ele>
        <time>2017-04-12T08:25:14Z</time>
      </trkpt>
      <trkpt lat="45.41854" lon="4.47496">
        <ele>944.63</ele>
        <time>2017-04-12T08:25:15Z</time>
      </trkpt>
      <trkpt lat="45.41871" lon="4.47538">
        <ele>947.52</ele>
        <time>2017-04-12T08:25:25Z</time>
      </trkpt>
      <trkpt lat="45.41888" lon="4.47569">
        <ele>949.92</ele>
        <time>2017-04-12T08:25:37Z</time>
      </trkpt>
      <trkpt lat="45.41911" lon="4.47592">
        <ele>951.84</ele>
        <time>2017-04-12T08:25:49Z</time>
      </trkpt>
      <trkpt lat="45.41954" lon="4.47614">
        <ele>951.84</ele>
        <time>2017-04-12T08:26:02Z</time>
      </trkpt>
      <trkpt lat="45.41958" lon="4.47615">
        <ele>951.36</ele>
        <time>2017-04-12T08:26:03Z</time>
      </trkpt>
      <trkpt lat="45.42015" lon="4.47615">
        <ele>950.88</ele>
        <time>2017-04-12T08:26:15Z</time>
      </trkpt>
      <trkpt lat="45.42023" lon="4.47612">
        <ele>951.36</ele>
        <time>2017-04-12T08:26:17Z</time>
      </trkpt>
      <trkpt lat="45.42038" lon="4.47601">
        <ele>950.88</ele>
        <time>2017-04-12T08:26:21Z</time>
      </trkpt>
      <trkpt lat="45.42068" lon="4.47587">
        <ele>950.4</ele>
        <time>2017-04-12T08:26:27Z</time>
      </trkpt>
      <trkpt lat="45.42125" lon="4.47563">
        <ele>950.88</ele>
        <time>2017-04-12T08:26:39Z</time>
      </trkpt>
      <trkpt lat="45.4213" lon="4.4756">
        <ele>950.88</ele>
        <time>2017-04-12T08:26:40Z</time>
      </trkpt>
      <trkpt lat="45.42176" lon="4.4753">
        <ele>951.36</ele>
        <time>2017-04-12T08:26:50Z</time>
      </trkpt>
      <trkpt lat="45.42181" lon="4.47529">
        <ele>951.36</ele>
        <time>2017-04-12T08:26:51Z</time>
      </trkpt>
      <trkpt lat="45.42186" lon="4.47529">
        <ele>951.36</ele>
        <time>2017-04-12T08:26:52Z</time>
      </trkpt>
      <trkpt lat="45.42189" lon="4.47531">
        <ele>951.84</ele>
        <time>2017-04-12T08:26:53Z</time>
      </trkpt>
      <trkpt lat="45.42193" lon="4.47533">
        <ele>952.32</ele>
        <time>2017-04-12T08:26:54Z</time>
      </trkpt>
      <trkpt lat="45.42196" lon="4.47535">
        <ele>952.8</ele>
        <time>2017-04-12T08:26:55Z</time>
      </trkpt>
      <trkpt lat="45.42207" lon="4.47543">
        <ele>953.28</ele>
        <time>2017-04-12T08:26:59Z</time>
      </trkpt>
      <trkpt lat="45.42209" lon="4.47547">
        <ele>953.28</ele>
        <time>2017-04-12T08:27:00Z</time>
      </trkpt>
      <trkpt lat="45.4221" lon="4.4755">
        <ele>953.28</ele>
        <time>2017-04-12T08:27:01Z</time>
      </trkpt>
      <trkpt lat="45.42209" lon="4.47554">
        <ele>953.77</ele>
        <time>2017-04-12T08:27:02Z</time>
      </trkpt>
      <trkpt lat="45.42208" lon="4.47557">
        <ele>953.28</ele>
        <time>2017-04-12T08:27:03Z</time>
      </trkpt>
      <trkpt lat="45.4219" lon="4.47594">
        <ele>956.17</ele>
        <time>2017-04-12T08:27:16Z</time>
      </trkpt>
      <trkpt lat="45.42176" lon="4.4762">
        <ele>959.05</ele>
        <time>2017-04-12T08:27:28Z</time>
      </trkpt>
      <trkpt lat="45.42175" lon="4.47622">
        <ele>959.05</ele>
        <time>2017-04-12T08:27:29Z</time>
      </trkpt>
      <trkpt lat="45.42159" lon="4.47644">
        <ele>961.46</ele>
        <time>2017-04-12T08:27:43Z</time>
      </trkpt>
      <trkpt lat="45.42147" lon="4.47667">
        <ele>963.86</ele>
        <time>2017-04-12T08:27:57Z</time>
      </trkpt>
      <trkpt lat="45.42146" lon="4.47668">
        <ele>963.86</ele>
        <time>2017-04-12T08:27:58Z</time>
      </trkpt>
      <trkpt lat="45.42145" lon="4.4767">
        <ele>964.34</ele>
        <time>2017-04-12T08:27:59Z</time>
      </trkpt>
      <trkpt lat="45.42144" lon="4.47671">
        <ele>964.34</ele>
        <time>2017-04-12T08:28:00Z</time>
      </trkpt>
      <trkpt lat="45.42143" lon="4.47672">
        <ele>964.34</ele>
        <time>2017-04-12T08:28:01Z</time>
      </trkpt>
      <trkpt lat="45.42142" lon="4.47674">
        <ele>964.82</ele>
        <time>2017-04-12T08:28:02Z</time>
      </trkpt>
      <trkpt lat="45.42141" lon="4.47675">
        <ele>964.82</ele>
        <time>2017-04-12T08:28:03Z</time>
      </trkpt>
      <trkpt lat="45.42125" lon="4.47698">
        <ele>967.22</ele>
        <time>2017-04-12T08:28:18Z</time>
      </trkpt>
      <trkpt lat="45.42125" lon="4.477">
        <ele>967.22</ele>
        <time>2017-04-12T08:28:19Z</time>
      </trkpt>
      <trkpt lat="45.42124" lon="4.47701">
        <ele>967.22</ele>
        <time>2017-04-12T08:28:20Z</time>
      </trkpt>
      <trkpt lat="45.42123" lon="4.47703">
        <ele>967.7</ele>
        <time>2017-04-12T08:28:21Z</time>
      </trkpt>
      <trkpt lat="45.42122" lon="4.47704">
        <ele>967.7</ele>
        <time>2017-04-12T08:28:22Z</time>
      </trkpt>
      <trkpt lat="45.42121" lon="4.47705">
        <ele>968.18</ele>
        <time>2017-04-12T08:28:23Z</time>
      </trkpt>
      <trkpt lat="45.42114" lon="4.47714">
        <ele>969.15</ele>
        <time>2017-04-12T08:28:30Z</time>
      </trkpt>
      <trkpt lat="45.4211" lon="4.47725">
        <ele>970.59</ele>
        <time>2017-04-12T08:28:37Z</time>
      </trkpt>
      <trkpt lat="45.42109" lon="4.47727">
        <ele>970.59</ele>
        <time>2017-04-12T08:28:38Z</time>
      </trkpt>
      <trkpt lat="45.42104" lon="4.47746">
        <ele>973.47</ele>
        <time>2017-04-12T08:28:52Z</time>
      </trkpt>
      <trkpt lat="45.42096" lon="4.47762">
        <ele>976.36</ele>
        <time>2017-04-12T08:29:05Z</time>
      </trkpt>
      <trkpt lat="45.42088" lon="4.4778">
        <ele>978.76</ele>
        <time>2017-04-12T08:29:19Z</time>
      </trkpt>
      <trkpt lat="45.4208" lon="4.47793">
        <ele>981.16</ele>
        <time>2017-04-12T08:29:32Z</time>
      </trkpt>
      <trkpt lat="45.42072" lon="4.47803">
        <ele>983.57</ele>
        <time>2017-04-12T08:29:44Z</time>
      </trkpt>
      <trkpt lat="45.42064" lon="4.47815">
        <ele>985.49</ele>
        <time>2017-04-12T08:29:56Z</time>
      </trkpt>
      <trkpt lat="45.42064" lon="4.47816">
        <ele>985.97</ele>
        <time>2017-04-12T08:29:57Z</time>
      </trkpt>
      <trkpt lat="45.42055" lon="4.4783">
        <ele>988.37</ele>
        <time>2017-04-12T08:30:09Z</time>
      </trkpt>
      <trkpt lat="45.42046" lon="4.47844">
        <ele>990.78</ele>
        <time>2017-04-12T08:30:21Z</time>
      </trkpt>
      <trkpt lat="45.42037" lon="4.47858">
        <ele>992.7</ele>
        <time>2017-04-12T08:30:35Z</time>
      </trkpt>
      <trkpt lat="45.4203" lon="4.47875">
        <ele>995.58</ele>
        <time>2017-04-12T08:30:49Z</time>
      </trkpt>
      <trkpt lat="45.42029" lon="4.47878">
        <ele>996.06</ele>
        <time>2017-04-12T08:30:52Z</time>
      </trkpt>
      <trkpt lat="45.42021" lon="4.47892">
        <ele>998.95</ele>
        <time>2017-04-12T08:31:06Z</time>
      </trkpt>
      <trkpt lat="45.42008" lon="4.47905">
        <ele>1001.83</ele>
        <time>2017-04-12T08:31:22Z</time>
      </trkpt>
      <trkpt lat="45.42" lon="4.47909">
        <ele>1004.72</ele>
        <time>2017-04-12T08:31:34Z</time>
      </trkpt>
      <trkpt lat="45.41993" lon="4.47914">
        <ele>1005.68</ele>
        <time>2017-04-12T08:31:41Z</time>
      </trkpt>
      <trkpt lat="45.4198" lon="4.4792">
        <ele>1008.56</ele>
        <time>2017-04-12T08:31:55Z</time>
      </trkpt>
      <trkpt lat="45.41968" lon="4.47925">
        <ele>1011.44</ele>
        <time>2017-04-12T08:32:09Z</time>
      </trkpt>
      <trkpt lat="45.41956" lon="4.47928">
        <ele>1012.89</ele>
        <time>2017-04-12T08:32:22Z</time>
      </trkpt>
      <trkpt lat="45.41943" lon="4.47933">
        <ele>1015.29</ele>
        <time>2017-04-12T08:32:36Z</time>
      </trkpt>
      <trkpt lat="45.41932" lon="4.47938">
        <ele>1016.73</ele>
        <time>2017-04-12T08:32:47Z</time>
      </trkpt>
      <trkpt lat="45.4193" lon="4.47939">
        <ele>1017.21</ele>
        <time>2017-04-12T08:32:49Z</time>
      </trkpt>
      <trkpt lat="45.41926" lon="4.4794">
        <ele>1017.69</ele>
        <time>2017-04-12T08:32:52Z</time>
      </trkpt>
      <trkpt lat="45.41913" lon="4.47943">
        <ele>1020.1</ele>
        <time>2017-04-12T08:33:05Z</time>
      </trkpt>
      <trkpt lat="45.419" lon="4.47947">
        <ele>1022.98</ele>
        <time>2017-04-12T08:33:18Z</time>
      </trkpt>
      <trkpt lat="45.41883" lon="4.47952">
        <ele>1025.86</ele>
        <time>2017-04-12T08:33:34Z</time>
      </trkpt>
      <trkpt lat="45.41873" lon="4.47958">
        <ele>1027.31</ele>
        <time>2017-04-12T08:33:46Z</time>
      </trkpt>
      <trkpt lat="45.41861" lon="4.47963">
        <ele>1029.71</ele>
        <time>2017-04-12T08:33:58Z</time>
      </trkpt>
      <trkpt lat="45.41854" lon="4.47968">
        <ele>1031.15</ele>
        <time>2017-04-12T08:34:05Z</time>
      </trkpt>
      <trkpt lat="45.41839" lon="4.47976">
        <ele>1033.07</ele>
        <time>2017-04-12T08:34:19Z</time>
      </trkpt>
      <trkpt lat="45.41824" lon="4.47984">
        <ele>1035.48</ele>
        <time>2017-04-12T08:34:32Z</time>
      </trkpt>
      <trkpt lat="45.41806" lon="4.48">
        <ele>1037.88</ele>
        <time>2017-04-12T08:34:46Z</time>
      </trkpt>
      <trkpt lat="45.4179" lon="4.48017">
        <ele>1040.28</ele>
        <time>2017-04-12T08:34:59Z</time>
      </trkpt>
      <trkpt lat="45.41782" lon="4.48028">
        <ele>1041.73</ele>
        <time>2017-04-12T08:35:07Z</time>
      </trkpt>
      <trkpt lat="45.41779" lon="4.4803">
        <ele>1041.73</ele>
        <time>2017-04-12T08:35:09Z</time>
      </trkpt>
      <trkpt lat="45.41772" lon="4.48043">
        <ele>1043.17</ele>
        <time>2017-04-12T08:35:18Z</time>
      </trkpt>
      <trkpt lat="45.4177" lon="4.48047">
        <ele>1043.65</ele>
        <time>2017-04-12T08:35:21Z</time>
      </trkpt>
      <trkpt lat="45.41758" lon="4.48058">
        <ele>1045.09</ele>
        <time>2017-04-12T08:35:33Z</time>
      </trkpt>
      <trkpt lat="45.41748" lon="4.48055">
        <ele>1046.53</ele>
        <time>2017-04-12T08:35:42Z</time>
      </trkpt>
      <trkpt lat="45.41747" lon="4.48054">
        <ele>1046.53</ele>
        <time>2017-04-12T08:35:43Z</time>
      </trkpt>
      <trkpt lat="45.41746" lon="4.48053">
        <ele>1047.01</ele>
        <time>2017-04-12T08:35:44Z</time>
      </trkpt>
      <trkpt lat="45.41728" lon="4.48042">
        <ele>1048.45</ele>
        <time>2017-04-12T08:35:57Z</time>
      </trkpt>
      <trkpt lat="45.41697" lon="4.48024">
        <ele>1050.38</ele>
        <time>2017-04-12T08:36:14Z</time>
      </trkpt>
      <trkpt lat="45.41673" lon="4.48013">
        <ele>1052.78</ele>
        <time>2017-04-12T08:36:29Z</time>
      </trkpt>
      <trkpt lat="45.41647" lon="4.48001">
        <ele>1054.7</ele>
        <time>2017-04-12T08:36:44Z</time>
      </trkpt>
      <trkpt lat="45.41615" lon="4.47992">
        <ele>1056.63</ele>
        <time>2017-04-12T08:36:59Z</time>
      </trkpt>
      <trkpt lat="45.41613" lon="4.47992">
        <ele>1056.63</ele>
        <time>2017-04-12T08:37:00Z</time>
      </trkpt>
      <trkpt lat="45.41611" lon="4.47992">
        <ele>1056.63</ele>
        <time>2017-04-12T08:37:01Z</time>
      </trkpt>
      <trkpt lat="45.41608" lon="4.47992">
        <ele>1056.63</ele>
        <time>2017-04-12T08:37:02Z</time>
      </trkpt>
      <trkpt lat="45.41606" lon="4.47992">
        <ele>1056.63</ele>
        <time>2017-04-12T08:37:03Z</time>
      </trkpt>
      <trkpt lat="45.41603" lon="4.47991">
        <ele>1056.63</ele>
        <time>2017-04-12T08:37:04Z</time>
      </trkpt>
      <trkpt lat="45.41574" lon="4.48012">
        <ele>1055.67</ele>
        <time>2017-04-12T08:37:15Z</time>
      </trkpt>
      <trkpt lat="45.41527" lon="4.48048">
        <ele>1054.22</ele>
        <time>2017-04-12T08:37:29Z</time>
      </trkpt>
      <trkpt lat="45.41487" lon="4.48067">
        <ele>1052.3</ele>
        <time>2017-04-12T08:37:36Z</time>
      </trkpt>
      <trkpt lat="45.41469" lon="4.4808">
        <ele>1051.34</ele>
        <time>2017-04-12T08:37:39Z</time>
      </trkpt>
      <trkpt lat="45.41457" lon="4.4809">
        <ele>1050.86</ele>
        <time>2017-04-12T08:37:41Z</time>
      </trkpt>
      <trkpt lat="45.4145" lon="4.48092">
        <ele>1049.9</ele>
        <time>2017-04-12T08:37:42Z</time>
      </trkpt>
      <trkpt lat="45.41442" lon="4.48093">
        <ele>1048.94</ele>
        <time>2017-04-12T08:37:43Z</time>
      </trkpt>
      <trkpt lat="45.41435" lon="4.48096">
        <ele>1049.42</ele>
        <time>2017-04-12T08:37:44Z</time>
      </trkpt>
      <trkpt lat="45.41428" lon="4.481">
        <ele>1048.45</ele>
        <time>2017-04-12T08:37:45Z</time>
      </trkpt>
      <trkpt lat="45.41422" lon="4.48104">
        <ele>1047.97</ele>
        <time>2017-04-12T08:37:46Z</time>
      </trkpt>
      <trkpt lat="45.41417" lon="4.48106">
        <ele>1047.01</ele>
        <time>2017-04-12T08:37:47Z</time>
      </trkpt>
      <trkpt lat="45.41412" lon="4.48106">
        <ele>1047.01</ele>
        <time>2017-04-12T08:37:48Z</time>
      </trkpt>
      <trkpt lat="45.41405" lon="4.48105">
        <ele>1046.05</ele>
        <time>2017-04-12T08:37:49Z</time>
      </trkpt>
      <trkpt lat="45.41391" lon="4.48102">
        <ele>1044.13</ele>
        <time>2017-04-12T08:37:51Z</time>
      </trkpt>
      <trkpt lat="45.41375" lon="4.48096">
        <ele>1042.69</ele>
        <time>2017-04-12T08:37:53Z</time>
      </trkpt>
      <trkpt lat="45.41358" lon="4.48086">
        <ele>1041.25</ele>
        <time>2017-04-12T08:37:55Z</time>
      </trkpt>
      <trkpt lat="45.4135" lon="4.4808">
        <ele>1040.28</ele>
        <time>2017-04-12T08:37:56Z</time>
      </trkpt>
      <trkpt lat="45.41342" lon="4.48073">
        <ele>1039.32</ele>
        <time>2017-04-12T08:37:57Z</time>
      </trkpt>
      <trkpt lat="45.41334" lon="4.48066">
        <ele>1038.84</ele>
        <time>2017-04-12T08:37:58Z</time>
      </trkpt>
      <trkpt lat="45.41326" lon="4.48058">
        <ele>1038.84</ele>
        <time>2017-04-12T08:37:59Z</time>
      </trkpt>
      <trkpt lat="45.41319" lon="4.4805">
        <ele>1038.36</ele>
        <time>2017-04-12T08:38:00Z</time>
      </trkpt>
      <trkpt lat="45.41293" lon="4.48026">
        <ele>1037.88</ele>
        <time>2017-04-12T08:38:04Z</time>
      </trkpt>
      <trkpt lat="45.41263" lon="4.48006">
        <ele>1038.36</ele>
        <time>2017-04-12T08:38:09Z</time>
      </trkpt>
      <trkpt lat="45.41226" lon="4.47988">
        <ele>1039.8</ele>
        <time>2017-04-12T08:38:18Z</time>
      </trkpt>
      <trkpt lat="45.41224" lon="4.47988">
        <ele>1040.28</ele>
        <time>2017-04-12T08:38:19Z</time>
      </trkpt>
      <trkpt lat="45.41204" lon="4.47984">
        <ele>1043.17</ele>
        <time>2017-04-12T08:38:29Z</time>
      </trkpt>
      <trkpt lat="45.41202" lon="4.47984">
        <ele>1043.17</ele>
        <time>2017-04-12T08:38:30Z</time>
      </trkpt>
      <trkpt lat="45.41201" lon="4.47983">
        <ele>1043.17</ele>
        <time>2017-04-12T08:38:31Z</time>
      </trkpt>
      <trkpt lat="45.41197" lon="4.47982">
        <ele>1043.65</ele>
        <time>2017-04-12T08:38:34Z</time>
      </trkpt>
      <trkpt lat="45.41196" lon="4.47982">
        <ele>1044.13</ele>
        <time>2017-04-12T08:38:35Z</time>
      </trkpt>
      <trkpt lat="45.41195" lon="4.47982">
        <ele>1044.13</ele>
        <time>2017-04-12T08:38:36Z</time>
      </trkpt>
      <trkpt lat="45.41185" lon="4.47977">
        <ele>1045.57</ele>
        <time>2017-04-12T08:38:49Z</time>
      </trkpt>
      <trkpt lat="45.41179" lon="4.47974">
        <ele>1046.53</ele>
        <time>2017-04-12T08:39:05Z</time>
      </trkpt>
      <trkpt lat="45.41176" lon="4.47971">
        <ele>1047.01</ele>
        <time>2017-04-12T08:39:09Z</time>
      </trkpt>
      <trkpt lat="45.41175" lon="4.4797">
        <ele>1047.49</ele>
        <time>2017-04-12T08:39:10Z</time>
      </trkpt>
      <trkpt lat="45.41174" lon="4.47969">
        <ele>1047.49</ele>
        <time>2017-04-12T08:39:11Z</time>
      </trkpt>
      <trkpt lat="45.41173" lon="4.47968">
        <ele>1047.49</ele>
        <time>2017-04-12T08:39:12Z</time>
      </trkpt>
      <trkpt lat="45.41171" lon="4.47967">
        <ele>1047.49</ele>
        <time>2017-04-12T08:39:13Z</time>
      </trkpt>
      <trkpt lat="45.41157" lon="4.47956">
        <ele>1050.86</ele>
        <time>2017-04-12T08:39:27Z</time>
      </trkpt>
      <trkpt lat="45.41154" lon="4.47955">
        <ele>1051.34</ele>
        <time>2017-04-12T08:39:31Z</time>
      </trkpt>
      <trkpt lat="45.41153" lon="4.47954">
        <ele>1051.82</ele>
        <time>2017-04-12T08:39:32Z</time>
      </trkpt>
      <trkpt lat="45.41144" lon="4.47948">
        <ele>1053.74</ele>
        <time>2017-04-12T08:39:41Z</time>
      </trkpt>
      <trkpt lat="45.41143" lon="4.47947">
        <ele>1053.74</ele>
        <time>2017-04-12T08:39:42Z</time>
      </trkpt>
      <trkpt lat="45.4113" lon="4.47936">
        <ele>1056.63</ele>
        <time>2017-04-12T08:39:56Z</time>
      </trkpt>
      <trkpt lat="45.41118" lon="4.47925">
        <ele>1059.51</ele>
        <time>2017-04-12T08:40:10Z</time>
      </trkpt>
      <trkpt lat="45.41107" lon="4.47912">
        <ele>1062.39</ele>
        <time>2017-04-12T08:40:25Z</time>
      </trkpt>
      <trkpt lat="45.41097" lon="4.479">
        <ele>1062.87</ele>
        <time>2017-04-12T08:40:37Z</time>
      </trkpt>
      <trkpt lat="45.41088" lon="4.47893">
        <ele>1066.24</ele>
        <time>2017-04-12T08:40:47Z</time>
      </trkpt>
      <trkpt lat="45.41072" lon="4.47885">
        <ele>1068.16</ele>
        <time>2017-04-12T08:41:02Z</time>
      </trkpt>
      <trkpt lat="45.41066" lon="4.47886">
        <ele>1069.6</ele>
        <time>2017-04-12T08:41:08Z</time>
      </trkpt>
      <trkpt lat="45.4105" lon="4.47888">
        <ele>1072.49</ele>
        <time>2017-04-12T08:41:23Z</time>
      </trkpt>
      <trkpt lat="45.41044" lon="4.4789">
        <ele>1073.45</ele>
        <time>2017-04-12T08:41:28Z</time>
      </trkpt>
      <trkpt lat="45.41027" lon="4.47901">
        <ele>1075.85</ele>
        <time>2017-04-12T08:41:43Z</time>
      </trkpt>
      <trkpt lat="45.41012" lon="4.47908">
        <ele>1077.78</ele>
        <time>2017-04-12T08:41:56Z</time>
      </trkpt>
      <trkpt lat="45.4101" lon="4.47909">
        <ele>1078.26</ele>
        <time>2017-04-12T08:41:58Z</time>
      </trkpt>
      <trkpt lat="45.40989" lon="4.47919">
        <ele>1080.18</ele>
        <time>2017-04-12T08:42:14Z</time>
      </trkpt>
      <trkpt lat="45.40966" lon="4.47927">
        <ele>1081.62</ele>
        <time>2017-04-12T08:42:27Z</time>
      </trkpt>
      <trkpt lat="45.40938" lon="4.47931">
        <ele>1082.1</ele>
        <time>2017-04-12T08:42:41Z</time>
      </trkpt>
      <trkpt lat="45.40907" lon="4.47935">
        <ele>1080.18</ele>
        <time>2017-04-12T08:42:51Z</time>
      </trkpt>
      <trkpt lat="45.40853" lon="4.47926">
        <ele>1081.14</ele>
        <time>2017-04-12T08:43:05Z</time>
      </trkpt>
      <trkpt lat="45.40825" lon="4.4791">
        <ele>1084.02</ele>
        <time>2017-04-12T08:43:16Z</time>
      </trkpt>
      <trkpt lat="45.40779" lon="4.47878">
        <ele>1083.54</ele>
        <time>2017-04-12T08:43:30Z</time>
      </trkpt>
      <trkpt lat="45.40763" lon="4.47863">
        <ele>1081.62</ele>
        <time>2017-04-12T08:43:34Z</time>
      </trkpt>
      <trkpt lat="45.40715" lon="4.47825">
        <ele>1077.78</ele>
        <time>2017-04-12T08:43:43Z</time>
      </trkpt>
      <trkpt lat="45.40708" lon="4.47819">
        <ele>1077.78</ele>
        <time>2017-04-12T08:43:44Z</time>
      </trkpt>
      <trkpt lat="45.40695" lon="4.47806">
        <ele>1076.81</ele>
        <time>2017-04-12T08:43:46Z</time>
      </trkpt>
      <trkpt lat="45.40688" lon="4.47801">
        <ele>1075.85</ele>
        <time>2017-04-12T08:43:47Z</time>
      </trkpt>
      <trkpt lat="45.4068" lon="4.47797">
        <ele>1074.89</ele>
        <time>2017-04-12T08:43:48Z</time>
      </trkpt>
      <trkpt lat="45.40672" lon="4.47794">
        <ele>1074.41</ele>
        <time>2017-04-12T08:43:49Z</time>
      </trkpt>
      <trkpt lat="45.40665" lon="4.47791">
        <ele>1074.41</ele>
        <time>2017-04-12T08:43:50Z</time>
      </trkpt>
      <trkpt lat="45.40657" lon="4.47787">
        <ele>1073.93</ele>
        <time>2017-04-12T08:43:51Z</time>
      </trkpt>
      <trkpt lat="45.40642" lon="4.4778">
        <ele>1072.97</ele>
        <time>2017-04-12T08:43:53Z</time>
      </trkpt>
      <trkpt lat="45.40634" lon="4.47775">
        <ele>1072.49</ele>
        <time>2017-04-12T08:43:54Z</time>
      </trkpt>
      <trkpt lat="45.40592" lon="4.47747">
        <ele>1072.49</ele>
        <time>2017-04-12T08:44:00Z</time>
      </trkpt>
      <trkpt lat="45.40559" lon="4.47734">
        <ele>1072.49</ele>
        <time>2017-04-12T08:44:05Z</time>
      </trkpt>
      <trkpt lat="45.40553" lon="4.47733">
        <ele>1072.97</ele>
        <time>2017-04-12T08:44:06Z</time>
      </trkpt>
      <trkpt lat="45.40547" lon="4.47732">
        <ele>1072.49</ele>
        <time>2017-04-12T08:44:07Z</time>
      </trkpt>
      <trkpt lat="45.40542" lon="4.47729">
        <ele>1072.49</ele>
        <time>2017-04-12T08:44:08Z</time>
      </trkpt>
      <trkpt lat="45.40535" lon="4.47727">
        <ele>1072.01</ele>
        <time>2017-04-12T08:44:09Z</time>
      </trkpt>
      <trkpt lat="45.40523" lon="4.47721">
        <ele>1071.05</ele>
        <time>2017-04-12T08:44:11Z</time>
      </trkpt>
      <trkpt lat="45.40517" lon="4.47718">
        <ele>1070.57</ele>
        <time>2017-04-12T08:44:12Z</time>
      </trkpt>
      <trkpt lat="45.4051" lon="4.47717">
        <ele>1069.12</ele>
        <time>2017-04-12T08:44:13Z</time>
      </trkpt>
      <trkpt lat="45.40503" lon="4.47716">
        <ele>1068.16</ele>
        <time>2017-04-12T08:44:14Z</time>
      </trkpt>
      <trkpt lat="45.40495" lon="4.47716">
        <ele>1067.2</ele>
        <time>2017-04-12T08:44:15Z</time>
      </trkpt>
      <trkpt lat="45.40477" lon="4.47716">
        <ele>1066.24</ele>
        <time>2017-04-12T08:44:17Z</time>
      </trkpt>
      <trkpt lat="45.40448" lon="4.47714">
        <ele>1062.39</ele>
        <time>2017-04-12T08:44:20Z</time>
      </trkpt>
      <trkpt lat="45.40439" lon="4.47712">
        <ele>1062.39</ele>
        <time>2017-04-12T08:44:21Z</time>
      </trkpt>
      <trkpt lat="45.40403" lon="4.47706">
        <ele>1061.43</ele>
        <time>2017-04-12T08:44:25Z</time>
      </trkpt>
      <trkpt lat="45.40395" lon="4.47707">
        <ele>1061.43</ele>
        <time>2017-04-12T08:44:26Z</time>
      </trkpt>
      <trkpt lat="45.40388" lon="4.47708">
        <ele>1061.43</ele>
        <time>2017-04-12T08:44:27Z</time>
      </trkpt>
      <trkpt lat="45.40381" lon="4.47711">
        <ele>1061.43</ele>
        <time>2017-04-12T08:44:28Z</time>
      </trkpt>
      <trkpt lat="45.40374" lon="4.47715">
        <ele>1060.95</ele>
        <time>2017-04-12T08:44:29Z</time>
      </trkpt>
      <trkpt lat="45.40353" lon="4.47722">
        <ele>1060.47</ele>
        <time>2017-04-12T08:44:32Z</time>
      </trkpt>
      <trkpt lat="45.40347" lon="4.47723">
        <ele>1060.95</ele>
        <time>2017-04-12T08:44:33Z</time>
      </trkpt>
      <trkpt lat="45.40289" lon="4.47735">
        <ele>1057.59</ele>
        <time>2017-04-12T08:44:41Z</time>
      </trkpt>
      <trkpt lat="45.40281" lon="4.47738">
        <ele>1057.59</ele>
        <time>2017-04-12T08:44:42Z</time>
      </trkpt>
      <trkpt lat="45.40264" lon="4.47741">
        <ele>1055.67</ele>
        <time>2017-04-12T08:44:44Z</time>
      </trkpt>
      <trkpt lat="45.40256" lon="4.47741">
        <ele>1055.18</ele>
        <time>2017-04-12T08:44:45Z</time>
      </trkpt>
      <trkpt lat="45.40248" lon="4.4774">
        <ele>1055.67</ele>
        <time>2017-04-12T08:44:46Z</time>
      </trkpt>
      <trkpt lat="45.40239" lon="4.47738">
        <ele>1055.18</ele>
        <time>2017-04-12T08:44:47Z</time>
      </trkpt>
      <trkpt lat="45.4023" lon="4.47737">
        <ele>1054.22</ele>
        <time>2017-04-12T08:44:48Z</time>
      </trkpt>
      <trkpt lat="45.40206" lon="4.47734">
        <ele>1052.78</ele>
        <time>2017-04-12T08:44:51Z</time>
      </trkpt>
      <trkpt lat="45.4014" lon="4.47728">
        <ele>1049.42</ele>
        <time>2017-04-12T08:44:59Z</time>
      </trkpt>
      <trkpt lat="45.40059" lon="4.47701">
        <ele>1047.01</ele>
        <time>2017-04-12T08:45:09Z</time>
      </trkpt>
      <trkpt lat="45.40036" lon="4.47693">
        <ele>1046.05</ele>
        <time>2017-04-12T08:45:12Z</time>
      </trkpt>
      <trkpt lat="45.40009" lon="4.47682">
        <ele>1045.09</ele>
        <time>2017-04-12T08:45:16Z</time>
      </trkpt>
      <trkpt lat="45.3997" lon="4.47652">
        <ele>1043.65</ele>
        <time>2017-04-12T08:45:22Z</time>
      </trkpt>
      <trkpt lat="45.39964" lon="4.47649">
        <ele>1043.65</ele>
        <time>2017-04-12T08:45:23Z</time>
      </trkpt>
      <trkpt lat="45.39957" lon="4.47646">
        <ele>1043.17</ele>
        <time>2017-04-12T08:45:24Z</time>
      </trkpt>
      <trkpt lat="45.39921" lon="4.47624">
        <ele>1043.17</ele>
        <time>2017-04-12T08:45:30Z</time>
      </trkpt>
      <trkpt lat="45.399" lon="4.47609">
        <ele>1043.17</ele>
        <time>2017-04-12T08:45:34Z</time>
      </trkpt>
      <trkpt lat="45.39862" lon="4.47589">
        <ele>1044.13</ele>
        <time>2017-04-12T08:45:42Z</time>
      </trkpt>
      <trkpt lat="45.39858" lon="4.47587">
        <ele>1044.13</ele>
        <time>2017-04-12T08:45:43Z</time>
      </trkpt>
      <trkpt lat="45.3983" lon="4.47573">
        <ele>1044.61</ele>
        <time>2017-04-12T08:45:50Z</time>
      </trkpt>
      <trkpt lat="45.39826" lon="4.47571">
        <ele>1045.09</ele>
        <time>2017-04-12T08:45:51Z</time>
      </trkpt>
      <trkpt lat="45.39822" lon="4.4757">
        <ele>1045.09</ele>
        <time>2017-04-12T08:45:52Z</time>
      </trkpt>
      <trkpt lat="45.39779" lon="4.47543">
        <ele>1047.01</ele>
        <time>2017-04-12T08:46:06Z</time>
      </trkpt>
      <trkpt lat="45.39752" lon="4.47537">
        <ele>1048.45</ele>
        <time>2017-04-12T08:46:16Z</time>
      </trkpt>
      <trkpt lat="45.39718" lon="4.47526">
        <ele>1050.86</ele>
        <time>2017-04-12T08:46:30Z</time>
      </trkpt>
      <trkpt lat="45.39698" lon="4.47519">
        <ele>1053.26</ele>
        <time>2017-04-12T08:46:41Z</time>
      </trkpt>
      <trkpt lat="45.39673" lon="4.47524">
        <ele>1054.22</ele>
        <time>2017-04-12T08:46:53Z</time>
      </trkpt>
      <trkpt lat="45.39642" lon="4.47529">
        <ele>1054.7</ele>
        <time>2017-04-12T08:47:03Z</time>
      </trkpt>
      <trkpt lat="45.39609" lon="4.47534">
        <ele>1055.67</ele>
        <time>2017-04-12T08:47:14Z</time>
      </trkpt>
      <trkpt lat="45.3957" lon="4.47535">
        <ele>1055.67</ele>
        <time>2017-04-12T08:47:25Z</time>
      </trkpt>
      <trkpt lat="45.39517" lon="4.47537">
        <ele>1057.11</ele>
        <time>2017-04-12T08:47:38Z</time>
      </trkpt>
      <trkpt lat="45.39467" lon="4.47543">
        <ele>1059.03</ele>
        <time>2017-04-12T08:47:51Z</time>
      </trkpt>
      <trkpt lat="45.39431" lon="4.47548">
        <ele>1061.91</ele>
        <time>2017-04-12T08:48:04Z</time>
      </trkpt>
      <trkpt lat="45.39427" lon="4.4755">
        <ele>1061.91</ele>
        <time>2017-04-12T08:48:05Z</time>
      </trkpt>
      <trkpt lat="45.39396" lon="4.4756">
        <ele>1061.91</ele>
        <time>2017-04-12T08:48:14Z</time>
      </trkpt>
      <trkpt lat="45.39359" lon="4.47571">
        <ele>1062.87</ele>
        <time>2017-04-12T08:48:25Z</time>
      </trkpt>
      <trkpt lat="45.39338" lon="4.47579">
        <ele>1065.76</ele>
        <time>2017-04-12T08:48:34Z</time>
      </trkpt>
      <trkpt lat="45.39309" lon="4.4759">
        <ele>1065.28</ele>
        <time>2017-04-12T08:48:46Z</time>
      </trkpt>
      <trkpt lat="45.39296" lon="4.47596">
        <ele>1063.84</ele>
        <time>2017-04-12T08:48:54Z</time>
      </trkpt>
      <trkpt lat="45.39277" lon="4.47604">
        <ele>1061.91</ele>
        <time>2017-04-12T08:49:03Z</time>
      </trkpt>
      <trkpt lat="45.39255" lon="4.47618">
        <ele>1060.47</ele>
        <time>2017-04-12T08:49:08Z</time>
      </trkpt>
      <trkpt lat="45.39246" lon="4.47627">
        <ele>1059.99</ele>
        <time>2017-04-12T08:49:10Z</time>
      </trkpt>
      <trkpt lat="45.39243" lon="4.47633">
        <ele>1059.99</ele>
        <time>2017-04-12T08:49:11Z</time>
      </trkpt>
      <trkpt lat="45.39207" lon="4.47693">
        <ele>1058.07</ele>
        <time>2017-04-12T08:49:20Z</time>
      </trkpt>
      <trkpt lat="45.39204" lon="4.477">
        <ele>1057.59</ele>
        <time>2017-04-12T08:49:21Z</time>
      </trkpt>
      <trkpt lat="45.39188" lon="4.47745">
        <ele>1056.15</ele>
        <time>2017-04-12T08:49:27Z</time>
      </trkpt>
      <trkpt lat="45.39181" lon="4.47778">
        <ele>1055.18</ele>
        <time>2017-04-12T08:49:31Z</time>
      </trkpt>
      <trkpt lat="45.39175" lon="4.47802">
        <ele>1054.22</ele>
        <time>2017-04-12T08:49:34Z</time>
      </trkpt>
      <trkpt lat="45.3917" lon="4.47851">
        <ele>1051.34</ele>
        <time>2017-04-12T08:49:39Z</time>
      </trkpt>
      <trkpt lat="45.3917" lon="4.47863">
        <ele>1050.86</ele>
        <time>2017-04-12T08:49:40Z</time>
      </trkpt>
      <trkpt lat="45.3917" lon="4.47873">
        <ele>1050.38</ele>
        <time>2017-04-12T08:49:41Z</time>
      </trkpt>
      <trkpt lat="45.3917" lon="4.47885">
        <ele>1050.38</ele>
        <time>2017-04-12T08:49:42Z</time>
      </trkpt>
      <trkpt lat="45.3917" lon="4.47896">
        <ele>1048.94</ele>
        <time>2017-04-12T08:49:43Z</time>
      </trkpt>
      <trkpt lat="45.3917" lon="4.47908">
        <ele>1047.97</ele>
        <time>2017-04-12T08:49:44Z</time>
      </trkpt>
      <trkpt lat="45.39171" lon="4.4792">
        <ele>1047.01</ele>
        <time>2017-04-12T08:49:45Z</time>
      </trkpt>
      <trkpt lat="45.39171" lon="4.47932">
        <ele>1047.01</ele>
        <time>2017-04-12T08:49:46Z</time>
      </trkpt>
      <trkpt lat="45.39171" lon="4.47944">
        <ele>1046.53</ele>
        <time>2017-04-12T08:49:47Z</time>
      </trkpt>
      <trkpt lat="45.39169" lon="4.47956">
        <ele>1046.05</ele>
        <time>2017-04-12T08:49:48Z</time>
      </trkpt>
      <trkpt lat="45.39166" lon="4.47967">
        <ele>1045.09</ele>
        <time>2017-04-12T08:49:49Z</time>
      </trkpt>
      <trkpt lat="45.39163" lon="4.47977">
        <ele>1045.09</ele>
        <time>2017-04-12T08:49:50Z</time>
      </trkpt>
      <trkpt lat="45.39159" lon="4.47987">
        <ele>1044.13</ele>
        <time>2017-04-12T08:49:51Z</time>
      </trkpt>
      <trkpt lat="45.39154" lon="4.47995">
        <ele>1043.65</ele>
        <time>2017-04-12T08:49:52Z</time>
      </trkpt>
      <trkpt lat="45.39149" lon="4.48003">
        <ele>1043.65</ele>
        <time>2017-04-12T08:49:53Z</time>
      </trkpt>
      <trkpt lat="45.39114" lon="4.48053">
        <ele>1040.28</ele>
        <time>2017-04-12T08:49:59Z</time>
      </trkpt>
      <trkpt lat="45.39107" lon="4.48061">
        <ele>1039.32</ele>
        <time>2017-04-12T08:50:00Z</time>
      </trkpt>
      <trkpt lat="45.39101" lon="4.4807">
        <ele>1038.84</ele>
        <time>2017-04-12T08:50:01Z</time>
      </trkpt>
      <trkpt lat="45.39066" lon="4.48119">
        <ele>1035.96</ele>
        <time>2017-04-12T08:50:08Z</time>
      </trkpt>
      <trkpt lat="45.39006" lon="4.48193">
        <ele>1033.55</ele>
        <time>2017-04-12T08:50:21Z</time>
      </trkpt>
      <trkpt lat="45.39002" lon="4.48198">
        <ele>1033.07</ele>
        <time>2017-04-12T08:50:22Z</time>
      </trkpt>
      <trkpt lat="45.3896" lon="4.48251">
        <ele>1031.63</ele>
        <time>2017-04-12T08:50:36Z</time>
      </trkpt>
      <trkpt lat="45.38928" lon="4.48294">
        <ele>1033.55</ele>
        <time>2017-04-12T08:50:50Z</time>
      </trkpt>
      <trkpt lat="45.38888" lon="4.48338">
        <ele>1034.52</ele>
        <time>2017-04-12T08:51:04Z</time>
      </trkpt>
      <trkpt lat="45.38848" lon="4.4838">
        <ele>1036.44</ele>
        <time>2017-04-12T08:51:20Z</time>
      </trkpt>
      <trkpt lat="45.38823" lon="4.4839">
        <ele>1038.36</ele>
        <time>2017-04-12T08:51:32Z</time>
      </trkpt>
      <trkpt lat="45.38797" lon="4.48409">
        <ele>1040.76</ele>
        <time>2017-04-12T08:51:48Z</time>
      </trkpt>
      <trkpt lat="45.38773" lon="4.48425">
        <ele>1042.69</ele>
        <time>2017-04-12T08:52:03Z</time>
      </trkpt>
      <trkpt lat="45.3877" lon="4.48427">
        <ele>1043.17</ele>
        <time>2017-04-12T08:52:05Z</time>
      </trkpt>
      <trkpt lat="45.38769" lon="4.48428">
        <ele>1043.17</ele>
        <time>2017-04-12T08:52:06Z</time>
      </trkpt>
      <trkpt lat="45.38753" lon="4.48444">
        <ele>1045.57</ele>
        <time>2017-04-12T08:52:20Z</time>
      </trkpt>
      <trkpt lat="45.38744" lon="4.48453">
        <ele>1047.01</ele>
        <time>2017-04-12T08:52:29Z</time>
      </trkpt>
      <trkpt lat="45.38743" lon="4.48454">
        <ele>1047.01</ele>
        <time>2017-04-12T08:52:30Z</time>
      </trkpt>
      <trkpt lat="45.38733" lon="4.48461">
        <ele>1048.45</ele>
        <time>2017-04-12T08:52:39Z</time>
      </trkpt>
      <trkpt lat="45.38732" lon="4.48462">
        <ele>1048.94</ele>
        <time>2017-04-12T08:52:40Z</time>
      </trkpt>
      <trkpt lat="45.3873" lon="4.48463">
        <ele>1048.94</ele>
        <time>2017-04-12T08:52:41Z</time>
      </trkpt>
      <trkpt lat="45.38727" lon="4.48465">
        <ele>1049.42</ele>
        <time>2017-04-12T08:52:44Z</time>
      </trkpt>
      <trkpt lat="45.38726" lon="4.48466">
        <ele>1049.9</ele>
        <time>2017-04-12T08:52:45Z</time>
      </trkpt>
      <trkpt lat="45.38725" lon="4.48467">
        <ele>1049.9</ele>
        <time>2017-04-12T08:52:46Z</time>
      </trkpt>
      <trkpt lat="45.38724" lon="4.48467">
        <ele>1049.9</ele>
        <time>2017-04-12T08:52:47Z</time>
      </trkpt>
      <trkpt lat="45.38704" lon="4.48482">
        <ele>1052.78</ele>
        <time>2017-04-12T08:53:03Z</time>
      </trkpt>
      <trkpt lat="45.38703" lon="4.48484">
        <ele>1052.78</ele>
        <time>2017-04-12T08:53:04Z</time>
      </trkpt>
      <trkpt lat="45.38702" lon="4.48486">
        <ele>1053.74</ele>
        <time>2017-04-12T08:53:06Z</time>
      </trkpt>
      <trkpt lat="45.38701" lon="4.48487">
        <ele>1053.74</ele>
        <time>2017-04-12T08:53:07Z</time>
      </trkpt>
      <trkpt lat="45.38687" lon="4.48502">
        <ele>1056.63</ele>
        <time>2017-04-12T08:53:21Z</time>
      </trkpt>
      <trkpt lat="45.3867" lon="4.48514">
        <ele>1059.03</ele>
        <time>2017-04-12T08:53:36Z</time>
      </trkpt>
      <trkpt lat="45.38657" lon="4.48524">
        <ele>1060.47</ele>
        <time>2017-04-12T08:53:49Z</time>
      </trkpt>
      <trkpt lat="45.38645" lon="4.48533">
        <ele>1062.87</ele>
        <time>2017-04-12T08:54:00Z</time>
      </trkpt>
      <trkpt lat="45.38643" lon="4.48534">
        <ele>1063.36</ele>
        <time>2017-04-12T08:54:02Z</time>
      </trkpt>
      <trkpt lat="45.38638" lon="4.4854">
        <ele>1064.8</ele>
        <time>2017-04-12T08:54:13Z</time>
      </trkpt>
      <trkpt lat="45.38636" lon="4.4854">
        <ele>1064.8</ele>
        <time>2017-04-12T08:54:29Z</time>
      </trkpt>
      <trkpt lat="45.38635" lon="4.48544">
        <ele>1064.8</ele>
        <time>2017-04-12T08:54:34Z</time>
      </trkpt>
      <trkpt lat="45.38627" lon="4.4856">
        <ele>1066.72</ele>
        <time>2017-04-12T08:54:46Z</time>
      </trkpt>
      <trkpt lat="45.38612" lon="4.48581">
        <ele>1068.64</ele>
        <time>2017-04-12T08:54:59Z</time>
      </trkpt>
      <trkpt lat="45.38607" lon="4.48589">
        <ele>1069.6</ele>
        <time>2017-04-12T08:55:05Z</time>
      </trkpt>
      <trkpt lat="45.38607" lon="4.48591">
        <ele>1070.08</ele>
        <time>2017-04-12T08:55:06Z</time>
      </trkpt>
      <trkpt lat="45.38606" lon="4.48592">
        <ele>1070.08</ele>
        <time>2017-04-12T08:55:07Z</time>
      </trkpt>
      <trkpt lat="45.38605" lon="4.48594">
        <ele>1070.08</ele>
        <time>2017-04-12T08:55:08Z</time>
      </trkpt>
      <trkpt lat="45.38604" lon="4.48596">
        <ele>1070.08</ele>
        <time>2017-04-12T08:55:09Z</time>
      </trkpt>
      <trkpt lat="45.38603" lon="4.48597">
        <ele>1070.08</ele>
        <time>2017-04-12T08:55:10Z</time>
      </trkpt>
      <trkpt lat="45.386" lon="4.48601">
        <ele>1070.57</ele>
        <time>2017-04-12T08:55:12Z</time>
      </trkpt>
      <trkpt lat="45.38599" lon="4.48603">
        <ele>1070.57</ele>
        <time>2017-04-12T08:55:13Z</time>
      </trkpt>
      <trkpt lat="45.38578" lon="4.48629">
        <ele>1072.49</ele>
        <time>2017-04-12T08:55:30Z</time>
      </trkpt>
      <trkpt lat="45.38576" lon="4.48631">
        <ele>1072.97</ele>
        <time>2017-04-12T08:55:31Z</time>
      </trkpt>
      <trkpt lat="45.38575" lon="4.48632">
        <ele>1072.97</ele>
        <time>2017-04-12T08:55:32Z</time>
      </trkpt>
      <trkpt lat="45.38557" lon="4.4865">
        <ele>1074.41</ele>
        <time>2017-04-12T08:55:45Z</time>
      </trkpt>
      <trkpt lat="45.38539" lon="4.48671">
        <ele>1074.89</ele>
        <time>2017-04-12T08:55:57Z</time>
      </trkpt>
      <trkpt lat="45.3852" lon="4.48699">
        <ele>1076.33</ele>
        <time>2017-04-12T08:56:11Z</time>
      </trkpt>
      <trkpt lat="45.38503" lon="4.48728">
        <ele>1077.29</ele>
        <time>2017-04-12T08:56:22Z</time>
      </trkpt>
      <trkpt lat="45.3848" lon="4.48769">
        <ele>1078.26</ele>
        <time>2017-04-12T08:56:34Z</time>
      </trkpt>
      <trkpt lat="45.38449" lon="4.48828">
        <ele>1078.74</ele>
        <time>2017-04-12T08:56:50Z</time>
      </trkpt>
      <trkpt lat="45.38426" lon="4.48867">
        <ele>1079.7</ele>
        <time>2017-04-12T08:57:03Z</time>
      </trkpt>
      <trkpt lat="45.38392" lon="4.48911">
        <ele>1080.66</ele>
        <time>2017-04-12T08:57:19Z</time>
      </trkpt>
      <trkpt lat="45.38362" lon="4.48951">
        <ele>1081.62</ele>
        <time>2017-04-12T08:57:33Z</time>
      </trkpt>
      <trkpt lat="45.38329" lon="4.48986">
        <ele>1083.06</ele>
        <time>2017-04-12T08:57:47Z</time>
      </trkpt>
      <trkpt lat="45.38288" lon="4.49019">
        <ele>1084.5</ele>
        <time>2017-04-12T08:58:02Z</time>
      </trkpt>
      <trkpt lat="45.38236" lon="4.49063">
        <ele>1086.91</ele>
        <time>2017-04-12T08:58:21Z</time>
      </trkpt>
      <trkpt lat="45.38199" lon="4.49099">
        <ele>1089.31</ele>
        <time>2017-04-12T08:58:38Z</time>
      </trkpt>
      <trkpt lat="45.3817" lon="4.49116">
        <ele>1092.2</ele>
        <time>2017-04-12T08:58:51Z</time>
      </trkpt>
      <trkpt lat="45.38138" lon="4.49132">
        <ele>1094.6</ele>
        <time>2017-04-12T08:59:05Z</time>
      </trkpt>
      <trkpt lat="45.38111" lon="4.49141">
        <ele>1095.08</ele>
        <time>2017-04-12T08:59:16Z</time>
      </trkpt>
      <trkpt lat="45.3811" lon="4.49143">
        <ele>1094.6</ele>
        <time>2017-04-12T08:59:17Z</time>
      </trkpt>
      <trkpt lat="45.38107" lon="4.49145">
        <ele>1094.6</ele>
        <time>2017-04-12T08:59:18Z</time>
      </trkpt>
      <trkpt lat="45.3807" lon="4.49166">
        <ele>1096.04</ele>
        <time>2017-04-12T08:59:34Z</time>
      </trkpt>
      <trkpt lat="45.38028" lon="4.49193">
        <ele>1097.96</ele>
        <time>2017-04-12T08:59:52Z</time>
      </trkpt>
      <trkpt lat="45.37992" lon="4.49217">
        <ele>1099.89</ele>
        <time>2017-04-12T09:00:08Z</time>
      </trkpt>
      <trkpt lat="45.37964" lon="4.49242">
        <ele>1101.81</ele>
        <time>2017-04-12T09:00:23Z</time>
      </trkpt>
      <trkpt lat="45.37939" lon="4.49267">
        <ele>1104.21</ele>
        <time>2017-04-12T09:00:39Z</time>
      </trkpt>
      <trkpt lat="45.37919" lon="4.49299">
        <ele>1106.13</ele>
        <time>2017-04-12T09:00:55Z</time>
      </trkpt>
      <trkpt lat="45.37908" lon="4.49319">
        <ele>1108.06</ele>
        <time>2017-04-12T09:01:05Z</time>
      </trkpt>
      <trkpt lat="45.37896" lon="4.49336">
        <ele>1109.98</ele>
        <time>2017-04-12T09:01:16Z</time>
      </trkpt>
      <trkpt lat="45.37896" lon="4.49338">
        <ele>1110.46</ele>
        <time>2017-04-12T09:01:17Z</time>
      </trkpt>
      <trkpt lat="45.37895" lon="4.4934">
        <ele>1110.46</ele>
        <time>2017-04-12T09:01:18Z</time>
      </trkpt>
      <trkpt lat="45.37894" lon="4.49341">
        <ele>1110.46</ele>
        <time>2017-04-12T09:01:19Z</time>
      </trkpt>
      <trkpt lat="45.37893" lon="4.49343">
        <ele>1110.94</ele>
        <time>2017-04-12T09:01:20Z</time>
      </trkpt>
      <trkpt lat="45.37893" lon="4.49345">
        <ele>1110.94</ele>
        <time>2017-04-12T09:01:21Z</time>
      </trkpt>
      <trkpt lat="45.37877" lon="4.49373">
        <ele>1113.34</ele>
        <time>2017-04-12T09:01:38Z</time>
      </trkpt>
      <trkpt lat="45.37872" lon="4.49382">
        <ele>1113.82</ele>
        <time>2017-04-12T09:01:43Z</time>
      </trkpt>
      <trkpt lat="45.3786" lon="4.49401">
        <ele>1115.75</ele>
        <time>2017-04-12T09:01:55Z</time>
      </trkpt>
      <trkpt lat="45.37847" lon="4.49423">
        <ele>1118.15</ele>
        <time>2017-04-12T09:02:10Z</time>
      </trkpt>
      <trkpt lat="45.37842" lon="4.49433">
        <ele>1118.63</ele>
        <time>2017-04-12T09:02:16Z</time>
      </trkpt>
      <trkpt lat="45.37838" lon="4.49439">
        <ele>1119.11</ele>
        <time>2017-04-12T09:02:20Z</time>
      </trkpt>
      <trkpt lat="45.37837" lon="4.4944">
        <ele>1119.59</ele>
        <time>2017-04-12T09:02:21Z</time>
      </trkpt>
      <trkpt lat="45.37821" lon="4.49462">
        <ele>1120.55</ele>
        <time>2017-04-12T09:02:34Z</time>
      </trkpt>
      <trkpt lat="45.3782" lon="4.49464">
        <ele>1120.55</ele>
        <time>2017-04-12T09:02:35Z</time>
      </trkpt>
      <trkpt lat="45.37818" lon="4.49465">
        <ele>1121.03</ele>
        <time>2017-04-12T09:02:36Z</time>
      </trkpt>
      <trkpt lat="45.37817" lon="4.49466">
        <ele>1120.55</ele>
        <time>2017-04-12T09:02:37Z</time>
      </trkpt>
      <trkpt lat="45.37811" lon="4.49471">
        <ele>1121.03</ele>
        <time>2017-04-12T09:02:41Z</time>
      </trkpt>
      <trkpt lat="45.3781" lon="4.49472">
        <ele>1121.52</ele>
        <time>2017-04-12T09:02:42Z</time>
      </trkpt>
      <trkpt lat="45.37809" lon="4.49473">
        <ele>1121.52</ele>
        <time>2017-04-12T09:02:43Z</time>
      </trkpt>
      <trkpt lat="45.37808" lon="4.49475">
        <ele>1121.52</ele>
        <time>2017-04-12T09:02:44Z</time>
      </trkpt>
      <trkpt lat="45.37806" lon="4.49476">
        <ele>1121.52</ele>
        <time>2017-04-12T09:02:45Z</time>
      </trkpt>
      <trkpt lat="45.37805" lon="4.49477">
        <ele>1121.52</ele>
        <time>2017-04-12T09:02:46Z</time>
      </trkpt>
      <trkpt lat="45.37803" lon="4.49479">
        <ele>1121.52</ele>
        <time>2017-04-12T09:02:47Z</time>
      </trkpt>
      <trkpt lat="45.37782" lon="4.49508">
        <ele>1122.96</ele>
        <time>2017-04-12T09:03:01Z</time>
      </trkpt>
      <trkpt lat="45.37757" lon="4.49541">
        <ele>1123.92</ele>
        <time>2017-04-12T09:03:17Z</time>
      </trkpt>
      <trkpt lat="45.37736" lon="4.49572">
        <ele>1125.36</ele>
        <time>2017-04-12T09:03:31Z</time>
      </trkpt>
      <trkpt lat="45.3772" lon="4.49598">
        <ele>1126.32</ele>
        <time>2017-04-12T09:03:44Z</time>
      </trkpt>
      <trkpt lat="45.37719" lon="4.496">
        <ele>1125.84</ele>
        <time>2017-04-12T09:03:57Z</time>
      </trkpt>
      <trkpt lat="45.37719" lon="4.49603">
        <ele>1125.84</ele>
        <time>2017-04-12T09:04:09Z</time>
      </trkpt>
      <trkpt lat="45.37719" lon="4.49605">
        <ele>1125.84</ele>
        <time>2017-04-12T09:04:10Z</time>
      </trkpt>
      <trkpt lat="45.37719" lon="4.49607">
        <ele>1125.36</ele>
        <time>2017-04-12T09:04:11Z</time>
      </trkpt>
      <trkpt lat="45.3772" lon="4.49609">
        <ele>1124.88</ele>
        <time>2017-04-12T09:04:12Z</time>
      </trkpt>
      <trkpt lat="45.3772" lon="4.49612">
        <ele>1124.88</ele>
        <time>2017-04-12T09:04:13Z</time>
      </trkpt>
      <trkpt lat="45.37721" lon="4.49615">
        <ele>1124.4</ele>
        <time>2017-04-12T09:04:14Z</time>
      </trkpt>
      <trkpt lat="45.37722" lon="4.49618">
        <ele>1123.92</ele>
        <time>2017-04-12T09:04:15Z</time>
      </trkpt>
      <trkpt lat="45.37723" lon="4.49622">
        <ele>1123.44</ele>
        <time>2017-04-12T09:04:16Z</time>
      </trkpt>
      <trkpt lat="45.37724" lon="4.49626">
        <ele>1122.96</ele>
        <time>2017-04-12T09:04:17Z</time>
      </trkpt>
      <trkpt lat="45.37725" lon="4.49632">
        <ele>1122</ele>
        <time>2017-04-12T09:04:20Z</time>
      </trkpt>
      <trkpt lat="45.37734" lon="4.49655">
        <ele>1119.11</ele>
        <time>2017-04-12T09:04:28Z</time>
      </trkpt>
      <trkpt lat="45.37738" lon="4.4967">
        <ele>1116.23</ele>
        <time>2017-04-12T09:04:32Z</time>
      </trkpt>
      <trkpt lat="45.3774" lon="4.49685">
        <ele>1113.34</ele>
        <time>2017-04-12T09:04:36Z</time>
      </trkpt>
      <trkpt lat="45.37738" lon="4.49699">
        <ele>1110.46</ele>
        <time>2017-04-12T09:04:39Z</time>
      </trkpt>
      <trkpt lat="45.37738" lon="4.49703">
        <ele>1110.46</ele>
        <time>2017-04-12T09:04:40Z</time>
      </trkpt>
      <trkpt lat="45.37737" lon="4.49726">
        <ele>1108.06</ele>
        <time>2017-04-12T09:04:43Z</time>
      </trkpt>
      <trkpt lat="45.37736" lon="4.49733">
        <ele>1107.1</ele>
        <time>2017-04-12T09:04:44Z</time>
      </trkpt>
      <trkpt lat="45.37737" lon="4.49748">
        <ele>1107.1</ele>
        <time>2017-04-12T09:04:45Z</time>
      </trkpt>
      <trkpt lat="45.37738" lon="4.49765">
        <ele>1106.13</ele>
        <time>2017-04-12T09:04:46Z</time>
      </trkpt>
      <trkpt lat="45.37741" lon="4.4978">
        <ele>1105.65</ele>
        <time>2017-04-12T09:04:47Z</time>
      </trkpt>
      <trkpt lat="45.37745" lon="4.49793">
        <ele>1105.17</ele>
        <time>2017-04-12T09:04:48Z</time>
      </trkpt>
      <trkpt lat="45.37751" lon="4.49808">
        <ele>1104.69</ele>
        <time>2017-04-12T09:04:49Z</time>
      </trkpt>
      <trkpt lat="45.37771" lon="4.49836">
        <ele>1103.73</ele>
        <time>2017-04-12T09:04:52Z</time>
      </trkpt>
      <trkpt lat="45.37779" lon="4.49841">
        <ele>1104.21</ele>
        <time>2017-04-12T09:04:53Z</time>
      </trkpt>
      <trkpt lat="45.37785" lon="4.49845">
        <ele>1103.73</ele>
        <time>2017-04-12T09:04:54Z</time>
      </trkpt>
      <trkpt lat="45.37815" lon="4.49851">
        <ele>1102.77</ele>
        <time>2017-04-12T09:04:59Z</time>
      </trkpt>
      <trkpt lat="45.37822" lon="4.49853">
        <ele>1101.81</ele>
        <time>2017-04-12T09:05:00Z</time>
      </trkpt>
      <trkpt lat="45.37828" lon="4.49855">
        <ele>1101.81</ele>
        <time>2017-04-12T09:05:01Z</time>
      </trkpt>
      <trkpt lat="45.37858" lon="4.49859">
        <ele>1097.96</ele>
        <time>2017-04-12T09:05:05Z</time>
      </trkpt>
      <trkpt lat="45.37879" lon="4.49861">
        <ele>1096.52</ele>
        <time>2017-04-12T09:05:08Z</time>
      </trkpt>
      <trkpt lat="45.37886" lon="4.49861">
        <ele>1094.6</ele>
        <time>2017-04-12T09:05:09Z</time>
      </trkpt>
      <trkpt lat="45.37923" lon="4.49861">
        <ele>1091.71</ele>
        <time>2017-04-12T09:05:15Z</time>
      </trkpt>
      <trkpt lat="45.3794" lon="4.49861">
        <ele>1089.31</ele>
        <time>2017-04-12T09:05:18Z</time>
      </trkpt>
      <trkpt lat="45.37945" lon="4.49861">
        <ele>1089.31</ele>
        <time>2017-04-12T09:05:19Z</time>
      </trkpt>
      <trkpt lat="45.37958" lon="4.49863">
        <ele>1087.87</ele>
        <time>2017-04-12T09:05:21Z</time>
      </trkpt>
      <trkpt lat="45.37978" lon="4.49865">
        <ele>1084.99</ele>
        <time>2017-04-12T09:05:24Z</time>
      </trkpt>
      <trkpt lat="45.37985" lon="4.49865">
        <ele>1084.02</ele>
        <time>2017-04-12T09:05:25Z</time>
      </trkpt>
      <trkpt lat="45.37998" lon="4.49864">
        <ele>1082.58</ele>
        <time>2017-04-12T09:05:27Z</time>
      </trkpt>
      <trkpt lat="45.38005" lon="4.49865">
        <ele>1081.62</ele>
        <time>2017-04-12T09:05:28Z</time>
      </trkpt>
      <trkpt lat="45.38012" lon="4.49866">
        <ele>1081.14</ele>
        <time>2017-04-12T09:05:29Z</time>
      </trkpt>
      <trkpt lat="45.3803" lon="4.49872">
        <ele>1078.26</ele>
        <time>2017-04-12T09:05:32Z</time>
      </trkpt>
      <trkpt lat="45.38036" lon="4.49875">
        <ele>1077.29</ele>
        <time>2017-04-12T09:05:33Z</time>
      </trkpt>
      <trkpt lat="45.38047" lon="4.49883">
        <ele>1076.33</ele>
        <time>2017-04-12T09:05:35Z</time>
      </trkpt>
      <trkpt lat="45.38051" lon="4.49888">
        <ele>1075.37</ele>
        <time>2017-04-12T09:05:36Z</time>
      </trkpt>
      <trkpt lat="45.38066" lon="4.49911">
        <ele>1072.01</ele>
        <time>2017-04-12T09:05:40Z</time>
      </trkpt>
      <trkpt lat="45.38069" lon="4.49917">
        <ele>1072.01</ele>
        <time>2017-04-12T09:05:41Z</time>
      </trkpt>
      <trkpt lat="45.38075" lon="4.49929">
        <ele>1070.57</ele>
        <time>2017-04-12T09:05:43Z</time>
      </trkpt>
      <trkpt lat="45.38078" lon="4.49941">
        <ele>1068.16</ele>
        <time>2017-04-12T09:05:45Z</time>
      </trkpt>
      <trkpt lat="45.38079" lon="4.49947">
        <ele>1066.72</ele>
        <time>2017-04-12T09:05:46Z</time>
      </trkpt>
      <trkpt lat="45.38079" lon="4.49953">
        <ele>1066.72</ele>
        <time>2017-04-12T09:05:47Z</time>
      </trkpt>
      <trkpt lat="45.38081" lon="4.49959">
        <ele>1066.24</ele>
        <time>2017-04-12T09:05:48Z</time>
      </trkpt>
      <trkpt lat="45.38082" lon="4.49967">
        <ele>1064.8</ele>
        <time>2017-04-12T09:05:49Z</time>
      </trkpt>
      <trkpt lat="45.38083" lon="4.49975">
        <ele>1064.8</ele>
        <time>2017-04-12T09:05:50Z</time>
      </trkpt>
      <trkpt lat="45.38084" lon="4.49992">
        <ele>1063.84</ele>
        <time>2017-04-12T09:05:52Z</time>
      </trkpt>
      <trkpt lat="45.38084" lon="4.5001">
        <ele>1062.39</ele>
        <time>2017-04-12T09:05:54Z</time>
      </trkpt>
      <trkpt lat="45.38083" lon="4.50018">
        <ele>1062.87</ele>
        <time>2017-04-12T09:05:55Z</time>
      </trkpt>
      <trkpt lat="45.38084" lon="4.50039">
        <ele>1060.95</ele>
        <time>2017-04-12T09:05:58Z</time>
      </trkpt>
      <trkpt lat="45.38085" lon="4.50046">
        <ele>1059.99</ele>
        <time>2017-04-12T09:05:59Z</time>
      </trkpt>
      <trkpt lat="45.38086" lon="4.50051">
        <ele>1059.51</ele>
        <time>2017-04-12T09:06:00Z</time>
      </trkpt>
      <trkpt lat="45.38086" lon="4.50057">
        <ele>1059.51</ele>
        <time>2017-04-12T09:06:01Z</time>
      </trkpt>
      <trkpt lat="45.38087" lon="4.50063">
        <ele>1058.07</ele>
        <time>2017-04-12T09:06:02Z</time>
      </trkpt>
      <trkpt lat="45.38087" lon="4.50082">
        <ele>1056.15</ele>
        <time>2017-04-12T09:06:05Z</time>
      </trkpt>
      <trkpt lat="45.38085" lon="4.50089">
        <ele>1056.63</ele>
        <time>2017-04-12T09:06:06Z</time>
      </trkpt>
      <trkpt lat="45.38081" lon="4.50111">
        <ele>1055.67</ele>
        <time>2017-04-12T09:06:09Z</time>
      </trkpt>
      <trkpt lat="45.38079" lon="4.50125">
        <ele>1053.74</ele>
        <time>2017-04-12T09:06:11Z</time>
      </trkpt>
      <trkpt lat="45.38077" lon="4.50133">
        <ele>1054.7</ele>
        <time>2017-04-12T09:06:12Z</time>
      </trkpt>
      <trkpt lat="45.38069" lon="4.50163">
        <ele>1052.78</ele>
        <time>2017-04-12T09:06:16Z</time>
      </trkpt>
      <trkpt lat="45.38058" lon="4.5019">
        <ele>1049.9</ele>
        <time>2017-04-12T09:06:21Z</time>
      </trkpt>
      <trkpt lat="45.38054" lon="4.502">
        <ele>1047.97</ele>
        <time>2017-04-12T09:06:23Z</time>
      </trkpt>
      <trkpt lat="45.38051" lon="4.50206">
        <ele>1047.97</ele>
        <time>2017-04-12T09:06:24Z</time>
      </trkpt>
      <trkpt lat="45.38043" lon="4.50218">
        <ele>1046.53</ele>
        <time>2017-04-12T09:06:26Z</time>
      </trkpt>
      <trkpt lat="45.38039" lon="4.50224">
        <ele>1045.57</ele>
        <time>2017-04-12T09:06:27Z</time>
      </trkpt>
      <trkpt lat="45.38033" lon="4.50237">
        <ele>1044.61</ele>
        <time>2017-04-12T09:06:29Z</time>
      </trkpt>
      <trkpt lat="45.38029" lon="4.50242">
        <ele>1043.17</ele>
        <time>2017-04-12T09:06:30Z</time>
      </trkpt>
      <trkpt lat="45.38016" lon="4.50257">
        <ele>1039.8</ele>
        <time>2017-04-12T09:06:33Z</time>
      </trkpt>
      <trkpt lat="45.38003" lon="4.50271">
        <ele>1037.88</ele>
        <time>2017-04-12T09:06:36Z</time>
      </trkpt>
      <trkpt lat="45.37999" lon="4.50275">
        <ele>1036.44</ele>
        <time>2017-04-12T09:06:37Z</time>
      </trkpt>
      <trkpt lat="45.37986" lon="4.50291">
        <ele>1033.07</ele>
        <time>2017-04-12T09:06:41Z</time>
      </trkpt>
      <trkpt lat="45.37982" lon="4.50295">
        <ele>1032.59</ele>
        <time>2017-04-12T09:06:42Z</time>
      </trkpt>
      <trkpt lat="45.37978" lon="4.50298">
        <ele>1031.15</ele>
        <time>2017-04-12T09:06:43Z</time>
      </trkpt>
      <trkpt lat="45.37969" lon="4.50308">
        <ele>1029.23</ele>
        <time>2017-04-12T09:06:46Z</time>
      </trkpt>
      <trkpt lat="45.37964" lon="4.50315">
        <ele>1028.27</ele>
        <time>2017-04-12T09:06:48Z</time>
      </trkpt>
      <trkpt lat="45.37958" lon="4.50321">
        <ele>1024.9</ele>
        <time>2017-04-12T09:06:50Z</time>
      </trkpt>
      <trkpt lat="45.37954" lon="4.50325">
        <ele>1025.86</ele>
        <time>2017-04-12T09:06:51Z</time>
      </trkpt>
      <trkpt lat="45.37943" lon="4.50337">
        <ele>1022.02</ele>
        <time>2017-04-12T09:06:55Z</time>
      </trkpt>
      <trkpt lat="45.37941" lon="4.50339">
        <ele>1022.02</ele>
        <time>2017-04-12T09:06:56Z</time>
      </trkpt>
      <trkpt lat="45.37935" lon="4.50344">
        <ele>1020.1</ele>
        <time>2017-04-12T09:06:58Z</time>
      </trkpt>
      <trkpt lat="45.37931" lon="4.50348">
        <ele>1019.62</ele>
        <time>2017-04-12T09:06:59Z</time>
      </trkpt>
      <trkpt lat="45.37923" lon="4.50355">
        <ele>1017.21</ele>
        <time>2017-04-12T09:07:01Z</time>
      </trkpt>
      <trkpt lat="45.37919" lon="4.50358">
        <ele>1018.17</ele>
        <time>2017-04-12T09:07:02Z</time>
      </trkpt>
      <trkpt lat="45.3791" lon="4.50364">
        <ele>1015.77</ele>
        <time>2017-04-12T09:07:05Z</time>
      </trkpt>
      <trkpt lat="45.37909" lon="4.50368">
        <ele>1015.77</ele>
        <time>2017-04-12T09:07:06Z</time>
      </trkpt>
      <trkpt lat="45.37908" lon="4.50373">
        <ele>1014.33</ele>
        <time>2017-04-12T09:07:07Z</time>
      </trkpt>
      <trkpt lat="45.37907" lon="4.50377">
        <ele>1013.85</ele>
        <time>2017-04-12T09:07:08Z</time>
      </trkpt>
      <trkpt lat="45.37908" lon="4.50382">
        <ele>1013.37</ele>
        <time>2017-04-12T09:07:09Z</time>
      </trkpt>
      <trkpt lat="45.3791" lon="4.50386">
        <ele>1012.89</ele>
        <time>2017-04-12T09:07:10Z</time>
      </trkpt>
      <trkpt lat="45.37915" lon="4.50397">
        <ele>1010</ele>
        <time>2017-04-12T09:07:12Z</time>
      </trkpt>
      <trkpt lat="45.37919" lon="4.50403">
        <ele>1010</ele>
        <time>2017-04-12T09:07:13Z</time>
      </trkpt>
      <trkpt lat="45.37927" lon="4.50417">
        <ele>1009.04</ele>
        <time>2017-04-12T09:07:16Z</time>
      </trkpt>
      <trkpt lat="45.37929" lon="4.50422">
        <ele>1008.56</ele>
        <time>2017-04-12T09:07:17Z</time>
      </trkpt>
      <trkpt lat="45.37932" lon="4.50427">
        <ele>1007.6</ele>
        <time>2017-04-12T09:07:18Z</time>
      </trkpt>
      <trkpt lat="45.37935" lon="4.50432">
        <ele>1006.16</ele>
        <time>2017-04-12T09:07:19Z</time>
      </trkpt>
      <trkpt lat="45.37938" lon="4.50438">
        <ele>1005.68</ele>
        <time>2017-04-12T09:07:20Z</time>
      </trkpt>
      <trkpt lat="45.37941" lon="4.50444">
        <ele>1005.2</ele>
        <time>2017-04-12T09:07:21Z</time>
      </trkpt>
      <trkpt lat="45.37944" lon="4.5045">
        <ele>1004.72</ele>
        <time>2017-04-12T09:07:22Z</time>
      </trkpt>
      <trkpt lat="45.37947" lon="4.50456">
        <ele>1004.72</ele>
        <time>2017-04-12T09:07:23Z</time>
      </trkpt>
      <trkpt lat="45.37972" lon="4.50494">
        <ele>1003.27</ele>
        <time>2017-04-12T09:07:31Z</time>
      </trkpt>
      <trkpt lat="45.3798" lon="4.50501">
        <ele>1002.79</ele>
        <time>2017-04-12T09:07:33Z</time>
      </trkpt>
      <trkpt lat="45.38002" lon="4.50516">
        <ele>1001.83</ele>
        <time>2017-04-12T09:07:37Z</time>
      </trkpt>
      <trkpt lat="45.38008" lon="4.50519">
        <ele>1001.35</ele>
        <time>2017-04-12T09:07:38Z</time>
      </trkpt>
      <trkpt lat="45.38019" lon="4.50528">
        <ele>999.43</ele>
        <time>2017-04-12T09:07:40Z</time>
      </trkpt>
      <trkpt lat="45.38046" lon="4.50542">
        <ele>998.47</ele>
        <time>2017-04-12T09:07:44Z</time>
      </trkpt>
      <trkpt lat="45.38053" lon="4.50547">
        <ele>998.47</ele>
        <time>2017-04-12T09:07:45Z</time>
      </trkpt>
      <trkpt lat="45.38058" lon="4.50552">
        <ele>998.47</ele>
        <time>2017-04-12T09:07:46Z</time>
      </trkpt>
      <trkpt lat="45.38062" lon="4.50558">
        <ele>997.99</ele>
        <time>2017-04-12T09:07:47Z</time>
      </trkpt>
      <trkpt lat="45.38066" lon="4.50562">
        <ele>998.95</ele>
        <time>2017-04-12T09:07:48Z</time>
      </trkpt>
      <trkpt lat="45.38068" lon="4.50567">
        <ele>998.95</ele>
        <time>2017-04-12T09:07:49Z</time>
      </trkpt>
      <trkpt lat="45.38071" lon="4.50571">
        <ele>998.47</ele>
        <time>2017-04-12T09:07:50Z</time>
      </trkpt>
      <trkpt lat="45.38074" lon="4.50575">
        <ele>997.99</ele>
        <time>2017-04-12T09:07:51Z</time>
      </trkpt>
      <trkpt lat="45.38076" lon="4.50578">
        <ele>998.47</ele>
        <time>2017-04-12T09:07:52Z</time>
      </trkpt>
      <trkpt lat="45.38077" lon="4.50581">
        <ele>998.47</ele>
        <time>2017-04-12T09:07:53Z</time>
      </trkpt>
      <trkpt lat="45.3808" lon="4.50584">
        <ele>998.95</ele>
        <time>2017-04-12T09:08:02Z</time>
      </trkpt>
      <trkpt lat="45.3808" lon="4.50589">
        <ele>998.47</ele>
        <time>2017-04-12T09:08:16Z</time>
      </trkpt>
      <trkpt lat="45.3808" lon="4.5059">
        <ele>998.47</ele>
        <time>2017-04-12T09:08:37Z</time>
      </trkpt>
      <trkpt lat="45.3808" lon="4.50595">
        <ele>998.47</ele>
        <time>2017-04-12T09:08:47Z</time>
      </trkpt>
      <trkpt lat="45.38079" lon="4.50597">
        <ele>998.47</ele>
        <time>2017-04-12T09:08:48Z</time>
      </trkpt>
      <trkpt lat="45.38079" lon="4.50599">
        <ele>998.47</ele>
        <time>2017-04-12T09:08:49Z</time>
      </trkpt>
      <trkpt lat="45.38078" lon="4.50601">
        <ele>998.47</ele>
        <time>2017-04-12T09:08:50Z</time>
      </trkpt>
      <trkpt lat="45.38077" lon="4.50602">
        <ele>998.47</ele>
        <time>2017-04-12T09:08:51Z</time>
      </trkpt>
      <trkpt lat="45.38076" lon="4.50604">
        <ele>998.47</ele>
        <time>2017-04-12T09:08:52Z</time>
      </trkpt>
      <trkpt lat="45.38075" lon="4.50605">
        <ele>998.47</ele>
        <time>2017-04-12T09:08:53Z</time>
      </trkpt>
      <trkpt lat="45.38073" lon="4.50608">
        <ele>998.47</ele>
        <time>2017-04-12T09:08:56Z</time>
      </trkpt>
      <trkpt lat="45.38072" lon="4.50609">
        <ele>998.47</ele>
        <time>2017-04-12T09:08:57Z</time>
      </trkpt>
      <trkpt lat="45.38067" lon="4.50613">
        <ele>997.51</ele>
        <time>2017-04-12T09:09:01Z</time>
      </trkpt>
      <trkpt lat="45.38066" lon="4.50614">
        <ele>997.51</ele>
        <time>2017-04-12T09:09:02Z</time>
      </trkpt>
      <trkpt lat="45.38037" lon="4.50627">
        <ele>996.06</ele>
        <time>2017-04-12T09:09:12Z</time>
      </trkpt>
      <trkpt lat="45.38033" lon="4.50629">
        <ele>995.58</ele>
        <time>2017-04-12T09:09:13Z</time>
      </trkpt>
      <trkpt lat="45.38025" lon="4.50636">
        <ele>995.1</ele>
        <time>2017-04-12T09:09:15Z</time>
      </trkpt>
      <trkpt lat="45.37987" lon="4.50661">
        <ele>991.74</ele>
        <time>2017-04-12T09:09:22Z</time>
      </trkpt>
      <trkpt lat="45.37975" lon="4.50668">
        <ele>990.78</ele>
        <time>2017-04-12T09:09:24Z</time>
      </trkpt>
      <trkpt lat="45.37929" lon="4.50698">
        <ele>990.3</ele>
        <time>2017-04-12T09:09:33Z</time>
      </trkpt>
      <trkpt lat="45.37924" lon="4.50702">
        <ele>990.3</ele>
        <time>2017-04-12T09:09:34Z</time>
      </trkpt>
      <trkpt lat="45.3792" lon="4.50706">
        <ele>990.3</ele>
        <time>2017-04-12T09:09:35Z</time>
      </trkpt>
      <trkpt lat="45.37907" lon="4.50717">
        <ele>990.78</ele>
        <time>2017-04-12T09:09:38Z</time>
      </trkpt>
      <trkpt lat="45.37904" lon="4.50721">
        <ele>990.78</ele>
        <time>2017-04-12T09:09:39Z</time>
      </trkpt>
      <trkpt lat="45.37901" lon="4.50725">
        <ele>991.26</ele>
        <time>2017-04-12T09:09:40Z</time>
      </trkpt>
      <trkpt lat="45.37898" lon="4.50729">
        <ele>991.74</ele>
        <time>2017-04-12T09:09:41Z</time>
      </trkpt>
      <trkpt lat="45.37895" lon="4.50733">
        <ele>991.26</ele>
        <time>2017-04-12T09:09:42Z</time>
      </trkpt>
      <trkpt lat="45.37893" lon="4.50737">
        <ele>991.26</ele>
        <time>2017-04-12T09:09:43Z</time>
      </trkpt>
      <trkpt lat="45.37871" lon="4.5077">
        <ele>990.78</ele>
        <time>2017-04-12T09:09:51Z</time>
      </trkpt>
      <trkpt lat="45.37849" lon="4.50802">
        <ele>988.37</ele>
        <time>2017-04-12T09:09:56Z</time>
      </trkpt>
      <trkpt lat="45.37844" lon="4.50808">
        <ele>988.37</ele>
        <time>2017-04-12T09:09:57Z</time>
      </trkpt>
      <trkpt lat="45.37826" lon="4.50826">
        <ele>988.37</ele>
        <time>2017-04-12T09:10:01Z</time>
      </trkpt>
      <trkpt lat="45.37823" lon="4.50831">
        <ele>988.85</ele>
        <time>2017-04-12T09:10:02Z</time>
      </trkpt>
      <trkpt lat="45.37821" lon="4.50836">
        <ele>989.33</ele>
        <time>2017-04-12T09:10:03Z</time>
      </trkpt>
      <trkpt lat="45.3782" lon="4.50841">
        <ele>988.85</ele>
        <time>2017-04-12T09:10:04Z</time>
      </trkpt>
      <trkpt lat="45.3782" lon="4.50847">
        <ele>989.33</ele>
        <time>2017-04-12T09:10:05Z</time>
      </trkpt>
      <trkpt lat="45.37821" lon="4.50853">
        <ele>989.81</ele>
        <time>2017-04-12T09:10:06Z</time>
      </trkpt>
      <trkpt lat="45.37809" lon="4.50914">
        <ele>992.7</ele>
        <time>2017-04-12T09:10:19Z</time>
      </trkpt>
      <trkpt lat="45.37793" lon="4.50956">
        <ele>995.1</ele>
        <time>2017-04-12T09:10:31Z</time>
      </trkpt>
      <trkpt lat="45.3779" lon="4.50966">
        <ele>995.58</ele>
        <time>2017-04-12T09:10:34Z</time>
      </trkpt>
      <trkpt lat="45.3779" lon="4.50969">
        <ele>995.58</ele>
        <time>2017-04-12T09:10:35Z</time>
      </trkpt>
      <trkpt lat="45.37784" lon="4.51023">
        <ele>993.18</ele>
        <time>2017-04-12T09:10:46Z</time>
      </trkpt>
      <trkpt lat="45.37786" lon="4.51049">
        <ele>989.81</ele>
        <time>2017-04-12T09:10:50Z</time>
      </trkpt>
      <trkpt lat="45.3779" lon="4.5107">
        <ele>988.37</ele>
        <time>2017-04-12T09:10:54Z</time>
      </trkpt>
      <trkpt lat="45.37798" lon="4.51095">
        <ele>986.93</ele>
        <time>2017-04-12T09:10:58Z</time>
      </trkpt>
      <trkpt lat="45.37801" lon="4.51099">
        <ele>986.45</ele>
        <time>2017-04-12T09:10:59Z</time>
      </trkpt>
      <trkpt lat="45.37804" lon="4.51102">
        <ele>985.49</ele>
        <time>2017-04-12T09:11:00Z</time>
      </trkpt>
      <trkpt lat="45.37815" lon="4.51107">
        <ele>982.6</ele>
        <time>2017-04-12T09:11:04Z</time>
      </trkpt>
      <trkpt lat="45.37819" lon="4.51106">
        <ele>981.64</ele>
        <time>2017-04-12T09:11:05Z</time>
      </trkpt>
      <trkpt lat="45.3784" lon="4.51105">
        <ele>978.28</ele>
        <time>2017-04-12T09:11:09Z</time>
      </trkpt>
      <trkpt lat="45.37855" lon="4.51102">
        <ele>976.84</ele>
        <time>2017-04-12T09:11:12Z</time>
      </trkpt>
      <trkpt lat="45.37859" lon="4.51101">
        <ele>975.88</ele>
        <time>2017-04-12T09:11:13Z</time>
      </trkpt>
      <trkpt lat="45.37864" lon="4.511">
        <ele>975.88</ele>
        <time>2017-04-12T09:11:14Z</time>
      </trkpt>
      <trkpt lat="45.3787" lon="4.511">
        <ele>974.43</ele>
        <time>2017-04-12T09:11:15Z</time>
      </trkpt>
      <trkpt lat="45.37875" lon="4.51099">
        <ele>972.99</ele>
        <time>2017-04-12T09:11:16Z</time>
      </trkpt>
      <trkpt lat="45.37881" lon="4.51098">
        <ele>973.47</ele>
        <time>2017-04-12T09:11:17Z</time>
      </trkpt>
      <trkpt lat="45.37902" lon="4.51095">
        <ele>970.11</ele>
        <time>2017-04-12T09:11:22Z</time>
      </trkpt>
      <trkpt lat="45.37918" lon="4.51095">
        <ele>967.7</ele>
        <time>2017-04-12T09:11:26Z</time>
      </trkpt>
      <trkpt lat="45.37944" lon="4.51095">
        <ele>964.34</ele>
        <time>2017-04-12T09:11:32Z</time>
      </trkpt>
      <trkpt lat="45.37952" lon="4.51096">
        <ele>963.86</ele>
        <time>2017-04-12T09:11:34Z</time>
      </trkpt>
      <trkpt lat="45.3796" lon="4.51099">
        <ele>962.9</ele>
        <time>2017-04-12T09:11:36Z</time>
      </trkpt>
      <trkpt lat="45.37964" lon="4.51103">
        <ele>962.42</ele>
        <time>2017-04-12T09:11:37Z</time>
      </trkpt>
      <trkpt lat="45.37966" lon="4.51109">
        <ele>962.42</ele>
        <time>2017-04-12T09:11:38Z</time>
      </trkpt>
      <trkpt lat="45.37968" lon="4.51114">
        <ele>961.94</ele>
        <time>2017-04-12T09:11:39Z</time>
      </trkpt>
      <trkpt lat="45.37968" lon="4.51119">
        <ele>961.46</ele>
        <time>2017-04-12T09:11:40Z</time>
      </trkpt>
      <trkpt lat="45.37967" lon="4.51125">
        <ele>961.46</ele>
        <time>2017-04-12T09:11:41Z</time>
      </trkpt>
      <trkpt lat="45.37965" lon="4.5113">
        <ele>961.46</ele>
        <time>2017-04-12T09:11:42Z</time>
      </trkpt>
      <trkpt lat="45.37964" lon="4.51136">
        <ele>961.46</ele>
        <time>2017-04-12T09:11:43Z</time>
      </trkpt>
      <trkpt lat="45.37955" lon="4.51157">
        <ele>963.38</ele>
        <time>2017-04-12T09:11:47Z</time>
      </trkpt>
      <trkpt lat="45.37946" lon="4.51176">
        <ele>960.98</ele>
        <time>2017-04-12T09:11:50Z</time>
      </trkpt>
      <trkpt lat="45.37915" lon="4.51247">
        <ele>958.57</ele>
        <time>2017-04-12T09:11:59Z</time>
      </trkpt>
      <trkpt lat="45.37908" lon="4.51262">
        <ele>958.57</ele>
        <time>2017-04-12T09:12:01Z</time>
      </trkpt>
      <trkpt lat="45.37906" lon="4.5127">
        <ele>958.57</ele>
        <time>2017-04-12T09:12:02Z</time>
      </trkpt>
      <trkpt lat="45.37902" lon="4.51277">
        <ele>958.57</ele>
        <time>2017-04-12T09:12:03Z</time>
      </trkpt>
      <trkpt lat="45.37899" lon="4.51284">
        <ele>959.05</ele>
        <time>2017-04-12T09:12:04Z</time>
      </trkpt>
      <trkpt lat="45.37896" lon="4.5129">
        <ele>959.05</ele>
        <time>2017-04-12T09:12:05Z</time>
      </trkpt>
      <trkpt lat="45.37888" lon="4.51308">
        <ele>960.01</ele>
        <time>2017-04-12T09:12:08Z</time>
      </trkpt>
      <trkpt lat="45.37883" lon="4.51321">
        <ele>960.49</ele>
        <time>2017-04-12T09:12:10Z</time>
      </trkpt>
      <trkpt lat="45.37867" lon="4.5136">
        <ele>961.94</ele>
        <time>2017-04-12T09:12:17Z</time>
      </trkpt>
      <trkpt lat="45.37865" lon="4.51366">
        <ele>962.42</ele>
        <time>2017-04-12T09:12:18Z</time>
      </trkpt>
      <trkpt lat="45.37863" lon="4.51371">
        <ele>962.42</ele>
        <time>2017-04-12T09:12:19Z</time>
      </trkpt>
      <trkpt lat="45.3786" lon="4.51376">
        <ele>962.42</ele>
        <time>2017-04-12T09:12:20Z</time>
      </trkpt>
      <trkpt lat="45.37859" lon="4.51381">
        <ele>962.42</ele>
        <time>2017-04-12T09:12:21Z</time>
      </trkpt>
      <trkpt lat="45.37846" lon="4.51434">
        <ele>962.42</ele>
        <time>2017-04-12T09:12:31Z</time>
      </trkpt>
      <trkpt lat="45.37845" lon="4.51441">
        <ele>962.42</ele>
        <time>2017-04-12T09:12:32Z</time>
      </trkpt>
      <trkpt lat="45.37845" lon="4.51447">
        <ele>961.94</ele>
        <time>2017-04-12T09:12:33Z</time>
      </trkpt>
      <trkpt lat="45.37844" lon="4.51453">
        <ele>961.46</ele>
        <time>2017-04-12T09:12:34Z</time>
      </trkpt>
      <trkpt lat="45.37843" lon="4.51459">
        <ele>960.98</ele>
        <time>2017-04-12T09:12:35Z</time>
      </trkpt>
      <trkpt lat="45.3784" lon="4.51466">
        <ele>960.49</ele>
        <time>2017-04-12T09:12:36Z</time>
      </trkpt>
      <trkpt lat="45.37836" lon="4.51474">
        <ele>960.01</ele>
        <time>2017-04-12T09:12:37Z</time>
      </trkpt>
      <trkpt lat="45.37804" lon="4.51537">
        <ele>958.57</ele>
        <time>2017-04-12T09:12:46Z</time>
      </trkpt>
      <trkpt lat="45.37793" lon="4.5156">
        <ele>957.13</ele>
        <time>2017-04-12T09:12:49Z</time>
      </trkpt>
      <trkpt lat="45.37789" lon="4.51567">
        <ele>957.13</ele>
        <time>2017-04-12T09:12:50Z</time>
      </trkpt>
      <trkpt lat="45.37785" lon="4.51573">
        <ele>957.13</ele>
        <time>2017-04-12T09:12:51Z</time>
      </trkpt>
      <trkpt lat="45.3778" lon="4.51579">
        <ele>957.13</ele>
        <time>2017-04-12T09:12:52Z</time>
      </trkpt>
      <trkpt lat="45.37775" lon="4.51584">
        <ele>957.13</ele>
        <time>2017-04-12T09:12:53Z</time>
      </trkpt>
      <trkpt lat="45.3777" lon="4.51588">
        <ele>957.13</ele>
        <time>2017-04-12T09:12:54Z</time>
      </trkpt>
      <trkpt lat="45.37765" lon="4.51591">
        <ele>957.13</ele>
        <time>2017-04-12T09:12:55Z</time>
      </trkpt>
      <trkpt lat="45.3776" lon="4.51593">
        <ele>957.13</ele>
        <time>2017-04-12T09:12:56Z</time>
      </trkpt>
      <trkpt lat="45.37755" lon="4.51595">
        <ele>957.13</ele>
        <time>2017-04-12T09:12:57Z</time>
      </trkpt>
      <trkpt lat="45.3775" lon="4.51597">
        <ele>957.13</ele>
        <time>2017-04-12T09:12:58Z</time>
      </trkpt>
      <trkpt lat="45.37722" lon="4.51615">
        <ele>957.13</ele>
        <time>2017-04-12T09:13:03Z</time>
      </trkpt>
      <trkpt lat="45.37717" lon="4.51621">
        <ele>956.65</ele>
        <time>2017-04-12T09:13:04Z</time>
      </trkpt>
      <trkpt lat="45.37713" lon="4.51627">
        <ele>956.65</ele>
        <time>2017-04-12T09:13:05Z</time>
      </trkpt>
      <trkpt lat="45.3771" lon="4.51634">
        <ele>957.13</ele>
        <time>2017-04-12T09:13:06Z</time>
      </trkpt>
      <trkpt lat="45.37708" lon="4.51641">
        <ele>957.13</ele>
        <time>2017-04-12T09:13:07Z</time>
      </trkpt>
      <trkpt lat="45.37706" lon="4.51648">
        <ele>957.13</ele>
        <time>2017-04-12T09:13:08Z</time>
      </trkpt>
      <trkpt lat="45.37706" lon="4.51654">
        <ele>957.61</ele>
        <time>2017-04-12T09:13:09Z</time>
      </trkpt>
      <trkpt lat="45.37705" lon="4.51659">
        <ele>958.09</ele>
        <time>2017-04-12T09:13:10Z</time>
      </trkpt>
      <trkpt lat="45.37705" lon="4.51663">
        <ele>958.09</ele>
        <time>2017-04-12T09:13:11Z</time>
      </trkpt>
      <trkpt lat="45.37704" lon="4.51696">
        <ele>960.98</ele>
        <time>2017-04-12T09:13:21Z</time>
      </trkpt>
      <trkpt lat="45.37698" lon="4.51726">
        <ele>963.86</ele>
        <time>2017-04-12T09:13:33Z</time>
      </trkpt>
      <trkpt lat="45.37689" lon="4.51759">
        <ele>966.74</ele>
        <time>2017-04-12T09:13:48Z</time>
      </trkpt>
      <trkpt lat="45.37679" lon="4.51785">
        <ele>968.67</ele>
        <time>2017-04-12T09:14:01Z</time>
      </trkpt>
      <trkpt lat="45.37678" lon="4.51787">
        <ele>968.67</ele>
        <time>2017-04-12T09:14:02Z</time>
      </trkpt>
      <trkpt lat="45.37663" lon="4.51817">
        <ele>970.59</ele>
        <time>2017-04-12T09:14:18Z</time>
      </trkpt>
      <trkpt lat="45.37659" lon="4.51825">
        <ele>971.55</ele>
        <time>2017-04-12T09:14:22Z</time>
      </trkpt>
      <trkpt lat="45.37658" lon="4.51827">
        <ele>972.03</ele>
        <time>2017-04-12T09:14:23Z</time>
      </trkpt>
      <trkpt lat="45.37658" lon="4.51828">
        <ele>972.03</ele>
        <time>2017-04-12T09:14:24Z</time>
      </trkpt>
      <trkpt lat="45.37657" lon="4.5183">
        <ele>972.03</ele>
        <time>2017-04-12T09:14:25Z</time>
      </trkpt>
      <trkpt lat="45.37656" lon="4.51831">
        <ele>972.03</ele>
        <time>2017-04-12T09:14:26Z</time>
      </trkpt>
      <trkpt lat="45.37655" lon="4.51833">
        <ele>972.51</ele>
        <time>2017-04-12T09:14:27Z</time>
      </trkpt>
      <trkpt lat="45.37643" lon="4.51859">
        <ele>973.95</ele>
        <time>2017-04-12T09:14:41Z</time>
      </trkpt>
      <trkpt lat="45.37619" lon="4.51885">
        <ele>974.43</ele>
        <time>2017-04-12T09:14:54Z</time>
      </trkpt>
      <trkpt lat="45.37585" lon="4.51886">
        <ele>972.99</ele>
        <time>2017-04-12T09:15:05Z</time>
      </trkpt>
      <trkpt lat="45.37546" lon="4.51885">
        <ele>970.11</ele>
        <time>2017-04-12T09:15:12Z</time>
      </trkpt>
      <trkpt lat="45.37539" lon="4.51886">
        <ele>970.11</ele>
        <time>2017-04-12T09:15:13Z</time>
      </trkpt>
      <trkpt lat="45.37513" lon="4.51888">
        <ele>968.67</ele>
        <time>2017-04-12T09:15:17Z</time>
      </trkpt>
      <trkpt lat="45.37507" lon="4.5189">
        <ele>968.67</ele>
        <time>2017-04-12T09:15:18Z</time>
      </trkpt>
      <trkpt lat="45.37502" lon="4.51893">
        <ele>968.18</ele>
        <time>2017-04-12T09:15:19Z</time>
      </trkpt>
      <trkpt lat="45.37499" lon="4.51898">
        <ele>968.18</ele>
        <time>2017-04-12T09:15:20Z</time>
      </trkpt>
      <trkpt lat="45.37497" lon="4.51906">
        <ele>968.18</ele>
        <time>2017-04-12T09:15:21Z</time>
      </trkpt>
      <trkpt lat="45.37497" lon="4.51913">
        <ele>967.22</ele>
        <time>2017-04-12T09:15:22Z</time>
      </trkpt>
      <trkpt lat="45.37499" lon="4.5192">
        <ele>967.22</ele>
        <time>2017-04-12T09:15:23Z</time>
      </trkpt>
      <trkpt lat="45.37501" lon="4.51926">
        <ele>967.22</ele>
        <time>2017-04-12T09:15:24Z</time>
      </trkpt>
      <trkpt lat="45.37504" lon="4.51932">
        <ele>967.22</ele>
        <time>2017-04-12T09:15:25Z</time>
      </trkpt>
      <trkpt lat="45.37506" lon="4.51937">
        <ele>967.22</ele>
        <time>2017-04-12T09:15:26Z</time>
      </trkpt>
      <trkpt lat="45.37508" lon="4.51941">
        <ele>967.7</ele>
        <time>2017-04-12T09:15:27Z</time>
      </trkpt>
      <trkpt lat="45.3751" lon="4.51946">
        <ele>968.18</ele>
        <time>2017-04-12T09:15:28Z</time>
      </trkpt>
      <trkpt lat="45.37512" lon="4.5195">
        <ele>968.18</ele>
        <time>2017-04-12T09:15:29Z</time>
      </trkpt>
      <trkpt lat="45.37514" lon="4.51955">
        <ele>968.18</ele>
        <time>2017-04-12T09:15:30Z</time>
      </trkpt>
      <trkpt lat="45.37519" lon="4.52004">
        <ele>969.15</ele>
        <time>2017-04-12T09:15:39Z</time>
      </trkpt>
      <trkpt lat="45.37518" lon="4.52009">
        <ele>969.63</ele>
        <time>2017-04-12T09:15:40Z</time>
      </trkpt>
      <trkpt lat="45.37517" lon="4.52013">
        <ele>969.63</ele>
        <time>2017-04-12T09:15:41Z</time>
      </trkpt>
      <trkpt lat="45.37491" lon="4.52054">
        <ele>970.11</ele>
        <time>2017-04-12T09:15:51Z</time>
      </trkpt>
      <trkpt lat="45.37488" lon="4.52059">
        <ele>969.63</ele>
        <time>2017-04-12T09:15:52Z</time>
      </trkpt>
      <trkpt lat="45.37457" lon="4.52105">
        <ele>968.18</ele>
        <time>2017-04-12T09:16:01Z</time>
      </trkpt>
      <trkpt lat="45.37455" lon="4.52111">
        <ele>967.7</ele>
        <time>2017-04-12T09:16:02Z</time>
      </trkpt>
      <trkpt lat="45.37453" lon="4.52117">
        <ele>967.7</ele>
        <time>2017-04-12T09:16:03Z</time>
      </trkpt>
      <trkpt lat="45.37453" lon="4.52123">
        <ele>967.7</ele>
        <time>2017-04-12T09:16:04Z</time>
      </trkpt>
      <trkpt lat="45.37455" lon="4.52127">
        <ele>968.18</ele>
        <time>2017-04-12T09:16:05Z</time>
      </trkpt>
      <trkpt lat="45.37456" lon="4.52131">
        <ele>967.7</ele>
        <time>2017-04-12T09:16:06Z</time>
      </trkpt>
      <trkpt lat="45.37457" lon="4.52134">
        <ele>968.18</ele>
        <time>2017-04-12T09:16:07Z</time>
      </trkpt>
      <trkpt lat="45.37459" lon="4.52137">
        <ele>968.18</ele>
        <time>2017-04-12T09:16:08Z</time>
      </trkpt>
      <trkpt lat="45.3746" lon="4.5214">
        <ele>968.18</ele>
        <time>2017-04-12T09:16:09Z</time>
      </trkpt>
      <trkpt lat="45.37469" lon="4.52159">
        <ele>970.11</ele>
        <time>2017-04-12T09:16:17Z</time>
      </trkpt>
      <trkpt lat="45.3747" lon="4.52161">
        <ele>970.59</ele>
        <time>2017-04-12T09:16:18Z</time>
      </trkpt>
      <trkpt lat="45.37471" lon="4.52164">
        <ele>970.59</ele>
        <time>2017-04-12T09:16:19Z</time>
      </trkpt>
      <trkpt lat="45.37473" lon="4.52166">
        <ele>970.59</ele>
        <time>2017-04-12T09:16:20Z</time>
      </trkpt>
      <trkpt lat="45.37475" lon="4.52168">
        <ele>971.07</ele>
        <time>2017-04-12T09:16:21Z</time>
      </trkpt>
      <trkpt lat="45.37478" lon="4.5217">
        <ele>971.07</ele>
        <time>2017-04-12T09:16:22Z</time>
      </trkpt>
      <trkpt lat="45.37481" lon="4.52171">
        <ele>971.55</ele>
        <time>2017-04-12T09:16:23Z</time>
      </trkpt>
      <trkpt lat="45.37483" lon="4.52173">
        <ele>971.55</ele>
        <time>2017-04-12T09:16:24Z</time>
      </trkpt>
      <trkpt lat="45.37485" lon="4.52174">
        <ele>972.03</ele>
        <time>2017-04-12T09:16:25Z</time>
      </trkpt>
      <trkpt lat="45.37488" lon="4.52175">
        <ele>972.03</ele>
        <time>2017-04-12T09:16:26Z</time>
      </trkpt>
      <trkpt lat="45.37491" lon="4.52175">
        <ele>972.03</ele>
        <time>2017-04-12T09:16:27Z</time>
      </trkpt>
      <trkpt lat="45.3752" lon="4.52191">
        <ele>974.43</ele>
        <time>2017-04-12T09:16:39Z</time>
      </trkpt>
      <trkpt lat="45.37537" lon="4.52202">
        <ele>975.88</ele>
        <time>2017-04-12T09:16:49Z</time>
      </trkpt>
      <trkpt lat="45.3754" lon="4.52203">
        <ele>975.88</ele>
        <time>2017-04-12T09:16:50Z</time>
      </trkpt>
      <trkpt lat="45.37542" lon="4.52204">
        <ele>976.36</ele>
        <time>2017-04-12T09:16:51Z</time>
      </trkpt>
      <trkpt lat="45.37566" lon="4.52211">
        <ele>977.32</ele>
        <time>2017-04-12T09:17:01Z</time>
      </trkpt>
      <trkpt lat="45.37568" lon="4.52211">
        <ele>977.32</ele>
        <time>2017-04-12T09:17:02Z</time>
      </trkpt>
      <trkpt lat="45.3757" lon="4.52211">
        <ele>977.8</ele>
        <time>2017-04-12T09:17:03Z</time>
      </trkpt>
      <trkpt lat="45.37572" lon="4.52211">
        <ele>977.8</ele>
        <time>2017-04-12T09:17:04Z</time>
      </trkpt>
      <trkpt lat="45.37575" lon="4.52211">
        <ele>977.8</ele>
        <time>2017-04-12T09:17:05Z</time>
      </trkpt>
      <trkpt lat="45.37578" lon="4.5221">
        <ele>977.8</ele>
        <time>2017-04-12T09:17:06Z</time>
      </trkpt>
      <trkpt lat="45.3758" lon="4.5221">
        <ele>977.8</ele>
        <time>2017-04-12T09:17:07Z</time>
      </trkpt>
      <trkpt lat="45.37582" lon="4.5221">
        <ele>978.28</ele>
        <time>2017-04-12T09:17:08Z</time>
      </trkpt>
      <trkpt lat="45.37585" lon="4.52211">
        <ele>978.28</ele>
        <time>2017-04-12T09:17:09Z</time>
      </trkpt>
      <trkpt lat="45.37588" lon="4.52211">
        <ele>978.28</ele>
        <time>2017-04-12T09:17:10Z</time>
      </trkpt>
      <trkpt lat="45.3759" lon="4.52211">
        <ele>978.28</ele>
        <time>2017-04-12T09:17:11Z</time>
      </trkpt>
      <trkpt lat="45.37593" lon="4.52212">
        <ele>978.76</ele>
        <time>2017-04-12T09:17:12Z</time>
      </trkpt>
      <trkpt lat="45.37595" lon="4.52212">
        <ele>978.76</ele>
        <time>2017-04-12T09:17:13Z</time>
      </trkpt>
      <trkpt lat="45.37621" lon="4.52216">
        <ele>979.72</ele>
        <time>2017-04-12T09:17:23Z</time>
      </trkpt>
      <trkpt lat="45.37654" lon="4.52223">
        <ele>981.16</ele>
        <time>2017-04-12T09:17:35Z</time>
      </trkpt>
      <trkpt lat="45.37674" lon="4.52226">
        <ele>982.12</ele>
        <time>2017-04-12T09:17:44Z</time>
      </trkpt>
      <trkpt lat="45.37695" lon="4.52229">
        <ele>983.09</ele>
        <time>2017-04-12T09:17:52Z</time>
      </trkpt>
      <trkpt lat="45.37725" lon="4.52228">
        <ele>984.53</ele>
        <time>2017-04-12T09:18:03Z</time>
      </trkpt>
      <trkpt lat="45.37754" lon="4.52226">
        <ele>985.49</ele>
        <time>2017-04-12T09:18:13Z</time>
      </trkpt>
      <trkpt lat="45.37786" lon="4.52226">
        <ele>987.41</ele>
        <time>2017-04-12T09:18:25Z</time>
      </trkpt>
      <trkpt lat="45.37789" lon="4.52229">
        <ele>988.37</ele>
        <time>2017-04-12T09:18:29Z</time>
      </trkpt>
      <trkpt lat="45.37808" lon="4.52252">
        <ele>990.3</ele>
        <time>2017-04-12T09:18:39Z</time>
      </trkpt>
      <trkpt lat="45.3782" lon="4.52284">
        <ele>990.78</ele>
        <time>2017-04-12T09:18:48Z</time>
      </trkpt>
      <trkpt lat="45.37839" lon="4.5233">
        <ele>992.22</ele>
        <time>2017-04-12T09:19:00Z</time>
      </trkpt>
      <trkpt lat="45.37849" lon="4.52367">
        <ele>993.66</ele>
        <time>2017-04-12T09:19:09Z</time>
      </trkpt>
      <trkpt lat="45.37848" lon="4.52383">
        <ele>993.66</ele>
        <time>2017-04-12T09:19:14Z</time>
      </trkpt>
      <trkpt lat="45.37848" lon="4.52418">
        <ele>995.58</ele>
        <time>2017-04-12T09:19:24Z</time>
      </trkpt>
      <trkpt lat="45.37848" lon="4.52421">
        <ele>995.58</ele>
        <time>2017-04-12T09:19:25Z</time>
      </trkpt>
      <trkpt lat="45.37851" lon="4.52433">
        <ele>996.06</ele>
        <time>2017-04-12T09:19:30Z</time>
      </trkpt>
      <trkpt lat="45.37886" lon="4.52432">
        <ele>995.1</ele>
        <time>2017-04-12T09:19:40Z</time>
      </trkpt>
      <trkpt lat="45.37921" lon="4.52419">
        <ele>996.54</ele>
        <time>2017-04-12T09:19:50Z</time>
      </trkpt>
      <trkpt lat="45.37947" lon="4.52395">
        <ele>999.43</ele>
        <time>2017-04-12T09:20:04Z</time>
      </trkpt>
      <trkpt lat="45.37962" lon="4.52369">
        <ele>1001.83</ele>
        <time>2017-04-12T09:20:17Z</time>
      </trkpt>
      <trkpt lat="45.37981" lon="4.52324">
        <ele>1002.31</ele>
        <time>2017-04-12T09:20:30Z</time>
      </trkpt>
      <trkpt lat="45.37999" lon="4.52274">
        <ele>1001.83</ele>
        <time>2017-04-12T09:20:42Z</time>
      </trkpt>
      <trkpt lat="45.38015" lon="4.52226">
        <ele>1002.79</ele>
        <time>2017-04-12T09:20:52Z</time>
      </trkpt>
      <trkpt lat="45.38039" lon="4.52217">
        <ele>1004.72</ele>
        <time>2017-04-12T09:21:03Z</time>
      </trkpt>
      <trkpt lat="45.38046" lon="4.52214">
        <ele>1005.2</ele>
        <time>2017-04-12T09:21:07Z</time>
      </trkpt>
      <trkpt lat="45.38068" lon="4.52207">
        <ele>1007.12</ele>
        <time>2017-04-12T09:21:17Z</time>
      </trkpt>
      <trkpt lat="45.38078" lon="4.52207">
        <ele>1008.08</ele>
        <time>2017-04-12T09:21:22Z</time>
      </trkpt>
      <trkpt lat="45.38088" lon="4.52204">
        <ele>1009.04</ele>
        <time>2017-04-12T09:21:27Z</time>
      </trkpt>
      <trkpt lat="45.38107" lon="4.52198">
        <ele>1010</ele>
        <time>2017-04-12T09:21:36Z</time>
      </trkpt>
      <trkpt lat="45.38125" lon="4.5219">
        <ele>1011.93</ele>
        <time>2017-04-12T09:21:46Z</time>
      </trkpt>
      <trkpt lat="45.38133" lon="4.52187">
        <ele>1012.41</ele>
        <time>2017-04-12T09:21:50Z</time>
      </trkpt>
      <trkpt lat="45.38134" lon="4.52186">
        <ele>1012.41</ele>
        <time>2017-04-12T09:21:51Z</time>
      </trkpt>
      <trkpt lat="45.38136" lon="4.52185">
        <ele>1012.41</ele>
        <time>2017-04-12T09:21:52Z</time>
      </trkpt>
      <trkpt lat="45.38138" lon="4.52184">
        <ele>1012.41</ele>
        <time>2017-04-12T09:21:53Z</time>
      </trkpt>
      <trkpt lat="45.38162" lon="4.5217">
        <ele>1014.33</ele>
        <time>2017-04-12T09:22:05Z</time>
      </trkpt>
      <trkpt lat="45.38195" lon="4.52149">
        <ele>1016.73</ele>
        <time>2017-04-12T09:22:19Z</time>
      </trkpt>
      <trkpt lat="45.38219" lon="4.52136">
        <ele>1018.65</ele>
        <time>2017-04-12T09:22:32Z</time>
      </trkpt>
      <trkpt lat="45.38248" lon="4.52119">
        <ele>1021.06</ele>
        <time>2017-04-12T09:22:49Z</time>
      </trkpt>
      <trkpt lat="45.38269" lon="4.52105">
        <ele>1023.94</ele>
        <time>2017-04-12T09:23:04Z</time>
      </trkpt>
      <trkpt lat="45.38291" lon="4.52089">
        <ele>1026.34</ele>
        <time>2017-04-12T09:23:20Z</time>
      </trkpt>
      <trkpt lat="45.383" lon="4.52082">
        <ele>1027.79</ele>
        <time>2017-04-12T09:23:28Z</time>
      </trkpt>
      <trkpt lat="45.38301" lon="4.5208">
        <ele>1028.27</ele>
        <time>2017-04-12T09:23:29Z</time>
      </trkpt>
      <trkpt lat="45.38302" lon="4.52079">
        <ele>1028.27</ele>
        <time>2017-04-12T09:23:30Z</time>
      </trkpt>
      <trkpt lat="45.38303" lon="4.52078">
        <ele>1028.27</ele>
        <time>2017-04-12T09:23:31Z</time>
      </trkpt>
      <trkpt lat="45.38304" lon="4.52076">
        <ele>1028.27</ele>
        <time>2017-04-12T09:23:32Z</time>
      </trkpt>
      <trkpt lat="45.38305" lon="4.52075">
        <ele>1028.75</ele>
        <time>2017-04-12T09:23:33Z</time>
      </trkpt>
      <trkpt lat="45.38306" lon="4.52074">
        <ele>1028.75</ele>
        <time>2017-04-12T09:23:34Z</time>
      </trkpt>
      <trkpt lat="45.38317" lon="4.52068">
        <ele>1030.19</ele>
        <time>2017-04-12T09:23:44Z</time>
      </trkpt>
      <trkpt lat="45.38318" lon="4.52067">
        <ele>1030.19</ele>
        <time>2017-04-12T09:23:45Z</time>
      </trkpt>
      <trkpt lat="45.38319" lon="4.52066">
        <ele>1030.67</ele>
        <time>2017-04-12T09:23:46Z</time>
      </trkpt>
      <trkpt lat="45.38331" lon="4.52049">
        <ele>1033.07</ele>
        <time>2017-04-12T09:24:01Z</time>
      </trkpt>
      <trkpt lat="45.38332" lon="4.52048">
        <ele>1033.55</ele>
        <time>2017-04-12T09:24:02Z</time>
      </trkpt>
      <trkpt lat="45.38333" lon="4.52047">
        <ele>1033.55</ele>
        <time>2017-04-12T09:24:03Z</time>
      </trkpt>
      <trkpt lat="45.38334" lon="4.52047">
        <ele>1033.55</ele>
        <time>2017-04-12T09:24:04Z</time>
      </trkpt>
      <trkpt lat="45.38335" lon="4.52045">
        <ele>1034.04</ele>
        <time>2017-04-12T09:24:05Z</time>
      </trkpt>
      <trkpt lat="45.38348" lon="4.52027">
        <ele>1035.96</ele>
        <time>2017-04-12T09:24:19Z</time>
      </trkpt>
      <trkpt lat="45.38349" lon="4.52026">
        <ele>1035.96</ele>
        <time>2017-04-12T09:24:20Z</time>
      </trkpt>
      <trkpt lat="45.3835" lon="4.52025">
        <ele>1036.44</ele>
        <time>2017-04-12T09:24:21Z</time>
      </trkpt>
      <trkpt lat="45.38358" lon="4.52028">
        <ele>1036.92</ele>
        <time>2017-04-12T09:24:27Z</time>
      </trkpt>
      <trkpt lat="45.38358" lon="4.5203">
        <ele>1036.92</ele>
        <time>2017-04-12T09:24:28Z</time>
      </trkpt>
      <trkpt lat="45.38358" lon="4.52031">
        <ele>1036.92</ele>
        <time>2017-04-12T09:24:29Z</time>
      </trkpt>
      <trkpt lat="45.38358" lon="4.52033">
        <ele>1037.4</ele>
        <time>2017-04-12T09:24:30Z</time>
      </trkpt>
      <trkpt lat="45.38358" lon="4.52034">
        <ele>1037.4</ele>
        <time>2017-04-12T09:24:31Z</time>
      </trkpt>
      <trkpt lat="45.38358" lon="4.52038">
        <ele>1037.4</ele>
        <time>2017-04-12T09:24:33Z</time>
      </trkpt>
      <trkpt lat="45.38358" lon="4.52039">
        <ele>1037.4</ele>
        <time>2017-04-12T09:24:34Z</time>
      </trkpt>
      <trkpt lat="45.38357" lon="4.52041">
        <ele>1037.88</ele>
        <time>2017-04-12T09:24:35Z</time>
      </trkpt>
      <trkpt lat="45.38357" lon="4.52042">
        <ele>1037.88</ele>
        <time>2017-04-12T09:24:36Z</time>
      </trkpt>
      <trkpt lat="45.38355" lon="4.52047">
        <ele>1038.36</ele>
        <time>2017-04-12T09:24:40Z</time>
      </trkpt>
      <trkpt lat="45.38354" lon="4.52049">
        <ele>1038.36</ele>
        <time>2017-04-12T09:24:41Z</time>
      </trkpt>
      <trkpt lat="45.38353" lon="4.5205">
        <ele>1038.84</ele>
        <time>2017-04-12T09:24:42Z</time>
      </trkpt>
      <trkpt lat="45.38345" lon="4.52066">
        <ele>1040.76</ele>
        <time>2017-04-12T09:24:54Z</time>
      </trkpt>
      <trkpt lat="45.38342" lon="4.5207">
        <ele>1040.76</ele>
        <time>2017-04-12T09:24:57Z</time>
      </trkpt>
      <trkpt lat="45.38342" lon="4.52071">
        <ele>1041.25</ele>
        <time>2017-04-12T09:24:58Z</time>
      </trkpt>
      <trkpt lat="45.38341" lon="4.52072">
        <ele>1041.25</ele>
        <time>2017-04-12T09:24:59Z</time>
      </trkpt>
      <trkpt lat="45.38341" lon="4.52074">
        <ele>1041.25</ele>
        <time>2017-04-12T09:25:00Z</time>
      </trkpt>
      <trkpt lat="45.3834" lon="4.52075">
        <ele>1041.25</ele>
        <time>2017-04-12T09:25:01Z</time>
      </trkpt>
      <trkpt lat="45.38327" lon="4.521">
        <ele>1043.65</ele>
        <time>2017-04-12T09:25:18Z</time>
      </trkpt>
      <trkpt lat="45.38316" lon="4.52119">
        <ele>1046.53</ele>
        <time>2017-04-12T09:25:32Z</time>
      </trkpt>
      <trkpt lat="45.38315" lon="4.52124">
        <ele>1047.01</ele>
        <time>2017-04-12T09:25:35Z</time>
      </trkpt>
      <trkpt lat="45.38315" lon="4.52126">
        <ele>1047.01</ele>
        <time>2017-04-12T09:25:36Z</time>
      </trkpt>
      <trkpt lat="45.38315" lon="4.52128">
        <ele>1047.49</ele>
        <time>2017-04-12T09:25:37Z</time>
      </trkpt>
      <trkpt lat="45.38315" lon="4.52129">
        <ele>1047.49</ele>
        <time>2017-04-12T09:25:38Z</time>
      </trkpt>
      <trkpt lat="45.38315" lon="4.52131">
        <ele>1047.49</ele>
        <time>2017-04-12T09:25:39Z</time>
      </trkpt>
      <trkpt lat="45.38313" lon="4.52136">
        <ele>1047.97</ele>
        <time>2017-04-12T09:25:42Z</time>
      </trkpt>
      <trkpt lat="45.38307" lon="4.52149">
        <ele>1049.9</ele>
        <time>2017-04-12T09:25:51Z</time>
      </trkpt>
      <trkpt lat="45.38306" lon="4.5215">
        <ele>1049.9</ele>
        <time>2017-04-12T09:25:52Z</time>
      </trkpt>
      <trkpt lat="45.38305" lon="4.52154">
        <ele>1050.38</ele>
        <time>2017-04-12T09:25:55Z</time>
      </trkpt>
      <trkpt lat="45.38304" lon="4.52156">
        <ele>1050.86</ele>
        <time>2017-04-12T09:25:56Z</time>
      </trkpt>
      <trkpt lat="45.38302" lon="4.52157">
        <ele>1050.86</ele>
        <time>2017-04-12T09:25:57Z</time>
      </trkpt>
      <trkpt lat="45.38301" lon="4.52158">
        <ele>1050.86</ele>
        <time>2017-04-12T09:25:58Z</time>
      </trkpt>
      <trkpt lat="45.38301" lon="4.52159">
        <ele>1051.34</ele>
        <time>2017-04-12T09:25:59Z</time>
      </trkpt>
      <trkpt lat="45.383" lon="4.5216">
        <ele>1051.34</ele>
        <time>2017-04-12T09:26:00Z</time>
      </trkpt>
      <trkpt lat="45.38298" lon="4.52162">
        <ele>1050.86</ele>
        <time>2017-04-12T09:26:11Z</time>
      </trkpt>
      <trkpt lat="45.38297" lon="4.5216">
        <ele>1050.86</ele>
        <time>2017-04-12T09:26:38Z</time>
      </trkpt>
      <trkpt lat="45.383" lon="4.52157">
        <ele>1050.86</ele>
        <time>2017-04-12T09:27:04Z</time>
      </trkpt>
      <trkpt lat="45.38295" lon="4.5216">
        <ele>1050.86</ele>
        <time>2017-04-12T09:27:31Z</time>
      </trkpt>
      <trkpt lat="45.38294" lon="4.52157">
        <ele>1050.86</ele>
        <time>2017-04-12T09:28:00Z</time>
      </trkpt>
      <trkpt lat="45.38296" lon="4.52155">
        <ele>1050.86</ele>
        <time>2017-04-12T09:28:23Z</time>
      </trkpt>
      <trkpt lat="45.38297" lon="4.52155">
        <ele>1050.86</ele>
        <time>2017-04-12T09:28:54Z</time>
      </trkpt>
      <trkpt lat="45.38297" lon="4.52161">
        <ele>1051.82</ele>
        <time>2017-04-12T09:29:15Z</time>
      </trkpt>
      <trkpt lat="45.38294" lon="4.52165">
        <ele>1051.82</ele>
        <time>2017-04-12T09:29:37Z</time>
      </trkpt>
      <trkpt lat="45.38298" lon="4.52166">
        <ele>1052.3</ele>
        <time>2017-04-12T09:30:00Z</time>
      </trkpt>
      <trkpt lat="45.38298" lon="4.52168">
        <ele>1052.3</ele>
        <time>2017-04-12T09:30:10Z</time>
      </trkpt>
      <trkpt lat="45.38297" lon="4.52171">
        <ele>1052.78</ele>
        <time>2017-04-12T09:30:12Z</time>
      </trkpt>
      <trkpt lat="45.38296" lon="4.52172">
        <ele>1052.78</ele>
        <time>2017-04-12T09:30:13Z</time>
      </trkpt>
      <trkpt lat="45.38295" lon="4.52173">
        <ele>1053.26</ele>
        <time>2017-04-12T09:30:14Z</time>
      </trkpt>
      <trkpt lat="45.38294" lon="4.52175">
        <ele>1053.26</ele>
        <time>2017-04-12T09:30:15Z</time>
      </trkpt>
      <trkpt lat="45.38294" lon="4.52176">
        <ele>1053.26</ele>
        <time>2017-04-12T09:30:16Z</time>
      </trkpt>
      <trkpt lat="45.38293" lon="4.52177">
        <ele>1053.26</ele>
        <time>2017-04-12T09:30:17Z</time>
      </trkpt>
      <trkpt lat="45.38292" lon="4.52179">
        <ele>1053.74</ele>
        <time>2017-04-12T09:30:18Z</time>
      </trkpt>
      <trkpt lat="45.38292" lon="4.5218">
        <ele>1053.74</ele>
        <time>2017-04-12T09:30:19Z</time>
      </trkpt>
      <trkpt lat="45.3828" lon="4.52201">
        <ele>1056.63</ele>
        <time>2017-04-12T09:30:32Z</time>
      </trkpt>
      <trkpt lat="45.3828" lon="4.52203">
        <ele>1056.63</ele>
        <time>2017-04-12T09:30:33Z</time>
      </trkpt>
      <trkpt lat="45.38274" lon="4.52215">
        <ele>1058.07</ele>
        <time>2017-04-12T09:30:40Z</time>
      </trkpt>
      <trkpt lat="45.38274" lon="4.52216">
        <ele>1058.07</ele>
        <time>2017-04-12T09:30:41Z</time>
      </trkpt>
      <trkpt lat="45.38273" lon="4.52218">
        <ele>1058.55</ele>
        <time>2017-04-12T09:30:42Z</time>
      </trkpt>
      <trkpt lat="45.38264" lon="4.52239">
        <ele>1061.91</ele>
        <time>2017-04-12T09:30:55Z</time>
      </trkpt>
      <trkpt lat="45.38254" lon="4.52262">
        <ele>1064.8</ele>
        <time>2017-04-12T09:31:11Z</time>
      </trkpt>
      <trkpt lat="45.38248" lon="4.52284">
        <ele>1067.2</ele>
        <time>2017-04-12T09:31:25Z</time>
      </trkpt>
      <trkpt lat="45.38235" lon="4.52306">
        <ele>1070.08</ele>
        <time>2017-04-12T09:31:42Z</time>
      </trkpt>
      <trkpt lat="45.38226" lon="4.52324">
        <ele>1072.49</ele>
        <time>2017-04-12T09:31:56Z</time>
      </trkpt>
      <trkpt lat="45.38226" lon="4.52325">
        <ele>1072.49</ele>
        <time>2017-04-12T09:31:57Z</time>
      </trkpt>
      <trkpt lat="45.38216" lon="4.52348">
        <ele>1075.37</ele>
        <time>2017-04-12T09:32:13Z</time>
      </trkpt>
      <trkpt lat="45.38207" lon="4.52368">
        <ele>1078.26</ele>
        <time>2017-04-12T09:32:28Z</time>
      </trkpt>
      <trkpt lat="45.38206" lon="4.52371">
        <ele>1078.74</ele>
        <time>2017-04-12T09:32:30Z</time>
      </trkpt>
      <trkpt lat="45.38205" lon="4.52372">
        <ele>1079.22</ele>
        <time>2017-04-12T09:32:31Z</time>
      </trkpt>
      <trkpt lat="45.38197" lon="4.52392">
        <ele>1082.1</ele>
        <time>2017-04-12T09:32:47Z</time>
      </trkpt>
      <trkpt lat="45.38188" lon="4.52414">
        <ele>1084.99</ele>
        <time>2017-04-12T09:33:05Z</time>
      </trkpt>
      <trkpt lat="45.38188" lon="4.52415">
        <ele>1085.47</ele>
        <time>2017-04-12T09:33:06Z</time>
      </trkpt>
      <trkpt lat="45.38182" lon="4.52427">
        <ele>1086.91</ele>
        <time>2017-04-12T09:33:15Z</time>
      </trkpt>
      <trkpt lat="45.38177" lon="4.52445">
        <ele>1089.79</ele>
        <time>2017-04-12T09:33:29Z</time>
      </trkpt>
      <trkpt lat="45.38171" lon="4.52462">
        <ele>1091.71</ele>
        <time>2017-04-12T09:33:43Z</time>
      </trkpt>
      <trkpt lat="45.38163" lon="4.52478">
        <ele>1094.6</ele>
        <time>2017-04-12T09:33:57Z</time>
      </trkpt>
      <trkpt lat="45.38157" lon="4.52493">
        <ele>1097</ele>
        <time>2017-04-12T09:34:12Z</time>
      </trkpt>
      <trkpt lat="45.38138" lon="4.52515">
        <ele>1096.52</ele>
        <time>2017-04-12T09:34:24Z</time>
      </trkpt>
      <trkpt lat="45.38109" lon="4.5255">
        <ele>1096.04</ele>
        <time>2017-04-12T09:34:34Z</time>
      </trkpt>
      <trkpt lat="45.38095" lon="4.52569">
        <ele>1095.56</ele>
        <time>2017-04-12T09:34:38Z</time>
      </trkpt>
      <trkpt lat="45.38068" lon="4.52631">
        <ele>1095.56</ele>
        <time>2017-04-12T09:34:50Z</time>
      </trkpt>
      <trkpt lat="45.3806" lon="4.52697">
        <ele>1096.04</ele>
        <time>2017-04-12T09:35:03Z</time>
      </trkpt>
      <trkpt lat="45.38053" lon="4.52753">
        <ele>1097.48</ele>
        <time>2017-04-12T09:35:16Z</time>
      </trkpt>
      <trkpt lat="45.38051" lon="4.52812">
        <ele>1099.89</ele>
        <time>2017-04-12T09:35:32Z</time>
      </trkpt>
      <trkpt lat="45.38052" lon="4.52817">
        <ele>1099.89</ele>
        <time>2017-04-12T09:35:34Z</time>
      </trkpt>
      <trkpt lat="45.38053" lon="4.52819">
        <ele>1099.89</ele>
        <time>2017-04-12T09:35:35Z</time>
      </trkpt>
      <trkpt lat="45.38053" lon="4.52821">
        <ele>1099.89</ele>
        <time>2017-04-12T09:35:36Z</time>
      </trkpt>
      <trkpt lat="45.38052" lon="4.52824">
        <ele>1099.89</ele>
        <time>2017-04-12T09:35:37Z</time>
      </trkpt>
      <trkpt lat="45.38051" lon="4.52826">
        <ele>1099.89</ele>
        <time>2017-04-12T09:35:38Z</time>
      </trkpt>
      <trkpt lat="45.3805" lon="4.52828">
        <ele>1100.37</ele>
        <time>2017-04-12T09:35:39Z</time>
      </trkpt>
      <trkpt lat="45.38049" lon="4.52829">
        <ele>1100.37</ele>
        <time>2017-04-12T09:35:40Z</time>
      </trkpt>
      <trkpt lat="45.38048" lon="4.52831">
        <ele>1100.37</ele>
        <time>2017-04-12T09:35:41Z</time>
      </trkpt>
      <trkpt lat="45.38035" lon="4.52862">
        <ele>1100.85</ele>
        <time>2017-04-12T09:35:53Z</time>
      </trkpt>
      <trkpt lat="45.38024" lon="4.52895">
        <ele>1103.25</ele>
        <time>2017-04-12T09:36:08Z</time>
      </trkpt>
      <trkpt lat="45.38016" lon="4.52916">
        <ele>1104.69</ele>
        <time>2017-04-12T09:36:20Z</time>
      </trkpt>
      <trkpt lat="45.38009" lon="4.52945">
        <ele>1107.58</ele>
        <time>2017-04-12T09:36:35Z</time>
      </trkpt>
      <trkpt lat="45.38009" lon="4.52947">
        <ele>1108.06</ele>
        <time>2017-04-12T09:36:36Z</time>
      </trkpt>
      <trkpt lat="45.38008" lon="4.52949">
        <ele>1108.06</ele>
        <time>2017-04-12T09:36:37Z</time>
      </trkpt>
      <trkpt lat="45.38008" lon="4.52951">
        <ele>1108.54</ele>
        <time>2017-04-12T09:36:38Z</time>
      </trkpt>
      <trkpt lat="45.38003" lon="4.52974">
        <ele>1110.46</ele>
        <time>2017-04-12T09:36:51Z</time>
      </trkpt>
      <trkpt lat="45.37999" lon="4.52994">
        <ele>1112.86</ele>
        <time>2017-04-12T09:37:04Z</time>
      </trkpt>
      <trkpt lat="45.37996" lon="4.53003">
        <ele>1113.82</ele>
        <time>2017-04-12T09:37:11Z</time>
      </trkpt>
      <trkpt lat="45.37995" lon="4.53005">
        <ele>1114.31</ele>
        <time>2017-04-12T09:37:12Z</time>
      </trkpt>
      <trkpt lat="45.37992" lon="4.53015">
        <ele>1115.75</ele>
        <time>2017-04-12T09:37:19Z</time>
      </trkpt>
      <trkpt lat="45.37989" lon="4.53032">
        <ele>1117.67</ele>
        <time>2017-04-12T09:37:32Z</time>
      </trkpt>
      <trkpt lat="45.37985" lon="4.53039">
        <ele>1118.63</ele>
        <time>2017-04-12T09:37:37Z</time>
      </trkpt>
      <trkpt lat="45.37977" lon="4.53063">
        <ele>1121.03</ele>
        <time>2017-04-12T09:37:53Z</time>
      </trkpt>
      <trkpt lat="45.37974" lon="4.53074">
        <ele>1122.48</ele>
        <time>2017-04-12T09:38:02Z</time>
      </trkpt>
      <trkpt lat="45.37968" lon="4.53093">
        <ele>1124.88</ele>
        <time>2017-04-12T09:38:15Z</time>
      </trkpt>
      <trkpt lat="45.37968" lon="4.53095">
        <ele>1124.88</ele>
        <time>2017-04-12T09:38:16Z</time>
      </trkpt>
      <trkpt lat="45.37967" lon="4.53096">
        <ele>1124.88</ele>
        <time>2017-04-12T09:38:17Z</time>
      </trkpt>
      <trkpt lat="45.37967" lon="4.53098">
        <ele>1125.36</ele>
        <time>2017-04-12T09:38:18Z</time>
      </trkpt>
      <trkpt lat="45.37966" lon="4.531">
        <ele>1125.36</ele>
        <time>2017-04-12T09:38:19Z</time>
      </trkpt>
      <trkpt lat="45.37964" lon="4.53104">
        <ele>1125.84</ele>
        <time>2017-04-12T09:38:22Z</time>
      </trkpt>
      <trkpt lat="45.37964" lon="4.53105">
        <ele>1126.32</ele>
        <time>2017-04-12T09:38:23Z</time>
      </trkpt>
      <trkpt lat="45.37957" lon="4.5312">
        <ele>1128.24</ele>
        <time>2017-04-12T09:38:33Z</time>
      </trkpt>
      <trkpt lat="45.37956" lon="4.53122">
        <ele>1128.73</ele>
        <time>2017-04-12T09:38:35Z</time>
      </trkpt>
      <trkpt lat="45.37956" lon="4.53124">
        <ele>1128.73</ele>
        <time>2017-04-12T09:38:36Z</time>
      </trkpt>
      <trkpt lat="45.37955" lon="4.53125">
        <ele>1128.73</ele>
        <time>2017-04-12T09:38:37Z</time>
      </trkpt>
      <trkpt lat="45.37955" lon="4.53127">
        <ele>1129.21</ele>
        <time>2017-04-12T09:38:38Z</time>
      </trkpt>
      <trkpt lat="45.37954" lon="4.53129">
        <ele>1129.21</ele>
        <time>2017-04-12T09:38:39Z</time>
      </trkpt>
      <trkpt lat="45.37952" lon="4.53138">
        <ele>1130.17</ele>
        <time>2017-04-12T09:38:44Z</time>
      </trkpt>
      <trkpt lat="45.37951" lon="4.53139">
        <ele>1130.17</ele>
        <time>2017-04-12T09:38:45Z</time>
      </trkpt>
      <trkpt lat="45.3795" lon="4.53141">
        <ele>1130.17</ele>
        <time>2017-04-12T09:38:46Z</time>
      </trkpt>
      <trkpt lat="45.3795" lon="4.53143">
        <ele>1130.65</ele>
        <time>2017-04-12T09:38:47Z</time>
      </trkpt>
      <trkpt lat="45.37948" lon="4.53149">
        <ele>1131.13</ele>
        <time>2017-04-12T09:38:50Z</time>
      </trkpt>
      <trkpt lat="45.37945" lon="4.53156">
        <ele>1131.13</ele>
        <time>2017-04-12T09:38:54Z</time>
      </trkpt>
      <trkpt lat="45.37945" lon="4.53159">
        <ele>1131.61</ele>
        <time>2017-04-12T09:38:55Z</time>
      </trkpt>
      <trkpt lat="45.37945" lon="4.53161">
        <ele>1131.61</ele>
        <time>2017-04-12T09:38:56Z</time>
      </trkpt>
      <trkpt lat="45.37945" lon="4.53164">
        <ele>1131.61</ele>
        <time>2017-04-12T09:38:57Z</time>
      </trkpt>
      <trkpt lat="45.37946" lon="4.53173">
        <ele>1132.09</ele>
        <time>2017-04-12T09:39:01Z</time>
      </trkpt>
      <trkpt lat="45.37946" lon="4.53175">
        <ele>1132.09</ele>
        <time>2017-04-12T09:39:02Z</time>
      </trkpt>
      <trkpt lat="45.37946" lon="4.53178">
        <ele>1132.09</ele>
        <time>2017-04-12T09:39:03Z</time>
      </trkpt>
      <trkpt lat="45.37945" lon="4.5318">
        <ele>1132.09</ele>
        <time>2017-04-12T09:39:04Z</time>
      </trkpt>
      <trkpt lat="45.37945" lon="4.53182">
        <ele>1132.09</ele>
        <time>2017-04-12T09:39:05Z</time>
      </trkpt>
      <trkpt lat="45.37944" lon="4.53209">
        <ele>1133.05</ele>
        <time>2017-04-12T09:39:16Z</time>
      </trkpt>
      <trkpt lat="45.37945" lon="4.53212">
        <ele>1133.05</ele>
        <time>2017-04-12T09:39:17Z</time>
      </trkpt>
      <trkpt lat="45.37945" lon="4.53214">
        <ele>1133.05</ele>
        <time>2017-04-12T09:39:18Z</time>
      </trkpt>
      <trkpt lat="45.37945" lon="4.53217">
        <ele>1133.05</ele>
        <time>2017-04-12T09:39:19Z</time>
      </trkpt>
      <trkpt lat="45.37945" lon="4.5322">
        <ele>1133.53</ele>
        <time>2017-04-12T09:39:20Z</time>
      </trkpt>
      <trkpt lat="45.37945" lon="4.53223">
        <ele>1133.53</ele>
        <time>2017-04-12T09:39:21Z</time>
      </trkpt>
      <trkpt lat="45.37946" lon="4.53225">
        <ele>1133.53</ele>
        <time>2017-04-12T09:39:22Z</time>
      </trkpt>
      <trkpt lat="45.37944" lon="4.53259">
        <ele>1135.94</ele>
        <time>2017-04-12T09:39:36Z</time>
      </trkpt>
      <trkpt lat="45.37944" lon="4.53286">
        <ele>1138.34</ele>
        <time>2017-04-12T09:39:48Z</time>
      </trkpt>
      <trkpt lat="45.37944" lon="4.53288">
        <ele>1138.34</ele>
        <time>2017-04-12T09:39:49Z</time>
      </trkpt>
      <trkpt lat="45.37944" lon="4.5329">
        <ele>1138.82</ele>
        <time>2017-04-12T09:39:50Z</time>
      </trkpt>
      <trkpt lat="45.37945" lon="4.53293">
        <ele>1138.82</ele>
        <time>2017-04-12T09:39:51Z</time>
      </trkpt>
      <trkpt lat="45.37945" lon="4.53295">
        <ele>1139.3</ele>
        <time>2017-04-12T09:39:52Z</time>
      </trkpt>
      <trkpt lat="45.37945" lon="4.53297">
        <ele>1139.3</ele>
        <time>2017-04-12T09:39:53Z</time>
      </trkpt>
      <trkpt lat="45.37946" lon="4.53299">
        <ele>1139.3</ele>
        <time>2017-04-12T09:39:54Z</time>
      </trkpt>
      <trkpt lat="45.37946" lon="4.53301">
        <ele>1139.78</ele>
        <time>2017-04-12T09:39:55Z</time>
      </trkpt>
      <trkpt lat="45.37946" lon="4.53327">
        <ele>1141.7</ele>
        <time>2017-04-12T09:40:09Z</time>
      </trkpt>
      <trkpt lat="45.37948" lon="4.53337">
        <ele>1142.18</ele>
        <time>2017-04-12T09:40:14Z</time>
      </trkpt>
      <trkpt lat="45.37948" lon="4.53339">
        <ele>1142.66</ele>
        <time>2017-04-12T09:40:15Z</time>
      </trkpt>
      <trkpt lat="45.37948" lon="4.5334">
        <ele>1142.66</ele>
        <time>2017-04-12T09:40:16Z</time>
      </trkpt>
      <trkpt lat="45.37949" lon="4.53342">
        <ele>1142.66</ele>
        <time>2017-04-12T09:40:17Z</time>
      </trkpt>
      <trkpt lat="45.37949" lon="4.53344">
        <ele>1142.66</ele>
        <time>2017-04-12T09:40:18Z</time>
      </trkpt>
      <trkpt lat="45.3795" lon="4.53349">
        <ele>1143.14</ele>
        <time>2017-04-12T09:40:21Z</time>
      </trkpt>
      <trkpt lat="45.3795" lon="4.53351">
        <ele>1143.63</ele>
        <time>2017-04-12T09:40:22Z</time>
      </trkpt>
      <trkpt lat="45.37951" lon="4.53353">
        <ele>1144.11</ele>
        <time>2017-04-12T09:40:23Z</time>
      </trkpt>
      <trkpt lat="45.37951" lon="4.53355">
        <ele>1143.63</ele>
        <time>2017-04-12T09:40:24Z</time>
      </trkpt>
      <trkpt lat="45.37951" lon="4.53357">
        <ele>1144.11</ele>
        <time>2017-04-12T09:40:25Z</time>
      </trkpt>
      <trkpt lat="45.37951" lon="4.53358">
        <ele>1144.11</ele>
        <time>2017-04-12T09:40:26Z</time>
      </trkpt>
      <trkpt lat="45.37951" lon="4.5336">
        <ele>1144.59</ele>
        <time>2017-04-12T09:40:27Z</time>
      </trkpt>
      <trkpt lat="45.3795" lon="4.53362">
        <ele>1144.59</ele>
        <time>2017-04-12T09:40:28Z</time>
      </trkpt>
      <trkpt lat="45.3795" lon="4.53364">
        <ele>1144.59</ele>
        <time>2017-04-12T09:40:29Z</time>
      </trkpt>
      <trkpt lat="45.3795" lon="4.53365">
        <ele>1144.59</ele>
        <time>2017-04-12T09:40:30Z</time>
      </trkpt>
      <trkpt lat="45.3795" lon="4.53367">
        <ele>1144.59</ele>
        <time>2017-04-12T09:40:31Z</time>
      </trkpt>
      <trkpt lat="45.37949" lon="4.53369">
        <ele>1144.59</ele>
        <time>2017-04-12T09:40:32Z</time>
      </trkpt>
      <trkpt lat="45.37949" lon="4.53371">
        <ele>1145.07</ele>
        <time>2017-04-12T09:40:33Z</time>
      </trkpt>
      <trkpt lat="45.3795" lon="4.53376">
        <ele>1145.55</ele>
        <time>2017-04-12T09:40:36Z</time>
      </trkpt>
      <trkpt lat="45.3795" lon="4.53393">
        <ele>1146.51</ele>
        <time>2017-04-12T09:40:44Z</time>
      </trkpt>
      <trkpt lat="45.37951" lon="4.53396">
        <ele>1146.51</ele>
        <time>2017-04-12T09:40:45Z</time>
      </trkpt>
      <trkpt lat="45.37951" lon="4.534">
        <ele>1146.51</ele>
        <time>2017-04-12T09:40:46Z</time>
      </trkpt>
      <trkpt lat="45.37951" lon="4.53404">
        <ele>1146.99</ele>
        <time>2017-04-12T09:40:47Z</time>
      </trkpt>
      <trkpt lat="45.37951" lon="4.53407">
        <ele>1146.51</ele>
        <time>2017-04-12T09:40:48Z</time>
      </trkpt>
      <trkpt lat="45.37952" lon="4.5341">
        <ele>1146.51</ele>
        <time>2017-04-12T09:40:49Z</time>
      </trkpt>
      <trkpt lat="45.37952" lon="4.53415">
        <ele>1146.99</ele>
        <time>2017-04-12T09:40:50Z</time>
      </trkpt>
      <trkpt lat="45.37952" lon="4.53419">
        <ele>1146.51</ele>
        <time>2017-04-12T09:40:51Z</time>
      </trkpt>
      <trkpt lat="45.37934" lon="4.53457">
        <ele>1145.55</ele>
        <time>2017-04-12T09:41:00Z</time>
      </trkpt>
      <trkpt lat="45.37901" lon="4.53472">
        <ele>1147.47</ele>
        <time>2017-04-12T09:41:11Z</time>
      </trkpt>
      <trkpt lat="45.37875" lon="4.53486">
        <ele>1148.43</ele>
        <time>2017-04-12T09:41:21Z</time>
      </trkpt>
      <trkpt lat="45.37841" lon="4.53502">
        <ele>1149.39</ele>
        <time>2017-04-12T09:41:34Z</time>
      </trkpt>
      <trkpt lat="45.37803" lon="4.5351">
        <ele>1149.39</ele>
        <time>2017-04-12T09:41:44Z</time>
      </trkpt>
      <trkpt lat="45.37798" lon="4.53511">
        <ele>1148.43</ele>
        <time>2017-04-12T09:41:45Z</time>
      </trkpt>
      <trkpt lat="45.37788" lon="4.53512">
        <ele>1148.91</ele>
        <time>2017-04-12T09:41:47Z</time>
      </trkpt>
      <trkpt lat="45.37783" lon="4.53513">
        <ele>1148.43</ele>
        <time>2017-04-12T09:41:48Z</time>
      </trkpt>
      <trkpt lat="45.37778" lon="4.53513">
        <ele>1147.95</ele>
        <time>2017-04-12T09:41:49Z</time>
      </trkpt>
      <trkpt lat="45.37768" lon="4.53511">
        <ele>1147.95</ele>
        <time>2017-04-12T09:41:51Z</time>
      </trkpt>
      <trkpt lat="45.37763" lon="4.5351">
        <ele>1147.47</ele>
        <time>2017-04-12T09:41:52Z</time>
      </trkpt>
      <trkpt lat="45.37758" lon="4.53509">
        <ele>1147.47</ele>
        <time>2017-04-12T09:41:53Z</time>
      </trkpt>
      <trkpt lat="45.37753" lon="4.53509">
        <ele>1147.47</ele>
        <time>2017-04-12T09:41:54Z</time>
      </trkpt>
      <trkpt lat="45.37748" lon="4.53509">
        <ele>1146.99</ele>
        <time>2017-04-12T09:41:55Z</time>
      </trkpt>
      <trkpt lat="45.37732" lon="4.53509">
        <ele>1146.51</ele>
        <time>2017-04-12T09:41:58Z</time>
      </trkpt>
      <trkpt lat="45.37727" lon="4.53508">
        <ele>1146.99</ele>
        <time>2017-04-12T09:41:59Z</time>
      </trkpt>
      <trkpt lat="45.37699" lon="4.535">
        <ele>1148.43</ele>
        <time>2017-04-12T09:42:06Z</time>
      </trkpt>
      <trkpt lat="45.37694" lon="4.53499">
        <ele>1148.43</ele>
        <time>2017-04-12T09:42:07Z</time>
      </trkpt>
      <trkpt lat="45.37689" lon="4.53498">
        <ele>1148.43</ele>
        <time>2017-04-12T09:42:08Z</time>
      </trkpt>
      <trkpt lat="45.37672" lon="4.53494">
        <ele>1148.91</ele>
        <time>2017-04-12T09:42:12Z</time>
      </trkpt>
      <trkpt lat="45.37667" lon="4.53492">
        <ele>1148.91</ele>
        <time>2017-04-12T09:42:13Z</time>
      </trkpt>
      <trkpt lat="45.37663" lon="4.53491">
        <ele>1148.91</ele>
        <time>2017-04-12T09:42:14Z</time>
      </trkpt>
      <trkpt lat="45.37659" lon="4.53491">
        <ele>1149.39</ele>
        <time>2017-04-12T09:42:15Z</time>
      </trkpt>
      <trkpt lat="45.37655" lon="4.5349">
        <ele>1149.39</ele>
        <time>2017-04-12T09:42:16Z</time>
      </trkpt>
      <trkpt lat="45.3765" lon="4.53489">
        <ele>1149.39</ele>
        <time>2017-04-12T09:42:17Z</time>
      </trkpt>
      <trkpt lat="45.376" lon="4.53471">
        <ele>1151.32</ele>
        <time>2017-04-12T09:42:30Z</time>
      </trkpt>
      <trkpt lat="45.37564" lon="4.53465">
        <ele>1152.28</ele>
        <time>2017-04-12T09:42:40Z</time>
      </trkpt>
      <trkpt lat="45.37504" lon="4.53464">
        <ele>1154.68</ele>
        <time>2017-04-12T09:42:56Z</time>
      </trkpt>
      <trkpt lat="45.37458" lon="4.53473">
        <ele>1155.16</ele>
        <time>2017-04-12T09:43:10Z</time>
      </trkpt>
      <trkpt lat="45.37423" lon="4.53474">
        <ele>1157.08</ele>
        <time>2017-04-12T09:43:22Z</time>
      </trkpt>
      <trkpt lat="45.37384" lon="4.53472">
        <ele>1157.08</ele>
        <time>2017-04-12T09:43:35Z</time>
      </trkpt>
      <trkpt lat="45.37349" lon="4.53489">
        <ele>1157.56</ele>
        <time>2017-04-12T09:43:47Z</time>
      </trkpt>
      <trkpt lat="45.37327" lon="4.53523">
        <ele>1159.01</ele>
        <time>2017-04-12T09:43:59Z</time>
      </trkpt>
      <trkpt lat="45.37303" lon="4.53566">
        <ele>1160.45</ele>
        <time>2017-04-12T09:44:12Z</time>
      </trkpt>
      <trkpt lat="45.37278" lon="4.53622">
        <ele>1160.93</ele>
        <time>2017-04-12T09:44:27Z</time>
      </trkpt>
      <trkpt lat="45.37264" lon="4.5367">
        <ele>1161.89</ele>
        <time>2017-04-12T09:44:38Z</time>
      </trkpt>
      <trkpt lat="45.37249" lon="4.53719">
        <ele>1162.85</ele>
        <time>2017-04-12T09:44:51Z</time>
      </trkpt>
      <trkpt lat="45.37236" lon="4.53771">
        <ele>1163.81</ele>
        <time>2017-04-12T09:45:03Z</time>
      </trkpt>
      <trkpt lat="45.37227" lon="4.53818">
        <ele>1165.26</ele>
        <time>2017-04-12T09:45:14Z</time>
      </trkpt>
      <trkpt lat="45.37226" lon="4.53834">
        <ele>1165.26</ele>
        <time>2017-04-12T09:45:18Z</time>
      </trkpt>
      <trkpt lat="45.37222" lon="4.53873">
        <ele>1167.18</ele>
        <time>2017-04-12T09:45:28Z</time>
      </trkpt>
      <trkpt lat="45.37218" lon="4.53919">
        <ele>1168.14</ele>
        <time>2017-04-12T09:45:40Z</time>
      </trkpt>
      <trkpt lat="45.37217" lon="4.53933">
        <ele>1168.62</ele>
        <time>2017-04-12T09:45:45Z</time>
      </trkpt>
      <trkpt lat="45.37213" lon="4.53978">
        <ele>1170.06</ele>
        <time>2017-04-12T09:45:57Z</time>
      </trkpt>
      <trkpt lat="45.37203" lon="4.5402">
        <ele>1171.02</ele>
        <time>2017-04-12T09:46:09Z</time>
      </trkpt>
      <trkpt lat="45.37185" lon="4.54083">
        <ele>1171.02</ele>
        <time>2017-04-12T09:46:23Z</time>
      </trkpt>
      <trkpt lat="45.37176" lon="4.54125">
        <ele>1172.47</ele>
        <time>2017-04-12T09:46:34Z</time>
      </trkpt>
      <trkpt lat="45.37176" lon="4.54159">
        <ele>1173.43</ele>
        <time>2017-04-12T09:46:44Z</time>
      </trkpt>
      <trkpt lat="45.37176" lon="4.54162">
        <ele>1173.43</ele>
        <time>2017-04-12T09:46:45Z</time>
      </trkpt>
      <trkpt lat="45.37176" lon="4.54165">
        <ele>1173.91</ele>
        <time>2017-04-12T09:46:46Z</time>
      </trkpt>
      <trkpt lat="45.37176" lon="4.54169">
        <ele>1174.39</ele>
        <time>2017-04-12T09:46:47Z</time>
      </trkpt>
      <trkpt lat="45.37176" lon="4.54171">
        <ele>1173.91</ele>
        <time>2017-04-12T09:46:48Z</time>
      </trkpt>
      <trkpt lat="45.37176" lon="4.54207">
        <ele>1175.35</ele>
        <time>2017-04-12T09:46:58Z</time>
      </trkpt>
      <trkpt lat="45.37173" lon="4.54241">
        <ele>1176.79</ele>
        <time>2017-04-12T09:47:09Z</time>
      </trkpt>
      <trkpt lat="45.37174" lon="4.5425">
        <ele>1177.75</ele>
        <time>2017-04-12T09:47:12Z</time>
      </trkpt>
      <trkpt lat="45.37176" lon="4.54252">
        <ele>1177.27</ele>
        <time>2017-04-12T09:47:13Z</time>
      </trkpt>
      <trkpt lat="45.37181" lon="4.5426">
        <ele>1178.23</ele>
        <time>2017-04-12T09:47:17Z</time>
      </trkpt>
      <trkpt lat="45.37194" lon="4.54263">
        <ele>1179.19</ele>
        <time>2017-04-12T09:47:23Z</time>
      </trkpt>
      <trkpt lat="45.3722" lon="4.54259">
        <ele>1181.12</ele>
        <time>2017-04-12T09:47:37Z</time>
      </trkpt>
      <trkpt lat="45.37225" lon="4.54261">
        <ele>1182.08</ele>
        <time>2017-04-12T09:47:41Z</time>
      </trkpt>
      <trkpt lat="45.3723" lon="4.54262">
        <ele>1182.08</ele>
        <time>2017-04-12T09:47:44Z</time>
      </trkpt>
      <trkpt lat="45.37232" lon="4.54263">
        <ele>1182.08</ele>
        <time>2017-04-12T09:47:45Z</time>
      </trkpt>
      <trkpt lat="45.37244" lon="4.54265">
        <ele>1182.56</ele>
        <time>2017-04-12T09:47:51Z</time>
      </trkpt>
      <trkpt lat="45.37252" lon="4.54266">
        <ele>1183.04</ele>
        <time>2017-04-12T09:47:56Z</time>
      </trkpt>
      <trkpt lat="45.37268" lon="4.5427">
        <ele>1184</ele>
        <time>2017-04-12T09:48:06Z</time>
      </trkpt>
      <trkpt lat="45.37269" lon="4.54272">
        <ele>1184</ele>
        <time>2017-04-12T09:48:07Z</time>
      </trkpt>
      <trkpt lat="45.37271" lon="4.54272">
        <ele>1184</ele>
        <time>2017-04-12T09:48:08Z</time>
      </trkpt>
      <trkpt lat="45.37277" lon="4.54273">
        <ele>1184</ele>
        <time>2017-04-12T09:48:17Z</time>
      </trkpt>
      <trkpt lat="45.37297" lon="4.5428">
        <ele>1185.44</ele>
        <time>2017-04-12T09:48:32Z</time>
      </trkpt>
      <trkpt lat="45.37327" lon="4.54293">
        <ele>1187.37</ele>
        <time>2017-04-12T09:48:46Z</time>
      </trkpt>
      <trkpt lat="45.37363" lon="4.5431">
        <ele>1188.33</ele>
        <time>2017-04-12T09:49:01Z</time>
      </trkpt>
      <trkpt lat="45.37391" lon="4.54326">
        <ele>1190.25</ele>
        <time>2017-04-12T09:49:13Z</time>
      </trkpt>
      <trkpt lat="45.37416" lon="4.54341">
        <ele>1192.17</ele>
        <time>2017-04-12T09:49:24Z</time>
      </trkpt>
      <trkpt lat="45.37439" lon="4.54358">
        <ele>1193.13</ele>
        <time>2017-04-12T09:49:33Z</time>
      </trkpt>
      <trkpt lat="45.37465" lon="4.54382">
        <ele>1194.09</ele>
        <time>2017-04-12T09:49:44Z</time>
      </trkpt>
      <trkpt lat="45.37491" lon="4.54409">
        <ele>1195.06</ele>
        <time>2017-04-12T09:49:56Z</time>
      </trkpt>
      <trkpt lat="45.37516" lon="4.54431">
        <ele>1196.98</ele>
        <time>2017-04-12T09:50:08Z</time>
      </trkpt>
      <trkpt lat="45.37539" lon="4.54461">
        <ele>1198.42</ele>
        <time>2017-04-12T09:50:19Z</time>
      </trkpt>
      <trkpt lat="45.37543" lon="4.54465">
        <ele>1198.42</ele>
        <time>2017-04-12T09:50:21Z</time>
      </trkpt>
      <trkpt lat="45.37545" lon="4.54467">
        <ele>1198.9</ele>
        <time>2017-04-12T09:50:22Z</time>
      </trkpt>
      <trkpt lat="45.37554" lon="4.54481">
        <ele>1199.86</ele>
        <time>2017-04-12T09:50:28Z</time>
      </trkpt>
      <trkpt lat="45.37555" lon="4.54483">
        <ele>1199.86</ele>
        <time>2017-04-12T09:50:29Z</time>
      </trkpt>
      <trkpt lat="45.3757" lon="4.54516">
        <ele>1202.27</ele>
        <time>2017-04-12T09:50:42Z</time>
      </trkpt>
      <trkpt lat="45.37574" lon="4.54528">
        <ele>1202.27</ele>
        <time>2017-04-12T09:50:46Z</time>
      </trkpt>
      <trkpt lat="45.37576" lon="4.5453">
        <ele>1202.75</ele>
        <time>2017-04-12T09:50:47Z</time>
      </trkpt>
      <trkpt lat="45.37577" lon="4.54533">
        <ele>1202.75</ele>
        <time>2017-04-12T09:50:48Z</time>
      </trkpt>
      <trkpt lat="45.37578" lon="4.54536">
        <ele>1202.75</ele>
        <time>2017-04-12T09:50:49Z</time>
      </trkpt>
      <trkpt lat="45.37592" lon="4.54571">
        <ele>1202.75</ele>
        <time>2017-04-12T09:50:59Z</time>
      </trkpt>
      <trkpt lat="45.37594" lon="4.54574">
        <ele>1203.71</ele>
        <time>2017-04-12T09:51:00Z</time>
      </trkpt>
      <trkpt lat="45.37596" lon="4.54576">
        <ele>1203.71</ele>
        <time>2017-04-12T09:51:01Z</time>
      </trkpt>
      <trkpt lat="45.376" lon="4.54589">
        <ele>1204.19</ele>
        <time>2017-04-12T09:51:05Z</time>
      </trkpt>
      <trkpt lat="45.37601" lon="4.54593">
        <ele>1204.19</ele>
        <time>2017-04-12T09:51:06Z</time>
      </trkpt>
      <trkpt lat="45.37602" lon="4.54596">
        <ele>1204.19</ele>
        <time>2017-04-12T09:51:07Z</time>
      </trkpt>
      <trkpt lat="45.37607" lon="4.54641">
        <ele>1206.59</ele>
        <time>2017-04-12T09:51:21Z</time>
      </trkpt>
      <trkpt lat="45.37606" lon="4.54655">
        <ele>1207.55</ele>
        <time>2017-04-12T09:51:25Z</time>
      </trkpt>
      <trkpt lat="45.37606" lon="4.54658">
        <ele>1207.55</ele>
        <time>2017-04-12T09:51:26Z</time>
      </trkpt>
      <trkpt lat="45.37605" lon="4.54707">
        <ele>1209.96</ele>
        <time>2017-04-12T09:51:40Z</time>
      </trkpt>
      <trkpt lat="45.37591" lon="4.54756">
        <ele>1211.88</ele>
        <time>2017-04-12T09:51:55Z</time>
      </trkpt>
      <trkpt lat="45.37571" lon="4.54797">
        <ele>1212.84</ele>
        <time>2017-04-12T09:52:09Z</time>
      </trkpt>
      <trkpt lat="45.37567" lon="4.54805">
        <ele>1213.32</ele>
        <time>2017-04-12T09:52:12Z</time>
      </trkpt>
      <trkpt lat="45.37549" lon="4.54826">
        <ele>1214.28</ele>
        <time>2017-04-12T09:52:23Z</time>
      </trkpt>
      <trkpt lat="45.37523" lon="4.54858">
        <ele>1215.72</ele>
        <time>2017-04-12T09:52:38Z</time>
      </trkpt>
      <trkpt lat="45.3749" lon="4.54884">
        <ele>1216.69</ele>
        <time>2017-04-12T09:52:51Z</time>
      </trkpt>
      <trkpt lat="45.37466" lon="4.54909">
        <ele>1217.65</ele>
        <time>2017-04-12T09:53:03Z</time>
      </trkpt>
      <trkpt lat="45.37449" lon="4.54926">
        <ele>1219.09</ele>
        <time>2017-04-12T09:53:11Z</time>
      </trkpt>
      <trkpt lat="45.37418" lon="4.54963">
        <ele>1220.05</ele>
        <time>2017-04-12T09:53:25Z</time>
      </trkpt>
      <trkpt lat="45.37376" lon="4.5502">
        <ele>1221.49</ele>
        <time>2017-04-12T09:53:42Z</time>
      </trkpt>
      <trkpt lat="45.37353" lon="4.55066">
        <ele>1221.97</ele>
        <time>2017-04-12T09:53:55Z</time>
      </trkpt>
      <trkpt lat="45.37339" lon="4.55106">
        <ele>1222.93</ele>
        <time>2017-04-12T09:54:06Z</time>
      </trkpt>
      <trkpt lat="45.37317" lon="4.55156">
        <ele>1223.9</ele>
        <time>2017-04-12T09:54:19Z</time>
      </trkpt>
      <trkpt lat="45.37315" lon="4.5516">
        <ele>1223.9</ele>
        <time>2017-04-12T09:54:20Z</time>
      </trkpt>
      <trkpt lat="45.37315" lon="4.55164">
        <ele>1223.9</ele>
        <time>2017-04-12T09:54:21Z</time>
      </trkpt>
      <trkpt lat="45.37314" lon="4.55168">
        <ele>1223.9</ele>
        <time>2017-04-12T09:54:22Z</time>
      </trkpt>
      <trkpt lat="45.37303" lon="4.5523">
        <ele>1225.82</ele>
        <time>2017-04-12T09:54:37Z</time>
      </trkpt>
      <trkpt lat="45.37312" lon="4.55284">
        <ele>1227.26</ele>
        <time>2017-04-12T09:54:51Z</time>
      </trkpt>
      <trkpt lat="45.37319" lon="4.55301">
        <ele>1227.74</ele>
        <time>2017-04-12T09:54:56Z</time>
      </trkpt>
      <trkpt lat="45.37339" lon="4.55339">
        <ele>1229.66</ele>
        <time>2017-04-12T09:55:08Z</time>
      </trkpt>
      <trkpt lat="45.3736" lon="4.55376">
        <ele>1231.59</ele>
        <time>2017-04-12T09:55:20Z</time>
      </trkpt>
      <trkpt lat="45.37379" lon="4.55422">
        <ele>1232.07</ele>
        <time>2017-04-12T09:55:31Z</time>
      </trkpt>
      <trkpt lat="45.37379" lon="4.55427">
        <ele>1231.59</ele>
        <time>2017-04-12T09:55:32Z</time>
      </trkpt>
      <trkpt lat="45.3737" lon="4.55461">
        <ele>1230.14</ele>
        <time>2017-04-12T09:55:37Z</time>
      </trkpt>
      <trkpt lat="45.37351" lon="4.55503">
        <ele>1229.18</ele>
        <time>2017-04-12T09:55:44Z</time>
      </trkpt>
      <trkpt lat="45.37348" lon="4.55508">
        <ele>1229.18</ele>
        <time>2017-04-12T09:55:45Z</time>
      </trkpt>
      <trkpt lat="45.37332" lon="4.5554">
        <ele>1228.7</ele>
        <time>2017-04-12T09:55:50Z</time>
      </trkpt>
      <trkpt lat="45.37324" lon="4.55566">
        <ele>1229.18</ele>
        <time>2017-04-12T09:55:54Z</time>
      </trkpt>
      <trkpt lat="45.37322" lon="4.55573">
        <ele>1229.66</ele>
        <time>2017-04-12T09:55:55Z</time>
      </trkpt>
      <trkpt lat="45.37322" lon="4.55579">
        <ele>1229.66</ele>
        <time>2017-04-12T09:55:56Z</time>
      </trkpt>
      <trkpt lat="45.37322" lon="4.55586">
        <ele>1229.66</ele>
        <time>2017-04-12T09:55:57Z</time>
      </trkpt>
      <trkpt lat="45.37322" lon="4.55591">
        <ele>1230.14</ele>
        <time>2017-04-12T09:55:58Z</time>
      </trkpt>
      <trkpt lat="45.37324" lon="4.55597">
        <ele>1230.14</ele>
        <time>2017-04-12T09:55:59Z</time>
      </trkpt>
      <trkpt lat="45.37345" lon="4.55655">
        <ele>1231.11</ele>
        <time>2017-04-12T09:56:11Z</time>
      </trkpt>
      <trkpt lat="45.37355" lon="4.55685">
        <ele>1232.07</ele>
        <time>2017-04-12T09:56:17Z</time>
      </trkpt>
      <trkpt lat="45.37358" lon="4.5569">
        <ele>1232.07</ele>
        <time>2017-04-12T09:56:18Z</time>
      </trkpt>
      <trkpt lat="45.3736" lon="4.55696">
        <ele>1232.07</ele>
        <time>2017-04-12T09:56:19Z</time>
      </trkpt>
      <trkpt lat="45.37363" lon="4.55701">
        <ele>1232.07</ele>
        <time>2017-04-12T09:56:20Z</time>
      </trkpt>
      <trkpt lat="45.37365" lon="4.55707">
        <ele>1232.07</ele>
        <time>2017-04-12T09:56:21Z</time>
      </trkpt>
      <trkpt lat="45.37367" lon="4.55712">
        <ele>1231.59</ele>
        <time>2017-04-12T09:56:22Z</time>
      </trkpt>
      <trkpt lat="45.37378" lon="4.55744">
        <ele>1231.59</ele>
        <time>2017-04-12T09:56:28Z</time>
      </trkpt>
      <trkpt lat="45.37386" lon="4.55765">
        <ele>1231.11</ele>
        <time>2017-04-12T09:56:32Z</time>
      </trkpt>
      <trkpt lat="45.37391" lon="4.55784">
        <ele>1230.62</ele>
        <time>2017-04-12T09:56:35Z</time>
      </trkpt>
      <trkpt lat="45.37392" lon="4.55791">
        <ele>1230.62</ele>
        <time>2017-04-12T09:56:36Z</time>
      </trkpt>
      <trkpt lat="45.374" lon="4.55831">
        <ele>1229.66</ele>
        <time>2017-04-12T09:56:42Z</time>
      </trkpt>
      <trkpt lat="45.37403" lon="4.55836">
        <ele>1229.66</ele>
        <time>2017-04-12T09:56:43Z</time>
      </trkpt>
      <trkpt lat="45.37406" lon="4.5584">
        <ele>1229.66</ele>
        <time>2017-04-12T09:56:44Z</time>
      </trkpt>
      <trkpt lat="45.3741" lon="4.55842">
        <ele>1229.66</ele>
        <time>2017-04-12T09:56:45Z</time>
      </trkpt>
      <trkpt lat="45.37414" lon="4.55842">
        <ele>1229.66</ele>
        <time>2017-04-12T09:56:46Z</time>
      </trkpt>
      <trkpt lat="45.37416" lon="4.5584">
        <ele>1229.66</ele>
        <time>2017-04-12T09:56:47Z</time>
      </trkpt>
      <trkpt lat="45.37418" lon="4.55836">
        <ele>1230.14</ele>
        <time>2017-04-12T09:56:48Z</time>
      </trkpt>
      <trkpt lat="45.3742" lon="4.55833">
        <ele>1230.62</ele>
        <time>2017-04-12T09:56:49Z</time>
      </trkpt>
      <trkpt lat="45.37422" lon="4.55828">
        <ele>1230.62</ele>
        <time>2017-04-12T09:56:50Z</time>
      </trkpt>
      <trkpt lat="45.37425" lon="4.55823">
        <ele>1231.11</ele>
        <time>2017-04-12T09:56:51Z</time>
      </trkpt>
      <trkpt lat="45.37452" lon="4.55767">
        <ele>1232.07</ele>
        <time>2017-04-12T09:57:03Z</time>
      </trkpt>
      <trkpt lat="45.37466" lon="4.55739">
        <ele>1232.55</ele>
        <time>2017-04-12T09:57:09Z</time>
      </trkpt>
      <trkpt lat="45.37469" lon="4.55735">
        <ele>1233.03</ele>
        <time>2017-04-12T09:57:10Z</time>
      </trkpt>
      <trkpt lat="45.37505" lon="4.55692">
        <ele>1232.55</ele>
        <time>2017-04-12T09:57:21Z</time>
      </trkpt>
      <trkpt lat="45.37508" lon="4.55688">
        <ele>1233.03</ele>
        <time>2017-04-12T09:57:22Z</time>
      </trkpt>
      <trkpt lat="45.37512" lon="4.55684">
        <ele>1232.55</ele>
        <time>2017-04-12T09:57:23Z</time>
      </trkpt>
      <trkpt lat="45.37521" lon="4.55673">
        <ele>1233.03</ele>
        <time>2017-04-12T09:57:26Z</time>
      </trkpt>
      <trkpt lat="45.37539" lon="4.55654">
        <ele>1232.55</ele>
        <time>2017-04-12T09:57:31Z</time>
      </trkpt>
      <trkpt lat="45.37543" lon="4.5565">
        <ele>1232.55</ele>
        <time>2017-04-12T09:57:32Z</time>
      </trkpt>
      <trkpt lat="45.37546" lon="4.55646">
        <ele>1232.55</ele>
        <time>2017-04-12T09:57:33Z</time>
      </trkpt>
      <trkpt lat="45.37591" lon="4.55591">
        <ele>1232.55</ele>
        <time>2017-04-12T09:57:46Z</time>
      </trkpt>
      <trkpt lat="45.37612" lon="4.55564">
        <ele>1233.51</ele>
        <time>2017-04-12T09:57:53Z</time>
      </trkpt>
      <trkpt lat="45.37615" lon="4.55561">
        <ele>1233.99</ele>
        <time>2017-04-12T09:57:54Z</time>
      </trkpt>
      <trkpt lat="45.37619" lon="4.5556">
        <ele>1233.51</ele>
        <time>2017-04-12T09:57:55Z</time>
      </trkpt>
      <trkpt lat="45.37623" lon="4.5556">
        <ele>1233.51</ele>
        <time>2017-04-12T09:57:56Z</time>
      </trkpt>
      <trkpt lat="45.37628" lon="4.5556">
        <ele>1233.51</ele>
        <time>2017-04-12T09:57:57Z</time>
      </trkpt>
      <trkpt lat="45.37631" lon="4.55561">
        <ele>1233.51</ele>
        <time>2017-04-12T09:57:58Z</time>
      </trkpt>
      <trkpt lat="45.37635" lon="4.55562">
        <ele>1233.51</ele>
        <time>2017-04-12T09:57:59Z</time>
      </trkpt>
      <trkpt lat="45.37647" lon="4.55567">
        <ele>1233.03</ele>
        <time>2017-04-12T09:58:02Z</time>
      </trkpt>
      <trkpt lat="45.37656" lon="4.55573">
        <ele>1233.03</ele>
        <time>2017-04-12T09:58:04Z</time>
      </trkpt>
      <trkpt lat="45.37664" lon="4.55583">
        <ele>1232.55</ele>
        <time>2017-04-12T09:58:06Z</time>
      </trkpt>
      <trkpt lat="45.37729" lon="4.55662">
        <ele>1229.18</ele>
        <time>2017-04-12T09:58:21Z</time>
      </trkpt>
      <trkpt lat="45.37744" lon="4.55683">
        <ele>1228.22</ele>
        <time>2017-04-12T09:58:24Z</time>
      </trkpt>
      <trkpt lat="45.37784" lon="4.55746">
        <ele>1224.86</ele>
        <time>2017-04-12T09:58:33Z</time>
      </trkpt>
      <trkpt lat="45.3779" lon="4.5575">
        <ele>1224.86</ele>
        <time>2017-04-12T09:58:34Z</time>
      </trkpt>
      <trkpt lat="45.37795" lon="4.55754">
        <ele>1224.86</ele>
        <time>2017-04-12T09:58:35Z</time>
      </trkpt>
      <trkpt lat="45.378" lon="4.55757">
        <ele>1224.86</ele>
        <time>2017-04-12T09:58:36Z</time>
      </trkpt>
      <trkpt lat="45.37805" lon="4.5576">
        <ele>1224.86</ele>
        <time>2017-04-12T09:58:37Z</time>
      </trkpt>
      <trkpt lat="45.37851" lon="4.55791">
        <ele>1222.93</ele>
        <time>2017-04-12T09:58:46Z</time>
      </trkpt>
      <trkpt lat="45.37857" lon="4.55792">
        <ele>1222.93</ele>
        <time>2017-04-12T09:58:47Z</time>
      </trkpt>
      <trkpt lat="45.37862" lon="4.55793">
        <ele>1222.93</ele>
        <time>2017-04-12T09:58:48Z</time>
      </trkpt>
      <trkpt lat="45.37869" lon="4.55794">
        <ele>1222.45</ele>
        <time>2017-04-12T09:58:49Z</time>
      </trkpt>
      <trkpt lat="45.37875" lon="4.55796">
        <ele>1222.45</ele>
        <time>2017-04-12T09:58:50Z</time>
      </trkpt>
      <trkpt lat="45.37939" lon="4.55824">
        <ele>1219.09</ele>
        <time>2017-04-12T09:59:00Z</time>
      </trkpt>
      <trkpt lat="45.37969" lon="4.55848">
        <ele>1218.13</ele>
        <time>2017-04-12T09:59:05Z</time>
      </trkpt>
      <trkpt lat="45.3804" lon="4.559">
        <ele>1215.24</ele>
        <time>2017-04-12T09:59:17Z</time>
      </trkpt>
      <trkpt lat="45.3809" lon="4.55911">
        <ele>1212.36</ele>
        <time>2017-04-12T09:59:24Z</time>
      </trkpt>
      <trkpt lat="45.3812" lon="4.55921">
        <ele>1209.48</ele>
        <time>2017-04-12T09:59:28Z</time>
      </trkpt>
      <trkpt lat="45.38127" lon="4.55921">
        <ele>1209.48</ele>
        <time>2017-04-12T09:59:29Z</time>
      </trkpt>
      <trkpt lat="45.38134" lon="4.55918">
        <ele>1209.48</ele>
        <time>2017-04-12T09:59:30Z</time>
      </trkpt>
      <trkpt lat="45.38141" lon="4.55914">
        <ele>1209.48</ele>
        <time>2017-04-12T09:59:31Z</time>
      </trkpt>
      <trkpt lat="45.38148" lon="4.5591">
        <ele>1209</ele>
        <time>2017-04-12T09:59:32Z</time>
      </trkpt>
      <trkpt lat="45.38156" lon="4.55906">
        <ele>1208.51</ele>
        <time>2017-04-12T09:59:33Z</time>
      </trkpt>
      <trkpt lat="45.38164" lon="4.55904">
        <ele>1208.51</ele>
        <time>2017-04-12T09:59:34Z</time>
      </trkpt>
      <trkpt lat="45.38172" lon="4.55902">
        <ele>1207.07</ele>
        <time>2017-04-12T09:59:35Z</time>
      </trkpt>
      <trkpt lat="45.3818" lon="4.55901">
        <ele>1207.07</ele>
        <time>2017-04-12T09:59:36Z</time>
      </trkpt>
      <trkpt lat="45.38187" lon="4.55901">
        <ele>1206.11</ele>
        <time>2017-04-12T09:59:37Z</time>
      </trkpt>
      <trkpt lat="45.38195" lon="4.55902">
        <ele>1205.15</ele>
        <time>2017-04-12T09:59:38Z</time>
      </trkpt>
      <trkpt lat="45.38203" lon="4.55902">
        <ele>1205.15</ele>
        <time>2017-04-12T09:59:39Z</time>
      </trkpt>
      <trkpt lat="45.38237" lon="4.55905">
        <ele>1202.27</ele>
        <time>2017-04-12T09:59:43Z</time>
      </trkpt>
      <trkpt lat="45.38293" lon="4.55917">
        <ele>1199.38</ele>
        <time>2017-04-12T09:59:50Z</time>
      </trkpt>
      <trkpt lat="45.38301" lon="4.55919">
        <ele>1198.42</ele>
        <time>2017-04-12T09:59:51Z</time>
      </trkpt>
      <trkpt lat="45.38353" lon="4.55933">
        <ele>1195.54</ele>
        <time>2017-04-12T09:59:58Z</time>
      </trkpt>
      <trkpt lat="45.38396" lon="4.55955">
        <ele>1194.58</ele>
        <time>2017-04-12T10:00:05Z</time>
      </trkpt>
      <trkpt lat="45.384" lon="4.55959">
        <ele>1194.58</ele>
        <time>2017-04-12T10:00:06Z</time>
      </trkpt>
      <trkpt lat="45.38415" lon="4.55971">
        <ele>1194.58</ele>
        <time>2017-04-12T10:00:09Z</time>
      </trkpt>
      <trkpt lat="45.38427" lon="4.55981">
        <ele>1194.09</ele>
        <time>2017-04-12T10:00:11Z</time>
      </trkpt>
      <trkpt lat="45.38433" lon="4.55986">
        <ele>1194.09</ele>
        <time>2017-04-12T10:00:12Z</time>
      </trkpt>
      <trkpt lat="45.38438" lon="4.55992">
        <ele>1194.09</ele>
        <time>2017-04-12T10:00:13Z</time>
      </trkpt>
      <trkpt lat="45.38489" lon="4.56066">
        <ele>1190.73</ele>
        <time>2017-04-12T10:00:23Z</time>
      </trkpt>
      <trkpt lat="45.38493" lon="4.56075">
        <ele>1190.73</ele>
        <time>2017-04-12T10:00:24Z</time>
      </trkpt>
      <trkpt lat="45.38497" lon="4.56083">
        <ele>1189.77</ele>
        <time>2017-04-12T10:00:25Z</time>
      </trkpt>
      <trkpt lat="45.38501" lon="4.56092">
        <ele>1189.29</ele>
        <time>2017-04-12T10:00:26Z</time>
      </trkpt>
      <trkpt lat="45.38505" lon="4.56101">
        <ele>1188.81</ele>
        <time>2017-04-12T10:00:27Z</time>
      </trkpt>
      <trkpt lat="45.38508" lon="4.5611">
        <ele>1187.85</ele>
        <time>2017-04-12T10:00:28Z</time>
      </trkpt>
      <trkpt lat="45.38518" lon="4.56149">
        <ele>1184.96</ele>
        <time>2017-04-12T10:00:32Z</time>
      </trkpt>
      <trkpt lat="45.3852" lon="4.5616">
        <ele>1184.96</ele>
        <time>2017-04-12T10:00:33Z</time>
      </trkpt>
      <trkpt lat="45.38533" lon="4.56214">
        <ele>1182.08</ele>
        <time>2017-04-12T10:00:38Z</time>
      </trkpt>
      <trkpt lat="45.38547" lon="4.56262">
        <ele>1180.64</ele>
        <time>2017-04-12T10:00:43Z</time>
      </trkpt>
      <trkpt lat="45.38552" lon="4.56283">
        <ele>1180.16</ele>
        <time>2017-04-12T10:00:45Z</time>
      </trkpt>
      <trkpt lat="45.38559" lon="4.56304">
        <ele>1178.71</ele>
        <time>2017-04-12T10:00:47Z</time>
      </trkpt>
      <trkpt lat="45.38563" lon="4.56314">
        <ele>1178.23</ele>
        <time>2017-04-12T10:00:48Z</time>
      </trkpt>
      <trkpt lat="45.38567" lon="4.56323">
        <ele>1177.75</ele>
        <time>2017-04-12T10:00:49Z</time>
      </trkpt>
      <trkpt lat="45.38573" lon="4.56342">
        <ele>1177.75</ele>
        <time>2017-04-12T10:00:51Z</time>
      </trkpt>
      <trkpt lat="45.38577" lon="4.56361">
        <ele>1176.31</ele>
        <time>2017-04-12T10:00:53Z</time>
      </trkpt>
      <trkpt lat="45.38581" lon="4.56369">
        <ele>1175.35</ele>
        <time>2017-04-12T10:00:54Z</time>
      </trkpt>
      <trkpt lat="45.38586" lon="4.56375">
        <ele>1174.39</ele>
        <time>2017-04-12T10:00:55Z</time>
      </trkpt>
      <trkpt lat="45.38591" lon="4.56377">
        <ele>1174.87</ele>
        <time>2017-04-12T10:00:56Z</time>
      </trkpt>
      <trkpt lat="45.38597" lon="4.56376">
        <ele>1174.39</ele>
        <time>2017-04-12T10:00:57Z</time>
      </trkpt>
      <trkpt lat="45.38602" lon="4.56374">
        <ele>1173.43</ele>
        <time>2017-04-12T10:00:58Z</time>
      </trkpt>
      <trkpt lat="45.38608" lon="4.56373">
        <ele>1173.91</ele>
        <time>2017-04-12T10:00:59Z</time>
      </trkpt>
      <trkpt lat="45.38614" lon="4.56372">
        <ele>1173.43</ele>
        <time>2017-04-12T10:01:00Z</time>
      </trkpt>
      <trkpt lat="45.38621" lon="4.56371">
        <ele>1172.47</ele>
        <time>2017-04-12T10:01:01Z</time>
      </trkpt>
      <trkpt lat="45.38642" lon="4.56364">
        <ele>1171.98</ele>
        <time>2017-04-12T10:01:04Z</time>
      </trkpt>
      <trkpt lat="45.38655" lon="4.56356">
        <ele>1171.98</ele>
        <time>2017-04-12T10:01:06Z</time>
      </trkpt>
      <trkpt lat="45.38667" lon="4.56345">
        <ele>1171.5</ele>
        <time>2017-04-12T10:01:08Z</time>
      </trkpt>
      <trkpt lat="45.38679" lon="4.56332">
        <ele>1170.06</ele>
        <time>2017-04-12T10:01:10Z</time>
      </trkpt>
      <trkpt lat="45.38715" lon="4.56309">
        <ele>1168.62</ele>
        <time>2017-04-12T10:01:16Z</time>
      </trkpt>
      <trkpt lat="45.38726" lon="4.56308">
        <ele>1168.62</ele>
        <time>2017-04-12T10:01:18Z</time>
      </trkpt>
      <trkpt lat="45.38732" lon="4.56309">
        <ele>1168.14</ele>
        <time>2017-04-12T10:01:19Z</time>
      </trkpt>
      <trkpt lat="45.38738" lon="4.56312">
        <ele>1168.14</ele>
        <time>2017-04-12T10:01:20Z</time>
      </trkpt>
      <trkpt lat="45.38744" lon="4.56315">
        <ele>1167.66</ele>
        <time>2017-04-12T10:01:21Z</time>
      </trkpt>
      <trkpt lat="45.38749" lon="4.5632">
        <ele>1167.66</ele>
        <time>2017-04-12T10:01:22Z</time>
      </trkpt>
      <trkpt lat="45.38755" lon="4.56325">
        <ele>1167.18</ele>
        <time>2017-04-12T10:01:23Z</time>
      </trkpt>
      <trkpt lat="45.3876" lon="4.56331">
        <ele>1167.66</ele>
        <time>2017-04-12T10:01:24Z</time>
      </trkpt>
      <trkpt lat="45.38764" lon="4.56337">
        <ele>1167.66</ele>
        <time>2017-04-12T10:01:25Z</time>
      </trkpt>
      <trkpt lat="45.38769" lon="4.56343">
        <ele>1166.7</ele>
        <time>2017-04-12T10:01:26Z</time>
      </trkpt>
      <trkpt lat="45.38775" lon="4.56348">
        <ele>1166.7</ele>
        <time>2017-04-12T10:01:27Z</time>
      </trkpt>
      <trkpt lat="45.3878" lon="4.56353">
        <ele>1166.22</ele>
        <time>2017-04-12T10:01:28Z</time>
      </trkpt>
      <trkpt lat="45.38801" lon="4.5637">
        <ele>1165.26</ele>
        <time>2017-04-12T10:01:33Z</time>
      </trkpt>
      <trkpt lat="45.38829" lon="4.56392">
        <ele>1164.77</ele>
        <time>2017-04-12T10:01:39Z</time>
      </trkpt>
      <trkpt lat="45.38862" lon="4.56426">
        <ele>1165.74</ele>
        <time>2017-04-12T10:01:46Z</time>
      </trkpt>
      <trkpt lat="45.38867" lon="4.56428">
        <ele>1165.26</ele>
        <time>2017-04-12T10:01:47Z</time>
      </trkpt>
      <trkpt lat="45.38872" lon="4.5643">
        <ele>1165.74</ele>
        <time>2017-04-12T10:01:48Z</time>
      </trkpt>
      <trkpt lat="45.38877" lon="4.5643">
        <ele>1166.22</ele>
        <time>2017-04-12T10:01:49Z</time>
      </trkpt>
      <trkpt lat="45.38912" lon="4.56421">
        <ele>1167.66</ele>
        <time>2017-04-12T10:01:59Z</time>
      </trkpt>
      <trkpt lat="45.38937" lon="4.5641">
        <ele>1169.1</ele>
        <time>2017-04-12T10:02:05Z</time>
      </trkpt>
      <trkpt lat="45.38985" lon="4.56392">
        <ele>1172.47</ele>
        <time>2017-04-12T10:02:19Z</time>
      </trkpt>
      <trkpt lat="45.38992" lon="4.5639">
        <ele>1172.47</ele>
        <time>2017-04-12T10:02:21Z</time>
      </trkpt>
      <trkpt lat="45.39014" lon="4.56383">
        <ele>1173.43</ele>
        <time>2017-04-12T10:02:29Z</time>
      </trkpt>
      <trkpt lat="45.39048" lon="4.56384">
        <ele>1173.91</ele>
        <time>2017-04-12T10:02:39Z</time>
      </trkpt>
      <trkpt lat="45.39081" lon="4.56382">
        <ele>1175.83</ele>
        <time>2017-04-12T10:02:49Z</time>
      </trkpt>
      <trkpt lat="45.39114" lon="4.5638">
        <ele>1177.27</ele>
        <time>2017-04-12T10:03:01Z</time>
      </trkpt>
      <trkpt lat="45.39152" lon="4.56386">
        <ele>1179.19</ele>
        <time>2017-04-12T10:03:14Z</time>
      </trkpt>
      <trkpt lat="45.39185" lon="4.5639">
        <ele>1180.64</ele>
        <time>2017-04-12T10:03:25Z</time>
      </trkpt>
      <trkpt lat="45.39213" lon="4.5639">
        <ele>1182.56</ele>
        <time>2017-04-12T10:03:36Z</time>
      </trkpt>
      <trkpt lat="45.3924" lon="4.56394">
        <ele>1183.04</ele>
        <time>2017-04-12T10:03:47Z</time>
      </trkpt>
      <trkpt lat="45.39267" lon="4.56398">
        <ele>1184.48</ele>
        <time>2017-04-12T10:03:59Z</time>
      </trkpt>
      <trkpt lat="45.39291" lon="4.56408">
        <ele>1186.88</ele>
        <time>2017-04-12T10:04:11Z</time>
      </trkpt>
      <trkpt lat="45.39321" lon="4.56426">
        <ele>1189.77</ele>
        <time>2017-04-12T10:04:27Z</time>
      </trkpt>
      <trkpt lat="45.39351" lon="4.56449">
        <ele>1192.17</ele>
        <time>2017-04-12T10:04:43Z</time>
      </trkpt>
      <trkpt lat="45.39369" lon="4.56492">
        <ele>1192.17</ele>
        <time>2017-04-12T10:04:56Z</time>
      </trkpt>
      <trkpt lat="45.39371" lon="4.56548">
        <ele>1191.69</ele>
        <time>2017-04-12T10:05:07Z</time>
      </trkpt>
      <trkpt lat="45.39362" lon="4.56643">
        <ele>1192.65</ele>
        <time>2017-04-12T10:05:23Z</time>
      </trkpt>
      <trkpt lat="45.3936" lon="4.56656">
        <ele>1192.65</ele>
        <time>2017-04-12T10:05:25Z</time>
      </trkpt>
      <trkpt lat="45.39355" lon="4.56673">
        <ele>1192.65</ele>
        <time>2017-04-12T10:05:28Z</time>
      </trkpt>
      <trkpt lat="45.39354" lon="4.56678">
        <ele>1192.65</ele>
        <time>2017-04-12T10:05:29Z</time>
      </trkpt>
      <trkpt lat="45.39352" lon="4.56684">
        <ele>1193.13</ele>
        <time>2017-04-12T10:05:30Z</time>
      </trkpt>
      <trkpt lat="45.39348" lon="4.56693">
        <ele>1193.13</ele>
        <time>2017-04-12T10:05:32Z</time>
      </trkpt>
      <trkpt lat="45.39323" lon="4.56749">
        <ele>1196.02</ele>
        <time>2017-04-12T10:05:46Z</time>
      </trkpt>
      <trkpt lat="45.39324" lon="4.56773">
        <ele>1197.46</ele>
        <time>2017-04-12T10:05:52Z</time>
      </trkpt>
      <trkpt lat="45.39349" lon="4.5678">
        <ele>1199.86</ele>
        <time>2017-04-12T10:06:04Z</time>
      </trkpt>
      <trkpt lat="45.39365" lon="4.56782">
        <ele>1201.3</ele>
        <time>2017-04-12T10:06:12Z</time>
      </trkpt>
      <trkpt lat="45.39367" lon="4.56782">
        <ele>1201.3</ele>
        <time>2017-04-12T10:06:13Z</time>
      </trkpt>
      <trkpt lat="45.39369" lon="4.56782">
        <ele>1201.3</ele>
        <time>2017-04-12T10:06:14Z</time>
      </trkpt>
      <trkpt lat="45.394" lon="4.56776">
        <ele>1202.27</ele>
        <time>2017-04-12T10:06:29Z</time>
      </trkpt>
      <trkpt lat="45.39405" lon="4.56778">
        <ele>1202.27</ele>
        <time>2017-04-12T10:06:32Z</time>
      </trkpt>
      <trkpt lat="45.39406" lon="4.5678">
        <ele>1202.75</ele>
        <time>2017-04-12T10:06:33Z</time>
      </trkpt>
      <trkpt lat="45.39407" lon="4.56783">
        <ele>1202.75</ele>
        <time>2017-04-12T10:06:34Z</time>
      </trkpt>
      <trkpt lat="45.39406" lon="4.56785">
        <ele>1202.75</ele>
        <time>2017-04-12T10:06:35Z</time>
      </trkpt>
      <trkpt lat="45.39406" lon="4.56788">
        <ele>1203.23</ele>
        <time>2017-04-12T10:06:36Z</time>
      </trkpt>
      <trkpt lat="45.39405" lon="4.5679">
        <ele>1203.23</ele>
        <time>2017-04-12T10:06:37Z</time>
      </trkpt>
      <trkpt lat="45.39404" lon="4.56792">
        <ele>1203.23</ele>
        <time>2017-04-12T10:06:38Z</time>
      </trkpt>
      <trkpt lat="45.39403" lon="4.56793">
        <ele>1203.71</ele>
        <time>2017-04-12T10:06:39Z</time>
      </trkpt>
      <trkpt lat="45.39401" lon="4.56795">
        <ele>1203.71</ele>
        <time>2017-04-12T10:06:40Z</time>
      </trkpt>
      <trkpt lat="45.394" lon="4.56795">
        <ele>1204.19</ele>
        <time>2017-04-12T10:06:41Z</time>
      </trkpt>
      <trkpt lat="45.39397" lon="4.56793">
        <ele>1204.19</ele>
        <time>2017-04-12T10:06:53Z</time>
      </trkpt>
      <trkpt lat="45.39391" lon="4.56795">
        <ele>1205.63</ele>
        <time>2017-04-12T10:07:05Z</time>
      </trkpt>
      <trkpt lat="45.39387" lon="4.568">
        <ele>1207.07</ele>
        <time>2017-04-12T10:07:24Z</time>
      </trkpt>
      <trkpt lat="45.39375" lon="4.56809">
        <ele>1209</ele>
        <time>2017-04-12T10:07:40Z</time>
      </trkpt>
      <trkpt lat="45.39366" lon="4.56817">
        <ele>1210.92</ele>
        <time>2017-04-12T10:07:54Z</time>
      </trkpt>
      <trkpt lat="45.39359" lon="4.56828">
        <ele>1213.32</ele>
        <time>2017-04-12T10:08:09Z</time>
      </trkpt>
      <trkpt lat="45.39354" lon="4.56837">
        <ele>1215.24</ele>
        <time>2017-04-12T10:08:24Z</time>
      </trkpt>
      <trkpt lat="45.39347" lon="4.56845">
        <ele>1217.65</ele>
        <time>2017-04-12T10:08:39Z</time>
      </trkpt>
      <trkpt lat="45.3934" lon="4.56857">
        <ele>1221.01</ele>
        <time>2017-04-12T10:08:58Z</time>
      </trkpt>
      <trkpt lat="45.39334" lon="4.56866">
        <ele>1223.9</ele>
        <time>2017-04-12T10:09:15Z</time>
      </trkpt>
      <trkpt lat="45.39328" lon="4.56874">
        <ele>1226.3</ele>
        <time>2017-04-12T10:09:31Z</time>
      </trkpt>
      <trkpt lat="45.3932" lon="4.56882">
        <ele>1228.7</ele>
        <time>2017-04-12T10:09:46Z</time>
      </trkpt>
      <trkpt lat="45.3931" lon="4.56891">
        <ele>1230.62</ele>
        <time>2017-04-12T10:10:01Z</time>
      </trkpt>
      <trkpt lat="45.39302" lon="4.56903">
        <ele>1233.03</ele>
        <time>2017-04-12T10:10:18Z</time>
      </trkpt>
      <trkpt lat="45.39296" lon="4.56912">
        <ele>1235.43</ele>
        <time>2017-04-12T10:10:33Z</time>
      </trkpt>
      <trkpt lat="45.39289" lon="4.5692">
        <ele>1238.32</ele>
        <time>2017-04-12T10:10:48Z</time>
      </trkpt>
      <trkpt lat="45.39277" lon="4.56931">
        <ele>1240.72</ele>
        <time>2017-04-12T10:11:05Z</time>
      </trkpt>
      <trkpt lat="45.39268" lon="4.56943">
        <ele>1243.6</ele>
        <time>2017-04-12T10:11:22Z</time>
      </trkpt>
      <trkpt lat="45.3926" lon="4.56957">
        <ele>1246.01</ele>
        <time>2017-04-12T10:11:40Z</time>
      </trkpt>
      <trkpt lat="45.39253" lon="4.56969">
        <ele>1249.37</ele>
        <time>2017-04-12T10:11:58Z</time>
      </trkpt>
      <trkpt lat="45.3925" lon="4.56984">
        <ele>1251.77</ele>
        <time>2017-04-12T10:12:13Z</time>
      </trkpt>
      <trkpt lat="45.39252" lon="4.56998">
        <ele>1254.66</ele>
        <time>2017-04-12T10:12:29Z</time>
      </trkpt>
      <trkpt lat="45.39263" lon="4.57003">
        <ele>1257.06</ele>
        <time>2017-04-12T10:12:47Z</time>
      </trkpt>
      <trkpt lat="45.39265" lon="4.57003">
        <ele>1257.54</ele>
        <time>2017-04-12T10:12:50Z</time>
      </trkpt>
      <trkpt lat="45.39275" lon="4.57009">
        <ele>1258.98</ele>
        <time>2017-04-12T10:13:06Z</time>
      </trkpt>
      <trkpt lat="45.39278" lon="4.57009">
        <ele>1259.46</ele>
        <time>2017-04-12T10:13:14Z</time>
      </trkpt>
      <trkpt lat="45.39283" lon="4.57015">
        <ele>1260.43</ele>
        <time>2017-04-12T10:13:19Z</time>
      </trkpt>
      <trkpt lat="45.39288" lon="4.57017">
        <ele>1261.87</ele>
        <time>2017-04-12T10:13:24Z</time>
      </trkpt>
      <trkpt lat="45.39297" lon="4.57022">
        <ele>1262.83</ele>
        <time>2017-04-12T10:13:31Z</time>
      </trkpt>
      <trkpt lat="45.39317" lon="4.57025">
        <ele>1265.71</ele>
        <time>2017-04-12T10:13:48Z</time>
      </trkpt>
      <trkpt lat="45.39328" lon="4.57029">
        <ele>1267.64</ele>
        <time>2017-04-12T10:13:58Z</time>
      </trkpt>
      <trkpt lat="45.39339" lon="4.57037">
        <ele>1269.56</ele>
        <time>2017-04-12T10:14:10Z</time>
      </trkpt>
      <trkpt lat="45.39352" lon="4.57038">
        <ele>1270.52</ele>
        <time>2017-04-12T10:14:21Z</time>
      </trkpt>
      <trkpt lat="45.39379" lon="4.57031">
        <ele>1270.52</ele>
        <time>2017-04-12T10:14:36Z</time>
      </trkpt>
      <trkpt lat="45.39396" lon="4.57036">
        <ele>1272.44</ele>
        <time>2017-04-12T10:14:48Z</time>
      </trkpt>
      <trkpt lat="45.39415" lon="4.5704">
        <ele>1275.81</ele>
        <time>2017-04-12T10:15:02Z</time>
      </trkpt>
      <trkpt lat="45.39436" lon="4.57037">
        <ele>1276.29</ele>
        <time>2017-04-12T10:15:16Z</time>
      </trkpt>
      <trkpt lat="45.39457" lon="4.57031">
        <ele>1277.25</ele>
        <time>2017-04-12T10:15:29Z</time>
      </trkpt>
      <trkpt lat="45.3947" lon="4.57027">
        <ele>1277.73</ele>
        <time>2017-04-12T10:15:37Z</time>
      </trkpt>
      <trkpt lat="45.3948" lon="4.57028">
        <ele>1277.73</ele>
        <time>2017-04-12T10:15:48Z</time>
      </trkpt>
      <trkpt lat="45.395" lon="4.57027">
        <ele>1279.17</ele>
        <time>2017-04-12T10:16:02Z</time>
      </trkpt>
      <trkpt lat="45.3952" lon="4.57033">
        <ele>1281.09</ele>
        <time>2017-04-12T10:16:15Z</time>
      </trkpt>
      <trkpt lat="45.39529" lon="4.57041">
        <ele>1282.06</ele>
        <time>2017-04-12T10:16:23Z</time>
      </trkpt>
      <trkpt lat="45.39533" lon="4.57047">
        <ele>1282.54</ele>
        <time>2017-04-12T10:16:27Z</time>
      </trkpt>
      <trkpt lat="45.39549" lon="4.5706">
        <ele>1284.46</ele>
        <time>2017-04-12T10:16:41Z</time>
      </trkpt>
      <trkpt lat="45.3956" lon="4.57081">
        <ele>1285.9</ele>
        <time>2017-04-12T10:16:53Z</time>
      </trkpt>
      <trkpt lat="45.39557" lon="4.5709">
        <ele>1286.38</ele>
        <time>2017-04-12T10:16:57Z</time>
      </trkpt>
      <trkpt lat="45.39544" lon="4.57121">
        <ele>1286.86</ele>
        <time>2017-04-12T10:17:11Z</time>
      </trkpt>
      <trkpt lat="45.39523" lon="4.57151">
        <ele>1286.86</ele>
        <time>2017-04-12T10:17:24Z</time>
      </trkpt>
      <trkpt lat="45.39493" lon="4.57159">
        <ele>1289.75</ele>
        <time>2017-04-12T10:17:40Z</time>
      </trkpt>
      <trkpt lat="45.39465" lon="4.57166">
        <ele>1293.59</ele>
        <time>2017-04-12T10:17:55Z</time>
      </trkpt>
      <trkpt lat="45.39436" lon="4.57172">
        <ele>1295.51</ele>
        <time>2017-04-12T10:18:11Z</time>
      </trkpt>
      <trkpt lat="45.39409" lon="4.57178">
        <ele>1297.44</ele>
        <time>2017-04-12T10:18:28Z</time>
      </trkpt>
      <trkpt lat="45.39408" lon="4.57179">
        <ele>1297.92</ele>
        <time>2017-04-12T10:18:29Z</time>
      </trkpt>
      <trkpt lat="45.39406" lon="4.5718">
        <ele>1297.92</ele>
        <time>2017-04-12T10:18:30Z</time>
      </trkpt>
      <trkpt lat="45.39405" lon="4.57181">
        <ele>1297.92</ele>
        <time>2017-04-12T10:18:31Z</time>
      </trkpt>
      <trkpt lat="45.39403" lon="4.57183">
        <ele>1297.92</ele>
        <time>2017-04-12T10:18:32Z</time>
      </trkpt>
      <trkpt lat="45.39402" lon="4.57184">
        <ele>1297.92</ele>
        <time>2017-04-12T10:18:33Z</time>
      </trkpt>
      <trkpt lat="45.39384" lon="4.57203">
        <ele>1300.8</ele>
        <time>2017-04-12T10:18:48Z</time>
      </trkpt>
      <trkpt lat="45.39382" lon="4.57204">
        <ele>1301.28</ele>
        <time>2017-04-12T10:18:49Z</time>
      </trkpt>
      <trkpt lat="45.39352" lon="4.57225">
        <ele>1303.2</ele>
        <time>2017-04-12T10:19:05Z</time>
      </trkpt>
      <trkpt lat="45.39326" lon="4.57243">
        <ele>1304.65</ele>
        <time>2017-04-12T10:19:20Z</time>
      </trkpt>
      <trkpt lat="45.39289" lon="4.57269">
        <ele>1306.09</ele>
        <time>2017-04-12T10:19:36Z</time>
      </trkpt>
      <trkpt lat="45.39243" lon="4.57296">
        <ele>1307.05</ele>
        <time>2017-04-12T10:19:53Z</time>
      </trkpt>
      <trkpt lat="45.39184" lon="4.57334">
        <ele>1307.53</ele>
        <time>2017-04-12T10:20:13Z</time>
      </trkpt>
      <trkpt lat="45.39145" lon="4.57357">
        <ele>1308.97</ele>
        <time>2017-04-12T10:20:25Z</time>
      </trkpt>
      <trkpt lat="45.39109" lon="4.57377">
        <ele>1308.97</ele>
        <time>2017-04-12T10:20:36Z</time>
      </trkpt>
      <trkpt lat="45.39081" lon="4.57395">
        <ele>1309.45</ele>
        <time>2017-04-12T10:20:47Z</time>
      </trkpt>
      <trkpt lat="45.39045" lon="4.57401">
        <ele>1308.97</ele>
        <time>2017-04-12T10:20:59Z</time>
      </trkpt>
      <trkpt lat="45.39041" lon="4.57395">
        <ele>1308.49</ele>
        <time>2017-04-12T10:21:01Z</time>
      </trkpt>
      <trkpt lat="45.3904" lon="4.57383">
        <ele>1308.01</ele>
        <time>2017-04-12T10:21:10Z</time>
      </trkpt>
      <trkpt lat="45.39042" lon="4.57382">
        <ele>1307.53</ele>
        <time>2017-04-12T10:21:15Z</time>
      </trkpt>
      <trkpt lat="45.39061" lon="4.57376">
        <ele>1307.05</ele>
        <time>2017-04-12T10:21:28Z</time>
      </trkpt>
      <trkpt lat="45.39059" lon="4.57375">
        <ele>1307.05</ele>
        <time>2017-04-12T10:21:48Z</time>
      </trkpt>
      <trkpt lat="45.39052" lon="4.57377">
        <ele>1307.05</ele>
        <time>2017-04-12T10:22:06Z</time>
      </trkpt>
      <trkpt lat="45.39051" lon="4.57378">
        <ele>1307.05</ele>
        <time>2017-04-12T10:22:07Z</time>
      </trkpt>
      <trkpt lat="45.3905" lon="4.57378">
        <ele>1307.05</ele>
        <time>2017-04-12T10:22:08Z</time>
      </trkpt>
      <trkpt lat="45.39048" lon="4.57379">
        <ele>1307.05</ele>
        <time>2017-04-12T10:22:09Z</time>
      </trkpt>
      <trkpt lat="45.39051" lon="4.57379">
        <ele>1307.05</ele>
        <time>2017-04-12T10:22:19Z</time>
      </trkpt>
      <trkpt lat="45.39056" lon="4.57377">
        <ele>1307.05</ele>
        <time>2017-04-12T10:22:30Z</time>
      </trkpt>
      <trkpt lat="45.39057" lon="4.57377">
        <ele>1307.53</ele>
        <time>2017-04-12T10:22:52Z</time>
      </trkpt>
      <trkpt lat="45.39057" lon="4.57377">
        <ele>1307.53</ele>
        <time>2017-04-12T10:23:20Z</time>
      </trkpt>
      <trkpt lat="45.39054" lon="4.57376">
        <ele>1308.97</ele>
        <time>2017-04-12T10:23:57Z</time>
      </trkpt>
      <trkpt lat="45.39052" lon="4.57373">
        <ele>1308.01</ele>
        <time>2017-04-12T10:24:42Z</time>
      </trkpt>
      <trkpt lat="45.39049" lon="4.5737">
        <ele>1308.49</ele>
        <time>2017-04-12T10:25:11Z</time>
      </trkpt>
      <trkpt lat="45.39048" lon="4.57371">
        <ele>1308.49</ele>
        <time>2017-04-12T10:25:51Z</time>
      </trkpt>
      <trkpt lat="45.3905" lon="4.57372">
        <ele>1308.97</ele>
        <time>2017-04-12T10:26:37Z</time>
      </trkpt>
      <trkpt lat="45.39051" lon="4.57374">
        <ele>1308.97</ele>
        <time>2017-04-12T10:27:17Z</time>
      </trkpt>
      <trkpt lat="45.39051" lon="4.57374">
        <ele>1309.45</ele>
        <time>2017-04-12T10:28:08Z</time>
      </trkpt>
      <trkpt lat="45.39048" lon="4.57372">
        <ele>1309.93</ele>
        <time>2017-04-12T10:28:55Z</time>
      </trkpt>
      <trkpt lat="45.39047" lon="4.57369">
        <ele>1309.93</ele>
        <time>2017-04-12T10:29:27Z</time>
      </trkpt>
      <trkpt lat="45.39048" lon="4.5737">
        <ele>1310.9</ele>
        <time>2017-04-12T10:30:18Z</time>
      </trkpt>
      <trkpt lat="45.39053" lon="4.57374">
        <ele>1310.9</ele>
        <time>2017-04-12T10:30:52Z</time>
      </trkpt>
      <trkpt lat="45.39057" lon="4.57378">
        <ele>1310.9</ele>
        <time>2017-04-12T10:31:33Z</time>
      </trkpt>
      <trkpt lat="45.39058" lon="4.57378">
        <ele>1310.9</ele>
        <time>2017-04-12T10:32:16Z</time>
      </trkpt>
      <trkpt lat="45.39057" lon="4.57377">
        <ele>1310.9</ele>
        <time>2017-04-12T10:32:56Z</time>
      </trkpt>
      <trkpt lat="45.39058" lon="4.57378">
        <ele>1310.9</ele>
        <time>2017-04-12T10:33:38Z</time>
      </trkpt>
      <trkpt lat="45.39057" lon="4.57378">
        <ele>1310.9</ele>
        <time>2017-04-12T10:34:10Z</time>
      </trkpt>
      <trkpt lat="45.39058" lon="4.57377">
        <ele>1310.9</ele>
        <time>2017-04-12T10:34:43Z</time>
      </trkpt>
      <trkpt lat="45.39056" lon="4.57376">
        <ele>1310.9</ele>
        <time>2017-04-12T10:35:14Z</time>
      </trkpt>
      <trkpt lat="45.39057" lon="4.57377">
        <ele>1310.9</ele>
        <time>2017-04-12T10:35:51Z</time>
      </trkpt>
      <trkpt lat="45.39057" lon="4.57379">
        <ele>1310.9</ele>
        <time>2017-04-12T10:36:26Z</time>
      </trkpt>
      <trkpt lat="45.39056" lon="4.57375">
        <ele>1311.38</ele>
        <time>2017-04-12T10:37:09Z</time>
      </trkpt>
      <trkpt lat="45.39056" lon="4.57375">
        <ele>1311.38</ele>
        <time>2017-04-12T10:37:48Z</time>
      </trkpt>
      <trkpt lat="45.39056" lon="4.57374">
        <ele>1311.38</ele>
        <time>2017-04-12T10:38:21Z</time>
      </trkpt>
      <trkpt lat="45.39056" lon="4.57373">
        <ele>1311.38</ele>
        <time>2017-04-12T10:38:43Z</time>
      </trkpt>
      <trkpt lat="45.39056" lon="4.57372">
        <ele>1311.38</ele>
        <time>2017-04-12T10:39:12Z</time>
      </trkpt>
      <trkpt lat="45.39055" lon="4.57374">
        <ele>1311.38</ele>
        <time>2017-04-12T10:39:46Z</time>
      </trkpt>
      <trkpt lat="45.39055" lon="4.5737">
        <ele>1311.38</ele>
        <time>2017-04-12T10:40:13Z</time>
      </trkpt>
      <trkpt lat="45.39054" lon="4.57367">
        <ele>1311.86</ele>
        <time>2017-04-12T10:40:47Z</time>
      </trkpt>
      <trkpt lat="45.39056" lon="4.57366">
        <ele>1311.38</ele>
        <time>2017-04-12T10:41:25Z</time>
      </trkpt>
      <trkpt lat="45.39056" lon="4.57363">
        <ele>1311.86</ele>
        <time>2017-04-12T10:42:04Z</time>
      </trkpt>
      <trkpt lat="45.39055" lon="4.57364">
        <ele>1311.86</ele>
        <time>2017-04-12T10:42:43Z</time>
      </trkpt>
      <trkpt lat="45.39055" lon="4.57364">
        <ele>1311.86</ele>
        <time>2017-04-12T10:43:08Z</time>
      </trkpt>
      <trkpt lat="45.39055" lon="4.57361">
        <ele>1311.86</ele>
        <time>2017-04-12T10:43:41Z</time>
      </trkpt>
      <trkpt lat="45.39055" lon="4.5736">
        <ele>1311.86</ele>
        <time>2017-04-12T10:44:08Z</time>
      </trkpt>
      <trkpt lat="45.39057" lon="4.57363">
        <ele>1311.86</ele>
        <time>2017-04-12T10:44:30Z</time>
      </trkpt>
      <trkpt lat="45.39056" lon="4.57366">
        <ele>1311.86</ele>
        <time>2017-04-12T10:44:47Z</time>
      </trkpt>
      <trkpt lat="45.39055" lon="4.57367">
        <ele>1311.86</ele>
        <time>2017-04-12T10:44:48Z</time>
      </trkpt>
      <trkpt lat="45.39053" lon="4.57369">
        <ele>1311.86</ele>
        <time>2017-04-12T10:44:49Z</time>
      </trkpt>
      <trkpt lat="45.39052" lon="4.57372">
        <ele>1312.34</ele>
        <time>2017-04-12T10:44:50Z</time>
      </trkpt>
      <trkpt lat="45.3905" lon="4.57374">
        <ele>1312.34</ele>
        <time>2017-04-12T10:44:51Z</time>
      </trkpt>
      <trkpt lat="45.39049" lon="4.57378">
        <ele>1312.34</ele>
        <time>2017-04-12T10:44:52Z</time>
      </trkpt>
      <trkpt lat="45.39047" lon="4.5738">
        <ele>1312.34</ele>
        <time>2017-04-12T10:44:53Z</time>
      </trkpt>
      <trkpt lat="45.39046" lon="4.57382">
        <ele>1312.82</ele>
        <time>2017-04-12T10:44:54Z</time>
      </trkpt>
      <trkpt lat="45.39045" lon="4.57384">
        <ele>1312.82</ele>
        <time>2017-04-12T10:44:55Z</time>
      </trkpt>
      <trkpt lat="45.39044" lon="4.57386">
        <ele>1312.82</ele>
        <time>2017-04-12T10:44:56Z</time>
      </trkpt>
      <trkpt lat="45.39043" lon="4.57389">
        <ele>1312.82</ele>
        <time>2017-04-12T10:44:57Z</time>
      </trkpt>
      <trkpt lat="45.39043" lon="4.57391">
        <ele>1313.3</ele>
        <time>2017-04-12T10:44:58Z</time>
      </trkpt>
      <trkpt lat="45.39042" lon="4.57399">
        <ele>1313.3</ele>
        <time>2017-04-12T10:45:01Z</time>
      </trkpt>
      <trkpt lat="45.39044" lon="4.57402">
        <ele>1313.78</ele>
        <time>2017-04-12T10:45:02Z</time>
      </trkpt>
      <trkpt lat="45.39045" lon="4.57404">
        <ele>1313.78</ele>
        <time>2017-04-12T10:45:03Z</time>
      </trkpt>
      <trkpt lat="45.39046" lon="4.57406">
        <ele>1314.26</ele>
        <time>2017-04-12T10:45:04Z</time>
      </trkpt>
      <trkpt lat="45.39048" lon="4.57408">
        <ele>1314.26</ele>
        <time>2017-04-12T10:45:05Z</time>
      </trkpt>
      <trkpt lat="45.3905" lon="4.57409">
        <ele>1314.26</ele>
        <time>2017-04-12T10:45:06Z</time>
      </trkpt>
      <trkpt lat="45.39052" lon="4.57409">
        <ele>1314.74</ele>
        <time>2017-04-12T10:45:07Z</time>
      </trkpt>
      <trkpt lat="45.39054" lon="4.57408">
        <ele>1314.74</ele>
        <time>2017-04-12T10:45:08Z</time>
      </trkpt>
      <trkpt lat="45.39056" lon="4.57407">
        <ele>1314.74</ele>
        <time>2017-04-12T10:45:09Z</time>
      </trkpt>
      <trkpt lat="45.39059" lon="4.57406">
        <ele>1315.22</ele>
        <time>2017-04-12T10:45:10Z</time>
      </trkpt>
      <trkpt lat="45.39061" lon="4.57406">
        <ele>1314.74</ele>
        <time>2017-04-12T10:45:11Z</time>
      </trkpt>
      <trkpt lat="45.39104" lon="4.57392">
        <ele>1315.22</ele>
        <time>2017-04-12T10:45:27Z</time>
      </trkpt>
      <trkpt lat="45.39136" lon="4.57395">
        <ele>1317.14</ele>
        <time>2017-04-12T10:45:40Z</time>
      </trkpt>
      <trkpt lat="45.39178" lon="4.57413">
        <ele>1319.55</ele>
        <time>2017-04-12T10:45:57Z</time>
      </trkpt>
      <trkpt lat="45.39201" lon="4.57456">
        <ele>1321.95</ele>
        <time>2017-04-12T10:46:13Z</time>
      </trkpt>
      <trkpt lat="45.39211" lon="4.57502">
        <ele>1323.87</ele>
        <time>2017-04-12T10:46:29Z</time>
      </trkpt>
      <trkpt lat="45.39211" lon="4.57508">
        <ele>1324.35</ele>
        <time>2017-04-12T10:46:31Z</time>
      </trkpt>
      <trkpt lat="45.3921" lon="4.5751">
        <ele>1324.35</ele>
        <time>2017-04-12T10:46:32Z</time>
      </trkpt>
      <trkpt lat="45.39209" lon="4.57512">
        <ele>1324.83</ele>
        <time>2017-04-12T10:46:33Z</time>
      </trkpt>
      <trkpt lat="45.39186" lon="4.57519">
        <ele>1327.24</ele>
        <time>2017-04-12T10:46:47Z</time>
      </trkpt>
      <trkpt lat="45.3916" lon="4.57519">
        <ele>1329.16</ele>
        <time>2017-04-12T10:47:00Z</time>
      </trkpt>
      <trkpt lat="45.39136" lon="4.57527">
        <ele>1330.6</ele>
        <time>2017-04-12T10:47:13Z</time>
      </trkpt>
      <trkpt lat="45.39135" lon="4.5753">
        <ele>1331.08</ele>
        <time>2017-04-12T10:47:14Z</time>
      </trkpt>
      <trkpt lat="45.39135" lon="4.57533">
        <ele>1331.08</ele>
        <time>2017-04-12T10:47:15Z</time>
      </trkpt>
      <trkpt lat="45.39137" lon="4.57536">
        <ele>1331.56</ele>
        <time>2017-04-12T10:47:16Z</time>
      </trkpt>
      <trkpt lat="45.39138" lon="4.57539">
        <ele>1331.56</ele>
        <time>2017-04-12T10:47:17Z</time>
      </trkpt>
      <trkpt lat="45.39141" lon="4.57541">
        <ele>1331.56</ele>
        <time>2017-04-12T10:47:18Z</time>
      </trkpt>
      <trkpt lat="45.39143" lon="4.57542">
        <ele>1331.56</ele>
        <time>2017-04-12T10:47:19Z</time>
      </trkpt>
      <trkpt lat="45.39145" lon="4.57543">
        <ele>1332.04</ele>
        <time>2017-04-12T10:47:20Z</time>
      </trkpt>
      <trkpt lat="45.39159" lon="4.57574">
        <ele>1333.97</ele>
        <time>2017-04-12T10:47:32Z</time>
      </trkpt>
      <trkpt lat="45.39169" lon="4.57607">
        <ele>1335.89</ele>
        <time>2017-04-12T10:47:46Z</time>
      </trkpt>
      <trkpt lat="45.39181" lon="4.57647">
        <ele>1337.81</ele>
        <time>2017-04-12T10:48:01Z</time>
      </trkpt>
      <trkpt lat="45.39192" lon="4.57705">
        <ele>1339.25</ele>
        <time>2017-04-12T10:48:19Z</time>
      </trkpt>
      <trkpt lat="45.39202" lon="4.57754">
        <ele>1338.77</ele>
        <time>2017-04-12T10:48:31Z</time>
      </trkpt>
      <trkpt lat="45.39209" lon="4.57786">
        <ele>1338.29</ele>
        <time>2017-04-12T10:48:37Z</time>
      </trkpt>
      <trkpt lat="45.3921" lon="4.57792">
        <ele>1337.81</ele>
        <time>2017-04-12T10:48:38Z</time>
      </trkpt>
      <trkpt lat="45.39212" lon="4.57797">
        <ele>1337.81</ele>
        <time>2017-04-12T10:48:39Z</time>
      </trkpt>
      <trkpt lat="45.39216" lon="4.57816">
        <ele>1336.85</ele>
        <time>2017-04-12T10:48:42Z</time>
      </trkpt>
      <trkpt lat="45.39218" lon="4.57822">
        <ele>1336.85</ele>
        <time>2017-04-12T10:48:43Z</time>
      </trkpt>
      <trkpt lat="45.39227" lon="4.57848">
        <ele>1335.41</ele>
        <time>2017-04-12T10:48:47Z</time>
      </trkpt>
      <trkpt lat="45.3923" lon="4.57856">
        <ele>1335.41</ele>
        <time>2017-04-12T10:48:48Z</time>
      </trkpt>
      <trkpt lat="45.39232" lon="4.57864">
        <ele>1334.93</ele>
        <time>2017-04-12T10:48:49Z</time>
      </trkpt>
      <trkpt lat="45.39234" lon="4.57872">
        <ele>1334.45</ele>
        <time>2017-04-12T10:48:50Z</time>
      </trkpt>
      <trkpt lat="45.39245" lon="4.57929">
        <ele>1332.52</ele>
        <time>2017-04-12T10:48:57Z</time>
      </trkpt>
      <trkpt lat="45.39248" lon="4.57942">
        <ele>1332.52</ele>
        <time>2017-04-12T10:48:59Z</time>
      </trkpt>
      <trkpt lat="45.39249" lon="4.5795">
        <ele>1333.01</ele>
        <time>2017-04-12T10:49:00Z</time>
      </trkpt>
      <trkpt lat="45.39255" lon="4.58008">
        <ele>1332.52</ele>
        <time>2017-04-12T10:49:09Z</time>
      </trkpt>
      <trkpt lat="45.3926" lon="4.58051">
        <ele>1332.04</ele>
        <time>2017-04-12T10:49:16Z</time>
      </trkpt>
      <trkpt lat="45.39257" lon="4.58075">
        <ele>1331.56</ele>
        <time>2017-04-12T10:49:20Z</time>
      </trkpt>
      <trkpt lat="45.39253" lon="4.58088">
        <ele>1330.6</ele>
        <time>2017-04-12T10:49:22Z</time>
      </trkpt>
      <trkpt lat="45.39248" lon="4.581">
        <ele>1330.6</ele>
        <time>2017-04-12T10:49:24Z</time>
      </trkpt>
      <trkpt lat="45.39243" lon="4.58112">
        <ele>1328.68</ele>
        <time>2017-04-12T10:49:26Z</time>
      </trkpt>
      <trkpt lat="45.3924" lon="4.5812">
        <ele>1328.2</ele>
        <time>2017-04-12T10:49:27Z</time>
      </trkpt>
      <trkpt lat="45.39238" lon="4.58128">
        <ele>1327.72</ele>
        <time>2017-04-12T10:49:28Z</time>
      </trkpt>
      <trkpt lat="45.39235" lon="4.58136">
        <ele>1326.76</ele>
        <time>2017-04-12T10:49:29Z</time>
      </trkpt>
      <trkpt lat="45.3923" lon="4.58143">
        <ele>1326.28</ele>
        <time>2017-04-12T10:49:30Z</time>
      </trkpt>
      <trkpt lat="45.39226" lon="4.5815">
        <ele>1326.28</ele>
        <time>2017-04-12T10:49:31Z</time>
      </trkpt>
      <trkpt lat="45.39221" lon="4.58157">
        <ele>1325.8</ele>
        <time>2017-04-12T10:49:32Z</time>
      </trkpt>
      <trkpt lat="45.39207" lon="4.58175">
        <ele>1323.87</ele>
        <time>2017-04-12T10:49:35Z</time>
      </trkpt>
      <trkpt lat="45.39204" lon="4.58181">
        <ele>1323.87</ele>
        <time>2017-04-12T10:49:36Z</time>
      </trkpt>
      <trkpt lat="45.39201" lon="4.58186">
        <ele>1323.39</ele>
        <time>2017-04-12T10:49:37Z</time>
      </trkpt>
      <trkpt lat="45.39198" lon="4.58191">
        <ele>1322.43</ele>
        <time>2017-04-12T10:49:38Z</time>
      </trkpt>
      <trkpt lat="45.39195" lon="4.58196">
        <ele>1321.95</ele>
        <time>2017-04-12T10:49:39Z</time>
      </trkpt>
      <trkpt lat="45.3919" lon="4.58206">
        <ele>1320.99</ele>
        <time>2017-04-12T10:49:41Z</time>
      </trkpt>
      <trkpt lat="45.39184" lon="4.58223">
        <ele>1320.03</ele>
        <time>2017-04-12T10:49:44Z</time>
      </trkpt>
      <trkpt lat="45.39181" lon="4.58229">
        <ele>1319.07</ele>
        <time>2017-04-12T10:49:45Z</time>
      </trkpt>
      <trkpt lat="45.39178" lon="4.58236">
        <ele>1318.59</ele>
        <time>2017-04-12T10:49:46Z</time>
      </trkpt>
      <trkpt lat="45.39176" lon="4.58243">
        <ele>1317.14</ele>
        <time>2017-04-12T10:49:47Z</time>
      </trkpt>
      <trkpt lat="45.39173" lon="4.58249">
        <ele>1317.14</ele>
        <time>2017-04-12T10:49:48Z</time>
      </trkpt>
      <trkpt lat="45.3917" lon="4.58256">
        <ele>1316.18</ele>
        <time>2017-04-12T10:49:49Z</time>
      </trkpt>
      <trkpt lat="45.39167" lon="4.58262">
        <ele>1316.18</ele>
        <time>2017-04-12T10:49:50Z</time>
      </trkpt>
      <trkpt lat="45.39161" lon="4.58273">
        <ele>1314.26</ele>
        <time>2017-04-12T10:49:52Z</time>
      </trkpt>
      <trkpt lat="45.39157" lon="4.58278">
        <ele>1313.78</ele>
        <time>2017-04-12T10:49:53Z</time>
      </trkpt>
      <trkpt lat="45.39151" lon="4.58289">
        <ele>1312.34</ele>
        <time>2017-04-12T10:49:55Z</time>
      </trkpt>
      <trkpt lat="45.39148" lon="4.58295">
        <ele>1311.38</ele>
        <time>2017-04-12T10:49:56Z</time>
      </trkpt>
      <trkpt lat="45.39144" lon="4.583">
        <ele>1311.38</ele>
        <time>2017-04-12T10:49:57Z</time>
      </trkpt>
      <trkpt lat="45.39141" lon="4.58305">
        <ele>1309.45</ele>
        <time>2017-04-12T10:49:58Z</time>
      </trkpt>
      <trkpt lat="45.39139" lon="4.5831">
        <ele>1309.45</ele>
        <time>2017-04-12T10:49:59Z</time>
      </trkpt>
      <trkpt lat="45.39135" lon="4.58314">
        <ele>1308.97</ele>
        <time>2017-04-12T10:50:00Z</time>
      </trkpt>
      <trkpt lat="45.39131" lon="4.58319">
        <ele>1308.01</ele>
        <time>2017-04-12T10:50:01Z</time>
      </trkpt>
      <trkpt lat="45.39123" lon="4.58327">
        <ele>1307.05</ele>
        <time>2017-04-12T10:50:03Z</time>
      </trkpt>
      <trkpt lat="45.3912" lon="4.58332">
        <ele>1306.09</ele>
        <time>2017-04-12T10:50:04Z</time>
      </trkpt>
      <trkpt lat="45.39088" lon="4.58374">
        <ele>1302.72</ele>
        <time>2017-04-12T10:50:11Z</time>
      </trkpt>
      <trkpt lat="45.39083" lon="4.5838">
        <ele>1302.72</ele>
        <time>2017-04-12T10:50:12Z</time>
      </trkpt>
      <trkpt lat="45.39075" lon="4.5839">
        <ele>1302.24</ele>
        <time>2017-04-12T10:50:14Z</time>
      </trkpt>
      <trkpt lat="45.39072" lon="4.58393">
        <ele>1302.72</ele>
        <time>2017-04-12T10:50:15Z</time>
      </trkpt>
      <trkpt lat="45.39069" lon="4.58397">
        <ele>1302.72</ele>
        <time>2017-04-12T10:50:16Z</time>
      </trkpt>
      <trkpt lat="45.39065" lon="4.58401">
        <ele>1302.72</ele>
        <time>2017-04-12T10:50:17Z</time>
      </trkpt>
      <trkpt lat="45.39062" lon="4.58405">
        <ele>1302.72</ele>
        <time>2017-04-12T10:50:18Z</time>
      </trkpt>
      <trkpt lat="45.39044" lon="4.58426">
        <ele>1302.24</ele>
        <time>2017-04-12T10:50:23Z</time>
      </trkpt>
      <trkpt lat="45.39021" lon="4.58449">
        <ele>1302.72</ele>
        <time>2017-04-12T10:50:29Z</time>
      </trkpt>
      <trkpt lat="45.39009" lon="4.58463">
        <ele>1301.76</ele>
        <time>2017-04-12T10:50:32Z</time>
      </trkpt>
      <trkpt lat="45.39005" lon="4.58469">
        <ele>1301.28</ele>
        <time>2017-04-12T10:50:33Z</time>
      </trkpt>
      <trkpt lat="45.39" lon="4.58474">
        <ele>1300.32</ele>
        <time>2017-04-12T10:50:34Z</time>
      </trkpt>
      <trkpt lat="45.38995" lon="4.58479">
        <ele>1300.32</ele>
        <time>2017-04-12T10:50:35Z</time>
      </trkpt>
      <trkpt lat="45.38979" lon="4.58492">
        <ele>1298.88</ele>
        <time>2017-04-12T10:50:38Z</time>
      </trkpt>
      <trkpt lat="45.38974" lon="4.58494">
        <ele>1297.92</ele>
        <time>2017-04-12T10:50:39Z</time>
      </trkpt>
      <trkpt lat="45.3897" lon="4.58495">
        <ele>1297.92</ele>
        <time>2017-04-12T10:50:40Z</time>
      </trkpt>
      <trkpt lat="45.38947" lon="4.58503">
        <ele>1295.51</ele>
        <time>2017-04-12T10:50:47Z</time>
      </trkpt>
      <trkpt lat="45.38945" lon="4.58505">
        <ele>1295.51</ele>
        <time>2017-04-12T10:50:48Z</time>
      </trkpt>
      <trkpt lat="45.38925" lon="4.58514">
        <ele>1292.15</ele>
        <time>2017-04-12T10:50:54Z</time>
      </trkpt>
      <trkpt lat="45.38913" lon="4.5852">
        <ele>1290.23</ele>
        <time>2017-04-12T10:50:58Z</time>
      </trkpt>
      <trkpt lat="45.38902" lon="4.58523">
        <ele>1287.82</ele>
        <time>2017-04-12T10:51:01Z</time>
      </trkpt>
      <trkpt lat="45.38899" lon="4.58526">
        <ele>1287.34</ele>
        <time>2017-04-12T10:51:02Z</time>
      </trkpt>
      <trkpt lat="45.3888" lon="4.58532">
        <ele>1284.46</ele>
        <time>2017-04-12T10:51:07Z</time>
      </trkpt>
      <trkpt lat="45.38876" lon="4.58534">
        <ele>1283.98</ele>
        <time>2017-04-12T10:51:08Z</time>
      </trkpt>
      <trkpt lat="45.38872" lon="4.58536">
        <ele>1283.5</ele>
        <time>2017-04-12T10:51:09Z</time>
      </trkpt>
      <trkpt lat="45.38868" lon="4.58538">
        <ele>1282.54</ele>
        <time>2017-04-12T10:51:10Z</time>
      </trkpt>
      <trkpt lat="45.38864" lon="4.5854">
        <ele>1282.54</ele>
        <time>2017-04-12T10:51:11Z</time>
      </trkpt>
      <trkpt lat="45.38859" lon="4.58541">
        <ele>1282.06</ele>
        <time>2017-04-12T10:51:12Z</time>
      </trkpt>
      <trkpt lat="45.38834" lon="4.58542">
        <ele>1281.57</ele>
        <time>2017-04-12T10:51:17Z</time>
      </trkpt>
      <trkpt lat="45.38809" lon="4.58545">
        <ele>1280.61</ele>
        <time>2017-04-12T10:51:23Z</time>
      </trkpt>
      <trkpt lat="45.38805" lon="4.58544">
        <ele>1280.61</ele>
        <time>2017-04-12T10:51:24Z</time>
      </trkpt>
      <trkpt lat="45.388" lon="4.58544">
        <ele>1280.13</ele>
        <time>2017-04-12T10:51:25Z</time>
      </trkpt>
      <trkpt lat="45.38774" lon="4.58537">
        <ele>1280.61</ele>
        <time>2017-04-12T10:51:33Z</time>
      </trkpt>
      <trkpt lat="45.3876" lon="4.58526">
        <ele>1282.06</ele>
        <time>2017-04-12T10:51:41Z</time>
      </trkpt>
      <trkpt lat="45.38749" lon="4.58521">
        <ele>1283.02</ele>
        <time>2017-04-12T10:51:46Z</time>
      </trkpt>
      <trkpt lat="45.38746" lon="4.58522">
        <ele>1283.02</ele>
        <time>2017-04-12T10:51:47Z</time>
      </trkpt>
      <trkpt lat="45.38742" lon="4.58522">
        <ele>1283.02</ele>
        <time>2017-04-12T10:51:48Z</time>
      </trkpt>
      <trkpt lat="45.38741" lon="4.58523">
        <ele>1283.5</ele>
        <time>2017-04-12T10:51:49Z</time>
      </trkpt>
      <trkpt lat="45.38739" lon="4.58524">
        <ele>1283.5</ele>
        <time>2017-04-12T10:51:50Z</time>
      </trkpt>
      <trkpt lat="45.38738" lon="4.58527">
        <ele>1283.5</ele>
        <time>2017-04-12T10:51:51Z</time>
      </trkpt>
      <trkpt lat="45.38737" lon="4.58529">
        <ele>1283.5</ele>
        <time>2017-04-12T10:51:52Z</time>
      </trkpt>
      <trkpt lat="45.38736" lon="4.58532">
        <ele>1283.5</ele>
        <time>2017-04-12T10:51:53Z</time>
      </trkpt>
      <trkpt lat="45.38735" lon="4.58535">
        <ele>1283.5</ele>
        <time>2017-04-12T10:51:54Z</time>
      </trkpt>
      <trkpt lat="45.38734" lon="4.58537">
        <ele>1283.5</ele>
        <time>2017-04-12T10:51:55Z</time>
      </trkpt>
      <trkpt lat="45.38734" lon="4.58539">
        <ele>1281.09</ele>
        <time>2017-04-12T10:51:56Z</time>
      </trkpt>
      <trkpt lat="45.38734" lon="4.58541">
        <ele>1285.9</ele>
        <time>2017-04-12T10:51:57Z</time>
      </trkpt>
      <trkpt lat="45.38733" lon="4.58544">
        <ele>1283.98</ele>
        <time>2017-04-12T10:51:58Z</time>
      </trkpt>
      <trkpt lat="45.38733" lon="4.58547">
        <ele>1283.98</ele>
        <time>2017-04-12T10:51:59Z</time>
      </trkpt>
      <trkpt lat="45.38732" lon="4.58551">
        <ele>1284.46</ele>
        <time>2017-04-12T10:52:01Z</time>
      </trkpt>
      <trkpt lat="45.38731" lon="4.58554">
        <ele>1275.33</ele>
        <time>2017-04-12T10:52:02Z</time>
      </trkpt>
      <trkpt lat="45.38731" lon="4.58557">
        <ele>1292.15</ele>
        <time>2017-04-12T10:52:03Z</time>
      </trkpt>
      <trkpt lat="45.38731" lon="4.58559">
        <ele>1285.42</ele>
        <time>2017-04-12T10:52:04Z</time>
      </trkpt>
      <trkpt lat="45.38731" lon="4.58561">
        <ele>1284.94</ele>
        <time>2017-04-12T10:52:05Z</time>
      </trkpt>
      <trkpt lat="45.3873" lon="4.58564">
        <ele>1284.94</ele>
        <time>2017-04-12T10:52:06Z</time>
      </trkpt>
      <trkpt lat="45.3873" lon="4.58567">
        <ele>1284.94</ele>
        <time>2017-04-12T10:52:07Z</time>
      </trkpt>
      <trkpt lat="45.3873" lon="4.58569">
        <ele>1284.94</ele>
        <time>2017-04-12T10:52:08Z</time>
      </trkpt>
      <trkpt lat="45.3873" lon="4.58572">
        <ele>1284.94</ele>
        <time>2017-04-12T10:52:09Z</time>
      </trkpt>
      <trkpt lat="45.3873" lon="4.58574">
        <ele>1286.38</ele>
        <time>2017-04-12T10:52:10Z</time>
      </trkpt>
      <trkpt lat="45.38729" lon="4.58576">
        <ele>1285.9</ele>
        <time>2017-04-12T10:52:11Z</time>
      </trkpt>
      <trkpt lat="45.38729" lon="4.58579">
        <ele>1286.38</ele>
        <time>2017-04-12T10:52:12Z</time>
      </trkpt>
      <trkpt lat="45.38728" lon="4.58581">
        <ele>1286.38</ele>
        <time>2017-04-12T10:52:13Z</time>
      </trkpt>
      <trkpt lat="45.38729" lon="4.58584">
        <ele>1286.86</ele>
        <time>2017-04-12T10:52:14Z</time>
      </trkpt>
      <trkpt lat="45.3873" lon="4.58586">
        <ele>1286.38</ele>
        <time>2017-04-12T10:52:15Z</time>
      </trkpt>
      <trkpt lat="45.3873" lon="4.58589">
        <ele>1287.34</ele>
        <time>2017-04-12T10:52:16Z</time>
      </trkpt>
      <trkpt lat="45.38731" lon="4.58599">
        <ele>1287.82</ele>
        <time>2017-04-12T10:52:20Z</time>
      </trkpt>
      <trkpt lat="45.38731" lon="4.58602">
        <ele>1287.82</ele>
        <time>2017-04-12T10:52:21Z</time>
      </trkpt>
      <trkpt lat="45.38731" lon="4.58604">
        <ele>1287.82</ele>
        <time>2017-04-12T10:52:22Z</time>
      </trkpt>
      <trkpt lat="45.38732" lon="4.58606">
        <ele>1288.3</ele>
        <time>2017-04-12T10:52:23Z</time>
      </trkpt>
      <trkpt lat="45.38732" lon="4.58608">
        <ele>1287.82</ele>
        <time>2017-04-12T10:52:24Z</time>
      </trkpt>
      <trkpt lat="45.38732" lon="4.58611">
        <ele>1288.3</ele>
        <time>2017-04-12T10:52:25Z</time>
      </trkpt>
      <trkpt lat="45.38737" lon="4.58639">
        <ele>1288.3</ele>
        <time>2017-04-12T10:52:35Z</time>
      </trkpt>
      <trkpt lat="45.38737" lon="4.58642">
        <ele>1288.3</ele>
        <time>2017-04-12T10:52:36Z</time>
      </trkpt>
      <trkpt lat="45.38747" lon="4.58682">
        <ele>1288.3</ele>
        <time>2017-04-12T10:52:48Z</time>
      </trkpt>
      <trkpt lat="45.3875" lon="4.58703">
        <ele>1288.78</ele>
        <time>2017-04-12T10:52:54Z</time>
      </trkpt>
      <trkpt lat="45.3875" lon="4.58706">
        <ele>1288.78</ele>
        <time>2017-04-12T10:52:55Z</time>
      </trkpt>
      <trkpt lat="45.38751" lon="4.58708">
        <ele>1288.78</ele>
        <time>2017-04-12T10:52:56Z</time>
      </trkpt>
      <trkpt lat="45.38751" lon="4.58711">
        <ele>1289.27</ele>
        <time>2017-04-12T10:52:57Z</time>
      </trkpt>
      <trkpt lat="45.38753" lon="4.58715">
        <ele>1289.27</ele>
        <time>2017-04-12T10:52:58Z</time>
      </trkpt>
      <trkpt lat="45.38754" lon="4.58718">
        <ele>1289.75</ele>
        <time>2017-04-12T10:52:59Z</time>
      </trkpt>
      <trkpt lat="45.38755" lon="4.58721">
        <ele>1289.75</ele>
        <time>2017-04-12T10:53:00Z</time>
      </trkpt>
      <trkpt lat="45.38756" lon="4.58725">
        <ele>1289.75</ele>
        <time>2017-04-12T10:53:01Z</time>
      </trkpt>
      <trkpt lat="45.38757" lon="4.58729">
        <ele>1289.75</ele>
        <time>2017-04-12T10:53:02Z</time>
      </trkpt>
      <trkpt lat="45.38758" lon="4.58732">
        <ele>1290.23</ele>
        <time>2017-04-12T10:53:03Z</time>
      </trkpt>
      <trkpt lat="45.38759" lon="4.58736">
        <ele>1290.23</ele>
        <time>2017-04-12T10:53:04Z</time>
      </trkpt>
      <trkpt lat="45.38759" lon="4.58739">
        <ele>1290.71</ele>
        <time>2017-04-12T10:53:05Z</time>
      </trkpt>
      <trkpt lat="45.38767" lon="4.58765">
        <ele>1292.15</ele>
        <time>2017-04-12T10:53:14Z</time>
      </trkpt>
      <trkpt lat="45.38767" lon="4.58767">
        <ele>1292.63</ele>
        <time>2017-04-12T10:53:15Z</time>
      </trkpt>
      <trkpt lat="45.38767" lon="4.58769">
        <ele>1292.15</ele>
        <time>2017-04-12T10:53:16Z</time>
      </trkpt>
      <trkpt lat="45.38768" lon="4.58771">
        <ele>1292.63</ele>
        <time>2017-04-12T10:53:17Z</time>
      </trkpt>
      <trkpt lat="45.38768" lon="4.58773">
        <ele>1293.11</ele>
        <time>2017-04-12T10:53:18Z</time>
      </trkpt>
      <trkpt lat="45.38774" lon="4.58799">
        <ele>1293.59</ele>
        <time>2017-04-12T10:53:29Z</time>
      </trkpt>
      <trkpt lat="45.38779" lon="4.58809">
        <ele>1293.59</ele>
        <time>2017-04-12T10:53:33Z</time>
      </trkpt>
      <trkpt lat="45.38779" lon="4.58811">
        <ele>1294.07</ele>
        <time>2017-04-12T10:53:34Z</time>
      </trkpt>
      <trkpt lat="45.38779" lon="4.58814">
        <ele>1293.59</ele>
        <time>2017-04-12T10:53:35Z</time>
      </trkpt>
      <trkpt lat="45.38781" lon="4.58819">
        <ele>1293.59</ele>
        <time>2017-04-12T10:53:37Z</time>
      </trkpt>
      <trkpt lat="45.38782" lon="4.58821">
        <ele>1293.59</ele>
        <time>2017-04-12T10:53:38Z</time>
      </trkpt>
      <trkpt lat="45.38783" lon="4.58824">
        <ele>1293.59</ele>
        <time>2017-04-12T10:53:39Z</time>
      </trkpt>
      <trkpt lat="45.38784" lon="4.58827">
        <ele>1293.11</ele>
        <time>2017-04-12T10:53:40Z</time>
      </trkpt>
      <trkpt lat="45.38784" lon="4.58831">
        <ele>1293.11</ele>
        <time>2017-04-12T10:53:41Z</time>
      </trkpt>
      <trkpt lat="45.38785" lon="4.58835">
        <ele>1292.63</ele>
        <time>2017-04-12T10:53:42Z</time>
      </trkpt>
      <trkpt lat="45.38785" lon="4.58838">
        <ele>1293.11</ele>
        <time>2017-04-12T10:53:43Z</time>
      </trkpt>
      <trkpt lat="45.38786" lon="4.58841">
        <ele>1293.11</ele>
        <time>2017-04-12T10:53:44Z</time>
      </trkpt>
      <trkpt lat="45.38786" lon="4.58843">
        <ele>1293.59</ele>
        <time>2017-04-12T10:53:45Z</time>
      </trkpt>
      <trkpt lat="45.38789" lon="4.58874">
        <ele>1293.11</ele>
        <time>2017-04-12T10:53:55Z</time>
      </trkpt>
      <trkpt lat="45.38797" lon="4.58918">
        <ele>1293.11</ele>
        <time>2017-04-12T10:54:07Z</time>
      </trkpt>
      <trkpt lat="45.38804" lon="4.58948">
        <ele>1294.07</ele>
        <time>2017-04-12T10:54:18Z</time>
      </trkpt>
      <trkpt lat="45.38812" lon="4.58978">
        <ele>1295.03</ele>
        <time>2017-04-12T10:54:29Z</time>
      </trkpt>
      <trkpt lat="45.38817" lon="4.59001">
        <ele>1295.99</ele>
        <time>2017-04-12T10:54:35Z</time>
      </trkpt>
      <trkpt lat="45.38821" lon="4.5901">
        <ele>1296.48</ele>
        <time>2017-04-12T10:54:39Z</time>
      </trkpt>
      <trkpt lat="45.38834" lon="4.59039">
        <ele>1296.48</ele>
        <time>2017-04-12T10:54:50Z</time>
      </trkpt>
      <trkpt lat="45.3885" lon="4.59081">
        <ele>1298.4</ele>
        <time>2017-04-12T10:55:03Z</time>
      </trkpt>
      <trkpt lat="45.38851" lon="4.59084">
        <ele>1297.92</ele>
        <time>2017-04-12T10:55:04Z</time>
      </trkpt>
      <trkpt lat="45.38851" lon="4.59087">
        <ele>1298.4</ele>
        <time>2017-04-12T10:55:05Z</time>
      </trkpt>
      <trkpt lat="45.38853" lon="4.59089">
        <ele>1298.88</ele>
        <time>2017-04-12T10:55:06Z</time>
      </trkpt>
      <trkpt lat="45.38855" lon="4.59092">
        <ele>1298.4</ele>
        <time>2017-04-12T10:55:07Z</time>
      </trkpt>
      <trkpt lat="45.38856" lon="4.59095">
        <ele>1298.4</ele>
        <time>2017-04-12T10:55:08Z</time>
      </trkpt>
      <trkpt lat="45.38856" lon="4.59097">
        <ele>1298.88</ele>
        <time>2017-04-12T10:55:09Z</time>
      </trkpt>
      <trkpt lat="45.38857" lon="4.591">
        <ele>1298.88</ele>
        <time>2017-04-12T10:55:10Z</time>
      </trkpt>
      <trkpt lat="45.38857" lon="4.59102">
        <ele>1299.36</ele>
        <time>2017-04-12T10:55:11Z</time>
      </trkpt>
      <trkpt lat="45.38862" lon="4.59124">
        <ele>1299.84</ele>
        <time>2017-04-12T10:55:22Z</time>
      </trkpt>
      <trkpt lat="45.38862" lon="4.59126">
        <ele>1300.32</ele>
        <time>2017-04-12T10:55:23Z</time>
      </trkpt>
      <trkpt lat="45.38863" lon="4.59129">
        <ele>1300.32</ele>
        <time>2017-04-12T10:55:24Z</time>
      </trkpt>
      <trkpt lat="45.3887" lon="4.59151">
        <ele>1302.72</ele>
        <time>2017-04-12T10:55:35Z</time>
      </trkpt>
      <trkpt lat="45.38871" lon="4.59153">
        <ele>1302.24</ele>
        <time>2017-04-12T10:55:36Z</time>
      </trkpt>
      <trkpt lat="45.38874" lon="4.59158">
        <ele>1302.72</ele>
        <time>2017-04-12T10:55:38Z</time>
      </trkpt>
      <trkpt lat="45.38875" lon="4.5916">
        <ele>1303.2</ele>
        <time>2017-04-12T10:55:39Z</time>
      </trkpt>
      <trkpt lat="45.38876" lon="4.59161">
        <ele>1303.2</ele>
        <time>2017-04-12T10:55:40Z</time>
      </trkpt>
      <trkpt lat="45.38878" lon="4.59164">
        <ele>1303.2</ele>
        <time>2017-04-12T10:55:42Z</time>
      </trkpt>
      <trkpt lat="45.38879" lon="4.59166">
        <ele>1303.69</ele>
        <time>2017-04-12T10:55:43Z</time>
      </trkpt>
      <trkpt lat="45.3888" lon="4.59168">
        <ele>1303.69</ele>
        <time>2017-04-12T10:55:44Z</time>
      </trkpt>
      <trkpt lat="45.38882" lon="4.59173">
        <ele>1304.17</ele>
        <time>2017-04-12T10:55:47Z</time>
      </trkpt>
      <trkpt lat="45.38884" lon="4.59175">
        <ele>1304.17</ele>
        <time>2017-04-12T10:55:48Z</time>
      </trkpt>
      <trkpt lat="45.38885" lon="4.59177">
        <ele>1304.65</ele>
        <time>2017-04-12T10:55:49Z</time>
      </trkpt>
      <trkpt lat="45.38886" lon="4.59178">
        <ele>1304.65</ele>
        <time>2017-04-12T10:55:50Z</time>
      </trkpt>
      <trkpt lat="45.38887" lon="4.59179">
        <ele>1304.65</ele>
        <time>2017-04-12T10:55:51Z</time>
      </trkpt>
      <trkpt lat="45.38888" lon="4.5918">
        <ele>1304.65</ele>
        <time>2017-04-12T10:55:52Z</time>
      </trkpt>
      <trkpt lat="45.38889" lon="4.59182">
        <ele>1304.65</ele>
        <time>2017-04-12T10:55:53Z</time>
      </trkpt>
      <trkpt lat="45.38891" lon="4.59184">
        <ele>1304.65</ele>
        <time>2017-04-12T10:55:54Z</time>
      </trkpt>
      <trkpt lat="45.38892" lon="4.59185">
        <ele>1304.65</ele>
        <time>2017-04-12T10:55:55Z</time>
      </trkpt>
      <trkpt lat="45.38909" lon="4.59207">
        <ele>1306.57</ele>
        <time>2017-04-12T10:56:09Z</time>
      </trkpt>
      <trkpt lat="45.3891" lon="4.59208">
        <ele>1306.57</ele>
        <time>2017-04-12T10:56:10Z</time>
      </trkpt>
      <trkpt lat="45.38911" lon="4.5921">
        <ele>1307.53</ele>
        <time>2017-04-12T10:56:11Z</time>
      </trkpt>
      <trkpt lat="45.38912" lon="4.59211">
        <ele>1307.05</ele>
        <time>2017-04-12T10:56:12Z</time>
      </trkpt>
      <trkpt lat="45.38913" lon="4.59212">
        <ele>1307.05</ele>
        <time>2017-04-12T10:56:13Z</time>
      </trkpt>
      <trkpt lat="45.38914" lon="4.59213">
        <ele>1307.05</ele>
        <time>2017-04-12T10:56:14Z</time>
      </trkpt>
      <trkpt lat="45.38932" lon="4.59231">
        <ele>1307.05</ele>
        <time>2017-04-12T10:56:27Z</time>
      </trkpt>
      <trkpt lat="45.38933" lon="4.59233">
        <ele>1307.05</ele>
        <time>2017-04-12T10:56:28Z</time>
      </trkpt>
      <trkpt lat="45.38934" lon="4.59235">
        <ele>1307.53</ele>
        <time>2017-04-12T10:56:29Z</time>
      </trkpt>
      <trkpt lat="45.38935" lon="4.59236">
        <ele>1307.53</ele>
        <time>2017-04-12T10:56:30Z</time>
      </trkpt>
      <trkpt lat="45.38937" lon="4.59238">
        <ele>1307.53</ele>
        <time>2017-04-12T10:56:31Z</time>
      </trkpt>
      <trkpt lat="45.38938" lon="4.5924">
        <ele>1307.53</ele>
        <time>2017-04-12T10:56:32Z</time>
      </trkpt>
      <trkpt lat="45.38939" lon="4.59241">
        <ele>1308.01</ele>
        <time>2017-04-12T10:56:33Z</time>
      </trkpt>
      <trkpt lat="45.3894" lon="4.59243">
        <ele>1308.01</ele>
        <time>2017-04-12T10:56:34Z</time>
      </trkpt>
      <trkpt lat="45.38942" lon="4.59243">
        <ele>1308.49</ele>
        <time>2017-04-12T10:56:35Z</time>
      </trkpt>
      <trkpt lat="45.38943" lon="4.59245">
        <ele>1308.01</ele>
        <time>2017-04-12T10:56:36Z</time>
      </trkpt>
      <trkpt lat="45.38947" lon="4.59254">
        <ele>1308.97</ele>
        <time>2017-04-12T10:56:47Z</time>
      </trkpt>
      <trkpt lat="45.38954" lon="4.59259">
        <ele>1309.45</ele>
        <time>2017-04-12T10:57:00Z</time>
      </trkpt>
      <trkpt lat="45.38965" lon="4.5927">
        <ele>1309.93</ele>
        <time>2017-04-12T10:57:12Z</time>
      </trkpt>
      <trkpt lat="45.38971" lon="4.59276">
        <ele>1310.41</ele>
        <time>2017-04-12T10:57:16Z</time>
      </trkpt>
      <trkpt lat="45.3898" lon="4.59283">
        <ele>1311.38</ele>
        <time>2017-04-12T10:57:26Z</time>
      </trkpt>
      <trkpt lat="45.38986" lon="4.5929">
        <ele>1312.34</ele>
        <time>2017-04-12T10:57:43Z</time>
      </trkpt>
      <trkpt lat="45.38987" lon="4.59292">
        <ele>1312.34</ele>
        <time>2017-04-12T10:57:47Z</time>
      </trkpt>
      <trkpt lat="45.38987" lon="4.59294">
        <ele>1312.34</ele>
        <time>2017-04-12T10:57:48Z</time>
      </trkpt>
      <trkpt lat="45.3899" lon="4.59304">
        <ele>1312.34</ele>
        <time>2017-04-12T10:57:52Z</time>
      </trkpt>
      <trkpt lat="45.3899" lon="4.59307">
        <ele>1312.82</ele>
        <time>2017-04-12T10:57:53Z</time>
      </trkpt>
      <trkpt lat="45.3899" lon="4.59308">
        <ele>1313.3</ele>
        <time>2017-04-12T10:57:54Z</time>
      </trkpt>
      <trkpt lat="45.38991" lon="4.59312">
        <ele>1313.78</ele>
        <time>2017-04-12T10:58:04Z</time>
      </trkpt>
      <trkpt lat="45.38991" lon="4.59314">
        <ele>1314.26</ele>
        <time>2017-04-12T10:58:05Z</time>
      </trkpt>
      <trkpt lat="45.38991" lon="4.59316">
        <ele>1314.26</ele>
        <time>2017-04-12T10:58:06Z</time>
      </trkpt>
      <trkpt lat="45.38988" lon="4.59338">
        <ele>1315.7</ele>
        <time>2017-04-12T10:58:18Z</time>
      </trkpt>
      <trkpt lat="45.38982" lon="4.59355">
        <ele>1317.62</ele>
        <time>2017-04-12T10:58:29Z</time>
      </trkpt>
      <trkpt lat="45.38982" lon="4.59366">
        <ele>1317.62</ele>
        <time>2017-04-12T10:58:37Z</time>
      </trkpt>
      <trkpt lat="45.38981" lon="4.59369">
        <ele>1318.1</ele>
        <time>2017-04-12T10:58:38Z</time>
      </trkpt>
      <trkpt lat="45.38979" lon="4.5938">
        <ele>1319.07</ele>
        <time>2017-04-12T10:58:49Z</time>
      </trkpt>
      <trkpt lat="45.38977" lon="4.59389">
        <ele>1319.07</ele>
        <time>2017-04-12T10:58:59Z</time>
      </trkpt>
      <trkpt lat="45.38977" lon="4.5939">
        <ele>1319.07</ele>
        <time>2017-04-12T10:59:00Z</time>
      </trkpt>
      <trkpt lat="45.38978" lon="4.59392">
        <ele>1319.07</ele>
        <time>2017-04-12T10:59:01Z</time>
      </trkpt>
      <trkpt lat="45.38978" lon="4.59397">
        <ele>1319.07</ele>
        <time>2017-04-12T10:59:03Z</time>
      </trkpt>
      <trkpt lat="45.38978" lon="4.59398">
        <ele>1319.07</ele>
        <time>2017-04-12T10:59:04Z</time>
      </trkpt>
      <trkpt lat="45.38976" lon="4.59419">
        <ele>1318.59</ele>
        <time>2017-04-12T10:59:14Z</time>
      </trkpt>
      <trkpt lat="45.38976" lon="4.59421">
        <ele>1318.1</ele>
        <time>2017-04-12T10:59:15Z</time>
      </trkpt>
      <trkpt lat="45.38976" lon="4.59424">
        <ele>1318.1</ele>
        <time>2017-04-12T10:59:16Z</time>
      </trkpt>
      <trkpt lat="45.38976" lon="4.59427">
        <ele>1318.1</ele>
        <time>2017-04-12T10:59:17Z</time>
      </trkpt>
      <trkpt lat="45.38976" lon="4.59429">
        <ele>1318.1</ele>
        <time>2017-04-12T10:59:18Z</time>
      </trkpt>
      <trkpt lat="45.38975" lon="4.59431">
        <ele>1318.1</ele>
        <time>2017-04-12T10:59:19Z</time>
      </trkpt>
      <trkpt lat="45.38975" lon="4.59434">
        <ele>1318.59</ele>
        <time>2017-04-12T10:59:20Z</time>
      </trkpt>
      <trkpt lat="45.38975" lon="4.59436">
        <ele>1318.1</ele>
        <time>2017-04-12T10:59:21Z</time>
      </trkpt>
      <trkpt lat="45.38975" lon="4.59438">
        <ele>1318.59</ele>
        <time>2017-04-12T10:59:22Z</time>
      </trkpt>
      <trkpt lat="45.38975" lon="4.5944">
        <ele>1318.59</ele>
        <time>2017-04-12T10:59:23Z</time>
      </trkpt>
      <trkpt lat="45.38974" lon="4.59442">
        <ele>1318.59</ele>
        <time>2017-04-12T10:59:24Z</time>
      </trkpt>
      <trkpt lat="45.38974" lon="4.59444">
        <ele>1318.59</ele>
        <time>2017-04-12T10:59:25Z</time>
      </trkpt>
      <trkpt lat="45.38973" lon="4.59446">
        <ele>1318.59</ele>
        <time>2017-04-12T10:59:26Z</time>
      </trkpt>
      <trkpt lat="45.38973" lon="4.59449">
        <ele>1318.59</ele>
        <time>2017-04-12T10:59:27Z</time>
      </trkpt>
      <trkpt lat="45.38972" lon="4.5945">
        <ele>1319.07</ele>
        <time>2017-04-12T10:59:28Z</time>
      </trkpt>
      <trkpt lat="45.38971" lon="4.59452">
        <ele>1319.07</ele>
        <time>2017-04-12T10:59:29Z</time>
      </trkpt>
      <trkpt lat="45.3897" lon="4.59454">
        <ele>1319.07</ele>
        <time>2017-04-12T10:59:30Z</time>
      </trkpt>
      <trkpt lat="45.38969" lon="4.59457">
        <ele>1319.07</ele>
        <time>2017-04-12T10:59:31Z</time>
      </trkpt>
      <trkpt lat="45.38968" lon="4.5946">
        <ele>1319.55</ele>
        <time>2017-04-12T10:59:32Z</time>
      </trkpt>
      <trkpt lat="45.38967" lon="4.59463">
        <ele>1319.07</ele>
        <time>2017-04-12T10:59:33Z</time>
      </trkpt>
      <trkpt lat="45.38966" lon="4.59465">
        <ele>1319.55</ele>
        <time>2017-04-12T10:59:34Z</time>
      </trkpt>
      <trkpt lat="45.38966" lon="4.59467">
        <ele>1319.55</ele>
        <time>2017-04-12T10:59:35Z</time>
      </trkpt>
      <trkpt lat="45.38965" lon="4.5947">
        <ele>1319.55</ele>
        <time>2017-04-12T10:59:36Z</time>
      </trkpt>
      <trkpt lat="45.38964" lon="4.59473">
        <ele>1319.55</ele>
        <time>2017-04-12T10:59:37Z</time>
      </trkpt>
      <trkpt lat="45.38964" lon="4.59476">
        <ele>1319.55</ele>
        <time>2017-04-12T10:59:38Z</time>
      </trkpt>
      <trkpt lat="45.38963" lon="4.59478">
        <ele>1319.55</ele>
        <time>2017-04-12T10:59:39Z</time>
      </trkpt>
      <trkpt lat="45.38962" lon="4.59481">
        <ele>1320.03</ele>
        <time>2017-04-12T10:59:40Z</time>
      </trkpt>
      <trkpt lat="45.38962" lon="4.59483">
        <ele>1320.03</ele>
        <time>2017-04-12T10:59:41Z</time>
      </trkpt>
      <trkpt lat="45.38961" lon="4.59486">
        <ele>1320.03</ele>
        <time>2017-04-12T10:59:42Z</time>
      </trkpt>
      <trkpt lat="45.38961" lon="4.59488">
        <ele>1320.51</ele>
        <time>2017-04-12T10:59:43Z</time>
      </trkpt>
      <trkpt lat="45.38961" lon="4.59491">
        <ele>1320.51</ele>
        <time>2017-04-12T10:59:44Z</time>
      </trkpt>
      <trkpt lat="45.38961" lon="4.59494">
        <ele>1320.51</ele>
        <time>2017-04-12T10:59:45Z</time>
      </trkpt>
      <trkpt lat="45.3896" lon="4.59496">
        <ele>1320.51</ele>
        <time>2017-04-12T10:59:46Z</time>
      </trkpt>
      <trkpt lat="45.3896" lon="4.59499">
        <ele>1320.99</ele>
        <time>2017-04-12T10:59:47Z</time>
      </trkpt>
      <trkpt lat="45.38959" lon="4.59502">
        <ele>1320.99</ele>
        <time>2017-04-12T10:59:48Z</time>
      </trkpt>
      <trkpt lat="45.38959" lon="4.59505">
        <ele>1320.99</ele>
        <time>2017-04-12T10:59:49Z</time>
      </trkpt>
      <trkpt lat="45.38956" lon="4.5952">
        <ele>1322.43</ele>
        <time>2017-04-12T10:59:56Z</time>
      </trkpt>
      <trkpt lat="45.38956" lon="4.59522">
        <ele>1322.43</ele>
        <time>2017-04-12T10:59:57Z</time>
      </trkpt>
      <trkpt lat="45.38956" lon="4.59525">
        <ele>1322.43</ele>
        <time>2017-04-12T10:59:58Z</time>
      </trkpt>
      <trkpt lat="45.38956" lon="4.5957">
        <ele>1322.91</ele>
        <time>2017-04-12T11:00:12Z</time>
      </trkpt>
      <trkpt lat="45.38958" lon="4.59609">
        <ele>1322.43</ele>
        <time>2017-04-12T11:00:22Z</time>
      </trkpt>
      <trkpt lat="45.38954" lon="4.59654">
        <ele>1322.91</ele>
        <time>2017-04-12T11:00:33Z</time>
      </trkpt>
      <trkpt lat="45.38953" lon="4.59661">
        <ele>1323.39</ele>
        <time>2017-04-12T11:00:35Z</time>
      </trkpt>
      <trkpt lat="45.38952" lon="4.59664">
        <ele>1323.39</ele>
        <time>2017-04-12T11:00:36Z</time>
      </trkpt>
      <trkpt lat="45.38952" lon="4.59667">
        <ele>1323.39</ele>
        <time>2017-04-12T11:00:37Z</time>
      </trkpt>
      <trkpt lat="45.38952" lon="4.59669">
        <ele>1323.87</ele>
        <time>2017-04-12T11:00:38Z</time>
      </trkpt>
      <trkpt lat="45.38952" lon="4.59672">
        <ele>1323.87</ele>
        <time>2017-04-12T11:00:39Z</time>
      </trkpt>
      <trkpt lat="45.38953" lon="4.59673">
        <ele>1323.87</ele>
        <time>2017-04-12T11:00:40Z</time>
      </trkpt>
      <trkpt lat="45.38953" lon="4.59676">
        <ele>1324.35</ele>
        <time>2017-04-12T11:00:41Z</time>
      </trkpt>
      <trkpt lat="45.38953" lon="4.5968">
        <ele>1324.35</ele>
        <time>2017-04-12T11:00:43Z</time>
      </trkpt>
      <trkpt lat="45.38954" lon="4.59716">
        <ele>1325.31</ele>
        <time>2017-04-12T11:00:54Z</time>
      </trkpt>
      <trkpt lat="45.38954" lon="4.5972">
        <ele>1325.31</ele>
        <time>2017-04-12T11:00:55Z</time>
      </trkpt>
      <trkpt lat="45.38954" lon="4.59723">
        <ele>1325.31</ele>
        <time>2017-04-12T11:00:56Z</time>
      </trkpt>
      <trkpt lat="45.38955" lon="4.59725">
        <ele>1325.31</ele>
        <time>2017-04-12T11:00:57Z</time>
      </trkpt>
      <trkpt lat="45.38955" lon="4.59728">
        <ele>1325.31</ele>
        <time>2017-04-12T11:00:58Z</time>
      </trkpt>
      <trkpt lat="45.38955" lon="4.59731">
        <ele>1325.31</ele>
        <time>2017-04-12T11:00:59Z</time>
      </trkpt>
      <trkpt lat="45.38955" lon="4.59734">
        <ele>1325.8</ele>
        <time>2017-04-12T11:01:00Z</time>
      </trkpt>
      <trkpt lat="45.38955" lon="4.59737">
        <ele>1325.8</ele>
        <time>2017-04-12T11:01:01Z</time>
      </trkpt>
      <trkpt lat="45.38954" lon="4.59739">
        <ele>1325.8</ele>
        <time>2017-04-12T11:01:02Z</time>
      </trkpt>
      <trkpt lat="45.38954" lon="4.59742">
        <ele>1326.28</ele>
        <time>2017-04-12T11:01:03Z</time>
      </trkpt>
      <trkpt lat="45.38954" lon="4.59744">
        <ele>1326.28</ele>
        <time>2017-04-12T11:01:04Z</time>
      </trkpt>
      <trkpt lat="45.38954" lon="4.59747">
        <ele>1326.28</ele>
        <time>2017-04-12T11:01:05Z</time>
      </trkpt>
      <trkpt lat="45.38954" lon="4.59749">
        <ele>1326.28</ele>
        <time>2017-04-12T11:01:06Z</time>
      </trkpt>
      <trkpt lat="45.38954" lon="4.59752">
        <ele>1326.28</ele>
        <time>2017-04-12T11:01:07Z</time>
      </trkpt>
      <trkpt lat="45.38953" lon="4.59754">
        <ele>1326.28</ele>
        <time>2017-04-12T11:01:08Z</time>
      </trkpt>
      <trkpt lat="45.38953" lon="4.59758">
        <ele>1326.28</ele>
        <time>2017-04-12T11:01:09Z</time>
      </trkpt>
      <trkpt lat="45.38953" lon="4.59761">
        <ele>1326.28</ele>
        <time>2017-04-12T11:01:10Z</time>
      </trkpt>
      <trkpt lat="45.38954" lon="4.59763">
        <ele>1326.28</ele>
        <time>2017-04-12T11:01:11Z</time>
      </trkpt>
      <trkpt lat="45.38955" lon="4.59767">
        <ele>1326.28</ele>
        <time>2017-04-12T11:01:12Z</time>
      </trkpt>
      <trkpt lat="45.38969" lon="4.59814">
        <ele>1325.8</ele>
        <time>2017-04-12T11:01:24Z</time>
      </trkpt>
      <trkpt lat="45.38969" lon="4.59817">
        <ele>1326.28</ele>
        <time>2017-04-12T11:01:25Z</time>
      </trkpt>
      <trkpt lat="45.38969" lon="4.59819">
        <ele>1326.76</ele>
        <time>2017-04-12T11:01:26Z</time>
      </trkpt>
      <trkpt lat="45.38981" lon="4.59848">
        <ele>1327.72</ele>
        <time>2017-04-12T11:01:37Z</time>
      </trkpt>
      <trkpt lat="45.38996" lon="4.59877">
        <ele>1328.68</ele>
        <time>2017-04-12T11:01:49Z</time>
      </trkpt>
      <trkpt lat="45.3901" lon="4.59907">
        <ele>1330.12</ele>
        <time>2017-04-12T11:02:02Z</time>
      </trkpt>
      <trkpt lat="45.39012" lon="4.59908">
        <ele>1330.6</ele>
        <time>2017-04-12T11:02:03Z</time>
      </trkpt>
      <trkpt lat="45.39015" lon="4.59914">
        <ele>1331.08</ele>
        <time>2017-04-12T11:02:13Z</time>
      </trkpt>
      <trkpt lat="45.39016" lon="4.59917">
        <ele>1331.08</ele>
        <time>2017-04-12T11:02:26Z</time>
      </trkpt>
      <trkpt lat="45.39018" lon="4.59919">
        <ele>1331.08</ele>
        <time>2017-04-12T11:02:29Z</time>
      </trkpt>
      <trkpt lat="45.39019" lon="4.59921">
        <ele>1331.56</ele>
        <time>2017-04-12T11:02:30Z</time>
      </trkpt>
      <trkpt lat="45.3902" lon="4.59923">
        <ele>1331.56</ele>
        <time>2017-04-12T11:02:31Z</time>
      </trkpt>
      <trkpt lat="45.39023" lon="4.59934">
        <ele>1332.52</ele>
        <time>2017-04-12T11:02:36Z</time>
      </trkpt>
      <trkpt lat="45.39022" lon="4.59936">
        <ele>1332.52</ele>
        <time>2017-04-12T11:02:37Z</time>
      </trkpt>
      <trkpt lat="45.39021" lon="4.59937">
        <ele>1333.01</ele>
        <time>2017-04-12T11:02:38Z</time>
      </trkpt>
      <trkpt lat="45.3902" lon="4.59938">
        <ele>1333.01</ele>
        <time>2017-04-12T11:02:39Z</time>
      </trkpt>
      <trkpt lat="45.39018" lon="4.59939">
        <ele>1333.49</ele>
        <time>2017-04-12T11:02:40Z</time>
      </trkpt>
      <trkpt lat="45.39015" lon="4.59939">
        <ele>1333.97</ele>
        <time>2017-04-12T11:02:43Z</time>
      </trkpt>
      <trkpt lat="45.39013" lon="4.59938">
        <ele>1334.45</ele>
        <time>2017-04-12T11:02:44Z</time>
      </trkpt>
      <trkpt lat="45.39012" lon="4.59938">
        <ele>1334.45</ele>
        <time>2017-04-12T11:02:45Z</time>
      </trkpt>
      <trkpt lat="45.39011" lon="4.59937">
        <ele>1334.93</ele>
        <time>2017-04-12T11:02:46Z</time>
      </trkpt>
      <trkpt lat="45.3901" lon="4.59935">
        <ele>1334.45</ele>
        <time>2017-04-12T11:02:47Z</time>
      </trkpt>
      <trkpt lat="45.39008" lon="4.59934">
        <ele>1334.93</ele>
        <time>2017-04-12T11:02:48Z</time>
      </trkpt>
      <trkpt lat="45.39007" lon="4.59934">
        <ele>1335.41</ele>
        <time>2017-04-12T11:02:49Z</time>
      </trkpt>
      <trkpt lat="45.39006" lon="4.59934">
        <ele>1335.41</ele>
        <time>2017-04-12T11:02:50Z</time>
      </trkpt>
      <trkpt lat="45.39004" lon="4.59933">
        <ele>1335.41</ele>
        <time>2017-04-12T11:02:51Z</time>
      </trkpt>
      <trkpt lat="45.39003" lon="4.59933">
        <ele>1335.89</ele>
        <time>2017-04-12T11:02:52Z</time>
      </trkpt>
      <trkpt lat="45.39002" lon="4.59933">
        <ele>1335.89</ele>
        <time>2017-04-12T11:02:53Z</time>
      </trkpt>
      <trkpt lat="45.39" lon="4.59933">
        <ele>1336.37</ele>
        <time>2017-04-12T11:02:54Z</time>
      </trkpt>
      <trkpt lat="45.38999" lon="4.59933">
        <ele>1336.37</ele>
        <time>2017-04-12T11:02:55Z</time>
      </trkpt>
      <trkpt lat="45.38998" lon="4.59933">
        <ele>1336.85</ele>
        <time>2017-04-12T11:02:56Z</time>
      </trkpt>
      <trkpt lat="45.38995" lon="4.59933">
        <ele>1336.85</ele>
        <time>2017-04-12T11:02:58Z</time>
      </trkpt>
      <trkpt lat="45.38993" lon="4.59934">
        <ele>1337.33</ele>
        <time>2017-04-12T11:02:59Z</time>
      </trkpt>
      <trkpt lat="45.38985" lon="4.59939">
        <ele>1338.77</ele>
        <time>2017-04-12T11:03:06Z</time>
      </trkpt>
      <trkpt lat="45.38964" lon="4.59936">
        <ele>1341.18</ele>
        <time>2017-04-12T11:03:21Z</time>
      </trkpt>
      <trkpt lat="45.38939" lon="4.59921">
        <ele>1341.18</ele>
        <time>2017-04-12T11:03:34Z</time>
      </trkpt>
      <trkpt lat="45.38903" lon="4.59904">
        <ele>1342.62</ele>
        <time>2017-04-12T11:03:51Z</time>
      </trkpt>
      <trkpt lat="45.38875" lon="4.599">
        <ele>1344.54</ele>
        <time>2017-04-12T11:04:06Z</time>
      </trkpt>
      <trkpt lat="45.38863" lon="4.59886">
        <ele>1344.06</ele>
        <time>2017-04-12T11:04:17Z</time>
      </trkpt>
      <trkpt lat="45.38851" lon="4.59867">
        <ele>1344.54</ele>
        <time>2017-04-12T11:04:28Z</time>
      </trkpt>
      <trkpt lat="45.38851" lon="4.59865">
        <ele>1344.54</ele>
        <time>2017-04-12T11:04:29Z</time>
      </trkpt>
      <trkpt lat="45.38851" lon="4.59862">
        <ele>1344.54</ele>
        <time>2017-04-12T11:04:30Z</time>
      </trkpt>
      <trkpt lat="45.38851" lon="4.5986">
        <ele>1344.54</ele>
        <time>2017-04-12T11:04:31Z</time>
      </trkpt>
      <trkpt lat="45.38851" lon="4.59858">
        <ele>1344.54</ele>
        <time>2017-04-12T11:04:32Z</time>
      </trkpt>
      <trkpt lat="45.3885" lon="4.59856">
        <ele>1344.54</ele>
        <time>2017-04-12T11:04:33Z</time>
      </trkpt>
      <trkpt lat="45.38847" lon="4.59848">
        <ele>1345.02</ele>
        <time>2017-04-12T11:04:37Z</time>
      </trkpt>
      <trkpt lat="45.38847" lon="4.59846">
        <ele>1345.02</ele>
        <time>2017-04-12T11:04:38Z</time>
      </trkpt>
      <trkpt lat="45.38847" lon="4.59845">
        <ele>1345.5</ele>
        <time>2017-04-12T11:04:39Z</time>
      </trkpt>
      <trkpt lat="45.38847" lon="4.59843">
        <ele>1345.02</ele>
        <time>2017-04-12T11:04:40Z</time>
      </trkpt>
      <trkpt lat="45.38847" lon="4.59842">
        <ele>1345.5</ele>
        <time>2017-04-12T11:04:41Z</time>
      </trkpt>
      <trkpt lat="45.38847" lon="4.5984">
        <ele>1345.5</ele>
        <time>2017-04-12T11:04:42Z</time>
      </trkpt>
      <trkpt lat="45.38846" lon="4.59839">
        <ele>1345.5</ele>
        <time>2017-04-12T11:04:43Z</time>
      </trkpt>
      <trkpt lat="45.38846" lon="4.59837">
        <ele>1345.98</ele>
        <time>2017-04-12T11:04:44Z</time>
      </trkpt>
      <trkpt lat="45.38846" lon="4.59819">
        <ele>1347.43</ele>
        <time>2017-04-12T11:04:54Z</time>
      </trkpt>
      <trkpt lat="45.38846" lon="4.59816">
        <ele>1347.43</ele>
        <time>2017-04-12T11:04:55Z</time>
      </trkpt>
      <trkpt lat="45.38846" lon="4.59814">
        <ele>1347.43</ele>
        <time>2017-04-12T11:04:56Z</time>
      </trkpt>
      <trkpt lat="45.38846" lon="4.59808">
        <ele>1348.39</ele>
        <time>2017-04-12T11:04:59Z</time>
      </trkpt>
      <trkpt lat="45.38846" lon="4.59806">
        <ele>1347.91</ele>
        <time>2017-04-12T11:05:00Z</time>
      </trkpt>
      <trkpt lat="45.38846" lon="4.59804">
        <ele>1348.87</ele>
        <time>2017-04-12T11:05:01Z</time>
      </trkpt>
      <trkpt lat="45.38848" lon="4.59792">
        <ele>1349.83</ele>
        <time>2017-04-12T11:05:08Z</time>
      </trkpt>
      <trkpt lat="45.38849" lon="4.5979">
        <ele>1349.83</ele>
        <time>2017-04-12T11:05:09Z</time>
      </trkpt>
      <trkpt lat="45.38849" lon="4.59789">
        <ele>1349.83</ele>
        <time>2017-04-12T11:05:10Z</time>
      </trkpt>
      <trkpt lat="45.38849" lon="4.59787">
        <ele>1350.31</ele>
        <time>2017-04-12T11:05:11Z</time>
      </trkpt>
      <trkpt lat="45.38849" lon="4.59785">
        <ele>1350.31</ele>
        <time>2017-04-12T11:05:12Z</time>
      </trkpt>
      <trkpt lat="45.38849" lon="4.59784">
        <ele>1350.31</ele>
        <time>2017-04-12T11:05:13Z</time>
      </trkpt>
      <trkpt lat="45.38849" lon="4.59782">
        <ele>1350.79</ele>
        <time>2017-04-12T11:05:14Z</time>
      </trkpt>
      <trkpt lat="45.38849" lon="4.5978">
        <ele>1350.79</ele>
        <time>2017-04-12T11:05:15Z</time>
      </trkpt>
      <trkpt lat="45.3885" lon="4.5977">
        <ele>1351.27</ele>
        <time>2017-04-12T11:05:20Z</time>
      </trkpt>
      <trkpt lat="45.3885" lon="4.59768">
        <ele>1351.75</ele>
        <time>2017-04-12T11:05:21Z</time>
      </trkpt>
      <trkpt lat="45.3885" lon="4.59766">
        <ele>1351.75</ele>
        <time>2017-04-12T11:05:22Z</time>
      </trkpt>
      <trkpt lat="45.38852" lon="4.5973">
        <ele>1353.67</ele>
        <time>2017-04-12T11:05:39Z</time>
      </trkpt>
      <trkpt lat="45.38854" lon="4.59724">
        <ele>1353.67</ele>
        <time>2017-04-12T11:05:42Z</time>
      </trkpt>
      <trkpt lat="45.38854" lon="4.59721">
        <ele>1353.67</ele>
        <time>2017-04-12T11:05:43Z</time>
      </trkpt>
      <trkpt lat="45.38855" lon="4.59719">
        <ele>1354.15</ele>
        <time>2017-04-12T11:05:44Z</time>
      </trkpt>
      <trkpt lat="45.38853" lon="4.59696">
        <ele>1355.12</ele>
        <time>2017-04-12T11:05:55Z</time>
      </trkpt>
      <trkpt lat="45.38852" lon="4.59664">
        <ele>1356.08</ele>
        <time>2017-04-12T11:06:10Z</time>
      </trkpt>
      <trkpt lat="45.38852" lon="4.59662">
        <ele>1356.56</ele>
        <time>2017-04-12T11:06:11Z</time>
      </trkpt>
      <trkpt lat="45.38847" lon="4.59625">
        <ele>1357.52</ele>
        <time>2017-04-12T11:06:24Z</time>
      </trkpt>
      <trkpt lat="45.38847" lon="4.59612">
        <ele>1358</ele>
        <time>2017-04-12T11:06:30Z</time>
      </trkpt>
      <trkpt lat="45.38846" lon="4.59609">
        <ele>1358</ele>
        <time>2017-04-12T11:06:31Z</time>
      </trkpt>
      <trkpt lat="45.38846" lon="4.59607">
        <ele>1358.48</ele>
        <time>2017-04-12T11:06:32Z</time>
      </trkpt>
      <trkpt lat="45.38844" lon="4.59598">
        <ele>1358.96</ele>
        <time>2017-04-12T11:06:36Z</time>
      </trkpt>
      <trkpt lat="45.38844" lon="4.59591">
        <ele>1358.96</ele>
        <time>2017-04-12T11:06:39Z</time>
      </trkpt>
      <trkpt lat="45.38843" lon="4.59589">
        <ele>1359.44</ele>
        <time>2017-04-12T11:06:40Z</time>
      </trkpt>
      <trkpt lat="45.38843" lon="4.59587">
        <ele>1359.44</ele>
        <time>2017-04-12T11:06:41Z</time>
      </trkpt>
      <trkpt lat="45.38835" lon="4.5956">
        <ele>1360.88</ele>
        <time>2017-04-12T11:06:55Z</time>
      </trkpt>
      <trkpt lat="45.38835" lon="4.59558">
        <ele>1361.36</ele>
        <time>2017-04-12T11:06:56Z</time>
      </trkpt>
      <trkpt lat="45.38835" lon="4.59556">
        <ele>1361.36</ele>
        <time>2017-04-12T11:06:57Z</time>
      </trkpt>
      <trkpt lat="45.38832" lon="4.59543">
        <ele>1362.33</ele>
        <time>2017-04-12T11:07:03Z</time>
      </trkpt>
      <trkpt lat="45.38832" lon="4.59541">
        <ele>1362.33</ele>
        <time>2017-04-12T11:07:04Z</time>
      </trkpt>
      <trkpt lat="45.38832" lon="4.59538">
        <ele>1362.33</ele>
        <time>2017-04-12T11:07:05Z</time>
      </trkpt>
      <trkpt lat="45.38832" lon="4.59536">
        <ele>1362.81</ele>
        <time>2017-04-12T11:07:06Z</time>
      </trkpt>
      <trkpt lat="45.38831" lon="4.59534">
        <ele>1362.81</ele>
        <time>2017-04-12T11:07:07Z</time>
      </trkpt>
      <trkpt lat="45.3883" lon="4.5953">
        <ele>1363.77</ele>
        <time>2017-04-12T11:07:09Z</time>
      </trkpt>
      <trkpt lat="45.3883" lon="4.59528">
        <ele>1363.77</ele>
        <time>2017-04-12T11:07:10Z</time>
      </trkpt>
      <trkpt lat="45.38829" lon="4.59495">
        <ele>1365.21</ele>
        <time>2017-04-12T11:07:24Z</time>
      </trkpt>
      <trkpt lat="45.3882" lon="4.59456">
        <ele>1366.17</ele>
        <time>2017-04-12T11:07:39Z</time>
      </trkpt>
      <trkpt lat="45.38817" lon="4.59448">
        <ele>1366.17</ele>
        <time>2017-04-12T11:07:42Z</time>
      </trkpt>
      <trkpt lat="45.38816" lon="4.59446">
        <ele>1366.17</ele>
        <time>2017-04-12T11:07:43Z</time>
      </trkpt>
      <trkpt lat="45.38815" lon="4.59443">
        <ele>1366.65</ele>
        <time>2017-04-12T11:07:44Z</time>
      </trkpt>
      <trkpt lat="45.38813" lon="4.59441">
        <ele>1366.65</ele>
        <time>2017-04-12T11:07:45Z</time>
      </trkpt>
      <trkpt lat="45.38812" lon="4.5944">
        <ele>1366.65</ele>
        <time>2017-04-12T11:07:46Z</time>
      </trkpt>
      <trkpt lat="45.3881" lon="4.59438">
        <ele>1366.65</ele>
        <time>2017-04-12T11:07:47Z</time>
      </trkpt>
      <trkpt lat="45.38804" lon="4.59432">
        <ele>1367.13</ele>
        <time>2017-04-12T11:07:51Z</time>
      </trkpt>
      <trkpt lat="45.38802" lon="4.59431">
        <ele>1367.61</ele>
        <time>2017-04-12T11:07:52Z</time>
      </trkpt>
      <trkpt lat="45.388" lon="4.59431">
        <ele>1367.61</ele>
        <time>2017-04-12T11:07:53Z</time>
      </trkpt>
      <trkpt lat="45.38799" lon="4.59429">
        <ele>1367.61</ele>
        <time>2017-04-12T11:07:54Z</time>
      </trkpt>
      <trkpt lat="45.38798" lon="4.59427">
        <ele>1368.09</ele>
        <time>2017-04-12T11:07:55Z</time>
      </trkpt>
      <trkpt lat="45.38793" lon="4.59416">
        <ele>1368.09</ele>
        <time>2017-04-12T11:08:00Z</time>
      </trkpt>
      <trkpt lat="45.38793" lon="4.59414">
        <ele>1368.09</ele>
        <time>2017-04-12T11:08:01Z</time>
      </trkpt>
      <trkpt lat="45.38792" lon="4.59413">
        <ele>1368.57</ele>
        <time>2017-04-12T11:08:02Z</time>
      </trkpt>
      <trkpt lat="45.38791" lon="4.59412">
        <ele>1368.57</ele>
        <time>2017-04-12T11:08:03Z</time>
      </trkpt>
      <trkpt lat="45.38789" lon="4.59411">
        <ele>1369.05</ele>
        <time>2017-04-12T11:08:04Z</time>
      </trkpt>
      <trkpt lat="45.38783" lon="4.59406">
        <ele>1369.05</ele>
        <time>2017-04-12T11:08:09Z</time>
      </trkpt>
      <trkpt lat="45.38782" lon="4.59405">
        <ele>1369.54</ele>
        <time>2017-04-12T11:08:10Z</time>
      </trkpt>
      <trkpt lat="45.3878" lon="4.59404">
        <ele>1369.54</ele>
        <time>2017-04-12T11:08:11Z</time>
      </trkpt>
      <trkpt lat="45.38779" lon="4.59403">
        <ele>1369.54</ele>
        <time>2017-04-12T11:08:12Z</time>
      </trkpt>
      <trkpt lat="45.38777" lon="4.59402">
        <ele>1370.02</ele>
        <time>2017-04-12T11:08:13Z</time>
      </trkpt>
      <trkpt lat="45.38775" lon="4.59401">
        <ele>1370.02</ele>
        <time>2017-04-12T11:08:14Z</time>
      </trkpt>
      <trkpt lat="45.38773" lon="4.59399">
        <ele>1370.02</ele>
        <time>2017-04-12T11:08:16Z</time>
      </trkpt>
      <trkpt lat="45.38767" lon="4.59396">
        <ele>1371.46</ele>
        <time>2017-04-12T11:08:20Z</time>
      </trkpt>
      <trkpt lat="45.38762" lon="4.59392">
        <ele>1371.94</ele>
        <time>2017-04-12T11:08:24Z</time>
      </trkpt>
      <trkpt lat="45.38761" lon="4.59392">
        <ele>1372.42</ele>
        <time>2017-04-12T11:08:25Z</time>
      </trkpt>
      <trkpt lat="45.38759" lon="4.59391">
        <ele>1372.42</ele>
        <time>2017-04-12T11:08:26Z</time>
      </trkpt>
      <trkpt lat="45.38758" lon="4.5939">
        <ele>1372.42</ele>
        <time>2017-04-12T11:08:27Z</time>
      </trkpt>
      <trkpt lat="45.38757" lon="4.59389">
        <ele>1372.9</ele>
        <time>2017-04-12T11:08:28Z</time>
      </trkpt>
      <trkpt lat="45.38755" lon="4.59388">
        <ele>1372.9</ele>
        <time>2017-04-12T11:08:29Z</time>
      </trkpt>
      <trkpt lat="45.38735" lon="4.5938">
        <ele>1375.3</ele>
        <time>2017-04-12T11:08:45Z</time>
      </trkpt>
      <trkpt lat="45.38724" lon="4.59379">
        <ele>1375.78</ele>
        <time>2017-04-12T11:08:52Z</time>
      </trkpt>
      <trkpt lat="45.38723" lon="4.5938">
        <ele>1375.78</ele>
        <time>2017-04-12T11:08:53Z</time>
      </trkpt>
      <trkpt lat="45.38721" lon="4.5938">
        <ele>1375.78</ele>
        <time>2017-04-12T11:08:54Z</time>
      </trkpt>
      <trkpt lat="45.38719" lon="4.59381">
        <ele>1375.78</ele>
        <time>2017-04-12T11:08:55Z</time>
      </trkpt>
      <trkpt lat="45.38718" lon="4.59381">
        <ele>1375.78</ele>
        <time>2017-04-12T11:08:56Z</time>
      </trkpt>
      <trkpt lat="45.38694" lon="4.59376">
        <ele>1376.26</ele>
        <time>2017-04-12T11:09:09Z</time>
      </trkpt>
      <trkpt lat="45.38663" lon="4.59357">
        <ele>1377.23</ele>
        <time>2017-04-12T11:09:25Z</time>
      </trkpt>
      <trkpt lat="45.38662" lon="4.59356">
        <ele>1377.23</ele>
        <time>2017-04-12T11:09:26Z</time>
      </trkpt>
      <trkpt lat="45.38661" lon="4.59354">
        <ele>1377.23</ele>
        <time>2017-04-12T11:09:27Z</time>
      </trkpt>
      <trkpt lat="45.38661" lon="4.59353">
        <ele>1377.23</ele>
        <time>2017-04-12T11:09:28Z</time>
      </trkpt>
      <trkpt lat="45.38661" lon="4.59351">
        <ele>1377.23</ele>
        <time>2017-04-12T11:09:29Z</time>
      </trkpt>
      <trkpt lat="45.38661" lon="4.59349">
        <ele>1377.23</ele>
        <time>2017-04-12T11:09:30Z</time>
      </trkpt>
      <trkpt lat="45.38661" lon="4.59347">
        <ele>1377.23</ele>
        <time>2017-04-12T11:09:31Z</time>
      </trkpt>
      <trkpt lat="45.3866" lon="4.59346">
        <ele>1377.23</ele>
        <time>2017-04-12T11:09:32Z</time>
      </trkpt>
      <trkpt lat="45.38659" lon="4.59344">
        <ele>1377.71</ele>
        <time>2017-04-12T11:09:33Z</time>
      </trkpt>
      <trkpt lat="45.38659" lon="4.59342">
        <ele>1377.71</ele>
        <time>2017-04-12T11:09:34Z</time>
      </trkpt>
      <trkpt lat="45.38659" lon="4.5934">
        <ele>1377.71</ele>
        <time>2017-04-12T11:09:35Z</time>
      </trkpt>
      <trkpt lat="45.38659" lon="4.59338">
        <ele>1377.71</ele>
        <time>2017-04-12T11:09:36Z</time>
      </trkpt>
      <trkpt lat="45.38658" lon="4.59336">
        <ele>1377.71</ele>
        <time>2017-04-12T11:09:37Z</time>
      </trkpt>
      <trkpt lat="45.38658" lon="4.59335">
        <ele>1378.19</ele>
        <time>2017-04-12T11:09:38Z</time>
      </trkpt>
      <trkpt lat="45.38658" lon="4.59333">
        <ele>1378.19</ele>
        <time>2017-04-12T11:09:39Z</time>
      </trkpt>
      <trkpt lat="45.38659" lon="4.59321">
        <ele>1379.63</ele>
        <time>2017-04-12T11:09:45Z</time>
      </trkpt>
      <trkpt lat="45.3866" lon="4.59319">
        <ele>1379.63</ele>
        <time>2017-04-12T11:09:46Z</time>
      </trkpt>
      <trkpt lat="45.3866" lon="4.59317">
        <ele>1380.11</ele>
        <time>2017-04-12T11:09:47Z</time>
      </trkpt>
      <trkpt lat="45.38661" lon="4.59315">
        <ele>1380.11</ele>
        <time>2017-04-12T11:09:48Z</time>
      </trkpt>
      <trkpt lat="45.38661" lon="4.59313">
        <ele>1380.59</ele>
        <time>2017-04-12T11:09:49Z</time>
      </trkpt>
      <trkpt lat="45.38662" lon="4.59311">
        <ele>1380.59</ele>
        <time>2017-04-12T11:09:50Z</time>
      </trkpt>
      <trkpt lat="45.38663" lon="4.5931">
        <ele>1380.59</ele>
        <time>2017-04-12T11:09:51Z</time>
      </trkpt>
      <trkpt lat="45.38664" lon="4.59308">
        <ele>1380.59</ele>
        <time>2017-04-12T11:09:52Z</time>
      </trkpt>
      <trkpt lat="45.38665" lon="4.59307">
        <ele>1381.07</ele>
        <time>2017-04-12T11:09:53Z</time>
      </trkpt>
      <trkpt lat="45.38666" lon="4.59306">
        <ele>1381.07</ele>
        <time>2017-04-12T11:09:54Z</time>
      </trkpt>
      <trkpt lat="45.38667" lon="4.59304">
        <ele>1381.55</ele>
        <time>2017-04-12T11:09:55Z</time>
      </trkpt>
      <trkpt lat="45.38667" lon="4.59303">
        <ele>1381.55</ele>
        <time>2017-04-12T11:09:56Z</time>
      </trkpt>
      <trkpt lat="45.38668" lon="4.59301">
        <ele>1381.55</ele>
        <time>2017-04-12T11:09:57Z</time>
      </trkpt>
      <trkpt lat="45.38668" lon="4.59299">
        <ele>1382.03</ele>
        <time>2017-04-12T11:09:58Z</time>
      </trkpt>
      <trkpt lat="45.38669" lon="4.59297">
        <ele>1382.03</ele>
        <time>2017-04-12T11:09:59Z</time>
      </trkpt>
      <trkpt lat="45.38669" lon="4.59295">
        <ele>1382.51</ele>
        <time>2017-04-12T11:10:00Z</time>
      </trkpt>
      <trkpt lat="45.3867" lon="4.59294">
        <ele>1382.51</ele>
        <time>2017-04-12T11:10:01Z</time>
      </trkpt>
      <trkpt lat="45.3867" lon="4.59292">
        <ele>1382.51</ele>
        <time>2017-04-12T11:10:02Z</time>
      </trkpt>
      <trkpt lat="45.3867" lon="4.59284">
        <ele>1382.99</ele>
        <time>2017-04-12T11:10:06Z</time>
      </trkpt>
      <trkpt lat="45.3867" lon="4.59279">
        <ele>1383.47</ele>
        <time>2017-04-12T11:10:09Z</time>
      </trkpt>
      <trkpt lat="45.3867" lon="4.59277">
        <ele>1383.96</ele>
        <time>2017-04-12T11:10:10Z</time>
      </trkpt>
      <trkpt lat="45.3867" lon="4.59275">
        <ele>1383.96</ele>
        <time>2017-04-12T11:10:11Z</time>
      </trkpt>
      <trkpt lat="45.3867" lon="4.59273">
        <ele>1383.96</ele>
        <time>2017-04-12T11:10:12Z</time>
      </trkpt>
      <trkpt lat="45.3867" lon="4.59271">
        <ele>1383.96</ele>
        <time>2017-04-12T11:10:13Z</time>
      </trkpt>
      <trkpt lat="45.38669" lon="4.59269">
        <ele>1384.44</ele>
        <time>2017-04-12T11:10:14Z</time>
      </trkpt>
      <trkpt lat="45.38669" lon="4.59268">
        <ele>1384.44</ele>
        <time>2017-04-12T11:10:15Z</time>
      </trkpt>
      <trkpt lat="45.38669" lon="4.59266">
        <ele>1384.44</ele>
        <time>2017-04-12T11:10:16Z</time>
      </trkpt>
      <trkpt lat="45.38667" lon="4.5926">
        <ele>1386.36</ele>
        <time>2017-04-12T11:10:19Z</time>
      </trkpt>
      <trkpt lat="45.38666" lon="4.59258">
        <ele>1385.4</ele>
        <time>2017-04-12T11:10:20Z</time>
      </trkpt>
      <trkpt lat="45.38665" lon="4.59253">
        <ele>1385.4</ele>
        <time>2017-04-12T11:10:23Z</time>
      </trkpt>
      <trkpt lat="45.38664" lon="4.59252">
        <ele>1385.4</ele>
        <time>2017-04-12T11:10:24Z</time>
      </trkpt>
      <trkpt lat="45.38663" lon="4.5925">
        <ele>1385.4</ele>
        <time>2017-04-12T11:10:25Z</time>
      </trkpt>
      <trkpt lat="45.38663" lon="4.59248">
        <ele>1385.4</ele>
        <time>2017-04-12T11:10:26Z</time>
      </trkpt>
      <trkpt lat="45.38662" lon="4.59246">
        <ele>1385.4</ele>
        <time>2017-04-12T11:10:27Z</time>
      </trkpt>
      <trkpt lat="45.38661" lon="4.59242">
        <ele>1385.88</ele>
        <time>2017-04-12T11:10:29Z</time>
      </trkpt>
      <trkpt lat="45.3866" lon="4.5924">
        <ele>1385.88</ele>
        <time>2017-04-12T11:10:30Z</time>
      </trkpt>
      <trkpt lat="45.38641" lon="4.59204">
        <ele>1387.32</ele>
        <time>2017-04-12T11:10:47Z</time>
      </trkpt>
      <trkpt lat="45.38617" lon="4.59169">
        <ele>1389.24</ele>
        <time>2017-04-12T11:11:05Z</time>
      </trkpt>
      <trkpt lat="45.38592" lon="4.59104">
        <ele>1387.32</ele>
        <time>2017-04-12T11:11:20Z</time>
      </trkpt>
      <trkpt lat="45.38583" lon="4.59076">
        <ele>1386.84</ele>
        <time>2017-04-12T11:11:25Z</time>
      </trkpt>
      <trkpt lat="45.38562" lon="4.58979">
        <ele>1386.84</ele>
        <time>2017-04-12T11:11:41Z</time>
      </trkpt>
      <trkpt lat="45.3854" lon="4.58914">
        <ele>1385.4</ele>
        <time>2017-04-12T11:11:53Z</time>
      </trkpt>
      <trkpt lat="45.38538" lon="4.58907">
        <ele>1383.96</ele>
        <time>2017-04-12T11:11:54Z</time>
      </trkpt>
      <trkpt lat="45.38536" lon="4.58899">
        <ele>1384.44</ele>
        <time>2017-04-12T11:11:55Z</time>
      </trkpt>
      <trkpt lat="45.38532" lon="4.58882">
        <ele>1382.51</ele>
        <time>2017-04-12T11:11:57Z</time>
      </trkpt>
      <trkpt lat="45.38516" lon="4.58834">
        <ele>1377.71</ele>
        <time>2017-04-12T11:12:02Z</time>
      </trkpt>
      <trkpt lat="45.38512" lon="4.58825">
        <ele>1377.71</ele>
        <time>2017-04-12T11:12:03Z</time>
      </trkpt>
      <trkpt lat="45.38509" lon="4.58816">
        <ele>1377.23</ele>
        <time>2017-04-12T11:12:04Z</time>
      </trkpt>
      <trkpt lat="45.38505" lon="4.58797">
        <ele>1375.3</ele>
        <time>2017-04-12T11:12:06Z</time>
      </trkpt>
      <trkpt lat="45.38503" lon="4.58788">
        <ele>1375.3</ele>
        <time>2017-04-12T11:12:07Z</time>
      </trkpt>
      <trkpt lat="45.38501" lon="4.5878">
        <ele>1374.34</ele>
        <time>2017-04-12T11:12:08Z</time>
      </trkpt>
      <trkpt lat="45.38498" lon="4.58773">
        <ele>1374.82</ele>
        <time>2017-04-12T11:12:09Z</time>
      </trkpt>
      <trkpt lat="45.38496" lon="4.58765">
        <ele>1373.86</ele>
        <time>2017-04-12T11:12:10Z</time>
      </trkpt>
      <trkpt lat="45.38493" lon="4.58758">
        <ele>1373.38</ele>
        <time>2017-04-12T11:12:11Z</time>
      </trkpt>
      <trkpt lat="45.38486" lon="4.58745">
        <ele>1373.38</ele>
        <time>2017-04-12T11:12:13Z</time>
      </trkpt>
      <trkpt lat="45.38482" lon="4.58738">
        <ele>1372.42</ele>
        <time>2017-04-12T11:12:14Z</time>
      </trkpt>
      <trkpt lat="45.38478" lon="4.58733">
        <ele>1372.42</ele>
        <time>2017-04-12T11:12:15Z</time>
      </trkpt>
      <trkpt lat="45.38473" lon="4.58728">
        <ele>1370.98</ele>
        <time>2017-04-12T11:12:16Z</time>
      </trkpt>
      <trkpt lat="45.38468" lon="4.58724">
        <ele>1371.46</ele>
        <time>2017-04-12T11:12:17Z</time>
      </trkpt>
      <trkpt lat="45.38463" lon="4.58721">
        <ele>1370.98</ele>
        <time>2017-04-12T11:12:18Z</time>
      </trkpt>
      <trkpt lat="45.38457" lon="4.58717">
        <ele>1371.94</ele>
        <time>2017-04-12T11:12:19Z</time>
      </trkpt>
      <trkpt lat="45.38452" lon="4.58712">
        <ele>1370.98</ele>
        <time>2017-04-12T11:12:20Z</time>
      </trkpt>
      <trkpt lat="45.38447" lon="4.58704">
        <ele>1369.54</ele>
        <time>2017-04-12T11:12:21Z</time>
      </trkpt>
      <trkpt lat="45.38444" lon="4.58696">
        <ele>1368.57</ele>
        <time>2017-04-12T11:12:22Z</time>
      </trkpt>
      <trkpt lat="45.38441" lon="4.58687">
        <ele>1368.09</ele>
        <time>2017-04-12T11:12:23Z</time>
      </trkpt>
      <trkpt lat="45.38439" lon="4.58679">
        <ele>1368.09</ele>
        <time>2017-04-12T11:12:24Z</time>
      </trkpt>
      <trkpt lat="45.38439" lon="4.58672">
        <ele>1368.57</ele>
        <time>2017-04-12T11:12:25Z</time>
      </trkpt>
      <trkpt lat="45.38439" lon="4.58666">
        <ele>1369.05</ele>
        <time>2017-04-12T11:12:26Z</time>
      </trkpt>
      <trkpt lat="45.3844" lon="4.58662">
        <ele>1369.05</ele>
        <time>2017-04-12T11:12:27Z</time>
      </trkpt>
      <trkpt lat="45.3844" lon="4.58659">
        <ele>1369.54</ele>
        <time>2017-04-12T11:12:28Z</time>
      </trkpt>
      <trkpt lat="45.3844" lon="4.58656">
        <ele>1369.54</ele>
        <time>2017-04-12T11:12:29Z</time>
      </trkpt>
      <trkpt lat="45.38434" lon="4.58634">
        <ele>1370.02</ele>
        <time>2017-04-12T11:12:37Z</time>
      </trkpt>
      <trkpt lat="45.38434" lon="4.58632">
        <ele>1370.5</ele>
        <time>2017-04-12T11:12:38Z</time>
      </trkpt>
      <trkpt lat="45.38433" lon="4.58629">
        <ele>1370.98</ele>
        <time>2017-04-12T11:12:39Z</time>
      </trkpt>
      <trkpt lat="45.38433" lon="4.58626">
        <ele>1370.5</ele>
        <time>2017-04-12T11:12:40Z</time>
      </trkpt>
      <trkpt lat="45.38433" lon="4.58623">
        <ele>1361.84</ele>
        <time>2017-04-12T11:12:41Z</time>
      </trkpt>
      <trkpt lat="45.38432" lon="4.5862">
        <ele>1378.19</ele>
        <time>2017-04-12T11:12:42Z</time>
      </trkpt>
      <trkpt lat="45.38432" lon="4.58617">
        <ele>1371.46</ele>
        <time>2017-04-12T11:12:43Z</time>
      </trkpt>
      <trkpt lat="45.38413" lon="4.58578">
        <ele>1371.46</ele>
        <time>2017-04-12T11:12:55Z</time>
      </trkpt>
      <trkpt lat="45.38392" lon="4.5851">
        <ele>1371.94</ele>
        <time>2017-04-12T11:13:11Z</time>
      </trkpt>
      <trkpt lat="45.38386" lon="4.58466">
        <ele>1373.38</ele>
        <time>2017-04-12T11:13:24Z</time>
      </trkpt>
      <trkpt lat="45.38383" lon="4.58441">
        <ele>1375.78</ele>
        <time>2017-04-12T11:13:37Z</time>
      </trkpt>
      <trkpt lat="45.38378" lon="4.58411">
        <ele>1378.19</ele>
        <time>2017-04-12T11:13:51Z</time>
      </trkpt>
      <trkpt lat="45.38379" lon="4.58409">
        <ele>1378.19</ele>
        <time>2017-04-12T11:13:52Z</time>
      </trkpt>
      <trkpt lat="45.38378" lon="4.58407">
        <ele>1378.19</ele>
        <time>2017-04-12T11:13:53Z</time>
      </trkpt>
      <trkpt lat="45.38377" lon="4.58406">
        <ele>1378.67</ele>
        <time>2017-04-12T11:13:54Z</time>
      </trkpt>
      <trkpt lat="45.38377" lon="4.58404">
        <ele>1378.67</ele>
        <time>2017-04-12T11:13:55Z</time>
      </trkpt>
      <trkpt lat="45.38377" lon="4.58401">
        <ele>1378.67</ele>
        <time>2017-04-12T11:13:56Z</time>
      </trkpt>
      <trkpt lat="45.38377" lon="4.58399">
        <ele>1379.15</ele>
        <time>2017-04-12T11:13:57Z</time>
      </trkpt>
      <trkpt lat="45.38374" lon="4.58387">
        <ele>1380.59</ele>
        <time>2017-04-12T11:14:04Z</time>
      </trkpt>
      <trkpt lat="45.38374" lon="4.58386">
        <ele>1380.59</ele>
        <time>2017-04-12T11:14:05Z</time>
      </trkpt>
      <trkpt lat="45.38373" lon="4.58384">
        <ele>1380.59</ele>
        <time>2017-04-12T11:14:06Z</time>
      </trkpt>
      <trkpt lat="45.38373" lon="4.58382">
        <ele>1381.07</ele>
        <time>2017-04-12T11:14:07Z</time>
      </trkpt>
      <trkpt lat="45.38374" lon="4.58381">
        <ele>1381.07</ele>
        <time>2017-04-12T11:14:08Z</time>
      </trkpt>
      <trkpt lat="45.38374" lon="4.58379">
        <ele>1381.55</ele>
        <time>2017-04-12T11:14:09Z</time>
      </trkpt>
      <trkpt lat="45.38374" lon="4.58364">
        <ele>1382.99</ele>
        <time>2017-04-12T11:14:20Z</time>
      </trkpt>
      <trkpt lat="45.38375" lon="4.58357">
        <ele>1383.96</ele>
        <time>2017-04-12T11:14:25Z</time>
      </trkpt>
      <trkpt lat="45.38374" lon="4.58355">
        <ele>1384.44</ele>
        <time>2017-04-12T11:14:26Z</time>
      </trkpt>
      <trkpt lat="45.38371" lon="4.58338">
        <ele>1386.36</ele>
        <time>2017-04-12T11:14:38Z</time>
      </trkpt>
      <trkpt lat="45.38372" lon="4.58331">
        <ele>1386.84</ele>
        <time>2017-04-12T11:14:47Z</time>
      </trkpt>
      <trkpt lat="45.38373" lon="4.5833">
        <ele>1386.84</ele>
        <time>2017-04-12T11:14:48Z</time>
      </trkpt>
      <trkpt lat="45.38373" lon="4.58329">
        <ele>1386.84</ele>
        <time>2017-04-12T11:14:49Z</time>
      </trkpt>
      <trkpt lat="45.38374" lon="4.58328">
        <ele>1387.32</ele>
        <time>2017-04-12T11:14:50Z</time>
      </trkpt>
      <trkpt lat="45.38374" lon="4.58327">
        <ele>1387.32</ele>
        <time>2017-04-12T11:14:51Z</time>
      </trkpt>
      <trkpt lat="45.38376" lon="4.58322">
        <ele>1387.8</ele>
        <time>2017-04-12T11:14:54Z</time>
      </trkpt>
      <trkpt lat="45.38376" lon="4.5832">
        <ele>1388.28</ele>
        <time>2017-04-12T11:14:55Z</time>
      </trkpt>
      <trkpt lat="45.38377" lon="4.58317">
        <ele>1388.28</ele>
        <time>2017-04-12T11:14:56Z</time>
      </trkpt>
      <trkpt lat="45.38378" lon="4.58316">
        <ele>1388.28</ele>
        <time>2017-04-12T11:14:57Z</time>
      </trkpt>
      <trkpt lat="45.38388" lon="4.58292">
        <ele>1389.72</ele>
        <time>2017-04-12T11:15:12Z</time>
      </trkpt>
      <trkpt lat="45.3839" lon="4.58289">
        <ele>1389.72</ele>
        <time>2017-04-12T11:15:14Z</time>
      </trkpt>
      <trkpt lat="45.3839" lon="4.58287">
        <ele>1390.2</ele>
        <time>2017-04-12T11:15:15Z</time>
      </trkpt>
      <trkpt lat="45.38397" lon="4.58274">
        <ele>1390.68</ele>
        <time>2017-04-12T11:15:23Z</time>
      </trkpt>
      <trkpt lat="45.38401" lon="4.58269">
        <ele>1391.17</ele>
        <time>2017-04-12T11:15:27Z</time>
      </trkpt>
      <trkpt lat="45.38402" lon="4.58267">
        <ele>1391.65</ele>
        <time>2017-04-12T11:15:28Z</time>
      </trkpt>
      <trkpt lat="45.38402" lon="4.58265">
        <ele>1391.65</ele>
        <time>2017-04-12T11:15:29Z</time>
      </trkpt>
      <trkpt lat="45.38403" lon="4.58263">
        <ele>1391.65</ele>
        <time>2017-04-12T11:15:30Z</time>
      </trkpt>
      <trkpt lat="45.38403" lon="4.58261">
        <ele>1391.65</ele>
        <time>2017-04-12T11:15:31Z</time>
      </trkpt>
      <trkpt lat="45.38403" lon="4.58259">
        <ele>1391.65</ele>
        <time>2017-04-12T11:15:32Z</time>
      </trkpt>
      <trkpt lat="45.38403" lon="4.58257">
        <ele>1391.65</ele>
        <time>2017-04-12T11:15:33Z</time>
      </trkpt>
      <trkpt lat="45.38404" lon="4.58255">
        <ele>1392.13</ele>
        <time>2017-04-12T11:15:34Z</time>
      </trkpt>
      <trkpt lat="45.38405" lon="4.58254">
        <ele>1392.13</ele>
        <time>2017-04-12T11:15:35Z</time>
      </trkpt>
      <trkpt lat="45.38405" lon="4.58251">
        <ele>1392.13</ele>
        <time>2017-04-12T11:15:36Z</time>
      </trkpt>
      <trkpt lat="45.38405" lon="4.5825">
        <ele>1392.13</ele>
        <time>2017-04-12T11:15:37Z</time>
      </trkpt>
      <trkpt lat="45.38405" lon="4.58247">
        <ele>1392.61</ele>
        <time>2017-04-12T11:15:38Z</time>
      </trkpt>
      <trkpt lat="45.38406" lon="4.58245">
        <ele>1392.61</ele>
        <time>2017-04-12T11:15:39Z</time>
      </trkpt>
      <trkpt lat="45.38408" lon="4.58244">
        <ele>1392.61</ele>
        <time>2017-04-12T11:15:40Z</time>
      </trkpt>
      <trkpt lat="45.38409" lon="4.58243">
        <ele>1393.09</ele>
        <time>2017-04-12T11:15:41Z</time>
      </trkpt>
      <trkpt lat="45.38411" lon="4.58242">
        <ele>1392.61</ele>
        <time>2017-04-12T11:15:42Z</time>
      </trkpt>
      <trkpt lat="45.38412" lon="4.58241">
        <ele>1393.09</ele>
        <time>2017-04-12T11:15:43Z</time>
      </trkpt>
      <trkpt lat="45.38413" lon="4.5824">
        <ele>1393.09</ele>
        <time>2017-04-12T11:15:44Z</time>
      </trkpt>
      <trkpt lat="45.38414" lon="4.58238">
        <ele>1393.09</ele>
        <time>2017-04-12T11:15:45Z</time>
      </trkpt>
      <trkpt lat="45.38415" lon="4.58237">
        <ele>1393.09</ele>
        <time>2017-04-12T11:15:46Z</time>
      </trkpt>
      <trkpt lat="45.38417" lon="4.58236">
        <ele>1393.09</ele>
        <time>2017-04-12T11:15:47Z</time>
      </trkpt>
      <trkpt lat="45.38418" lon="4.58235">
        <ele>1393.09</ele>
        <time>2017-04-12T11:15:48Z</time>
      </trkpt>
      <trkpt lat="45.38419" lon="4.58233">
        <ele>1393.09</ele>
        <time>2017-04-12T11:15:49Z</time>
      </trkpt>
      <trkpt lat="45.3842" lon="4.58231">
        <ele>1393.57</ele>
        <time>2017-04-12T11:15:50Z</time>
      </trkpt>
      <trkpt lat="45.38422" lon="4.5823">
        <ele>1393.57</ele>
        <time>2017-04-12T11:15:51Z</time>
      </trkpt>
      <trkpt lat="45.38423" lon="4.58228">
        <ele>1393.57</ele>
        <time>2017-04-12T11:15:52Z</time>
      </trkpt>
      <trkpt lat="45.38424" lon="4.58226">
        <ele>1393.57</ele>
        <time>2017-04-12T11:15:53Z</time>
      </trkpt>
      <trkpt lat="45.38425" lon="4.58225">
        <ele>1393.57</ele>
        <time>2017-04-12T11:15:54Z</time>
      </trkpt>
      <trkpt lat="45.38428" lon="4.58221">
        <ele>1394.05</ele>
        <time>2017-04-12T11:15:56Z</time>
      </trkpt>
      <trkpt lat="45.38429" lon="4.5822">
        <ele>1394.05</ele>
        <time>2017-04-12T11:15:57Z</time>
      </trkpt>
      <trkpt lat="45.38431" lon="4.58218">
        <ele>1394.05</ele>
        <time>2017-04-12T11:15:58Z</time>
      </trkpt>
      <trkpt lat="45.38439" lon="4.58204">
        <ele>1394.53</ele>
        <time>2017-04-12T11:16:05Z</time>
      </trkpt>
      <trkpt lat="45.3844" lon="4.58203">
        <ele>1394.53</ele>
        <time>2017-04-12T11:16:06Z</time>
      </trkpt>
      <trkpt lat="45.38459" lon="4.58169">
        <ele>1396.93</ele>
        <time>2017-04-12T11:16:24Z</time>
      </trkpt>
      <trkpt lat="45.38473" lon="4.58143">
        <ele>1397.89</ele>
        <time>2017-04-12T11:16:37Z</time>
      </trkpt>
      <trkpt lat="45.38484" lon="4.58107">
        <ele>1399.82</ele>
        <time>2017-04-12T11:16:51Z</time>
      </trkpt>
      <trkpt lat="45.3849" lon="4.58067">
        <ele>1399.82</ele>
        <time>2017-04-12T11:17:04Z</time>
      </trkpt>
      <trkpt lat="45.38491" lon="4.58012">
        <ele>1400.3</ele>
        <time>2017-04-12T11:17:17Z</time>
      </trkpt>
      <trkpt lat="45.38487" lon="4.57978">
        <ele>1400.78</ele>
        <time>2017-04-12T11:17:26Z</time>
      </trkpt>
      <trkpt lat="45.38476" lon="4.57919">
        <ele>1400.3</ele>
        <time>2017-04-12T11:17:40Z</time>
      </trkpt>
      <trkpt lat="45.38465" lon="4.57863">
        <ele>1399.34</ele>
        <time>2017-04-12T11:17:50Z</time>
      </trkpt>
      <trkpt lat="45.38463" lon="4.57851">
        <ele>1398.86</ele>
        <time>2017-04-12T11:17:52Z</time>
      </trkpt>
      <trkpt lat="45.38453" lon="4.57807">
        <ele>1398.37</ele>
        <time>2017-04-12T11:17:59Z</time>
      </trkpt>
      <trkpt lat="45.38446" lon="4.57766">
        <ele>1396.45</ele>
        <time>2017-04-12T11:18:05Z</time>
      </trkpt>
      <trkpt lat="45.38444" lon="4.57745">
        <ele>1395.97</ele>
        <time>2017-04-12T11:18:08Z</time>
      </trkpt>
      <trkpt lat="45.38442" lon="4.57738">
        <ele>1395.97</ele>
        <time>2017-04-12T11:18:09Z</time>
      </trkpt>
      <trkpt lat="45.3844" lon="4.57731">
        <ele>1396.45</ele>
        <time>2017-04-12T11:18:10Z</time>
      </trkpt>
      <trkpt lat="45.38439" lon="4.57723">
        <ele>1395.97</ele>
        <time>2017-04-12T11:18:11Z</time>
      </trkpt>
      <trkpt lat="45.38439" lon="4.57716">
        <ele>1395.01</ele>
        <time>2017-04-12T11:18:12Z</time>
      </trkpt>
      <trkpt lat="45.38438" lon="4.57709">
        <ele>1395.01</ele>
        <time>2017-04-12T11:18:13Z</time>
      </trkpt>
      <trkpt lat="45.3843" lon="4.57653">
        <ele>1394.05</ele>
        <time>2017-04-12T11:18:21Z</time>
      </trkpt>
      <trkpt lat="45.38429" lon="4.57647">
        <ele>1394.05</ele>
        <time>2017-04-12T11:18:22Z</time>
      </trkpt>
      <trkpt lat="45.38428" lon="4.57641">
        <ele>1395.01</ele>
        <time>2017-04-12T11:18:23Z</time>
      </trkpt>
      <trkpt lat="45.38427" lon="4.57636">
        <ele>1394.05</ele>
        <time>2017-04-12T11:18:24Z</time>
      </trkpt>
      <trkpt lat="45.38426" lon="4.5763">
        <ele>1394.05</ele>
        <time>2017-04-12T11:18:25Z</time>
      </trkpt>
      <trkpt lat="45.38425" lon="4.57625">
        <ele>1394.05</ele>
        <time>2017-04-12T11:18:26Z</time>
      </trkpt>
      <trkpt lat="45.38421" lon="4.57609">
        <ele>1394.05</ele>
        <time>2017-04-12T11:18:30Z</time>
      </trkpt>
      <trkpt lat="45.38419" lon="4.57608">
        <ele>1394.05</ele>
        <time>2017-04-12T11:18:31Z</time>
      </trkpt>
      <trkpt lat="45.38417" lon="4.57608">
        <ele>1394.05</ele>
        <time>2017-04-12T11:18:32Z</time>
      </trkpt>
      <trkpt lat="45.38414" lon="4.57608">
        <ele>1394.53</ele>
        <time>2017-04-12T11:18:35Z</time>
      </trkpt>
      <trkpt lat="45.38412" lon="4.57609">
        <ele>1394.53</ele>
        <time>2017-04-12T11:18:36Z</time>
      </trkpt>
      <trkpt lat="45.38411" lon="4.57609">
        <ele>1394.53</ele>
        <time>2017-04-12T11:18:37Z</time>
      </trkpt>
      <trkpt lat="45.3841" lon="4.5761">
        <ele>1395.01</ele>
        <time>2017-04-12T11:18:38Z</time>
      </trkpt>
      <trkpt lat="45.38409" lon="4.57611">
        <ele>1395.49</ele>
        <time>2017-04-12T11:18:39Z</time>
      </trkpt>
      <trkpt lat="45.38407" lon="4.57611">
        <ele>1395.49</ele>
        <time>2017-04-12T11:18:40Z</time>
      </trkpt>
      <trkpt lat="45.38406" lon="4.57611">
        <ele>1395.49</ele>
        <time>2017-04-12T11:18:41Z</time>
      </trkpt>
      <trkpt lat="45.3839" lon="4.57616">
        <ele>1397.41</ele>
        <time>2017-04-12T11:18:50Z</time>
      </trkpt>
      <trkpt lat="45.38389" lon="4.57617">
        <ele>1397.89</ele>
        <time>2017-04-12T11:18:51Z</time>
      </trkpt>
      <trkpt lat="45.38387" lon="4.57618">
        <ele>1397.89</ele>
        <time>2017-04-12T11:18:52Z</time>
      </trkpt>
      <trkpt lat="45.38386" lon="4.57618">
        <ele>1398.37</ele>
        <time>2017-04-12T11:18:53Z</time>
      </trkpt>
      <trkpt lat="45.38384" lon="4.57618">
        <ele>1398.37</ele>
        <time>2017-04-12T11:18:54Z</time>
      </trkpt>
      <trkpt lat="45.38382" lon="4.57619">
        <ele>1398.37</ele>
        <time>2017-04-12T11:18:55Z</time>
      </trkpt>
      <trkpt lat="45.38359" lon="4.57621">
        <ele>1400.78</ele>
        <time>2017-04-12T11:19:08Z</time>
      </trkpt>
      <trkpt lat="45.38329" lon="4.57625">
        <ele>1402.7</ele>
        <time>2017-04-12T11:19:23Z</time>
      </trkpt>
      <trkpt lat="45.38303" lon="4.5763">
        <ele>1403.66</ele>
        <time>2017-04-12T11:19:37Z</time>
      </trkpt>
      <trkpt lat="45.38286" lon="4.57634">
        <ele>1403.18</ele>
        <time>2017-04-12T11:19:51Z</time>
      </trkpt>
      <trkpt lat="45.38287" lon="4.57635">
        <ele>1403.18</ele>
        <time>2017-04-12T11:20:15Z</time>
      </trkpt>
      <trkpt lat="45.38287" lon="4.57635">
        <ele>1403.18</ele>
        <time>2017-04-12T11:20:40Z</time>
      </trkpt>
      <trkpt lat="45.38287" lon="4.57636">
        <ele>1403.18</ele>
        <time>2017-04-12T11:21:06Z</time>
      </trkpt>
      <trkpt lat="45.38275" lon="4.57633">
        <ele>1402.7</ele>
        <time>2017-04-12T11:21:30Z</time>
      </trkpt>
      <trkpt lat="45.38246" lon="4.57632">
        <ele>1400.78</ele>
        <time>2017-04-12T11:21:39Z</time>
      </trkpt>
      <trkpt lat="45.38224" lon="4.57627">
        <ele>1397.41</ele>
        <time>2017-04-12T11:21:49Z</time>
      </trkpt>
      <trkpt lat="45.38225" lon="4.57627">
        <ele>1397.41</ele>
        <time>2017-04-12T11:21:59Z</time>
      </trkpt>
      <trkpt lat="45.38224" lon="4.57624">
        <ele>1397.89</ele>
        <time>2017-04-12T11:22:00Z</time>
      </trkpt>
      <trkpt lat="45.38224" lon="4.57622">
        <ele>1397.89</ele>
        <time>2017-04-12T11:22:01Z</time>
      </trkpt>
      <trkpt lat="45.38223" lon="4.57619">
        <ele>1397.89</ele>
        <time>2017-04-12T11:22:02Z</time>
      </trkpt>
      <trkpt lat="45.38223" lon="4.57617">
        <ele>1397.89</ele>
        <time>2017-04-12T11:22:03Z</time>
      </trkpt>
      <trkpt lat="45.38222" lon="4.57614">
        <ele>1397.41</ele>
        <time>2017-04-12T11:22:04Z</time>
      </trkpt>
      <trkpt lat="45.3822" lon="4.57612">
        <ele>1397.89</ele>
        <time>2017-04-12T11:22:05Z</time>
      </trkpt>
      <trkpt lat="45.38219" lon="4.57609">
        <ele>1397.41</ele>
        <time>2017-04-12T11:22:06Z</time>
      </trkpt>
      <trkpt lat="45.38207" lon="4.57576">
        <ele>1396.45</ele>
        <time>2017-04-12T11:22:16Z</time>
      </trkpt>
      <trkpt lat="45.38201" lon="4.57566">
        <ele>1395.97</ele>
        <time>2017-04-12T11:22:23Z</time>
      </trkpt>
      <trkpt lat="45.38185" lon="4.57547">
        <ele>1394.05</ele>
        <time>2017-04-12T11:22:32Z</time>
      </trkpt>
      <trkpt lat="45.38177" lon="4.57537">
        <ele>1392.61</ele>
        <time>2017-04-12T11:22:37Z</time>
      </trkpt>
      <trkpt lat="45.38171" lon="4.57519">
        <ele>1393.09</ele>
        <time>2017-04-12T11:22:44Z</time>
      </trkpt>
      <trkpt lat="45.38171" lon="4.57514">
        <ele>1393.09</ele>
        <time>2017-04-12T11:22:46Z</time>
      </trkpt>
      <trkpt lat="45.3817" lon="4.57511">
        <ele>1393.09</ele>
        <time>2017-04-12T11:22:47Z</time>
      </trkpt>
      <trkpt lat="45.3817" lon="4.57509">
        <ele>1393.09</ele>
        <time>2017-04-12T11:22:48Z</time>
      </trkpt>
      <trkpt lat="45.38168" lon="4.57501">
        <ele>1392.61</ele>
        <time>2017-04-12T11:22:52Z</time>
      </trkpt>
      <trkpt lat="45.38167" lon="4.57499">
        <ele>1392.61</ele>
        <time>2017-04-12T11:22:53Z</time>
      </trkpt>
      <trkpt lat="45.38165" lon="4.57497">
        <ele>1392.61</ele>
        <time>2017-04-12T11:22:54Z</time>
      </trkpt>
      <trkpt lat="45.38163" lon="4.57493">
        <ele>1392.61</ele>
        <time>2017-04-12T11:22:55Z</time>
      </trkpt>
      <trkpt lat="45.38162" lon="4.57489">
        <ele>1392.13</ele>
        <time>2017-04-12T11:22:56Z</time>
      </trkpt>
      <trkpt lat="45.38161" lon="4.57486">
        <ele>1392.13</ele>
        <time>2017-04-12T11:22:57Z</time>
      </trkpt>
      <trkpt lat="45.3816" lon="4.57483">
        <ele>1392.13</ele>
        <time>2017-04-12T11:22:58Z</time>
      </trkpt>
      <trkpt lat="45.38159" lon="4.5748">
        <ele>1392.13</ele>
        <time>2017-04-12T11:22:59Z</time>
      </trkpt>
      <trkpt lat="45.38158" lon="4.57478">
        <ele>1392.13</ele>
        <time>2017-04-12T11:23:00Z</time>
      </trkpt>
      <trkpt lat="45.3815" lon="4.57442">
        <ele>1392.61</ele>
        <time>2017-04-12T11:23:11Z</time>
      </trkpt>
      <trkpt lat="45.3813" lon="4.57402">
        <ele>1392.13</ele>
        <time>2017-04-12T11:23:22Z</time>
      </trkpt>
      <trkpt lat="45.38097" lon="4.5736">
        <ele>1390.68</ele>
        <time>2017-04-12T11:23:34Z</time>
      </trkpt>
      <trkpt lat="45.3808" lon="4.57345">
        <ele>1390.2</ele>
        <time>2017-04-12T11:23:38Z</time>
      </trkpt>
      <trkpt lat="45.38075" lon="4.57342">
        <ele>1389.24</ele>
        <time>2017-04-12T11:23:39Z</time>
      </trkpt>
      <trkpt lat="45.3807" lon="4.57337">
        <ele>1388.76</ele>
        <time>2017-04-12T11:23:40Z</time>
      </trkpt>
      <trkpt lat="45.38066" lon="4.57332">
        <ele>1388.76</ele>
        <time>2017-04-12T11:23:41Z</time>
      </trkpt>
      <trkpt lat="45.38063" lon="4.57327">
        <ele>1387.8</ele>
        <time>2017-04-12T11:23:42Z</time>
      </trkpt>
      <trkpt lat="45.3806" lon="4.57321">
        <ele>1388.28</ele>
        <time>2017-04-12T11:23:43Z</time>
      </trkpt>
      <trkpt lat="45.38059" lon="4.57317">
        <ele>1388.76</ele>
        <time>2017-04-12T11:23:44Z</time>
      </trkpt>
      <trkpt lat="45.38058" lon="4.57313">
        <ele>1389.24</ele>
        <time>2017-04-12T11:23:45Z</time>
      </trkpt>
      <trkpt lat="45.38056" lon="4.57299">
        <ele>1390.2</ele>
        <time>2017-04-12T11:23:50Z</time>
      </trkpt>
      <trkpt lat="45.38056" lon="4.57296">
        <ele>1390.68</ele>
        <time>2017-04-12T11:23:51Z</time>
      </trkpt>
      <trkpt lat="45.38055" lon="4.57294">
        <ele>1390.68</ele>
        <time>2017-04-12T11:23:52Z</time>
      </trkpt>
      <trkpt lat="45.38055" lon="4.57292">
        <ele>1390.68</ele>
        <time>2017-04-12T11:23:53Z</time>
      </trkpt>
      <trkpt lat="45.38054" lon="4.57289">
        <ele>1391.17</ele>
        <time>2017-04-12T11:23:54Z</time>
      </trkpt>
      <trkpt lat="45.38053" lon="4.57287">
        <ele>1391.65</ele>
        <time>2017-04-12T11:23:55Z</time>
      </trkpt>
      <trkpt lat="45.38053" lon="4.57284">
        <ele>1391.65</ele>
        <time>2017-04-12T11:23:56Z</time>
      </trkpt>
      <trkpt lat="45.38047" lon="4.57268">
        <ele>1393.09</ele>
        <time>2017-04-12T11:24:03Z</time>
      </trkpt>
      <trkpt lat="45.38047" lon="4.57266">
        <ele>1393.57</ele>
        <time>2017-04-12T11:24:04Z</time>
      </trkpt>
      <trkpt lat="45.38046" lon="4.57264">
        <ele>1394.05</ele>
        <time>2017-04-12T11:24:05Z</time>
      </trkpt>
      <trkpt lat="45.38042" lon="4.57244">
        <ele>1395.01</ele>
        <time>2017-04-12T11:24:14Z</time>
      </trkpt>
      <trkpt lat="45.3804" lon="4.57237">
        <ele>1395.49</ele>
        <time>2017-04-12T11:24:17Z</time>
      </trkpt>
      <trkpt lat="45.38039" lon="4.57235">
        <ele>1395.49</ele>
        <time>2017-04-12T11:24:18Z</time>
      </trkpt>
      <trkpt lat="45.38039" lon="4.57232">
        <ele>1395.97</ele>
        <time>2017-04-12T11:24:19Z</time>
      </trkpt>
      <trkpt lat="45.38035" lon="4.5721">
        <ele>1397.41</ele>
        <time>2017-04-12T11:24:28Z</time>
      </trkpt>
      <trkpt lat="45.38034" lon="4.57208">
        <ele>1396.93</ele>
        <time>2017-04-12T11:24:29Z</time>
      </trkpt>
      <trkpt lat="45.38033" lon="4.57206">
        <ele>1396.93</ele>
        <time>2017-04-12T11:24:30Z</time>
      </trkpt>
      <trkpt lat="45.38032" lon="4.57204">
        <ele>1397.41</ele>
        <time>2017-04-12T11:24:31Z</time>
      </trkpt>
      <trkpt lat="45.3803" lon="4.57201">
        <ele>1397.41</ele>
        <time>2017-04-12T11:24:32Z</time>
      </trkpt>
      <trkpt lat="45.3802" lon="4.57168">
        <ele>1397.89</ele>
        <time>2017-04-12T11:24:45Z</time>
      </trkpt>
      <trkpt lat="45.38014" lon="4.57139">
        <ele>1398.86</ele>
        <time>2017-04-12T11:24:56Z</time>
      </trkpt>
      <trkpt lat="45.38013" lon="4.57137">
        <ele>1398.86</ele>
        <time>2017-04-12T11:24:57Z</time>
      </trkpt>
      <trkpt lat="45.38012" lon="4.57134">
        <ele>1398.86</ele>
        <time>2017-04-12T11:24:58Z</time>
      </trkpt>
      <trkpt lat="45.38011" lon="4.5713">
        <ele>1398.86</ele>
        <time>2017-04-12T11:24:59Z</time>
      </trkpt>
      <trkpt lat="45.3801" lon="4.57127">
        <ele>1398.86</ele>
        <time>2017-04-12T11:25:00Z</time>
      </trkpt>
      <trkpt lat="45.38008" lon="4.57125">
        <ele>1398.86</ele>
        <time>2017-04-12T11:25:01Z</time>
      </trkpt>
      <trkpt lat="45.38006" lon="4.57122">
        <ele>1398.86</ele>
        <time>2017-04-12T11:25:02Z</time>
      </trkpt>
      <trkpt lat="45.38005" lon="4.57119">
        <ele>1398.86</ele>
        <time>2017-04-12T11:25:03Z</time>
      </trkpt>
      <trkpt lat="45.37982" lon="4.57079">
        <ele>1398.86</ele>
        <time>2017-04-12T11:25:16Z</time>
      </trkpt>
      <trkpt lat="45.37966" lon="4.57051">
        <ele>1397.41</ele>
        <time>2017-04-12T11:25:24Z</time>
      </trkpt>
      <trkpt lat="45.37941" lon="4.57008">
        <ele>1395.01</ele>
        <time>2017-04-12T11:25:34Z</time>
      </trkpt>
      <trkpt lat="45.37938" lon="4.57001">
        <ele>1394.53</ele>
        <time>2017-04-12T11:25:35Z</time>
      </trkpt>
      <trkpt lat="45.37936" lon="4.56994">
        <ele>1394.53</ele>
        <time>2017-04-12T11:25:36Z</time>
      </trkpt>
      <trkpt lat="45.37934" lon="4.56986">
        <ele>1393.57</ele>
        <time>2017-04-12T11:25:37Z</time>
      </trkpt>
      <trkpt lat="45.37933" lon="4.56978">
        <ele>1392.61</ele>
        <time>2017-04-12T11:25:38Z</time>
      </trkpt>
      <trkpt lat="45.37933" lon="4.5697">
        <ele>1391.65</ele>
        <time>2017-04-12T11:25:39Z</time>
      </trkpt>
      <trkpt lat="45.37933" lon="4.56959">
        <ele>1390.68</ele>
        <time>2017-04-12T11:25:41Z</time>
      </trkpt>
      <trkpt lat="45.37934" lon="4.56953">
        <ele>1389.72</ele>
        <time>2017-04-12T11:25:42Z</time>
      </trkpt>
      <trkpt lat="45.37933" lon="4.56947">
        <ele>1389.24</ele>
        <time>2017-04-12T11:25:43Z</time>
      </trkpt>
      <trkpt lat="45.37931" lon="4.56934">
        <ele>1387.8</ele>
        <time>2017-04-12T11:25:45Z</time>
      </trkpt>
      <trkpt lat="45.37929" lon="4.56928">
        <ele>1386.84</ele>
        <time>2017-04-12T11:25:46Z</time>
      </trkpt>
      <trkpt lat="45.37928" lon="4.56921">
        <ele>1386.84</ele>
        <time>2017-04-12T11:25:47Z</time>
      </trkpt>
      <trkpt lat="45.37929" lon="4.56913">
        <ele>1385.88</ele>
        <time>2017-04-12T11:25:48Z</time>
      </trkpt>
      <trkpt lat="45.37931" lon="4.56905">
        <ele>1385.4</ele>
        <time>2017-04-12T11:25:49Z</time>
      </trkpt>
      <trkpt lat="45.37933" lon="4.56896">
        <ele>1383.47</ele>
        <time>2017-04-12T11:25:50Z</time>
      </trkpt>
      <trkpt lat="45.37934" lon="4.56888">
        <ele>1383.96</ele>
        <time>2017-04-12T11:25:51Z</time>
      </trkpt>
      <trkpt lat="45.37935" lon="4.56879">
        <ele>1383.47</ele>
        <time>2017-04-12T11:25:52Z</time>
      </trkpt>
      <trkpt lat="45.37938" lon="4.56871">
        <ele>1383.47</ele>
        <time>2017-04-12T11:25:53Z</time>
      </trkpt>
      <trkpt lat="45.37942" lon="4.56863">
        <ele>1382.99</ele>
        <time>2017-04-12T11:25:54Z</time>
      </trkpt>
      <trkpt lat="45.37946" lon="4.56857">
        <ele>1382.51</ele>
        <time>2017-04-12T11:25:55Z</time>
      </trkpt>
      <trkpt lat="45.37951" lon="4.56852">
        <ele>1382.03</ele>
        <time>2017-04-12T11:25:56Z</time>
      </trkpt>
      <trkpt lat="45.37956" lon="4.56846">
        <ele>1382.03</ele>
        <time>2017-04-12T11:25:57Z</time>
      </trkpt>
      <trkpt lat="45.37961" lon="4.5684">
        <ele>1381.07</ele>
        <time>2017-04-12T11:25:58Z</time>
      </trkpt>
      <trkpt lat="45.3797" lon="4.56828">
        <ele>1380.59</ele>
        <time>2017-04-12T11:26:00Z</time>
      </trkpt>
      <trkpt lat="45.37991" lon="4.56804">
        <ele>1380.59</ele>
        <time>2017-04-12T11:26:05Z</time>
      </trkpt>
      <trkpt lat="45.37995" lon="4.56801">
        <ele>1380.59</ele>
        <time>2017-04-12T11:26:06Z</time>
      </trkpt>
      <trkpt lat="45.37999" lon="4.56798">
        <ele>1380.11</ele>
        <time>2017-04-12T11:26:07Z</time>
      </trkpt>
      <trkpt lat="45.38002" lon="4.56795">
        <ele>1380.59</ele>
        <time>2017-04-12T11:26:08Z</time>
      </trkpt>
      <trkpt lat="45.38005" lon="4.56792">
        <ele>1380.11</ele>
        <time>2017-04-12T11:26:09Z</time>
      </trkpt>
      <trkpt lat="45.38007" lon="4.56789">
        <ele>1380.59</ele>
        <time>2017-04-12T11:26:10Z</time>
      </trkpt>
      <trkpt lat="45.38009" lon="4.56784">
        <ele>1380.59</ele>
        <time>2017-04-12T11:26:11Z</time>
      </trkpt>
      <trkpt lat="45.3801" lon="4.5678">
        <ele>1380.59</ele>
        <time>2017-04-12T11:26:12Z</time>
      </trkpt>
      <trkpt lat="45.38012" lon="4.56776">
        <ele>1379.63</ele>
        <time>2017-04-12T11:26:13Z</time>
      </trkpt>
      <trkpt lat="45.38014" lon="4.56761">
        <ele>1379.15</ele>
        <time>2017-04-12T11:26:16Z</time>
      </trkpt>
      <trkpt lat="45.38013" lon="4.56758">
        <ele>1378.67</ele>
        <time>2017-04-12T11:26:17Z</time>
      </trkpt>
      <trkpt lat="45.3801" lon="4.56756">
        <ele>1378.19</ele>
        <time>2017-04-12T11:26:18Z</time>
      </trkpt>
      <trkpt lat="45.38007" lon="4.56756">
        <ele>1378.19</ele>
        <time>2017-04-12T11:26:19Z</time>
      </trkpt>
      <trkpt lat="45.38003" lon="4.56756">
        <ele>1378.19</ele>
        <time>2017-04-12T11:26:20Z</time>
      </trkpt>
      <trkpt lat="45.37971" lon="4.56759">
        <ele>1376.26</ele>
        <time>2017-04-12T11:26:30Z</time>
      </trkpt>
      <trkpt lat="45.37966" lon="4.56758">
        <ele>1376.26</ele>
        <time>2017-04-12T11:26:31Z</time>
      </trkpt>
      <trkpt lat="45.37961" lon="4.56756">
        <ele>1376.26</ele>
        <time>2017-04-12T11:26:32Z</time>
      </trkpt>
      <trkpt lat="45.37942" lon="4.56748">
        <ele>1374.34</ele>
        <time>2017-04-12T11:26:36Z</time>
      </trkpt>
      <trkpt lat="45.37938" lon="4.56747">
        <ele>1374.82</ele>
        <time>2017-04-12T11:26:37Z</time>
      </trkpt>
      <trkpt lat="45.37928" lon="4.56743">
        <ele>1373.38</ele>
        <time>2017-04-12T11:26:39Z</time>
      </trkpt>
      <trkpt lat="45.37917" lon="4.56737">
        <ele>1371.94</ele>
        <time>2017-04-12T11:26:41Z</time>
      </trkpt>
      <trkpt lat="45.37907" lon="4.5673">
        <ele>1370.98</ele>
        <time>2017-04-12T11:26:43Z</time>
      </trkpt>
      <trkpt lat="45.37901" lon="4.56726">
        <ele>1370.5</ele>
        <time>2017-04-12T11:26:44Z</time>
      </trkpt>
      <trkpt lat="45.37895" lon="4.56722">
        <ele>1369.54</ele>
        <time>2017-04-12T11:26:45Z</time>
      </trkpt>
      <trkpt lat="45.3789" lon="4.56717">
        <ele>1369.05</ele>
        <time>2017-04-12T11:26:46Z</time>
      </trkpt>
      <trkpt lat="45.37886" lon="4.56711">
        <ele>1369.05</ele>
        <time>2017-04-12T11:26:47Z</time>
      </trkpt>
      <trkpt lat="45.37881" lon="4.56707">
        <ele>1369.05</ele>
        <time>2017-04-12T11:26:48Z</time>
      </trkpt>
      <trkpt lat="45.37877" lon="4.56703">
        <ele>1369.05</ele>
        <time>2017-04-12T11:26:49Z</time>
      </trkpt>
      <trkpt lat="45.37873" lon="4.56701">
        <ele>1367.61</ele>
        <time>2017-04-12T11:26:50Z</time>
      </trkpt>
      <trkpt lat="45.37869" lon="4.56699">
        <ele>1366.65</ele>
        <time>2017-04-12T11:26:51Z</time>
      </trkpt>
      <trkpt lat="45.37865" lon="4.56695">
        <ele>1367.13</ele>
        <time>2017-04-12T11:26:52Z</time>
      </trkpt>
      <trkpt lat="45.37862" lon="4.56691">
        <ele>1364.73</ele>
        <time>2017-04-12T11:26:53Z</time>
      </trkpt>
      <trkpt lat="45.37858" lon="4.56688">
        <ele>1365.69</ele>
        <time>2017-04-12T11:26:54Z</time>
      </trkpt>
      <trkpt lat="45.37854" lon="4.56683">
        <ele>1365.69</ele>
        <time>2017-04-12T11:26:55Z</time>
      </trkpt>
      <trkpt lat="45.37851" lon="4.56678">
        <ele>1365.21</ele>
        <time>2017-04-12T11:26:56Z</time>
      </trkpt>
      <trkpt lat="45.37847" lon="4.56674">
        <ele>1364.73</ele>
        <time>2017-04-12T11:26:57Z</time>
      </trkpt>
      <trkpt lat="45.37843" lon="4.5667">
        <ele>1364.25</ele>
        <time>2017-04-12T11:26:58Z</time>
      </trkpt>
      <trkpt lat="45.37834" lon="4.56662">
        <ele>1362.81</ele>
        <time>2017-04-12T11:27:00Z</time>
      </trkpt>
      <trkpt lat="45.37831" lon="4.56659">
        <ele>1361.84</ele>
        <time>2017-04-12T11:27:01Z</time>
      </trkpt>
      <trkpt lat="45.37827" lon="4.56655">
        <ele>1361.84</ele>
        <time>2017-04-12T11:27:02Z</time>
      </trkpt>
      <trkpt lat="45.37817" lon="4.56644">
        <ele>1360.4</ele>
        <time>2017-04-12T11:27:05Z</time>
      </trkpt>
      <trkpt lat="45.37814" lon="4.56639">
        <ele>1359.44</ele>
        <time>2017-04-12T11:27:06Z</time>
      </trkpt>
      <trkpt lat="45.37803" lon="4.56623">
        <ele>1358</ele>
        <time>2017-04-12T11:27:10Z</time>
      </trkpt>
      <trkpt lat="45.37798" lon="4.56618">
        <ele>1357.04</ele>
        <time>2017-04-12T11:27:12Z</time>
      </trkpt>
      <trkpt lat="45.37784" lon="4.56602">
        <ele>1355.12</ele>
        <time>2017-04-12T11:27:16Z</time>
      </trkpt>
      <trkpt lat="45.37771" lon="4.56589">
        <ele>1353.19</ele>
        <time>2017-04-12T11:27:19Z</time>
      </trkpt>
      <trkpt lat="45.37758" lon="4.56572">
        <ele>1350.31</ele>
        <time>2017-04-12T11:27:23Z</time>
      </trkpt>
      <trkpt lat="45.37754" lon="4.56568">
        <ele>1350.31</ele>
        <time>2017-04-12T11:27:24Z</time>
      </trkpt>
      <trkpt lat="45.3775" lon="4.56564">
        <ele>1349.35</ele>
        <time>2017-04-12T11:27:25Z</time>
      </trkpt>
      <trkpt lat="45.3774" lon="4.56555">
        <ele>1347.91</ele>
        <time>2017-04-12T11:27:27Z</time>
      </trkpt>
      <trkpt lat="45.37723" lon="4.56531">
        <ele>1345.5</ele>
        <time>2017-04-12T11:27:32Z</time>
      </trkpt>
      <trkpt lat="45.37719" lon="4.56525">
        <ele>1344.54</ele>
        <time>2017-04-12T11:27:33Z</time>
      </trkpt>
      <trkpt lat="45.37716" lon="4.56519">
        <ele>1344.54</ele>
        <time>2017-04-12T11:27:34Z</time>
      </trkpt>
      <trkpt lat="45.37702" lon="4.56501">
        <ele>1342.14</ele>
        <time>2017-04-12T11:27:38Z</time>
      </trkpt>
      <trkpt lat="45.37691" lon="4.56485">
        <ele>1338.77</ele>
        <time>2017-04-12T11:27:42Z</time>
      </trkpt>
      <trkpt lat="45.37686" lon="4.56476">
        <ele>1338.29</ele>
        <time>2017-04-12T11:27:44Z</time>
      </trkpt>
      <trkpt lat="45.37677" lon="4.56465">
        <ele>1336.85</ele>
        <time>2017-04-12T11:27:46Z</time>
      </trkpt>
      <trkpt lat="45.37654" lon="4.56434">
        <ele>1333.97</ele>
        <time>2017-04-12T11:27:51Z</time>
      </trkpt>
      <trkpt lat="45.3765" lon="4.5643">
        <ele>1333.49</ele>
        <time>2017-04-12T11:27:52Z</time>
      </trkpt>
      <trkpt lat="45.37647" lon="4.56428">
        <ele>1332.52</ele>
        <time>2017-04-12T11:27:53Z</time>
      </trkpt>
      <trkpt lat="45.37643" lon="4.56426">
        <ele>1332.04</ele>
        <time>2017-04-12T11:27:54Z</time>
      </trkpt>
      <trkpt lat="45.37639" lon="4.56422">
        <ele>1331.56</ele>
        <time>2017-04-12T11:27:55Z</time>
      </trkpt>
      <trkpt lat="45.37635" lon="4.56419">
        <ele>1331.08</ele>
        <time>2017-04-12T11:27:56Z</time>
      </trkpt>
      <trkpt lat="45.37631" lon="4.56415">
        <ele>1331.08</ele>
        <time>2017-04-12T11:27:57Z</time>
      </trkpt>
      <trkpt lat="45.37627" lon="4.56413">
        <ele>1330.12</ele>
        <time>2017-04-12T11:27:58Z</time>
      </trkpt>
      <trkpt lat="45.37622" lon="4.56411">
        <ele>1330.12</ele>
        <time>2017-04-12T11:27:59Z</time>
      </trkpt>
      <trkpt lat="45.37602" lon="4.56403">
        <ele>1328.68</ele>
        <time>2017-04-12T11:28:02Z</time>
      </trkpt>
      <trkpt lat="45.37596" lon="4.564">
        <ele>1328.2</ele>
        <time>2017-04-12T11:28:03Z</time>
      </trkpt>
      <trkpt lat="45.37589" lon="4.56398">
        <ele>1327.72</ele>
        <time>2017-04-12T11:28:04Z</time>
      </trkpt>
      <trkpt lat="45.37583" lon="4.56395">
        <ele>1327.24</ele>
        <time>2017-04-12T11:28:05Z</time>
      </trkpt>
      <trkpt lat="45.37576" lon="4.56393">
        <ele>1326.76</ele>
        <time>2017-04-12T11:28:06Z</time>
      </trkpt>
      <trkpt lat="45.37556" lon="4.5639">
        <ele>1325.8</ele>
        <time>2017-04-12T11:28:09Z</time>
      </trkpt>
      <trkpt lat="45.37549" lon="4.56389">
        <ele>1325.8</ele>
        <time>2017-04-12T11:28:10Z</time>
      </trkpt>
      <trkpt lat="45.37528" lon="4.56384">
        <ele>1324.35</ele>
        <time>2017-04-12T11:28:13Z</time>
      </trkpt>
      <trkpt lat="45.37522" lon="4.5638">
        <ele>1322.91</ele>
        <time>2017-04-12T11:28:14Z</time>
      </trkpt>
      <trkpt lat="45.37516" lon="4.56376">
        <ele>1322.91</ele>
        <time>2017-04-12T11:28:15Z</time>
      </trkpt>
      <trkpt lat="45.3751" lon="4.56369">
        <ele>1321.95</ele>
        <time>2017-04-12T11:28:16Z</time>
      </trkpt>
      <trkpt lat="45.37505" lon="4.56363">
        <ele>1321.47</ele>
        <time>2017-04-12T11:28:17Z</time>
      </trkpt>
      <trkpt lat="45.37499" lon="4.56357">
        <ele>1320.51</ele>
        <time>2017-04-12T11:28:18Z</time>
      </trkpt>
      <trkpt lat="45.37493" lon="4.56352">
        <ele>1319.55</ele>
        <time>2017-04-12T11:28:19Z</time>
      </trkpt>
      <trkpt lat="45.37487" lon="4.56349">
        <ele>1319.55</ele>
        <time>2017-04-12T11:28:20Z</time>
      </trkpt>
      <trkpt lat="45.37481" lon="4.56344">
        <ele>1319.55</ele>
        <time>2017-04-12T11:28:21Z</time>
      </trkpt>
      <trkpt lat="45.37475" lon="4.56339">
        <ele>1318.59</ele>
        <time>2017-04-12T11:28:22Z</time>
      </trkpt>
      <trkpt lat="45.37457" lon="4.56324">
        <ele>1317.14</ele>
        <time>2017-04-12T11:28:25Z</time>
      </trkpt>
      <trkpt lat="45.37429" lon="4.56293">
        <ele>1313.78</ele>
        <time>2017-04-12T11:28:30Z</time>
      </trkpt>
      <trkpt lat="45.37411" lon="4.5628">
        <ele>1310.41</ele>
        <time>2017-04-12T11:28:33Z</time>
      </trkpt>
      <trkpt lat="45.37405" lon="4.56276">
        <ele>1309.45</ele>
        <time>2017-04-12T11:28:34Z</time>
      </trkpt>
      <trkpt lat="45.37396" lon="4.5627">
        <ele>1308.01</ele>
        <time>2017-04-12T11:28:36Z</time>
      </trkpt>
      <trkpt lat="45.37393" lon="4.56265">
        <ele>1308.01</ele>
        <time>2017-04-12T11:28:37Z</time>
      </trkpt>
      <trkpt lat="45.3739" lon="4.56261">
        <ele>1307.53</ele>
        <time>2017-04-12T11:28:38Z</time>
      </trkpt>
      <trkpt lat="45.37387" lon="4.56257">
        <ele>1307.53</ele>
        <time>2017-04-12T11:28:39Z</time>
      </trkpt>
      <trkpt lat="45.37383" lon="4.56253">
        <ele>1306.57</ele>
        <time>2017-04-12T11:28:40Z</time>
      </trkpt>
      <trkpt lat="45.3738" lon="4.56249">
        <ele>1303.2</ele>
        <time>2017-04-12T11:28:41Z</time>
      </trkpt>
      <trkpt lat="45.37375" lon="4.56245">
        <ele>1309.45</ele>
        <time>2017-04-12T11:28:42Z</time>
      </trkpt>
      <trkpt lat="45.37371" lon="4.5624">
        <ele>1306.57</ele>
        <time>2017-04-12T11:28:43Z</time>
      </trkpt>
      <trkpt lat="45.37367" lon="4.56235">
        <ele>1306.09</ele>
        <time>2017-04-12T11:28:44Z</time>
      </trkpt>
      <trkpt lat="45.37338" lon="4.56202">
        <ele>1305.13</ele>
        <time>2017-04-12T11:28:50Z</time>
      </trkpt>
      <trkpt lat="45.37332" lon="4.56198">
        <ele>1305.13</ele>
        <time>2017-04-12T11:28:51Z</time>
      </trkpt>
      <trkpt lat="45.37322" lon="4.56188">
        <ele>1304.17</ele>
        <time>2017-04-12T11:28:53Z</time>
      </trkpt>
      <trkpt lat="45.37316" lon="4.56181">
        <ele>1304.17</ele>
        <time>2017-04-12T11:28:54Z</time>
      </trkpt>
      <trkpt lat="45.37313" lon="4.56175">
        <ele>1304.17</ele>
        <time>2017-04-12T11:28:55Z</time>
      </trkpt>
      <trkpt lat="45.37309" lon="4.56168">
        <ele>1304.17</ele>
        <time>2017-04-12T11:28:56Z</time>
      </trkpt>
      <trkpt lat="45.37305" lon="4.56163">
        <ele>1303.69</ele>
        <time>2017-04-12T11:28:57Z</time>
      </trkpt>
      <trkpt lat="45.373" lon="4.56158">
        <ele>1303.69</ele>
        <time>2017-04-12T11:28:58Z</time>
      </trkpt>
      <trkpt lat="45.37296" lon="4.56152">
        <ele>1303.69</ele>
        <time>2017-04-12T11:28:59Z</time>
      </trkpt>
      <trkpt lat="45.37293" lon="4.56146">
        <ele>1303.69</ele>
        <time>2017-04-12T11:29:00Z</time>
      </trkpt>
      <trkpt lat="45.37276" lon="4.56119">
        <ele>1304.17</ele>
        <time>2017-04-12T11:29:05Z</time>
      </trkpt>
      <trkpt lat="45.37273" lon="4.56114">
        <ele>1304.17</ele>
        <time>2017-04-12T11:29:06Z</time>
      </trkpt>
      <trkpt lat="45.3727" lon="4.5611">
        <ele>1304.17</ele>
        <time>2017-04-12T11:29:07Z</time>
      </trkpt>
      <trkpt lat="45.37267" lon="4.56105">
        <ele>1304.17</ele>
        <time>2017-04-12T11:29:08Z</time>
      </trkpt>
      <trkpt lat="45.37264" lon="4.561">
        <ele>1304.65</ele>
        <time>2017-04-12T11:29:09Z</time>
      </trkpt>
      <trkpt lat="45.37259" lon="4.56091">
        <ele>1304.65</ele>
        <time>2017-04-12T11:29:11Z</time>
      </trkpt>
      <trkpt lat="45.37256" lon="4.56085">
        <ele>1304.65</ele>
        <time>2017-04-12T11:29:12Z</time>
      </trkpt>
      <trkpt lat="45.37253" lon="4.5608">
        <ele>1304.65</ele>
        <time>2017-04-12T11:29:13Z</time>
      </trkpt>
      <trkpt lat="45.37247" lon="4.56069">
        <ele>1305.13</ele>
        <time>2017-04-12T11:29:15Z</time>
      </trkpt>
      <trkpt lat="45.37244" lon="4.56064">
        <ele>1305.13</ele>
        <time>2017-04-12T11:29:16Z</time>
      </trkpt>
      <trkpt lat="45.37241" lon="4.56058">
        <ele>1305.13</ele>
        <time>2017-04-12T11:29:17Z</time>
      </trkpt>
      <trkpt lat="45.3723" lon="4.56038">
        <ele>1305.61</ele>
        <time>2017-04-12T11:29:21Z</time>
      </trkpt>
      <trkpt lat="45.37226" lon="4.56033">
        <ele>1305.61</ele>
        <time>2017-04-12T11:29:22Z</time>
      </trkpt>
      <trkpt lat="45.37206" lon="4.56017">
        <ele>1306.57</ele>
        <time>2017-04-12T11:29:32Z</time>
      </trkpt>
      <trkpt lat="45.37203" lon="4.56014">
        <ele>1306.57</ele>
        <time>2017-04-12T11:29:34Z</time>
      </trkpt>
      <trkpt lat="45.37202" lon="4.56012">
        <ele>1306.57</ele>
        <time>2017-04-12T11:29:35Z</time>
      </trkpt>
      <trkpt lat="45.372" lon="4.5601">
        <ele>1307.05</ele>
        <time>2017-04-12T11:29:36Z</time>
      </trkpt>
      <trkpt lat="45.37173" lon="4.55989">
        <ele>1307.53</ele>
        <time>2017-04-12T11:29:48Z</time>
      </trkpt>
      <trkpt lat="45.37158" lon="4.55978">
        <ele>1308.49</ele>
        <time>2017-04-12T11:29:54Z</time>
      </trkpt>
      <trkpt lat="45.37129" lon="4.55961">
        <ele>1308.49</ele>
        <time>2017-04-12T11:30:05Z</time>
      </trkpt>
      <trkpt lat="45.37127" lon="4.5596">
        <ele>1308.49</ele>
        <time>2017-04-12T11:30:06Z</time>
      </trkpt>
      <trkpt lat="45.37124" lon="4.5596">
        <ele>1308.49</ele>
        <time>2017-04-12T11:30:07Z</time>
      </trkpt>
      <trkpt lat="45.37122" lon="4.55959">
        <ele>1308.49</ele>
        <time>2017-04-12T11:30:08Z</time>
      </trkpt>
      <trkpt lat="45.37119" lon="4.55957">
        <ele>1308.49</ele>
        <time>2017-04-12T11:30:09Z</time>
      </trkpt>
      <trkpt lat="45.37116" lon="4.55956">
        <ele>1308.49</ele>
        <time>2017-04-12T11:30:10Z</time>
      </trkpt>
      <trkpt lat="45.37082" lon="4.55935">
        <ele>1308.01</ele>
        <time>2017-04-12T11:30:22Z</time>
      </trkpt>
      <trkpt lat="45.37053" lon="4.55921">
        <ele>1307.53</ele>
        <time>2017-04-12T11:30:32Z</time>
      </trkpt>
      <trkpt lat="45.37041" lon="4.55914">
        <ele>1306.57</ele>
        <time>2017-04-12T11:30:35Z</time>
      </trkpt>
      <trkpt lat="45.37036" lon="4.5591">
        <ele>1306.57</ele>
        <time>2017-04-12T11:30:36Z</time>
      </trkpt>
      <trkpt lat="45.37031" lon="4.55905">
        <ele>1306.09</ele>
        <time>2017-04-12T11:30:37Z</time>
      </trkpt>
      <trkpt lat="45.37026" lon="4.559">
        <ele>1305.61</ele>
        <time>2017-04-12T11:30:38Z</time>
      </trkpt>
      <trkpt lat="45.37022" lon="4.55894">
        <ele>1305.61</ele>
        <time>2017-04-12T11:30:39Z</time>
      </trkpt>
      <trkpt lat="45.37019" lon="4.55888">
        <ele>1305.61</ele>
        <time>2017-04-12T11:30:40Z</time>
      </trkpt>
      <trkpt lat="45.37016" lon="4.55882">
        <ele>1305.13</ele>
        <time>2017-04-12T11:30:41Z</time>
      </trkpt>
      <trkpt lat="45.37011" lon="4.55869">
        <ele>1305.13</ele>
        <time>2017-04-12T11:30:43Z</time>
      </trkpt>
      <trkpt lat="45.37008" lon="4.55863">
        <ele>1305.13</ele>
        <time>2017-04-12T11:30:44Z</time>
      </trkpt>
      <trkpt lat="45.37003" lon="4.55852">
        <ele>1304.65</ele>
        <time>2017-04-12T11:30:46Z</time>
      </trkpt>
      <trkpt lat="45.36999" lon="4.55847">
        <ele>1304.17</ele>
        <time>2017-04-12T11:30:47Z</time>
      </trkpt>
      <trkpt lat="45.36995" lon="4.55842">
        <ele>1303.69</ele>
        <time>2017-04-12T11:30:48Z</time>
      </trkpt>
      <trkpt lat="45.36968" lon="4.55816">
        <ele>1302.72</ele>
        <time>2017-04-12T11:30:54Z</time>
      </trkpt>
      <trkpt lat="45.36964" lon="4.55813">
        <ele>1301.76</ele>
        <time>2017-04-12T11:30:55Z</time>
      </trkpt>
      <trkpt lat="45.36949" lon="4.55801">
        <ele>1301.28</ele>
        <time>2017-04-12T11:30:58Z</time>
      </trkpt>
      <trkpt lat="45.36941" lon="4.55794">
        <ele>1300.8</ele>
        <time>2017-04-12T11:31:00Z</time>
      </trkpt>
      <trkpt lat="45.36937" lon="4.55791">
        <ele>1300.8</ele>
        <time>2017-04-12T11:31:01Z</time>
      </trkpt>
      <trkpt lat="45.36919" lon="4.55778">
        <ele>1299.84</ele>
        <time>2017-04-12T11:31:06Z</time>
      </trkpt>
      <trkpt lat="45.36914" lon="4.55776">
        <ele>1299.84</ele>
        <time>2017-04-12T11:31:07Z</time>
      </trkpt>
      <trkpt lat="45.36909" lon="4.55775">
        <ele>1299.84</ele>
        <time>2017-04-12T11:31:08Z</time>
      </trkpt>
      <trkpt lat="45.36892" lon="4.55772">
        <ele>1298.4</ele>
        <time>2017-04-12T11:31:11Z</time>
      </trkpt>
      <trkpt lat="45.36861" lon="4.5577">
        <ele>1295.51</ele>
        <time>2017-04-12T11:31:16Z</time>
      </trkpt>
      <trkpt lat="45.36841" lon="4.55768">
        <ele>1294.07</ele>
        <time>2017-04-12T11:31:20Z</time>
      </trkpt>
      <trkpt lat="45.36831" lon="4.55766">
        <ele>1292.15</ele>
        <time>2017-04-12T11:31:23Z</time>
      </trkpt>
      <trkpt lat="45.36816" lon="4.55771">
        <ele>1289.75</ele>
        <time>2017-04-12T11:31:27Z</time>
      </trkpt>
      <trkpt lat="45.36811" lon="4.55771">
        <ele>1289.75</ele>
        <time>2017-04-12T11:31:28Z</time>
      </trkpt>
      <trkpt lat="45.36806" lon="4.55771">
        <ele>1288.3</ele>
        <time>2017-04-12T11:31:29Z</time>
      </trkpt>
      <trkpt lat="45.36802" lon="4.5577">
        <ele>1288.78</ele>
        <time>2017-04-12T11:31:30Z</time>
      </trkpt>
      <trkpt lat="45.36798" lon="4.55768">
        <ele>1288.3</ele>
        <time>2017-04-12T11:31:31Z</time>
      </trkpt>
      <trkpt lat="45.36794" lon="4.55766">
        <ele>1288.3</ele>
        <time>2017-04-12T11:31:32Z</time>
      </trkpt>
      <trkpt lat="45.36791" lon="4.55764">
        <ele>1287.82</ele>
        <time>2017-04-12T11:31:33Z</time>
      </trkpt>
      <trkpt lat="45.36786" lon="4.55762">
        <ele>1287.34</ele>
        <time>2017-04-12T11:31:34Z</time>
      </trkpt>
      <trkpt lat="45.36782" lon="4.55761">
        <ele>1287.34</ele>
        <time>2017-04-12T11:31:35Z</time>
      </trkpt>
      <trkpt lat="45.36777" lon="4.55759">
        <ele>1286.86</ele>
        <time>2017-04-12T11:31:36Z</time>
      </trkpt>
      <trkpt lat="45.36772" lon="4.55756">
        <ele>1286.86</ele>
        <time>2017-04-12T11:31:37Z</time>
      </trkpt>
      <trkpt lat="45.36761" lon="4.55747">
        <ele>1286.38</ele>
        <time>2017-04-12T11:31:40Z</time>
      </trkpt>
      <trkpt lat="45.36756" lon="4.55744">
        <ele>1285.42</ele>
        <time>2017-04-12T11:31:41Z</time>
      </trkpt>
      <trkpt lat="45.36752" lon="4.5574">
        <ele>1284.94</ele>
        <time>2017-04-12T11:31:42Z</time>
      </trkpt>
      <trkpt lat="45.36747" lon="4.55737">
        <ele>1283.98</ele>
        <time>2017-04-12T11:31:43Z</time>
      </trkpt>
      <trkpt lat="45.36743" lon="4.55734">
        <ele>1283.5</ele>
        <time>2017-04-12T11:31:44Z</time>
      </trkpt>
      <trkpt lat="45.36739" lon="4.55731">
        <ele>1283.5</ele>
        <time>2017-04-12T11:31:45Z</time>
      </trkpt>
      <trkpt lat="45.36721" lon="4.55716">
        <ele>1279.65</ele>
        <time>2017-04-12T11:31:50Z</time>
      </trkpt>
      <trkpt lat="45.36718" lon="4.55714">
        <ele>1279.17</ele>
        <time>2017-04-12T11:31:51Z</time>
      </trkpt>
      <trkpt lat="45.36706" lon="4.55709">
        <ele>1275.33</ele>
        <time>2017-04-12T11:31:55Z</time>
      </trkpt>
      <trkpt lat="45.36703" lon="4.55708">
        <ele>1275.33</ele>
        <time>2017-04-12T11:31:56Z</time>
      </trkpt>
      <trkpt lat="45.36694" lon="4.55702">
        <ele>1272.44</ele>
        <time>2017-04-12T11:31:59Z</time>
      </trkpt>
      <trkpt lat="45.36679" lon="4.5569">
        <ele>1270.04</ele>
        <time>2017-04-12T11:32:03Z</time>
      </trkpt>
      <trkpt lat="45.36658" lon="4.55681">
        <ele>1266.67</ele>
        <time>2017-04-12T11:32:08Z</time>
      </trkpt>
      <trkpt lat="45.36651" lon="4.55677">
        <ele>1265.71</ele>
        <time>2017-04-12T11:32:10Z</time>
      </trkpt>
      <trkpt lat="45.36647" lon="4.55676">
        <ele>1264.75</ele>
        <time>2017-04-12T11:32:11Z</time>
      </trkpt>
      <trkpt lat="45.36642" lon="4.55674">
        <ele>1264.27</ele>
        <time>2017-04-12T11:32:12Z</time>
      </trkpt>
      <trkpt lat="45.36637" lon="4.55671">
        <ele>1263.79</ele>
        <time>2017-04-12T11:32:13Z</time>
      </trkpt>
      <trkpt lat="45.36622" lon="4.55661">
        <ele>1261.87</ele>
        <time>2017-04-12T11:32:16Z</time>
      </trkpt>
      <trkpt lat="45.36613" lon="4.55655">
        <ele>1260.43</ele>
        <time>2017-04-12T11:32:18Z</time>
      </trkpt>
      <trkpt lat="45.36607" lon="4.55652">
        <ele>1260.43</ele>
        <time>2017-04-12T11:32:19Z</time>
      </trkpt>
      <trkpt lat="45.36602" lon="4.55648">
        <ele>1258.98</ele>
        <time>2017-04-12T11:32:20Z</time>
      </trkpt>
      <trkpt lat="45.36598" lon="4.55644">
        <ele>1258.98</ele>
        <time>2017-04-12T11:32:21Z</time>
      </trkpt>
      <trkpt lat="45.36593" lon="4.5564">
        <ele>1258.5</ele>
        <time>2017-04-12T11:32:22Z</time>
      </trkpt>
      <trkpt lat="45.36589" lon="4.55636">
        <ele>1258.02</ele>
        <time>2017-04-12T11:32:23Z</time>
      </trkpt>
      <trkpt lat="45.36584" lon="4.55632">
        <ele>1257.54</ele>
        <time>2017-04-12T11:32:24Z</time>
      </trkpt>
      <trkpt lat="45.3658" lon="4.55627">
        <ele>1257.54</ele>
        <time>2017-04-12T11:32:25Z</time>
      </trkpt>
      <trkpt lat="45.36542" lon="4.55594">
        <ele>1254.18</ele>
        <time>2017-04-12T11:32:32Z</time>
      </trkpt>
      <trkpt lat="45.36532" lon="4.55584">
        <ele>1253.7</ele>
        <time>2017-04-12T11:32:34Z</time>
      </trkpt>
      <trkpt lat="45.36527" lon="4.55579">
        <ele>1253.22</ele>
        <time>2017-04-12T11:32:35Z</time>
      </trkpt>
      <trkpt lat="45.36523" lon="4.55575">
        <ele>1252.74</ele>
        <time>2017-04-12T11:32:36Z</time>
      </trkpt>
      <trkpt lat="45.36518" lon="4.55571">
        <ele>1251.29</ele>
        <time>2017-04-12T11:32:37Z</time>
      </trkpt>
      <trkpt lat="45.36513" lon="4.55568">
        <ele>1251.77</ele>
        <time>2017-04-12T11:32:38Z</time>
      </trkpt>
      <trkpt lat="45.36508" lon="4.55566">
        <ele>1250.81</ele>
        <time>2017-04-12T11:32:39Z</time>
      </trkpt>
      <trkpt lat="45.36503" lon="4.55561">
        <ele>1249.85</ele>
        <time>2017-04-12T11:32:40Z</time>
      </trkpt>
      <trkpt lat="45.36498" lon="4.55556">
        <ele>1249.85</ele>
        <time>2017-04-12T11:32:41Z</time>
      </trkpt>
      <trkpt lat="45.36488" lon="4.55543">
        <ele>1248.41</ele>
        <time>2017-04-12T11:32:43Z</time>
      </trkpt>
      <trkpt lat="45.36484" lon="4.55536">
        <ele>1247.45</ele>
        <time>2017-04-12T11:32:44Z</time>
      </trkpt>
      <trkpt lat="45.36474" lon="4.55516">
        <ele>1246.01</ele>
        <time>2017-04-12T11:32:47Z</time>
      </trkpt>
      <trkpt lat="45.3647" lon="4.55509">
        <ele>1245.53</ele>
        <time>2017-04-12T11:32:48Z</time>
      </trkpt>
      <trkpt lat="45.36466" lon="4.55501">
        <ele>1245.04</ele>
        <time>2017-04-12T11:32:49Z</time>
      </trkpt>
      <trkpt lat="45.36457" lon="4.55481">
        <ele>1241.68</ele>
        <time>2017-04-12T11:32:52Z</time>
      </trkpt>
      <trkpt lat="45.36454" lon="4.55475">
        <ele>1241.68</ele>
        <time>2017-04-12T11:32:53Z</time>
      </trkpt>
      <trkpt lat="45.36448" lon="4.55459">
        <ele>1240.72</ele>
        <time>2017-04-12T11:32:55Z</time>
      </trkpt>
      <trkpt lat="45.36446" lon="4.55451">
        <ele>1238.8</ele>
        <time>2017-04-12T11:32:56Z</time>
      </trkpt>
      <trkpt lat="45.36443" lon="4.55443">
        <ele>1239.28</ele>
        <time>2017-04-12T11:32:57Z</time>
      </trkpt>
      <trkpt lat="45.36441" lon="4.55436">
        <ele>1237.83</ele>
        <time>2017-04-12T11:32:58Z</time>
      </trkpt>
      <trkpt lat="45.36437" lon="4.55429">
        <ele>1237.35</ele>
        <time>2017-04-12T11:32:59Z</time>
      </trkpt>
      <trkpt lat="45.36433" lon="4.55421">
        <ele>1236.87</ele>
        <time>2017-04-12T11:33:00Z</time>
      </trkpt>
      <trkpt lat="45.36421" lon="4.55397">
        <ele>1234.47</ele>
        <time>2017-04-12T11:33:03Z</time>
      </trkpt>
      <trkpt lat="45.36409" lon="4.55364">
        <ele>1230.14</ele>
        <time>2017-04-12T11:33:07Z</time>
      </trkpt>
      <trkpt lat="45.36398" lon="4.55333">
        <ele>1227.74</ele>
        <time>2017-04-12T11:33:11Z</time>
      </trkpt>
      <trkpt lat="45.36391" lon="4.55307">
        <ele>1224.38</ele>
        <time>2017-04-12T11:33:14Z</time>
      </trkpt>
      <trkpt lat="45.36388" lon="4.55293">
        <ele>1222.93</ele>
        <time>2017-04-12T11:33:16Z</time>
      </trkpt>
      <trkpt lat="45.36386" lon="4.55285">
        <ele>1222.93</ele>
        <time>2017-04-12T11:33:17Z</time>
      </trkpt>
      <trkpt lat="45.36381" lon="4.55256">
        <ele>1219.57</ele>
        <time>2017-04-12T11:33:21Z</time>
      </trkpt>
      <trkpt lat="45.3638" lon="4.55252">
        <ele>1219.09</ele>
        <time>2017-04-12T11:33:22Z</time>
      </trkpt>
      <trkpt lat="45.36378" lon="4.55242">
        <ele>1218.13</ele>
        <time>2017-04-12T11:33:24Z</time>
      </trkpt>
      <trkpt lat="45.36377" lon="4.55232">
        <ele>1216.69</ele>
        <time>2017-04-12T11:33:26Z</time>
      </trkpt>
      <trkpt lat="45.36378" lon="4.55226">
        <ele>1215.24</ele>
        <time>2017-04-12T11:33:27Z</time>
      </trkpt>
      <trkpt lat="45.3638" lon="4.5522">
        <ele>1215.24</ele>
        <time>2017-04-12T11:33:28Z</time>
      </trkpt>
      <trkpt lat="45.36382" lon="4.55215">
        <ele>1215.72</ele>
        <time>2017-04-12T11:33:29Z</time>
      </trkpt>
      <trkpt lat="45.36384" lon="4.5521">
        <ele>1215.72</ele>
        <time>2017-04-12T11:33:30Z</time>
      </trkpt>
      <trkpt lat="45.36385" lon="4.55205">
        <ele>1215.72</ele>
        <time>2017-04-12T11:33:31Z</time>
      </trkpt>
      <trkpt lat="45.36386" lon="4.552">
        <ele>1215.72</ele>
        <time>2017-04-12T11:33:32Z</time>
      </trkpt>
      <trkpt lat="45.36386" lon="4.55194">
        <ele>1215.72</ele>
        <time>2017-04-12T11:33:33Z</time>
      </trkpt>
      <trkpt lat="45.36388" lon="4.55168">
        <ele>1217.17</ele>
        <time>2017-04-12T11:33:42Z</time>
      </trkpt>
      <trkpt lat="45.36388" lon="4.55163">
        <ele>1218.13</ele>
        <time>2017-04-12T11:33:44Z</time>
      </trkpt>
      <trkpt lat="45.36388" lon="4.55161">
        <ele>1218.13</ele>
        <time>2017-04-12T11:33:45Z</time>
      </trkpt>
      <trkpt lat="45.36389" lon="4.55158">
        <ele>1218.13</ele>
        <time>2017-04-12T11:33:46Z</time>
      </trkpt>
      <trkpt lat="45.36389" lon="4.55156">
        <ele>1218.13</ele>
        <time>2017-04-12T11:33:47Z</time>
      </trkpt>
      <trkpt lat="45.3639" lon="4.55153">
        <ele>1218.61</ele>
        <time>2017-04-12T11:33:48Z</time>
      </trkpt>
      <trkpt lat="45.3639" lon="4.5515">
        <ele>1218.61</ele>
        <time>2017-04-12T11:33:49Z</time>
      </trkpt>
      <trkpt lat="45.36391" lon="4.55147">
        <ele>1218.61</ele>
        <time>2017-04-12T11:33:50Z</time>
      </trkpt>
      <trkpt lat="45.36391" lon="4.55144">
        <ele>1218.61</ele>
        <time>2017-04-12T11:33:51Z</time>
      </trkpt>
      <trkpt lat="45.36392" lon="4.55142">
        <ele>1218.61</ele>
        <time>2017-04-12T11:33:52Z</time>
      </trkpt>
      <trkpt lat="45.36393" lon="4.55139">
        <ele>1218.61</ele>
        <time>2017-04-12T11:34:01Z</time>
      </trkpt>
      <trkpt lat="45.36393" lon="4.55141">
        <ele>1219.09</ele>
        <time>2017-04-12T11:34:18Z</time>
      </trkpt>
      <trkpt lat="45.36393" lon="4.55141">
        <ele>1219.09</ele>
        <time>2017-04-12T11:34:40Z</time>
      </trkpt>
      <trkpt lat="45.36393" lon="4.55141">
        <ele>1219.09</ele>
        <time>2017-04-12T11:35:04Z</time>
      </trkpt>
      <trkpt lat="45.36393" lon="4.55141">
        <ele>1218.13</ele>
        <time>2017-04-12T11:35:25Z</time>
      </trkpt>
      <trkpt lat="45.36392" lon="4.5514">
        <ele>1218.13</ele>
        <time>2017-04-12T11:35:56Z</time>
      </trkpt>
      <trkpt lat="45.36393" lon="4.55141">
        <ele>1218.61</ele>
        <time>2017-04-12T11:36:16Z</time>
      </trkpt>
      <trkpt lat="45.36393" lon="4.5514">
        <ele>1218.13</ele>
        <time>2017-04-12T11:36:43Z</time>
      </trkpt>
      <trkpt lat="45.36393" lon="4.55141">
        <ele>1218.13</ele>
        <time>2017-04-12T11:37:08Z</time>
      </trkpt>
      <trkpt lat="45.36392" lon="4.5514">
        <ele>1218.61</ele>
        <time>2017-04-12T11:37:33Z</time>
      </trkpt>
      <trkpt lat="45.36393" lon="4.5514">
        <ele>1218.61</ele>
        <time>2017-04-12T11:38:00Z</time>
      </trkpt>
      <trkpt lat="45.36392" lon="4.5514">
        <ele>1218.61</ele>
        <time>2017-04-12T11:38:22Z</time>
      </trkpt>
      <trkpt lat="45.36393" lon="4.55139">
        <ele>1218.61</ele>
        <time>2017-04-12T11:38:50Z</time>
      </trkpt>
      <trkpt lat="45.36393" lon="4.5514">
        <ele>1218.61</ele>
        <time>2017-04-12T11:39:15Z</time>
      </trkpt>
      <trkpt lat="45.36393" lon="4.5514">
        <ele>1218.61</ele>
        <time>2017-04-12T11:39:40Z</time>
      </trkpt>
      <trkpt lat="45.36393" lon="4.55141">
        <ele>1218.61</ele>
        <time>2017-04-12T11:40:06Z</time>
      </trkpt>
      <trkpt lat="45.36393" lon="4.5514">
        <ele>1219.09</ele>
        <time>2017-04-12T11:40:38Z</time>
      </trkpt>
      <trkpt lat="45.36393" lon="4.5514">
        <ele>1219.09</ele>
        <time>2017-04-12T11:41:13Z</time>
      </trkpt>
      <trkpt lat="45.36393" lon="4.5514">
        <ele>1218.61</ele>
        <time>2017-04-12T11:41:39Z</time>
      </trkpt>
      <trkpt lat="45.36393" lon="4.55141">
        <ele>1219.09</ele>
        <time>2017-04-12T11:42:11Z</time>
      </trkpt>
      <trkpt lat="45.36393" lon="4.5514">
        <ele>1218.61</ele>
        <time>2017-04-12T11:42:32Z</time>
      </trkpt>
      <trkpt lat="45.36394" lon="4.55139">
        <ele>1221.97</ele>
        <time>2017-04-12T11:42:45Z</time>
      </trkpt>
      <trkpt lat="45.36393" lon="4.55139">
        <ele>1218.13</ele>
        <time>2017-04-12T11:42:46Z</time>
      </trkpt>
      <trkpt lat="45.36393" lon="4.55137">
        <ele>1219.57</ele>
        <time>2017-04-12T11:42:57Z</time>
      </trkpt>
      <trkpt lat="45.36393" lon="4.55132">
        <ele>1219.57</ele>
        <time>2017-04-12T11:43:09Z</time>
      </trkpt>
      <trkpt lat="45.36399" lon="4.55104">
        <ele>1220.53</ele>
        <time>2017-04-12T11:43:20Z</time>
      </trkpt>
      <trkpt lat="45.3641" lon="4.55042">
        <ele>1223.42</ele>
        <time>2017-04-12T11:43:37Z</time>
      </trkpt>
      <trkpt lat="45.36423" lon="4.54985">
        <ele>1226.78</ele>
        <time>2017-04-12T11:43:54Z</time>
      </trkpt>
      <trkpt lat="45.36442" lon="4.54926">
        <ele>1229.66</ele>
        <time>2017-04-12T11:44:12Z</time>
      </trkpt>
      <trkpt lat="45.36458" lon="4.54861">
        <ele>1231.11</ele>
        <time>2017-04-12T11:44:29Z</time>
      </trkpt>
      <trkpt lat="45.36477" lon="4.548">
        <ele>1233.03</ele>
        <time>2017-04-12T11:44:46Z</time>
      </trkpt>
      <trkpt lat="45.36497" lon="4.54764">
        <ele>1234.95</ele>
        <time>2017-04-12T11:45:00Z</time>
      </trkpt>
      <trkpt lat="45.36515" lon="4.54728">
        <ele>1237.35</ele>
        <time>2017-04-12T11:45:14Z</time>
      </trkpt>
      <trkpt lat="45.36536" lon="4.54683">
        <ele>1238.32</ele>
        <time>2017-04-12T11:45:31Z</time>
      </trkpt>
      <trkpt lat="45.36546" lon="4.54669">
        <ele>1238.8</ele>
        <time>2017-04-12T11:45:36Z</time>
      </trkpt>
      <trkpt lat="45.36548" lon="4.54668">
        <ele>1239.28</ele>
        <time>2017-04-12T11:45:37Z</time>
      </trkpt>
      <trkpt lat="45.3655" lon="4.54665">
        <ele>1238.8</ele>
        <time>2017-04-12T11:45:38Z</time>
      </trkpt>
      <trkpt lat="45.36585" lon="4.54625">
        <ele>1240.24</ele>
        <time>2017-04-12T11:45:53Z</time>
      </trkpt>
      <trkpt lat="45.36616" lon="4.54593">
        <ele>1239.76</ele>
        <time>2017-04-12T11:46:05Z</time>
      </trkpt>
      <trkpt lat="45.36619" lon="4.54591">
        <ele>1239.76</ele>
        <time>2017-04-12T11:46:06Z</time>
      </trkpt>
      <trkpt lat="45.36623" lon="4.54589">
        <ele>1239.28</ele>
        <time>2017-04-12T11:46:07Z</time>
      </trkpt>
      <trkpt lat="45.3664" lon="4.54578">
        <ele>1238.8</ele>
        <time>2017-04-12T11:46:11Z</time>
      </trkpt>
      <trkpt lat="45.36645" lon="4.54576">
        <ele>1238.32</ele>
        <time>2017-04-12T11:46:12Z</time>
      </trkpt>
      <trkpt lat="45.3665" lon="4.54572">
        <ele>1237.83</ele>
        <time>2017-04-12T11:46:13Z</time>
      </trkpt>
      <trkpt lat="45.36659" lon="4.54564">
        <ele>1235.91</ele>
        <time>2017-04-12T11:46:15Z</time>
      </trkpt>
      <trkpt lat="45.36663" lon="4.54559">
        <ele>1235.43</ele>
        <time>2017-04-12T11:46:16Z</time>
      </trkpt>
      <trkpt lat="45.36668" lon="4.54555">
        <ele>1234.95</ele>
        <time>2017-04-12T11:46:17Z</time>
      </trkpt>
      <trkpt lat="45.36709" lon="4.54528">
        <ele>1232.07</ele>
        <time>2017-04-12T11:46:24Z</time>
      </trkpt>
      <trkpt lat="45.36715" lon="4.54523">
        <ele>1230.62</ele>
        <time>2017-04-12T11:46:25Z</time>
      </trkpt>
      <trkpt lat="45.36728" lon="4.54516">
        <ele>1230.14</ele>
        <time>2017-04-12T11:46:27Z</time>
      </trkpt>
      <trkpt lat="45.36734" lon="4.54514">
        <ele>1230.14</ele>
        <time>2017-04-12T11:46:28Z</time>
      </trkpt>
      <trkpt lat="45.3674" lon="4.54513">
        <ele>1230.14</ele>
        <time>2017-04-12T11:46:29Z</time>
      </trkpt>
      <trkpt lat="45.36747" lon="4.54512">
        <ele>1230.14</ele>
        <time>2017-04-12T11:46:30Z</time>
      </trkpt>
      <trkpt lat="45.36752" lon="4.54508">
        <ele>1229.66</ele>
        <time>2017-04-12T11:46:31Z</time>
      </trkpt>
      <trkpt lat="45.36757" lon="4.54505">
        <ele>1229.18</ele>
        <time>2017-04-12T11:46:32Z</time>
      </trkpt>
      <trkpt lat="45.36763" lon="4.54502">
        <ele>1228.7</ele>
        <time>2017-04-12T11:46:33Z</time>
      </trkpt>
      <trkpt lat="45.36773" lon="4.54498">
        <ele>1228.7</ele>
        <time>2017-04-12T11:46:35Z</time>
      </trkpt>
      <trkpt lat="45.36778" lon="4.54497">
        <ele>1229.18</ele>
        <time>2017-04-12T11:46:36Z</time>
      </trkpt>
      <trkpt lat="45.36828" lon="4.54472">
        <ele>1226.78</ele>
        <time>2017-04-12T11:46:48Z</time>
      </trkpt>
      <trkpt lat="45.36832" lon="4.5447">
        <ele>1227.26</ele>
        <time>2017-04-12T11:46:49Z</time>
      </trkpt>
      <trkpt lat="45.36839" lon="4.54466">
        <ele>1227.26</ele>
        <time>2017-04-12T11:46:51Z</time>
      </trkpt>
      <trkpt lat="45.36844" lon="4.54463">
        <ele>1226.78</ele>
        <time>2017-04-12T11:46:52Z</time>
      </trkpt>
      <trkpt lat="45.36849" lon="4.54461">
        <ele>1226.78</ele>
        <time>2017-04-12T11:46:53Z</time>
      </trkpt>
      <trkpt lat="45.36855" lon="4.54459">
        <ele>1226.78</ele>
        <time>2017-04-12T11:46:54Z</time>
      </trkpt>
      <trkpt lat="45.3686" lon="4.54459">
        <ele>1226.78</ele>
        <time>2017-04-12T11:46:55Z</time>
      </trkpt>
      <trkpt lat="45.36901" lon="4.54444">
        <ele>1225.34</ele>
        <time>2017-04-12T11:47:05Z</time>
      </trkpt>
      <trkpt lat="45.36906" lon="4.54439">
        <ele>1224.86</ele>
        <time>2017-04-12T11:47:06Z</time>
      </trkpt>
      <trkpt lat="45.36909" lon="4.54435">
        <ele>1224.86</ele>
        <time>2017-04-12T11:47:07Z</time>
      </trkpt>
      <trkpt lat="45.36913" lon="4.5443">
        <ele>1224.86</ele>
        <time>2017-04-12T11:47:08Z</time>
      </trkpt>
      <trkpt lat="45.36917" lon="4.54425">
        <ele>1223.9</ele>
        <time>2017-04-12T11:47:09Z</time>
      </trkpt>
      <trkpt lat="45.3692" lon="4.54418">
        <ele>1223.42</ele>
        <time>2017-04-12T11:47:10Z</time>
      </trkpt>
      <trkpt lat="45.36924" lon="4.54412">
        <ele>1222.93</ele>
        <time>2017-04-12T11:47:11Z</time>
      </trkpt>
      <trkpt lat="45.36927" lon="4.54406">
        <ele>1222.93</ele>
        <time>2017-04-12T11:47:12Z</time>
      </trkpt>
      <trkpt lat="45.36932" lon="4.544">
        <ele>1222.45</ele>
        <time>2017-04-12T11:47:13Z</time>
      </trkpt>
      <trkpt lat="45.36935" lon="4.54395">
        <ele>1222.45</ele>
        <time>2017-04-12T11:47:14Z</time>
      </trkpt>
      <trkpt lat="45.36939" lon="4.54389">
        <ele>1221.97</ele>
        <time>2017-04-12T11:47:15Z</time>
      </trkpt>
      <trkpt lat="45.36943" lon="4.54383">
        <ele>1221.49</ele>
        <time>2017-04-12T11:47:16Z</time>
      </trkpt>
      <trkpt lat="45.36946" lon="4.54377">
        <ele>1221.49</ele>
        <time>2017-04-12T11:47:17Z</time>
      </trkpt>
      <trkpt lat="45.36949" lon="4.54371">
        <ele>1221.01</ele>
        <time>2017-04-12T11:47:18Z</time>
      </trkpt>
      <trkpt lat="45.36952" lon="4.54364">
        <ele>1220.53</ele>
        <time>2017-04-12T11:47:19Z</time>
      </trkpt>
      <trkpt lat="45.3696" lon="4.54344">
        <ele>1220.53</ele>
        <time>2017-04-12T11:47:22Z</time>
      </trkpt>
      <trkpt lat="45.36963" lon="4.54337">
        <ele>1220.53</ele>
        <time>2017-04-12T11:47:23Z</time>
      </trkpt>
      <trkpt lat="45.36972" lon="4.54318">
        <ele>1220.05</ele>
        <time>2017-04-12T11:47:26Z</time>
      </trkpt>
      <trkpt lat="45.36975" lon="4.54313">
        <ele>1220.53</ele>
        <time>2017-04-12T11:47:27Z</time>
      </trkpt>
      <trkpt lat="45.36978" lon="4.54309">
        <ele>1220.05</ele>
        <time>2017-04-12T11:47:28Z</time>
      </trkpt>
      <trkpt lat="45.36981" lon="4.54304">
        <ele>1220.53</ele>
        <time>2017-04-12T11:47:29Z</time>
      </trkpt>
      <trkpt lat="45.36983" lon="4.54301">
        <ele>1220.53</ele>
        <time>2017-04-12T11:47:30Z</time>
      </trkpt>
      <trkpt lat="45.36986" lon="4.54297">
        <ele>1220.05</ele>
        <time>2017-04-12T11:47:31Z</time>
      </trkpt>
      <trkpt lat="45.36987" lon="4.54295">
        <ele>1220.53</ele>
        <time>2017-04-12T11:47:32Z</time>
      </trkpt>
      <trkpt lat="45.36989" lon="4.54293">
        <ele>1220.53</ele>
        <time>2017-04-12T11:47:33Z</time>
      </trkpt>
      <trkpt lat="45.3699" lon="4.54291">
        <ele>1220.53</ele>
        <time>2017-04-12T11:47:34Z</time>
      </trkpt>
      <trkpt lat="45.36998" lon="4.54271">
        <ele>1220.53</ele>
        <time>2017-04-12T11:47:43Z</time>
      </trkpt>
      <trkpt lat="45.36998" lon="4.54268">
        <ele>1220.05</ele>
        <time>2017-04-12T11:48:17Z</time>
      </trkpt>
      <trkpt lat="45.37006" lon="4.54256">
        <ele>1221.97</ele>
        <time>2017-04-12T11:48:32Z</time>
      </trkpt>
      <trkpt lat="45.37006" lon="4.54248">
        <ele>1221.97</ele>
        <time>2017-04-12T11:48:37Z</time>
      </trkpt>
      <trkpt lat="45.37006" lon="4.54246">
        <ele>1221.97</ele>
        <time>2017-04-12T11:48:38Z</time>
      </trkpt>
      <trkpt lat="45.37007" lon="4.54223">
        <ele>1223.42</ele>
        <time>2017-04-12T11:48:48Z</time>
      </trkpt>
      <trkpt lat="45.37006" lon="4.54192">
        <ele>1225.82</ele>
        <time>2017-04-12T11:48:59Z</time>
      </trkpt>
      <trkpt lat="45.37006" lon="4.54188">
        <ele>1225.82</ele>
        <time>2017-04-12T11:49:00Z</time>
      </trkpt>
      <trkpt lat="45.37006" lon="4.54185">
        <ele>1226.3</ele>
        <time>2017-04-12T11:49:01Z</time>
      </trkpt>
      <trkpt lat="45.36999" lon="4.54135">
        <ele>1227.74</ele>
        <time>2017-04-12T11:49:15Z</time>
      </trkpt>
      <trkpt lat="45.36993" lon="4.54093">
        <ele>1227.74</ele>
        <time>2017-04-12T11:49:26Z</time>
      </trkpt>
      <trkpt lat="45.36994" lon="4.54045">
        <ele>1228.22</ele>
        <time>2017-04-12T11:49:39Z</time>
      </trkpt>
      <trkpt lat="45.37004" lon="4.54007">
        <ele>1228.7</ele>
        <time>2017-04-12T11:49:49Z</time>
      </trkpt>
      <trkpt lat="45.37007" lon="4.53982">
        <ele>1230.62</ele>
        <time>2017-04-12T11:50:00Z</time>
      </trkpt>
      <trkpt lat="45.37007" lon="4.53961">
        <ele>1233.03</ele>
        <time>2017-04-12T11:50:11Z</time>
      </trkpt>
      <trkpt lat="45.37007" lon="4.53959">
        <ele>1233.03</ele>
        <time>2017-04-12T11:50:12Z</time>
      </trkpt>
      <trkpt lat="45.37006" lon="4.53957">
        <ele>1233.51</ele>
        <time>2017-04-12T11:50:13Z</time>
      </trkpt>
      <trkpt lat="45.37006" lon="4.53954">
        <ele>1233.51</ele>
        <time>2017-04-12T11:50:14Z</time>
      </trkpt>
      <trkpt lat="45.37006" lon="4.53939">
        <ele>1234.95</ele>
        <time>2017-04-12T11:50:22Z</time>
      </trkpt>
      <trkpt lat="45.37004" lon="4.53936">
        <ele>1234.95</ele>
        <time>2017-04-12T11:50:23Z</time>
      </trkpt>
      <trkpt lat="45.37001" lon="4.53926">
        <ele>1235.91</ele>
        <time>2017-04-12T11:50:28Z</time>
      </trkpt>
      <trkpt lat="45.37001" lon="4.53924">
        <ele>1235.91</ele>
        <time>2017-04-12T11:50:29Z</time>
      </trkpt>
      <trkpt lat="45.37002" lon="4.53907">
        <ele>1237.35</ele>
        <time>2017-04-12T11:50:40Z</time>
      </trkpt>
      <trkpt lat="45.37004" lon="4.53883">
        <ele>1238.32</ele>
        <time>2017-04-12T11:50:53Z</time>
      </trkpt>
      <trkpt lat="45.37003" lon="4.53881">
        <ele>1238.32</ele>
        <time>2017-04-12T11:50:54Z</time>
      </trkpt>
      <trkpt lat="45.37002" lon="4.53878">
        <ele>1238.8</ele>
        <time>2017-04-12T11:50:55Z</time>
      </trkpt>
      <trkpt lat="45.36999" lon="4.53842">
        <ele>1239.28</ele>
        <time>2017-04-12T11:51:05Z</time>
      </trkpt>
      <trkpt lat="45.36996" lon="4.53768">
        <ele>1239.28</ele>
        <time>2017-04-12T11:51:19Z</time>
      </trkpt>
      <trkpt lat="45.37002" lon="4.53712">
        <ele>1239.28</ele>
        <time>2017-04-12T11:51:30Z</time>
      </trkpt>
      <trkpt lat="45.37008" lon="4.53673">
        <ele>1239.76</ele>
        <time>2017-04-12T11:51:37Z</time>
      </trkpt>
      <trkpt lat="45.37013" lon="4.53644">
        <ele>1239.76</ele>
        <time>2017-04-12T11:51:42Z</time>
      </trkpt>
      <trkpt lat="45.37014" lon="4.53639">
        <ele>1239.76</ele>
        <time>2017-04-12T11:51:43Z</time>
      </trkpt>
      <trkpt lat="45.37015" lon="4.53634">
        <ele>1240.24</ele>
        <time>2017-04-12T11:51:44Z</time>
      </trkpt>
      <trkpt lat="45.37016" lon="4.53629">
        <ele>1240.24</ele>
        <time>2017-04-12T11:51:45Z</time>
      </trkpt>
      <trkpt lat="45.37017" lon="4.53623">
        <ele>1240.24</ele>
        <time>2017-04-12T11:51:46Z</time>
      </trkpt>
      <trkpt lat="45.37025" lon="4.53552">
        <ele>1241.2</ele>
        <time>2017-04-12T11:51:58Z</time>
      </trkpt>
      <trkpt lat="45.37022" lon="4.5352">
        <ele>1243.12</ele>
        <time>2017-04-12T11:52:08Z</time>
      </trkpt>
      <trkpt lat="45.37022" lon="4.53518">
        <ele>1243.6</ele>
        <time>2017-04-12T11:52:09Z</time>
      </trkpt>
      <trkpt lat="45.37021" lon="4.53515">
        <ele>1243.6</ele>
        <time>2017-04-12T11:52:10Z</time>
      </trkpt>
      <trkpt lat="45.37021" lon="4.53512">
        <ele>1243.6</ele>
        <time>2017-04-12T11:52:11Z</time>
      </trkpt>
      <trkpt lat="45.3702" lon="4.53509">
        <ele>1244.08</ele>
        <time>2017-04-12T11:52:12Z</time>
      </trkpt>
      <trkpt lat="45.37016" lon="4.53487">
        <ele>1245.53</ele>
        <time>2017-04-12T11:52:19Z</time>
      </trkpt>
      <trkpt lat="45.37016" lon="4.53485">
        <ele>1246.01</ele>
        <time>2017-04-12T11:52:20Z</time>
      </trkpt>
      <trkpt lat="45.37016" lon="4.53483">
        <ele>1246.01</ele>
        <time>2017-04-12T11:52:21Z</time>
      </trkpt>
      <trkpt lat="45.37013" lon="4.53477">
        <ele>1246.97</ele>
        <time>2017-04-12T11:52:24Z</time>
      </trkpt>
      <trkpt lat="45.37012" lon="4.53475">
        <ele>1246.97</ele>
        <time>2017-04-12T11:52:25Z</time>
      </trkpt>
      <trkpt lat="45.3701" lon="4.53474">
        <ele>1246.97</ele>
        <time>2017-04-12T11:52:26Z</time>
      </trkpt>
      <trkpt lat="45.37003" lon="4.53449">
        <ele>1248.89</ele>
        <time>2017-04-12T11:52:38Z</time>
      </trkpt>
      <trkpt lat="45.37001" lon="4.53439">
        <ele>1249.37</ele>
        <time>2017-04-12T11:52:42Z</time>
      </trkpt>
      <trkpt lat="45.37001" lon="4.53437">
        <ele>1250.33</ele>
        <time>2017-04-12T11:52:43Z</time>
      </trkpt>
      <trkpt lat="45.37001" lon="4.53434">
        <ele>1249.85</ele>
        <time>2017-04-12T11:52:44Z</time>
      </trkpt>
      <trkpt lat="45.37" lon="4.53432">
        <ele>1249.85</ele>
        <time>2017-04-12T11:52:45Z</time>
      </trkpt>
      <trkpt lat="45.37" lon="4.53431">
        <ele>1249.85</ele>
        <time>2017-04-12T11:52:46Z</time>
      </trkpt>
      <trkpt lat="45.36999" lon="4.53429">
        <ele>1249.85</ele>
        <time>2017-04-12T11:52:47Z</time>
      </trkpt>
      <trkpt lat="45.36999" lon="4.53426">
        <ele>1250.33</ele>
        <time>2017-04-12T11:52:48Z</time>
      </trkpt>
      <trkpt lat="45.36998" lon="4.53424">
        <ele>1250.33</ele>
        <time>2017-04-12T11:52:49Z</time>
      </trkpt>
      <trkpt lat="45.36987" lon="4.53394">
        <ele>1251.29</ele>
        <time>2017-04-12T11:53:01Z</time>
      </trkpt>
      <trkpt lat="45.36976" lon="4.53368">
        <ele>1250.81</ele>
        <time>2017-04-12T11:53:12Z</time>
      </trkpt>
      <trkpt lat="45.36968" lon="4.53349">
        <ele>1249.37</ele>
        <time>2017-04-12T11:53:16Z</time>
      </trkpt>
      <trkpt lat="45.36966" lon="4.53344">
        <ele>1248.89</ele>
        <time>2017-04-12T11:53:17Z</time>
      </trkpt>
      <trkpt lat="45.36959" lon="4.53323">
        <ele>1246.97</ele>
        <time>2017-04-12T11:53:21Z</time>
      </trkpt>
      <trkpt lat="45.36953" lon="4.53307">
        <ele>1245.04</ele>
        <time>2017-04-12T11:53:24Z</time>
      </trkpt>
      <trkpt lat="45.36949" lon="4.53302">
        <ele>1244.56</ele>
        <time>2017-04-12T11:53:25Z</time>
      </trkpt>
      <trkpt lat="45.36941" lon="4.53282">
        <ele>1241.2</ele>
        <time>2017-04-12T11:53:28Z</time>
      </trkpt>
      <trkpt lat="45.36939" lon="4.53275">
        <ele>1240.72</ele>
        <time>2017-04-12T11:53:29Z</time>
      </trkpt>
      <trkpt lat="45.36935" lon="4.53253">
        <ele>1238.32</ele>
        <time>2017-04-12T11:53:32Z</time>
      </trkpt>
      <trkpt lat="45.36933" lon="4.53245">
        <ele>1238.32</ele>
        <time>2017-04-12T11:53:33Z</time>
      </trkpt>
      <trkpt lat="45.36932" lon="4.53237">
        <ele>1237.83</ele>
        <time>2017-04-12T11:53:34Z</time>
      </trkpt>
      <trkpt lat="45.36931" lon="4.53228">
        <ele>1237.83</ele>
        <time>2017-04-12T11:53:35Z</time>
      </trkpt>
      <trkpt lat="45.36931" lon="4.53219">
        <ele>1237.35</ele>
        <time>2017-04-12T11:53:36Z</time>
      </trkpt>
      <trkpt lat="45.36931" lon="4.5321">
        <ele>1236.87</ele>
        <time>2017-04-12T11:53:37Z</time>
      </trkpt>
      <trkpt lat="45.36929" lon="4.53202">
        <ele>1237.35</ele>
        <time>2017-04-12T11:53:38Z</time>
      </trkpt>
      <trkpt lat="45.36926" lon="4.53193">
        <ele>1236.39</ele>
        <time>2017-04-12T11:53:39Z</time>
      </trkpt>
      <trkpt lat="45.36924" lon="4.53184">
        <ele>1236.39</ele>
        <time>2017-04-12T11:53:40Z</time>
      </trkpt>
      <trkpt lat="45.36923" lon="4.53175">
        <ele>1234.47</ele>
        <time>2017-04-12T11:53:41Z</time>
      </trkpt>
      <trkpt lat="45.36922" lon="4.53167">
        <ele>1233.51</ele>
        <time>2017-04-12T11:53:42Z</time>
      </trkpt>
      <trkpt lat="45.36921" lon="4.5316">
        <ele>1233.03</ele>
        <time>2017-04-12T11:53:43Z</time>
      </trkpt>
      <trkpt lat="45.3692" lon="4.53153">
        <ele>1231.59</ele>
        <time>2017-04-12T11:53:44Z</time>
      </trkpt>
      <trkpt lat="45.36918" lon="4.53146">
        <ele>1230.62</ele>
        <time>2017-04-12T11:53:45Z</time>
      </trkpt>
      <trkpt lat="45.36917" lon="4.53139">
        <ele>1231.11</ele>
        <time>2017-04-12T11:53:46Z</time>
      </trkpt>
      <trkpt lat="45.36916" lon="4.53132">
        <ele>1230.14</ele>
        <time>2017-04-12T11:53:47Z</time>
      </trkpt>
      <trkpt lat="45.36912" lon="4.53108">
        <ele>1228.7</ele>
        <time>2017-04-12T11:53:50Z</time>
      </trkpt>
      <trkpt lat="45.3691" lon="4.531">
        <ele>1227.26</ele>
        <time>2017-04-12T11:53:51Z</time>
      </trkpt>
      <trkpt lat="45.36907" lon="4.53084">
        <ele>1225.82</ele>
        <time>2017-04-12T11:53:53Z</time>
      </trkpt>
      <trkpt lat="45.36908" lon="4.53076">
        <ele>1225.34</ele>
        <time>2017-04-12T11:53:54Z</time>
      </trkpt>
      <trkpt lat="45.36909" lon="4.53067">
        <ele>1223.9</ele>
        <time>2017-04-12T11:53:55Z</time>
      </trkpt>
      <trkpt lat="45.36909" lon="4.53049">
        <ele>1223.42</ele>
        <time>2017-04-12T11:53:57Z</time>
      </trkpt>
      <trkpt lat="45.36908" lon="4.53038">
        <ele>1221.49</ele>
        <time>2017-04-12T11:53:58Z</time>
      </trkpt>
      <trkpt lat="45.36906" lon="4.53028">
        <ele>1220.53</ele>
        <time>2017-04-12T11:53:59Z</time>
      </trkpt>
      <trkpt lat="45.36902" lon="4.5302">
        <ele>1219.57</ele>
        <time>2017-04-12T11:54:00Z</time>
      </trkpt>
      <trkpt lat="45.36898" lon="4.53013">
        <ele>1218.13</ele>
        <time>2017-04-12T11:54:01Z</time>
      </trkpt>
      <trkpt lat="45.36893" lon="4.53007">
        <ele>1218.61</ele>
        <time>2017-04-12T11:54:02Z</time>
      </trkpt>
      <trkpt lat="45.36888" lon="4.53">
        <ele>1217.17</ele>
        <time>2017-04-12T11:54:03Z</time>
      </trkpt>
      <trkpt lat="45.36884" lon="4.52992">
        <ele>1216.69</ele>
        <time>2017-04-12T11:54:04Z</time>
      </trkpt>
      <trkpt lat="45.36882" lon="4.52983">
        <ele>1215.72</ele>
        <time>2017-04-12T11:54:05Z</time>
      </trkpt>
      <trkpt lat="45.36879" lon="4.52972">
        <ele>1214.76</ele>
        <time>2017-04-12T11:54:06Z</time>
      </trkpt>
      <trkpt lat="45.36877" lon="4.52961">
        <ele>1214.28</ele>
        <time>2017-04-12T11:54:07Z</time>
      </trkpt>
      <trkpt lat="45.36868" lon="4.52926">
        <ele>1210.92</ele>
        <time>2017-04-12T11:54:10Z</time>
      </trkpt>
      <trkpt lat="45.36864" lon="4.52903">
        <ele>1209</ele>
        <time>2017-04-12T11:54:12Z</time>
      </trkpt>
      <trkpt lat="45.36854" lon="4.52853">
        <ele>1204.67</ele>
        <time>2017-04-12T11:54:18Z</time>
      </trkpt>
      <trkpt lat="45.36852" lon="4.5284">
        <ele>1203.23</ele>
        <time>2017-04-12T11:54:20Z</time>
      </trkpt>
      <trkpt lat="45.3685" lon="4.52834">
        <ele>1203.23</ele>
        <time>2017-04-12T11:54:21Z</time>
      </trkpt>
      <trkpt lat="45.36847" lon="4.52829">
        <ele>1203.23</ele>
        <time>2017-04-12T11:54:22Z</time>
      </trkpt>
      <trkpt lat="45.36844" lon="4.52826">
        <ele>1203.23</ele>
        <time>2017-04-12T11:54:23Z</time>
      </trkpt>
      <trkpt lat="45.36841" lon="4.52824">
        <ele>1197.46</ele>
        <time>2017-04-12T11:54:24Z</time>
      </trkpt>
      <trkpt lat="45.36838" lon="4.52823">
        <ele>1208.03</ele>
        <time>2017-04-12T11:54:25Z</time>
      </trkpt>
      <trkpt lat="45.36835" lon="4.52822">
        <ele>1205.15</ele>
        <time>2017-04-12T11:54:26Z</time>
      </trkpt>
      <trkpt lat="45.3683" lon="4.52821">
        <ele>1203.71</ele>
        <time>2017-04-12T11:54:28Z</time>
      </trkpt>
      <trkpt lat="45.368" lon="4.52808">
        <ele>1205.15</ele>
        <time>2017-04-12T11:54:40Z</time>
      </trkpt>
      <trkpt lat="45.36764" lon="4.52788">
        <ele>1206.11</ele>
        <time>2017-04-12T11:54:53Z</time>
      </trkpt>
      <trkpt lat="45.36732" lon="4.52772">
        <ele>1207.55</ele>
        <time>2017-04-12T11:55:06Z</time>
      </trkpt>
      <trkpt lat="45.36705" lon="4.52759">
        <ele>1209.48</ele>
        <time>2017-04-12T11:55:19Z</time>
      </trkpt>
      <trkpt lat="45.36674" lon="4.52743">
        <ele>1211.88</ele>
        <time>2017-04-12T11:55:34Z</time>
      </trkpt>
      <trkpt lat="45.36649" lon="4.52728">
        <ele>1214.28</ele>
        <time>2017-04-12T11:55:48Z</time>
      </trkpt>
      <trkpt lat="45.36624" lon="4.52718">
        <ele>1216.69</ele>
        <time>2017-04-12T11:56:03Z</time>
      </trkpt>
      <trkpt lat="45.36612" lon="4.52713">
        <ele>1218.13</ele>
        <time>2017-04-12T11:56:11Z</time>
      </trkpt>
      <trkpt lat="45.36611" lon="4.52713">
        <ele>1218.61</ele>
        <time>2017-04-12T11:56:12Z</time>
      </trkpt>
      <trkpt lat="45.3661" lon="4.52713">
        <ele>1218.61</ele>
        <time>2017-04-12T11:56:13Z</time>
      </trkpt>
      <trkpt lat="45.3659" lon="4.52701">
        <ele>1221.49</ele>
        <time>2017-04-12T11:56:27Z</time>
      </trkpt>
      <trkpt lat="45.36573" lon="4.5269">
        <ele>1224.38</ele>
        <time>2017-04-12T11:56:41Z</time>
      </trkpt>
      <trkpt lat="45.36556" lon="4.52671">
        <ele>1226.78</ele>
        <time>2017-04-12T11:56:58Z</time>
      </trkpt>
      <trkpt lat="45.36555" lon="4.5267">
        <ele>1227.26</ele>
        <time>2017-04-12T11:56:59Z</time>
      </trkpt>
      <trkpt lat="45.36554" lon="4.52669">
        <ele>1227.26</ele>
        <time>2017-04-12T11:57:00Z</time>
      </trkpt>
      <trkpt lat="45.36553" lon="4.52669">
        <ele>1227.26</ele>
        <time>2017-04-12T11:57:01Z</time>
      </trkpt>
      <trkpt lat="45.36536" lon="4.52647">
        <ele>1230.14</ele>
        <time>2017-04-12T11:57:18Z</time>
      </trkpt>
      <trkpt lat="45.36516" lon="4.52635">
        <ele>1232.55</ele>
        <time>2017-04-12T11:57:35Z</time>
      </trkpt>
      <trkpt lat="45.36512" lon="4.52633">
        <ele>1233.03</ele>
        <time>2017-04-12T11:57:38Z</time>
      </trkpt>
      <trkpt lat="45.36511" lon="4.52632">
        <ele>1233.51</ele>
        <time>2017-04-12T11:57:39Z</time>
      </trkpt>
      <trkpt lat="45.36487" lon="4.52641">
        <ele>1234.47</ele>
        <time>2017-04-12T11:57:53Z</time>
      </trkpt>
      <trkpt lat="45.36465" lon="4.52644">
        <ele>1235.43</ele>
        <time>2017-04-12T11:58:04Z</time>
      </trkpt>
      <trkpt lat="45.36433" lon="4.52631">
        <ele>1233.99</ele>
        <time>2017-04-12T11:58:15Z</time>
      </trkpt>
      <trkpt lat="45.36424" lon="4.52631">
        <ele>1233.51</ele>
        <time>2017-04-12T11:58:17Z</time>
      </trkpt>
      <trkpt lat="45.3642" lon="4.52631">
        <ele>1233.51</ele>
        <time>2017-04-12T11:58:18Z</time>
      </trkpt>
      <trkpt lat="45.36415" lon="4.52629">
        <ele>1233.51</ele>
        <time>2017-04-12T11:58:19Z</time>
      </trkpt>
      <trkpt lat="45.3641" lon="4.52627">
        <ele>1233.03</ele>
        <time>2017-04-12T11:58:20Z</time>
      </trkpt>
      <trkpt lat="45.36406" lon="4.52626">
        <ele>1232.55</ele>
        <time>2017-04-12T11:58:21Z</time>
      </trkpt>
      <trkpt lat="45.36401" lon="4.52624">
        <ele>1232.55</ele>
        <time>2017-04-12T11:58:22Z</time>
      </trkpt>
      <trkpt lat="45.36395" lon="4.52621">
        <ele>1232.55</ele>
        <time>2017-04-12T11:58:23Z</time>
      </trkpt>
      <trkpt lat="45.3639" lon="4.52617">
        <ele>1231.59</ele>
        <time>2017-04-12T11:58:24Z</time>
      </trkpt>
      <trkpt lat="45.36385" lon="4.52611">
        <ele>1231.59</ele>
        <time>2017-04-12T11:58:25Z</time>
      </trkpt>
      <trkpt lat="45.36376" lon="4.52598">
        <ele>1230.14</ele>
        <time>2017-04-12T11:58:27Z</time>
      </trkpt>
      <trkpt lat="45.36371" lon="4.52588">
        <ele>1229.66</ele>
        <time>2017-04-12T11:58:28Z</time>
      </trkpt>
      <trkpt lat="45.36367" lon="4.52579">
        <ele>1229.18</ele>
        <time>2017-04-12T11:58:29Z</time>
      </trkpt>
      <trkpt lat="45.36348" lon="4.52538">
        <ele>1226.78</ele>
        <time>2017-04-12T11:58:34Z</time>
      </trkpt>
      <trkpt lat="45.36344" lon="4.52533">
        <ele>1226.78</ele>
        <time>2017-04-12T11:58:35Z</time>
      </trkpt>
      <trkpt lat="45.36341" lon="4.52528">
        <ele>1226.3</ele>
        <time>2017-04-12T11:58:36Z</time>
      </trkpt>
      <trkpt lat="45.36323" lon="4.525">
        <ele>1224.38</ele>
        <time>2017-04-12T11:58:42Z</time>
      </trkpt>
      <trkpt lat="45.36302" lon="4.52472">
        <ele>1223.9</ele>
        <time>2017-04-12T11:58:47Z</time>
      </trkpt>
      <trkpt lat="45.36298" lon="4.52466">
        <ele>1223.42</ele>
        <time>2017-04-12T11:58:48Z</time>
      </trkpt>
      <trkpt lat="45.36294" lon="4.52461">
        <ele>1223.9</ele>
        <time>2017-04-12T11:58:49Z</time>
      </trkpt>
      <trkpt lat="45.36269" lon="4.52417">
        <ele>1221.97</ele>
        <time>2017-04-12T11:58:56Z</time>
      </trkpt>
      <trkpt lat="45.36243" lon="4.52365">
        <ele>1218.61</ele>
        <time>2017-04-12T11:59:04Z</time>
      </trkpt>
      <trkpt lat="45.36242" lon="4.52358">
        <ele>1218.61</ele>
        <time>2017-04-12T11:59:05Z</time>
      </trkpt>
      <trkpt lat="45.36241" lon="4.52344">
        <ele>1217.65</ele>
        <time>2017-04-12T11:59:07Z</time>
      </trkpt>
      <trkpt lat="45.3624" lon="4.52338">
        <ele>1216.69</ele>
        <time>2017-04-12T11:59:08Z</time>
      </trkpt>
      <trkpt lat="45.36233" lon="4.52305">
        <ele>1213.32</ele>
        <time>2017-04-12T11:59:15Z</time>
      </trkpt>
      <trkpt lat="45.36231" lon="4.52293">
        <ele>1212.36</ele>
        <time>2017-04-12T11:59:17Z</time>
      </trkpt>
      <trkpt lat="45.36229" lon="4.52288">
        <ele>1212.36</ele>
        <time>2017-04-12T11:59:18Z</time>
      </trkpt>
      <trkpt lat="45.36223" lon="4.52274">
        <ele>1210.92</ele>
        <time>2017-04-12T11:59:20Z</time>
      </trkpt>
      <trkpt lat="45.36219" lon="4.52267">
        <ele>1210.44</ele>
        <time>2017-04-12T11:59:21Z</time>
      </trkpt>
      <trkpt lat="45.36206" lon="4.52246">
        <ele>1208.51</ele>
        <time>2017-04-12T11:59:24Z</time>
      </trkpt>
      <trkpt lat="45.36201" lon="4.52238">
        <ele>1208.51</ele>
        <time>2017-04-12T11:59:25Z</time>
      </trkpt>
      <trkpt lat="45.36197" lon="4.52229">
        <ele>1208.03</ele>
        <time>2017-04-12T11:59:26Z</time>
      </trkpt>
      <trkpt lat="45.36193" lon="4.52221">
        <ele>1207.07</ele>
        <time>2017-04-12T11:59:27Z</time>
      </trkpt>
      <trkpt lat="45.36189" lon="4.52213">
        <ele>1207.07</ele>
        <time>2017-04-12T11:59:28Z</time>
      </trkpt>
      <trkpt lat="45.36184" lon="4.52207">
        <ele>1205.63</ele>
        <time>2017-04-12T11:59:29Z</time>
      </trkpt>
      <trkpt lat="45.3618" lon="4.52201">
        <ele>1205.63</ele>
        <time>2017-04-12T11:59:30Z</time>
      </trkpt>
      <trkpt lat="45.36175" lon="4.52196">
        <ele>1204.67</ele>
        <time>2017-04-12T11:59:31Z</time>
      </trkpt>
      <trkpt lat="45.3617" lon="4.52192">
        <ele>1204.19</ele>
        <time>2017-04-12T11:59:32Z</time>
      </trkpt>
      <trkpt lat="45.36164" lon="4.52188">
        <ele>1203.71</ele>
        <time>2017-04-12T11:59:33Z</time>
      </trkpt>
      <trkpt lat="45.36159" lon="4.52183">
        <ele>1203.71</ele>
        <time>2017-04-12T11:59:34Z</time>
      </trkpt>
      <trkpt lat="45.36154" lon="4.52178">
        <ele>1202.75</ele>
        <time>2017-04-12T11:59:35Z</time>
      </trkpt>
      <trkpt lat="45.36146" lon="4.52169">
        <ele>1201.3</ele>
        <time>2017-04-12T11:59:37Z</time>
      </trkpt>
      <trkpt lat="45.3614" lon="4.52158">
        <ele>1200.34</ele>
        <time>2017-04-12T11:59:39Z</time>
      </trkpt>
      <trkpt lat="45.36139" lon="4.52153">
        <ele>1200.82</ele>
        <time>2017-04-12T11:59:40Z</time>
      </trkpt>
      <trkpt lat="45.36138" lon="4.52147">
        <ele>1199.38</ele>
        <time>2017-04-12T11:59:41Z</time>
      </trkpt>
      <trkpt lat="45.36136" lon="4.52132">
        <ele>1198.9</ele>
        <time>2017-04-12T11:59:43Z</time>
      </trkpt>
      <trkpt lat="45.36136" lon="4.52123">
        <ele>1197.94</ele>
        <time>2017-04-12T11:59:44Z</time>
      </trkpt>
      <trkpt lat="45.36136" lon="4.52113">
        <ele>1196.98</ele>
        <time>2017-04-12T11:59:45Z</time>
      </trkpt>
      <trkpt lat="45.36138" lon="4.52088">
        <ele>1194.58</ele>
        <time>2017-04-12T11:59:48Z</time>
      </trkpt>
      <trkpt lat="45.3614" lon="4.5208">
        <ele>1194.09</ele>
        <time>2017-04-12T11:59:49Z</time>
      </trkpt>
      <trkpt lat="45.36144" lon="4.52072">
        <ele>1193.13</ele>
        <time>2017-04-12T11:59:50Z</time>
      </trkpt>
      <trkpt lat="45.36156" lon="4.52048">
        <ele>1190.73</ele>
        <time>2017-04-12T11:59:53Z</time>
      </trkpt>
      <trkpt lat="45.3616" lon="4.52041">
        <ele>1189.77</ele>
        <time>2017-04-12T11:59:54Z</time>
      </trkpt>
      <trkpt lat="45.36164" lon="4.52034">
        <ele>1189.77</ele>
        <time>2017-04-12T11:59:55Z</time>
      </trkpt>
      <trkpt lat="45.36168" lon="4.52025">
        <ele>1188.81</ele>
        <time>2017-04-12T11:59:56Z</time>
      </trkpt>
      <trkpt lat="45.36171" lon="4.52017">
        <ele>1187.85</ele>
        <time>2017-04-12T11:59:57Z</time>
      </trkpt>
      <trkpt lat="45.36174" lon="4.52007">
        <ele>1187.37</ele>
        <time>2017-04-12T11:59:58Z</time>
      </trkpt>
      <trkpt lat="45.36176" lon="4.51997">
        <ele>1185.92</ele>
        <time>2017-04-12T11:59:59Z</time>
      </trkpt>
      <trkpt lat="45.36178" lon="4.51988">
        <ele>1184.96</ele>
        <time>2017-04-12T12:00:00Z</time>
      </trkpt>
      <trkpt lat="45.3618" lon="4.5198">
        <ele>1183.52</ele>
        <time>2017-04-12T12:00:01Z</time>
      </trkpt>
      <trkpt lat="45.36192" lon="4.51956">
        <ele>1180.64</ele>
        <time>2017-04-12T12:00:06Z</time>
      </trkpt>
      <trkpt lat="45.36196" lon="4.51953">
        <ele>1180.64</ele>
        <time>2017-04-12T12:00:07Z</time>
      </trkpt>
      <trkpt lat="45.362" lon="4.5195">
        <ele>1180.16</ele>
        <time>2017-04-12T12:00:08Z</time>
      </trkpt>
      <trkpt lat="45.36204" lon="4.51945">
        <ele>1180.16</ele>
        <time>2017-04-12T12:00:09Z</time>
      </trkpt>
      <trkpt lat="45.36208" lon="4.5194">
        <ele>1179.67</ele>
        <time>2017-04-12T12:00:10Z</time>
      </trkpt>
      <trkpt lat="45.36211" lon="4.51933">
        <ele>1179.19</ele>
        <time>2017-04-12T12:00:11Z</time>
      </trkpt>
      <trkpt lat="45.36215" lon="4.51925">
        <ele>1178.23</ele>
        <time>2017-04-12T12:00:12Z</time>
      </trkpt>
      <trkpt lat="45.36224" lon="4.51908">
        <ele>1176.79</ele>
        <time>2017-04-12T12:00:14Z</time>
      </trkpt>
      <trkpt lat="45.36228" lon="4.51897">
        <ele>1170.54</ele>
        <time>2017-04-12T12:00:15Z</time>
      </trkpt>
      <trkpt lat="45.36231" lon="4.51886">
        <ele>1183.52</ele>
        <time>2017-04-12T12:00:16Z</time>
      </trkpt>
      <trkpt lat="45.36235" lon="4.51874">
        <ele>1175.83</ele>
        <time>2017-04-12T12:00:17Z</time>
      </trkpt>
      <trkpt lat="45.36245" lon="4.51842">
        <ele>1173.43</ele>
        <time>2017-04-12T12:00:20Z</time>
      </trkpt>
      <trkpt lat="45.3625" lon="4.51834">
        <ele>1172.95</ele>
        <time>2017-04-12T12:00:21Z</time>
      </trkpt>
      <trkpt lat="45.36271" lon="4.51813">
        <ele>1170.06</ele>
        <time>2017-04-12T12:00:24Z</time>
      </trkpt>
      <trkpt lat="45.36279" lon="4.51809">
        <ele>1169.1</ele>
        <time>2017-04-12T12:00:25Z</time>
      </trkpt>
      <trkpt lat="45.36288" lon="4.51806">
        <ele>1168.14</ele>
        <time>2017-04-12T12:00:26Z</time>
      </trkpt>
      <trkpt lat="45.36297" lon="4.51803">
        <ele>1166.7</ele>
        <time>2017-04-12T12:00:27Z</time>
      </trkpt>
      <trkpt lat="45.36306" lon="4.518">
        <ele>1165.74</ele>
        <time>2017-04-12T12:00:28Z</time>
      </trkpt>
      <trkpt lat="45.3632" lon="4.51796">
        <ele>1163.81</ele>
        <time>2017-04-12T12:00:30Z</time>
      </trkpt>
      <trkpt lat="45.36325" lon="4.51791">
        <ele>1163.33</ele>
        <time>2017-04-12T12:00:31Z</time>
      </trkpt>
      <trkpt lat="45.36314" lon="4.51762">
        <ele>1162.37</ele>
        <time>2017-04-12T12:00:36Z</time>
      </trkpt>
      <trkpt lat="45.36309" lon="4.51758">
        <ele>1162.37</ele>
        <time>2017-04-12T12:00:37Z</time>
      </trkpt>
      <trkpt lat="45.36296" lon="4.51745">
        <ele>1161.89</ele>
        <time>2017-04-12T12:00:40Z</time>
      </trkpt>
      <trkpt lat="45.36293" lon="4.5174">
        <ele>1162.37</ele>
        <time>2017-04-12T12:00:41Z</time>
      </trkpt>
      <trkpt lat="45.36291" lon="4.51733">
        <ele>1162.37</ele>
        <time>2017-04-12T12:00:42Z</time>
      </trkpt>
      <trkpt lat="45.36289" lon="4.51726">
        <ele>1161.89</ele>
        <time>2017-04-12T12:00:43Z</time>
      </trkpt>
      <trkpt lat="45.36288" lon="4.51719">
        <ele>1161.89</ele>
        <time>2017-04-12T12:00:44Z</time>
      </trkpt>
      <trkpt lat="45.36287" lon="4.51712">
        <ele>1162.85</ele>
        <time>2017-04-12T12:00:45Z</time>
      </trkpt>
      <trkpt lat="45.36287" lon="4.51704">
        <ele>1162.37</ele>
        <time>2017-04-12T12:00:46Z</time>
      </trkpt>
      <trkpt lat="45.36288" lon="4.51699">
        <ele>1162.37</ele>
        <time>2017-04-12T12:00:47Z</time>
      </trkpt>
      <trkpt lat="45.36288" lon="4.51693">
        <ele>1163.81</ele>
        <time>2017-04-12T12:00:48Z</time>
      </trkpt>
      <trkpt lat="45.36292" lon="4.51634">
        <ele>1164.77</ele>
        <time>2017-04-12T12:01:02Z</time>
      </trkpt>
      <trkpt lat="45.36291" lon="4.51631">
        <ele>1165.26</ele>
        <time>2017-04-12T12:01:03Z</time>
      </trkpt>
      <trkpt lat="45.36291" lon="4.51629">
        <ele>1165.74</ele>
        <time>2017-04-12T12:01:04Z</time>
      </trkpt>
      <trkpt lat="45.36291" lon="4.51626">
        <ele>1165.74</ele>
        <time>2017-04-12T12:01:05Z</time>
      </trkpt>
      <trkpt lat="45.3629" lon="4.51619">
        <ele>1166.22</ele>
        <time>2017-04-12T12:01:08Z</time>
      </trkpt>
      <trkpt lat="45.36289" lon="4.51616">
        <ele>1166.7</ele>
        <time>2017-04-12T12:01:09Z</time>
      </trkpt>
      <trkpt lat="45.36289" lon="4.51614">
        <ele>1166.7</ele>
        <time>2017-04-12T12:01:10Z</time>
      </trkpt>
      <trkpt lat="45.36288" lon="4.51612">
        <ele>1166.7</ele>
        <time>2017-04-12T12:01:11Z</time>
      </trkpt>
      <trkpt lat="45.36287" lon="4.51609">
        <ele>1167.18</ele>
        <time>2017-04-12T12:01:12Z</time>
      </trkpt>
      <trkpt lat="45.36285" lon="4.51597">
        <ele>1168.62</ele>
        <time>2017-04-12T12:01:18Z</time>
      </trkpt>
      <trkpt lat="45.36281" lon="4.51582">
        <ele>1170.06</ele>
        <time>2017-04-12T12:01:26Z</time>
      </trkpt>
      <trkpt lat="45.3628" lon="4.51563">
        <ele>1171.5</ele>
        <time>2017-04-12T12:01:37Z</time>
      </trkpt>
      <trkpt lat="45.36281" lon="4.5155">
        <ele>1172.95</ele>
        <time>2017-04-12T12:01:45Z</time>
      </trkpt>
      <trkpt lat="45.36283" lon="4.51528">
        <ele>1174.87</ele>
        <time>2017-04-12T12:01:58Z</time>
      </trkpt>
      <trkpt lat="45.36284" lon="4.51525">
        <ele>1175.35</ele>
        <time>2017-04-12T12:02:01Z</time>
      </trkpt>
      <trkpt lat="45.36285" lon="4.51523">
        <ele>1175.35</ele>
        <time>2017-04-12T12:02:02Z</time>
      </trkpt>
      <trkpt lat="45.36287" lon="4.51498">
        <ele>1177.75</ele>
        <time>2017-04-12T12:02:16Z</time>
      </trkpt>
      <trkpt lat="45.36288" lon="4.51481">
        <ele>1178.71</ele>
        <time>2017-04-12T12:02:24Z</time>
      </trkpt>
      <trkpt lat="45.36288" lon="4.51476">
        <ele>1178.71</ele>
        <time>2017-04-12T12:02:27Z</time>
      </trkpt>
      <trkpt lat="45.36288" lon="4.51474">
        <ele>1179.19</ele>
        <time>2017-04-12T12:02:28Z</time>
      </trkpt>
      <trkpt lat="45.36288" lon="4.51472">
        <ele>1179.19</ele>
        <time>2017-04-12T12:02:29Z</time>
      </trkpt>
      <trkpt lat="45.36288" lon="4.5147">
        <ele>1179.19</ele>
        <time>2017-04-12T12:02:30Z</time>
      </trkpt>
      <trkpt lat="45.36288" lon="4.51467">
        <ele>1179.67</ele>
        <time>2017-04-12T12:02:31Z</time>
      </trkpt>
      <trkpt lat="45.36287" lon="4.51462">
        <ele>1179.67</ele>
        <time>2017-04-12T12:02:33Z</time>
      </trkpt>
      <trkpt lat="45.36291" lon="4.51442">
        <ele>1180.64</ele>
        <time>2017-04-12T12:02:43Z</time>
      </trkpt>
      <trkpt lat="45.36291" lon="4.51441">
        <ele>1180.64</ele>
        <time>2017-04-12T12:02:44Z</time>
      </trkpt>
      <trkpt lat="45.36292" lon="4.51439">
        <ele>1180.64</ele>
        <time>2017-04-12T12:02:45Z</time>
      </trkpt>
      <trkpt lat="45.36292" lon="4.51437">
        <ele>1180.64</ele>
        <time>2017-04-12T12:02:46Z</time>
      </trkpt>
      <trkpt lat="45.36292" lon="4.51434">
        <ele>1180.64</ele>
        <time>2017-04-12T12:02:47Z</time>
      </trkpt>
      <trkpt lat="45.36292" lon="4.51433">
        <ele>1180.64</ele>
        <time>2017-04-12T12:02:48Z</time>
      </trkpt>
      <trkpt lat="45.36292" lon="4.51431">
        <ele>1180.64</ele>
        <time>2017-04-12T12:02:49Z</time>
      </trkpt>
      <trkpt lat="45.36292" lon="4.51423">
        <ele>1180.64</ele>
        <time>2017-04-12T12:02:53Z</time>
      </trkpt>
      <trkpt lat="45.36292" lon="4.51419">
        <ele>1180.64</ele>
        <time>2017-04-12T12:02:55Z</time>
      </trkpt>
      <trkpt lat="45.36292" lon="4.51417">
        <ele>1182.08</ele>
        <time>2017-04-12T12:02:56Z</time>
      </trkpt>
      <trkpt lat="45.36292" lon="4.51413">
        <ele>1182.56</ele>
        <time>2017-04-12T12:02:58Z</time>
      </trkpt>
      <trkpt lat="45.36291" lon="4.5141">
        <ele>1182.56</ele>
        <time>2017-04-12T12:02:59Z</time>
      </trkpt>
      <trkpt lat="45.3629" lon="4.51391">
        <ele>1183.52</ele>
        <time>2017-04-12T12:03:08Z</time>
      </trkpt>
      <trkpt lat="45.3629" lon="4.51377">
        <ele>1184.48</ele>
        <time>2017-04-12T12:03:13Z</time>
      </trkpt>
      <trkpt lat="45.36289" lon="4.51374">
        <ele>1184</ele>
        <time>2017-04-12T12:03:14Z</time>
      </trkpt>
      <trkpt lat="45.36284" lon="4.5133">
        <ele>1185.44</ele>
        <time>2017-04-12T12:03:27Z</time>
      </trkpt>
      <trkpt lat="45.36267" lon="4.51283">
        <ele>1185.92</ele>
        <time>2017-04-12T12:03:40Z</time>
      </trkpt>
      <trkpt lat="45.36264" lon="4.5128">
        <ele>1185.92</ele>
        <time>2017-04-12T12:03:50Z</time>
      </trkpt>
      <trkpt lat="45.36263" lon="4.51275">
        <ele>1185.92</ele>
        <time>2017-04-12T12:04:02Z</time>
      </trkpt>
      <trkpt lat="45.36263" lon="4.51272">
        <ele>1185.44</ele>
        <time>2017-04-12T12:04:03Z</time>
      </trkpt>
      <trkpt lat="45.36262" lon="4.51269">
        <ele>1185.92</ele>
        <time>2017-04-12T12:04:04Z</time>
      </trkpt>
      <trkpt lat="45.36262" lon="4.51266">
        <ele>1185.92</ele>
        <time>2017-04-12T12:04:05Z</time>
      </trkpt>
      <trkpt lat="45.36262" lon="4.51263">
        <ele>1185.44</ele>
        <time>2017-04-12T12:04:06Z</time>
      </trkpt>
      <trkpt lat="45.3626" lon="4.51258">
        <ele>1184.96</ele>
        <time>2017-04-12T12:04:07Z</time>
      </trkpt>
      <trkpt lat="45.36258" lon="4.51255">
        <ele>1184.96</ele>
        <time>2017-04-12T12:04:08Z</time>
      </trkpt>
      <trkpt lat="45.36255" lon="4.51247">
        <ele>1184.96</ele>
        <time>2017-04-12T12:04:10Z</time>
      </trkpt>
      <trkpt lat="45.36254" lon="4.51243">
        <ele>1184.48</ele>
        <time>2017-04-12T12:04:11Z</time>
      </trkpt>
      <trkpt lat="45.36253" lon="4.51238">
        <ele>1184.48</ele>
        <time>2017-04-12T12:04:12Z</time>
      </trkpt>
      <trkpt lat="45.36229" lon="4.51207">
        <ele>1183.52</ele>
        <time>2017-04-12T12:04:21Z</time>
      </trkpt>
      <trkpt lat="45.36193" lon="4.51178">
        <ele>1183.04</ele>
        <time>2017-04-12T12:04:31Z</time>
      </trkpt>
      <trkpt lat="45.36189" lon="4.51174">
        <ele>1183.04</ele>
        <time>2017-04-12T12:04:32Z</time>
      </trkpt>
      <trkpt lat="45.36184" lon="4.51171">
        <ele>1183.04</ele>
        <time>2017-04-12T12:04:33Z</time>
      </trkpt>
      <trkpt lat="45.3618" lon="4.51169">
        <ele>1183.04</ele>
        <time>2017-04-12T12:04:34Z</time>
      </trkpt>
      <trkpt lat="45.36175" lon="4.51166">
        <ele>1183.04</ele>
        <time>2017-04-12T12:04:35Z</time>
      </trkpt>
      <trkpt lat="45.36142" lon="4.5115">
        <ele>1182.08</ele>
        <time>2017-04-12T12:04:42Z</time>
      </trkpt>
      <trkpt lat="45.36138" lon="4.51149">
        <ele>1182.08</ele>
        <time>2017-04-12T12:04:43Z</time>
      </trkpt>
      <trkpt lat="45.36133" lon="4.51148">
        <ele>1182.08</ele>
        <time>2017-04-12T12:04:44Z</time>
      </trkpt>
      <trkpt lat="45.36128" lon="4.51147">
        <ele>1181.6</ele>
        <time>2017-04-12T12:04:45Z</time>
      </trkpt>
      <trkpt lat="45.36123" lon="4.51144">
        <ele>1182.08</ele>
        <time>2017-04-12T12:04:46Z</time>
      </trkpt>
      <trkpt lat="45.36119" lon="4.51141">
        <ele>1181.6</ele>
        <time>2017-04-12T12:04:47Z</time>
      </trkpt>
      <trkpt lat="45.36112" lon="4.51134">
        <ele>1181.6</ele>
        <time>2017-04-12T12:04:49Z</time>
      </trkpt>
      <trkpt lat="45.36092" lon="4.51112">
        <ele>1180.16</ele>
        <time>2017-04-12T12:04:53Z</time>
      </trkpt>
      <trkpt lat="45.36087" lon="4.51108">
        <ele>1180.16</ele>
        <time>2017-04-12T12:04:54Z</time>
      </trkpt>
      <trkpt lat="45.36082" lon="4.51102">
        <ele>1179.67</ele>
        <time>2017-04-12T12:04:55Z</time>
      </trkpt>
      <trkpt lat="45.36068" lon="4.51087">
        <ele>1179.19</ele>
        <time>2017-04-12T12:04:58Z</time>
      </trkpt>
      <trkpt lat="45.36053" lon="4.51077">
        <ele>1178.23</ele>
        <time>2017-04-12T12:05:01Z</time>
      </trkpt>
      <trkpt lat="45.36026" lon="4.51064">
        <ele>1177.27</ele>
        <time>2017-04-12T12:05:06Z</time>
      </trkpt>
      <trkpt lat="45.36022" lon="4.51061">
        <ele>1177.27</ele>
        <time>2017-04-12T12:05:07Z</time>
      </trkpt>
      <trkpt lat="45.36017" lon="4.51058">
        <ele>1176.79</ele>
        <time>2017-04-12T12:05:08Z</time>
      </trkpt>
      <trkpt lat="45.36007" lon="4.51054">
        <ele>1176.31</ele>
        <time>2017-04-12T12:05:10Z</time>
      </trkpt>
      <trkpt lat="45.35996" lon="4.51052">
        <ele>1175.35</ele>
        <time>2017-04-12T12:05:12Z</time>
      </trkpt>
      <trkpt lat="45.35979" lon="4.51051">
        <ele>1175.35</ele>
        <time>2017-04-12T12:05:15Z</time>
      </trkpt>
      <trkpt lat="45.3596" lon="4.51044">
        <ele>1173.91</ele>
        <time>2017-04-12T12:05:18Z</time>
      </trkpt>
      <trkpt lat="45.35947" lon="4.51043">
        <ele>1173.43</ele>
        <time>2017-04-12T12:05:20Z</time>
      </trkpt>
      <trkpt lat="45.35929" lon="4.51043">
        <ele>1172.47</ele>
        <time>2017-04-12T12:05:23Z</time>
      </trkpt>
      <trkpt lat="45.35923" lon="4.51042">
        <ele>1171.98</ele>
        <time>2017-04-12T12:05:24Z</time>
      </trkpt>
      <trkpt lat="45.35916" lon="4.51039">
        <ele>1171.02</ele>
        <time>2017-04-12T12:05:25Z</time>
      </trkpt>
      <trkpt lat="45.3591" lon="4.51035">
        <ele>1170.54</ele>
        <time>2017-04-12T12:05:26Z</time>
      </trkpt>
      <trkpt lat="45.35903" lon="4.51031">
        <ele>1169.58</ele>
        <time>2017-04-12T12:05:27Z</time>
      </trkpt>
      <trkpt lat="45.35896" lon="4.51027">
        <ele>1169.58</ele>
        <time>2017-04-12T12:05:28Z</time>
      </trkpt>
      <trkpt lat="45.35888" lon="4.51025">
        <ele>1168.62</ele>
        <time>2017-04-12T12:05:29Z</time>
      </trkpt>
      <trkpt lat="45.35879" lon="4.51024">
        <ele>1168.14</ele>
        <time>2017-04-12T12:05:30Z</time>
      </trkpt>
      <trkpt lat="45.35871" lon="4.51023">
        <ele>1168.14</ele>
        <time>2017-04-12T12:05:31Z</time>
      </trkpt>
      <trkpt lat="45.35862" lon="4.51024">
        <ele>1168.62</ele>
        <time>2017-04-12T12:05:32Z</time>
      </trkpt>
      <trkpt lat="45.35831" lon="4.51022">
        <ele>1166.7</ele>
        <time>2017-04-12T12:05:36Z</time>
      </trkpt>
      <trkpt lat="45.35775" lon="4.51025">
        <ele>1164.29</ele>
        <time>2017-04-12T12:05:45Z</time>
      </trkpt>
      <trkpt lat="45.35767" lon="4.51027">
        <ele>1164.29</ele>
        <time>2017-04-12T12:05:47Z</time>
      </trkpt>
      <trkpt lat="45.35763" lon="4.51028">
        <ele>1164.29</ele>
        <time>2017-04-12T12:05:48Z</time>
      </trkpt>
      <trkpt lat="45.35758" lon="4.5103">
        <ele>1164.29</ele>
        <time>2017-04-12T12:05:49Z</time>
      </trkpt>
      <trkpt lat="45.35712" lon="4.51058">
        <ele>1164.29</ele>
        <time>2017-04-12T12:06:00Z</time>
      </trkpt>
      <trkpt lat="45.35672" lon="4.51093">
        <ele>1163.81</ele>
        <time>2017-04-12T12:06:10Z</time>
      </trkpt>
      <trkpt lat="45.35669" lon="4.51098">
        <ele>1163.33</ele>
        <time>2017-04-12T12:06:11Z</time>
      </trkpt>
      <trkpt lat="45.35662" lon="4.51108">
        <ele>1163.33</ele>
        <time>2017-04-12T12:06:13Z</time>
      </trkpt>
      <trkpt lat="45.35658" lon="4.5111">
        <ele>1162.85</ele>
        <time>2017-04-12T12:06:14Z</time>
      </trkpt>
      <trkpt lat="45.35654" lon="4.5111">
        <ele>1162.85</ele>
        <time>2017-04-12T12:06:15Z</time>
      </trkpt>
      <trkpt lat="45.3565" lon="4.51109">
        <ele>1161.89</ele>
        <time>2017-04-12T12:06:16Z</time>
      </trkpt>
      <trkpt lat="45.35647" lon="4.51106">
        <ele>1161.41</ele>
        <time>2017-04-12T12:06:17Z</time>
      </trkpt>
      <trkpt lat="45.35646" lon="4.51101">
        <ele>1161.41</ele>
        <time>2017-04-12T12:06:18Z</time>
      </trkpt>
      <trkpt lat="45.35646" lon="4.51095">
        <ele>1160.93</ele>
        <time>2017-04-12T12:06:19Z</time>
      </trkpt>
      <trkpt lat="45.35649" lon="4.5109">
        <ele>1160.93</ele>
        <time>2017-04-12T12:06:20Z</time>
      </trkpt>
      <trkpt lat="45.35652" lon="4.51086">
        <ele>1160.45</ele>
        <time>2017-04-12T12:06:21Z</time>
      </trkpt>
      <trkpt lat="45.35656" lon="4.5108">
        <ele>1159.97</ele>
        <time>2017-04-12T12:06:22Z</time>
      </trkpt>
      <trkpt lat="45.35659" lon="4.51074">
        <ele>1159.97</ele>
        <time>2017-04-12T12:06:23Z</time>
      </trkpt>
      <trkpt lat="45.35663" lon="4.51066">
        <ele>1159.01</ele>
        <time>2017-04-12T12:06:24Z</time>
      </trkpt>
      <trkpt lat="45.35684" lon="4.51025">
        <ele>1156.6</ele>
        <time>2017-04-12T12:06:30Z</time>
      </trkpt>
      <trkpt lat="45.35687" lon="4.51018">
        <ele>1155.16</ele>
        <time>2017-04-12T12:06:31Z</time>
      </trkpt>
      <trkpt lat="45.35703" lon="4.5099">
        <ele>1154.2</ele>
        <time>2017-04-12T12:06:35Z</time>
      </trkpt>
      <trkpt lat="45.35712" lon="4.50976">
        <ele>1153.24</ele>
        <time>2017-04-12T12:06:37Z</time>
      </trkpt>
      <trkpt lat="45.35727" lon="4.50954">
        <ele>1151.8</ele>
        <time>2017-04-12T12:06:40Z</time>
      </trkpt>
      <trkpt lat="45.35733" lon="4.50947">
        <ele>1151.8</ele>
        <time>2017-04-12T12:06:41Z</time>
      </trkpt>
      <trkpt lat="45.35745" lon="4.50936">
        <ele>1151.32</ele>
        <time>2017-04-12T12:06:43Z</time>
      </trkpt>
      <trkpt lat="45.35752" lon="4.50931">
        <ele>1150.84</ele>
        <time>2017-04-12T12:06:44Z</time>
      </trkpt>
      <trkpt lat="45.35793" lon="4.50891">
        <ele>1149.87</ele>
        <time>2017-04-12T12:06:51Z</time>
      </trkpt>
      <trkpt lat="45.3581" lon="4.50873">
        <ele>1146.99</ele>
        <time>2017-04-12T12:06:54Z</time>
      </trkpt>
      <trkpt lat="45.35829" lon="4.50858">
        <ele>1145.07</ele>
        <time>2017-04-12T12:06:57Z</time>
      </trkpt>
      <trkpt lat="45.35836" lon="4.50854">
        <ele>1145.07</ele>
        <time>2017-04-12T12:06:58Z</time>
      </trkpt>
      <trkpt lat="45.35843" lon="4.50852">
        <ele>1143.63</ele>
        <time>2017-04-12T12:06:59Z</time>
      </trkpt>
      <trkpt lat="45.35851" lon="4.50851">
        <ele>1143.63</ele>
        <time>2017-04-12T12:07:00Z</time>
      </trkpt>
      <trkpt lat="45.35859" lon="4.5085">
        <ele>1143.14</ele>
        <time>2017-04-12T12:07:01Z</time>
      </trkpt>
      <trkpt lat="45.35867" lon="4.50846">
        <ele>1142.66</ele>
        <time>2017-04-12T12:07:02Z</time>
      </trkpt>
      <trkpt lat="45.35874" lon="4.50842">
        <ele>1142.18</ele>
        <time>2017-04-12T12:07:03Z</time>
      </trkpt>
      <trkpt lat="45.3588" lon="4.50836">
        <ele>1141.7</ele>
        <time>2017-04-12T12:07:04Z</time>
      </trkpt>
      <trkpt lat="45.35884" lon="4.50828">
        <ele>1140.74</ele>
        <time>2017-04-12T12:07:05Z</time>
      </trkpt>
      <trkpt lat="45.35888" lon="4.50819">
        <ele>1140.74</ele>
        <time>2017-04-12T12:07:06Z</time>
      </trkpt>
      <trkpt lat="45.35892" lon="4.50811">
        <ele>1140.74</ele>
        <time>2017-04-12T12:07:07Z</time>
      </trkpt>
      <trkpt lat="45.35897" lon="4.50803">
        <ele>1140.74</ele>
        <time>2017-04-12T12:07:08Z</time>
      </trkpt>
      <trkpt lat="45.35902" lon="4.50795">
        <ele>1139.3</ele>
        <time>2017-04-12T12:07:09Z</time>
      </trkpt>
      <trkpt lat="45.35907" lon="4.50787">
        <ele>1138.82</ele>
        <time>2017-04-12T12:07:10Z</time>
      </trkpt>
      <trkpt lat="45.35926" lon="4.50755">
        <ele>1136.42</ele>
        <time>2017-04-12T12:07:14Z</time>
      </trkpt>
      <trkpt lat="45.35941" lon="4.50728">
        <ele>1134.97</ele>
        <time>2017-04-12T12:07:17Z</time>
      </trkpt>
      <trkpt lat="45.35952" lon="4.50711">
        <ele>1134.01</ele>
        <time>2017-04-12T12:07:19Z</time>
      </trkpt>
      <trkpt lat="45.35971" lon="4.50671">
        <ele>1132.09</ele>
        <time>2017-04-12T12:07:23Z</time>
      </trkpt>
      <trkpt lat="45.35986" lon="4.50643">
        <ele>1130.17</ele>
        <time>2017-04-12T12:07:26Z</time>
      </trkpt>
      <trkpt lat="45.36046" lon="4.5056">
        <ele>1127.76</ele>
        <time>2017-04-12T12:07:37Z</time>
      </trkpt>
      <trkpt lat="45.36053" lon="4.50556">
        <ele>1127.28</ele>
        <time>2017-04-12T12:07:38Z</time>
      </trkpt>
      <trkpt lat="45.36058" lon="4.50552">
        <ele>1126.8</ele>
        <time>2017-04-12T12:07:39Z</time>
      </trkpt>
      <trkpt lat="45.36089" lon="4.50534">
        <ele>1126.8</ele>
        <time>2017-04-12T12:07:44Z</time>
      </trkpt>
      <trkpt lat="45.36095" lon="4.50532">
        <ele>1126.8</ele>
        <time>2017-04-12T12:07:45Z</time>
      </trkpt>
      <trkpt lat="45.36123" lon="4.50526">
        <ele>1126.32</ele>
        <time>2017-04-12T12:07:50Z</time>
      </trkpt>
      <trkpt lat="45.36166" lon="4.50516">
        <ele>1123.44</ele>
        <time>2017-04-12T12:07:57Z</time>
      </trkpt>
      <trkpt lat="45.36173" lon="4.50515">
        <ele>1122.96</ele>
        <time>2017-04-12T12:07:58Z</time>
      </trkpt>
      <trkpt lat="45.36198" lon="4.50514">
        <ele>1122</ele>
        <time>2017-04-12T12:08:02Z</time>
      </trkpt>
      <trkpt lat="45.36204" lon="4.50516">
        <ele>1121.52</ele>
        <time>2017-04-12T12:08:03Z</time>
      </trkpt>
      <trkpt lat="45.3621" lon="4.50519">
        <ele>1121.03</ele>
        <time>2017-04-12T12:08:04Z</time>
      </trkpt>
      <trkpt lat="45.36215" lon="4.50523">
        <ele>1120.55</ele>
        <time>2017-04-12T12:08:05Z</time>
      </trkpt>
      <trkpt lat="45.3622" lon="4.50528">
        <ele>1120.55</ele>
        <time>2017-04-12T12:08:06Z</time>
      </trkpt>
      <trkpt lat="45.36223" lon="4.50532">
        <ele>1120.55</ele>
        <time>2017-04-12T12:08:07Z</time>
      </trkpt>
      <trkpt lat="45.36226" lon="4.50537">
        <ele>1121.03</ele>
        <time>2017-04-12T12:08:08Z</time>
      </trkpt>
      <trkpt lat="45.36229" lon="4.5054">
        <ele>1121.03</ele>
        <time>2017-04-12T12:08:09Z</time>
      </trkpt>
      <trkpt lat="45.36231" lon="4.50544">
        <ele>1120.55</ele>
        <time>2017-04-12T12:08:10Z</time>
      </trkpt>
      <trkpt lat="45.36233" lon="4.50548">
        <ele>1121.03</ele>
        <time>2017-04-12T12:08:11Z</time>
      </trkpt>
      <trkpt lat="45.36251" lon="4.50594">
        <ele>1121.03</ele>
        <time>2017-04-12T12:08:23Z</time>
      </trkpt>
      <trkpt lat="45.36254" lon="4.50606">
        <ele>1120.55</ele>
        <time>2017-04-12T12:08:26Z</time>
      </trkpt>
      <trkpt lat="45.36267" lon="4.50657">
        <ele>1117.67</ele>
        <time>2017-04-12T12:08:37Z</time>
      </trkpt>
      <trkpt lat="45.36269" lon="4.50665">
        <ele>1117.19</ele>
        <time>2017-04-12T12:08:38Z</time>
      </trkpt>
      <trkpt lat="45.36272" lon="4.50673">
        <ele>1117.19</ele>
        <time>2017-04-12T12:08:39Z</time>
      </trkpt>
      <trkpt lat="45.36283" lon="4.50696">
        <ele>1115.27</ele>
        <time>2017-04-12T12:08:42Z</time>
      </trkpt>
      <trkpt lat="45.36292" lon="4.50726">
        <ele>1112.86</ele>
        <time>2017-04-12T12:08:45Z</time>
      </trkpt>
      <trkpt lat="45.36306" lon="4.50766">
        <ele>1109.5</ele>
        <time>2017-04-12T12:08:51Z</time>
      </trkpt>
      <trkpt lat="45.36317" lon="4.50772">
        <ele>1106.13</ele>
        <time>2017-04-12T12:08:54Z</time>
      </trkpt>
      <trkpt lat="45.36325" lon="4.50774">
        <ele>1105.17</ele>
        <time>2017-04-12T12:08:56Z</time>
      </trkpt>
      <trkpt lat="45.36328" lon="4.50773">
        <ele>1104.21</ele>
        <time>2017-04-12T12:08:57Z</time>
      </trkpt>
      <trkpt lat="45.36331" lon="4.50771">
        <ele>1104.21</ele>
        <time>2017-04-12T12:08:58Z</time>
      </trkpt>
      <trkpt lat="45.36334" lon="4.50769">
        <ele>1103.73</ele>
        <time>2017-04-12T12:08:59Z</time>
      </trkpt>
      <trkpt lat="45.36336" lon="4.50767">
        <ele>1103.73</ele>
        <time>2017-04-12T12:09:00Z</time>
      </trkpt>
      <trkpt lat="45.36337" lon="4.50765">
        <ele>1104.21</ele>
        <time>2017-04-12T12:09:01Z</time>
      </trkpt>
      <trkpt lat="45.36358" lon="4.50746">
        <ele>1106.13</ele>
        <time>2017-04-12T12:09:14Z</time>
      </trkpt>
      <trkpt lat="45.3636" lon="4.50744">
        <ele>1106.13</ele>
        <time>2017-04-12T12:09:15Z</time>
      </trkpt>
      <trkpt lat="45.36362" lon="4.50742">
        <ele>1106.61</ele>
        <time>2017-04-12T12:09:16Z</time>
      </trkpt>
      <trkpt lat="45.36364" lon="4.50738">
        <ele>1107.1</ele>
        <time>2017-04-12T12:09:18Z</time>
      </trkpt>
      <trkpt lat="45.36365" lon="4.50737">
        <ele>1107.1</ele>
        <time>2017-04-12T12:09:19Z</time>
      </trkpt>
      <trkpt lat="45.36367" lon="4.50736">
        <ele>1107.1</ele>
        <time>2017-04-12T12:09:20Z</time>
      </trkpt>
      <trkpt lat="45.36368" lon="4.50735">
        <ele>1107.58</ele>
        <time>2017-04-12T12:09:21Z</time>
      </trkpt>
      <trkpt lat="45.3637" lon="4.50734">
        <ele>1107.58</ele>
        <time>2017-04-12T12:09:22Z</time>
      </trkpt>
      <trkpt lat="45.36371" lon="4.50733">
        <ele>1107.58</ele>
        <time>2017-04-12T12:09:23Z</time>
      </trkpt>
      <trkpt lat="45.36373" lon="4.50732">
        <ele>1108.06</ele>
        <time>2017-04-12T12:09:24Z</time>
      </trkpt>
      <trkpt lat="45.36375" lon="4.50732">
        <ele>1108.54</ele>
        <time>2017-04-12T12:09:25Z</time>
      </trkpt>
      <trkpt lat="45.3639" lon="4.50719">
        <ele>1109.02</ele>
        <time>2017-04-12T12:09:33Z</time>
      </trkpt>
      <trkpt lat="45.36391" lon="4.50717">
        <ele>1109.5</ele>
        <time>2017-04-12T12:09:34Z</time>
      </trkpt>
      <trkpt lat="45.36393" lon="4.50715">
        <ele>1109.5</ele>
        <time>2017-04-12T12:09:35Z</time>
      </trkpt>
      <trkpt lat="45.3642" lon="4.50686">
        <ele>1112.38</ele>
        <time>2017-04-12T12:09:51Z</time>
      </trkpt>
      <trkpt lat="45.36447" lon="4.50642">
        <ele>1109.98</ele>
        <time>2017-04-12T12:10:02Z</time>
      </trkpt>
      <trkpt lat="45.36468" lon="4.50602">
        <ele>1106.61</ele>
        <time>2017-04-12T12:10:07Z</time>
      </trkpt>
      <trkpt lat="45.36493" lon="4.50553">
        <ele>1103.73</ele>
        <time>2017-04-12T12:10:12Z</time>
      </trkpt>
      <trkpt lat="45.36515" lon="4.50517">
        <ele>1102.29</ele>
        <time>2017-04-12T12:10:16Z</time>
      </trkpt>
      <trkpt lat="45.36521" lon="4.50512">
        <ele>1102.29</ele>
        <time>2017-04-12T12:10:17Z</time>
      </trkpt>
      <trkpt lat="45.36527" lon="4.50508">
        <ele>1102.29</ele>
        <time>2017-04-12T12:10:18Z</time>
      </trkpt>
      <trkpt lat="45.36534" lon="4.50505">
        <ele>1101.81</ele>
        <time>2017-04-12T12:10:19Z</time>
      </trkpt>
      <trkpt lat="45.3654" lon="4.50504">
        <ele>1101.81</ele>
        <time>2017-04-12T12:10:20Z</time>
      </trkpt>
      <trkpt lat="45.36546" lon="4.50503">
        <ele>1101.81</ele>
        <time>2017-04-12T12:10:21Z</time>
      </trkpt>
      <trkpt lat="45.36552" lon="4.50503">
        <ele>1101.81</ele>
        <time>2017-04-12T12:10:22Z</time>
      </trkpt>
      <trkpt lat="45.36559" lon="4.50504">
        <ele>1101.33</ele>
        <time>2017-04-12T12:10:23Z</time>
      </trkpt>
      <trkpt lat="45.36565" lon="4.50506">
        <ele>1100.85</ele>
        <time>2017-04-12T12:10:24Z</time>
      </trkpt>
      <trkpt lat="45.36572" lon="4.50508">
        <ele>1100.37</ele>
        <time>2017-04-12T12:10:25Z</time>
      </trkpt>
      <trkpt lat="45.36585" lon="4.50511">
        <ele>1098.92</ele>
        <time>2017-04-12T12:10:27Z</time>
      </trkpt>
      <trkpt lat="45.3659" lon="4.50507">
        <ele>1098.44</ele>
        <time>2017-04-12T12:10:28Z</time>
      </trkpt>
      <trkpt lat="45.36593" lon="4.50502">
        <ele>1097.96</ele>
        <time>2017-04-12T12:10:29Z</time>
      </trkpt>
      <trkpt lat="45.36594" lon="4.50494">
        <ele>1097</ele>
        <time>2017-04-12T12:10:30Z</time>
      </trkpt>
      <trkpt lat="45.36593" lon="4.50485">
        <ele>1097</ele>
        <time>2017-04-12T12:10:31Z</time>
      </trkpt>
      <trkpt lat="45.36592" lon="4.50477">
        <ele>1097</ele>
        <time>2017-04-12T12:10:32Z</time>
      </trkpt>
      <trkpt lat="45.3658" lon="4.50372">
        <ele>1094.12</ele>
        <time>2017-04-12T12:10:46Z</time>
      </trkpt>
      <trkpt lat="45.36579" lon="4.50339">
        <ele>1093.16</ele>
        <time>2017-04-12T12:10:50Z</time>
      </trkpt>
      <trkpt lat="45.36589" lon="4.5031">
        <ele>1092.2</ele>
        <time>2017-04-12T12:10:58Z</time>
      </trkpt>
      <trkpt lat="45.36616" lon="4.50289">
        <ele>1090.75</ele>
        <time>2017-04-12T12:11:05Z</time>
      </trkpt>
      <trkpt lat="45.36621" lon="4.50287">
        <ele>1090.75</ele>
        <time>2017-04-12T12:11:06Z</time>
      </trkpt>
      <trkpt lat="45.36625" lon="4.50285">
        <ele>1090.27</ele>
        <time>2017-04-12T12:11:07Z</time>
      </trkpt>
      <trkpt lat="45.36696" lon="4.50275">
        <ele>1089.79</ele>
        <time>2017-04-12T12:11:22Z</time>
      </trkpt>
      <trkpt lat="45.36767" lon="4.5025">
        <ele>1091.23</ele>
        <time>2017-04-12T12:11:38Z</time>
      </trkpt>
      <trkpt lat="45.36816" lon="4.5021">
        <ele>1094.12</ele>
        <time>2017-04-12T12:11:53Z</time>
      </trkpt>
      <trkpt lat="45.36854" lon="4.5015">
        <ele>1095.08</ele>
        <time>2017-04-12T12:12:07Z</time>
      </trkpt>
      <trkpt lat="45.36877" lon="4.50049">
        <ele>1095.08</ele>
        <time>2017-04-12T12:12:24Z</time>
      </trkpt>
      <trkpt lat="45.36886" lon="4.49986">
        <ele>1098.44</ele>
        <time>2017-04-12T12:12:37Z</time>
      </trkpt>
      <trkpt lat="45.36906" lon="4.49911">
        <ele>1096.04</ele>
        <time>2017-04-12T12:12:49Z</time>
      </trkpt>
      <trkpt lat="45.36908" lon="4.49901">
        <ele>1096.04</ele>
        <time>2017-04-12T12:12:50Z</time>
      </trkpt>
      <trkpt lat="45.36914" lon="4.49871">
        <ele>1095.56</ele>
        <time>2017-04-12T12:12:53Z</time>
      </trkpt>
      <trkpt lat="45.36914" lon="4.49865">
        <ele>1095.56</ele>
        <time>2017-04-12T12:12:54Z</time>
      </trkpt>
      <trkpt lat="45.36913" lon="4.49856">
        <ele>1097</ele>
        <time>2017-04-12T12:12:55Z</time>
      </trkpt>
      <trkpt lat="45.36911" lon="4.49848">
        <ele>1096.04</ele>
        <time>2017-04-12T12:12:56Z</time>
      </trkpt>
      <trkpt lat="45.36909" lon="4.49841">
        <ele>1095.56</ele>
        <time>2017-04-12T12:12:57Z</time>
      </trkpt>
      <trkpt lat="45.36906" lon="4.49835">
        <ele>1095.56</ele>
        <time>2017-04-12T12:12:58Z</time>
      </trkpt>
      <trkpt lat="45.36902" lon="4.49831">
        <ele>1096.04</ele>
        <time>2017-04-12T12:12:59Z</time>
      </trkpt>
      <trkpt lat="45.36897" lon="4.49827">
        <ele>1096.04</ele>
        <time>2017-04-12T12:13:00Z</time>
      </trkpt>
      <trkpt lat="45.36892" lon="4.49824">
        <ele>1096.04</ele>
        <time>2017-04-12T12:13:01Z</time>
      </trkpt>
      <trkpt lat="45.3685" lon="4.49793">
        <ele>1097</ele>
        <time>2017-04-12T12:13:11Z</time>
      </trkpt>
      <trkpt lat="45.36847" lon="4.49789">
        <ele>1097</ele>
        <time>2017-04-12T12:13:12Z</time>
      </trkpt>
      <trkpt lat="45.36844" lon="4.49784">
        <ele>1097.48</ele>
        <time>2017-04-12T12:13:13Z</time>
      </trkpt>
      <trkpt lat="45.36842" lon="4.49778">
        <ele>1097.48</ele>
        <time>2017-04-12T12:13:14Z</time>
      </trkpt>
      <trkpt lat="45.3684" lon="4.49772">
        <ele>1097.48</ele>
        <time>2017-04-12T12:13:15Z</time>
      </trkpt>
      <trkpt lat="45.36839" lon="4.49766">
        <ele>1097.96</ele>
        <time>2017-04-12T12:13:16Z</time>
      </trkpt>
      <trkpt lat="45.36838" lon="4.4976">
        <ele>1097.96</ele>
        <time>2017-04-12T12:13:17Z</time>
      </trkpt>
      <trkpt lat="45.3683" lon="4.49659">
        <ele>1098.92</ele>
        <time>2017-04-12T12:13:33Z</time>
      </trkpt>
      <trkpt lat="45.36817" lon="4.49585">
        <ele>1096.52</ele>
        <time>2017-04-12T12:13:43Z</time>
      </trkpt>
      <trkpt lat="45.36812" lon="4.49555">
        <ele>1095.08</ele>
        <time>2017-04-12T12:13:47Z</time>
      </trkpt>
      <trkpt lat="45.3681" lon="4.4955">
        <ele>1094.6</ele>
        <time>2017-04-12T12:13:48Z</time>
      </trkpt>
      <trkpt lat="45.36808" lon="4.49547">
        <ele>1094.12</ele>
        <time>2017-04-12T12:13:49Z</time>
      </trkpt>
      <trkpt lat="45.36805" lon="4.49548">
        <ele>1094.12</ele>
        <time>2017-04-12T12:13:50Z</time>
      </trkpt>
      <trkpt lat="45.36802" lon="4.49552">
        <ele>1094.12</ele>
        <time>2017-04-12T12:13:51Z</time>
      </trkpt>
      <trkpt lat="45.368" lon="4.49557">
        <ele>1093.64</ele>
        <time>2017-04-12T12:13:52Z</time>
      </trkpt>
      <trkpt lat="45.36799" lon="4.49563">
        <ele>1093.64</ele>
        <time>2017-04-12T12:13:53Z</time>
      </trkpt>
      <trkpt lat="45.36797" lon="4.49569">
        <ele>1093.16</ele>
        <time>2017-04-12T12:13:54Z</time>
      </trkpt>
      <trkpt lat="45.3679" lon="4.49586">
        <ele>1092.68</ele>
        <time>2017-04-12T12:13:57Z</time>
      </trkpt>
      <trkpt lat="45.36753" lon="4.49638">
        <ele>1089.31</ele>
        <time>2017-04-12T12:14:06Z</time>
      </trkpt>
      <trkpt lat="45.36748" lon="4.49644">
        <ele>1089.31</ele>
        <time>2017-04-12T12:14:07Z</time>
      </trkpt>
      <trkpt lat="45.36743" lon="4.4965">
        <ele>1088.83</ele>
        <time>2017-04-12T12:14:08Z</time>
      </trkpt>
      <trkpt lat="45.36727" lon="4.49671">
        <ele>1086.43</ele>
        <time>2017-04-12T12:14:13Z</time>
      </trkpt>
      <trkpt lat="45.36725" lon="4.4967">
        <ele>1085.95</ele>
        <time>2017-04-12T12:14:14Z</time>
      </trkpt>
      <trkpt lat="45.3671" lon="4.49656">
        <ele>1085.95</ele>
        <time>2017-04-12T12:14:24Z</time>
      </trkpt>
      <trkpt lat="45.36708" lon="4.49654">
        <ele>1085.47</ele>
        <time>2017-04-12T12:14:25Z</time>
      </trkpt>
      <trkpt lat="45.36719" lon="4.49608">
        <ele>1085.95</ele>
        <time>2017-04-12T12:14:36Z</time>
      </trkpt>
      <trkpt lat="45.36726" lon="4.49586">
        <ele>1085.47</ele>
        <time>2017-04-12T12:14:41Z</time>
      </trkpt>
      <trkpt lat="45.3671" lon="4.49574">
        <ele>1084.02</ele>
        <time>2017-04-12T12:14:47Z</time>
      </trkpt>
      <trkpt lat="45.36665" lon="4.49562">
        <ele>1078.74</ele>
        <time>2017-04-12T12:14:57Z</time>
      </trkpt>
      <trkpt lat="45.36662" lon="4.49561">
        <ele>1078.74</ele>
        <time>2017-04-12T12:14:58Z</time>
      </trkpt>
      <trkpt lat="45.36661" lon="4.49558">
        <ele>1077.78</ele>
        <time>2017-04-12T12:14:59Z</time>
      </trkpt>
      <trkpt lat="45.36661" lon="4.49553">
        <ele>1077.78</ele>
        <time>2017-04-12T12:15:00Z</time>
      </trkpt>
      <trkpt lat="45.36662" lon="4.49542">
        <ele>1077.29</ele>
        <time>2017-04-12T12:15:02Z</time>
      </trkpt>
      <trkpt lat="45.36663" lon="4.49536">
        <ele>1077.78</ele>
        <time>2017-04-12T12:15:03Z</time>
      </trkpt>
      <trkpt lat="45.36665" lon="4.49516">
        <ele>1077.29</ele>
        <time>2017-04-12T12:15:06Z</time>
      </trkpt>
      <trkpt lat="45.36666" lon="4.49509">
        <ele>1076.81</ele>
        <time>2017-04-12T12:15:07Z</time>
      </trkpt>
      <trkpt lat="45.36668" lon="4.49496">
        <ele>1076.81</ele>
        <time>2017-04-12T12:15:09Z</time>
      </trkpt>
      <trkpt lat="45.36668" lon="4.4949">
        <ele>1076.81</ele>
        <time>2017-04-12T12:15:10Z</time>
      </trkpt>
      <trkpt lat="45.36668" lon="4.49462">
        <ele>1074.89</ele>
        <time>2017-04-12T12:15:14Z</time>
      </trkpt>
      <trkpt lat="45.36668" lon="4.49455">
        <ele>1074.89</ele>
        <time>2017-04-12T12:15:15Z</time>
      </trkpt>
      <trkpt lat="45.36664" lon="4.49425">
        <ele>1073.45</ele>
        <time>2017-04-12T12:15:19Z</time>
      </trkpt>
      <trkpt lat="45.36663" lon="4.49418">
        <ele>1072.49</ele>
        <time>2017-04-12T12:15:20Z</time>
      </trkpt>
      <trkpt lat="45.3666" lon="4.49413">
        <ele>1072.49</ele>
        <time>2017-04-12T12:15:21Z</time>
      </trkpt>
      <trkpt lat="45.36656" lon="4.49409">
        <ele>1072.49</ele>
        <time>2017-04-12T12:15:22Z</time>
      </trkpt>
      <trkpt lat="45.36652" lon="4.49406">
        <ele>1072.97</ele>
        <time>2017-04-12T12:15:23Z</time>
      </trkpt>
      <trkpt lat="45.36648" lon="4.49404">
        <ele>1072.97</ele>
        <time>2017-04-12T12:15:24Z</time>
      </trkpt>
      <trkpt lat="45.36643" lon="4.49402">
        <ele>1072.97</ele>
        <time>2017-04-12T12:15:25Z</time>
      </trkpt>
      <trkpt lat="45.36639" lon="4.49401">
        <ele>1072.97</ele>
        <time>2017-04-12T12:15:26Z</time>
      </trkpt>
      <trkpt lat="45.36612" lon="4.49391">
        <ele>1073.93</ele>
        <time>2017-04-12T12:15:32Z</time>
      </trkpt>
      <trkpt lat="45.36608" lon="4.49388">
        <ele>1074.41</ele>
        <time>2017-04-12T12:15:33Z</time>
      </trkpt>
      <trkpt lat="45.36604" lon="4.49384">
        <ele>1074.41</ele>
        <time>2017-04-12T12:15:34Z</time>
      </trkpt>
      <trkpt lat="45.36601" lon="4.4938">
        <ele>1073.93</ele>
        <time>2017-04-12T12:15:35Z</time>
      </trkpt>
      <trkpt lat="45.36598" lon="4.49376">
        <ele>1074.89</ele>
        <time>2017-04-12T12:15:36Z</time>
      </trkpt>
      <trkpt lat="45.36596" lon="4.49372">
        <ele>1074.89</ele>
        <time>2017-04-12T12:15:37Z</time>
      </trkpt>
      <trkpt lat="45.36593" lon="4.49369">
        <ele>1074.89</ele>
        <time>2017-04-12T12:15:38Z</time>
      </trkpt>
      <trkpt lat="45.36591" lon="4.49365">
        <ele>1074.89</ele>
        <time>2017-04-12T12:15:39Z</time>
      </trkpt>
      <trkpt lat="45.36576" lon="4.49334">
        <ele>1064.8</ele>
        <time>2017-04-12T12:15:47Z</time>
      </trkpt>
      <trkpt lat="45.36575" lon="4.49329">
        <ele>1083.54</ele>
        <time>2017-04-12T12:15:48Z</time>
      </trkpt>
      <trkpt lat="45.36573" lon="4.49325">
        <ele>1074.89</ele>
        <time>2017-04-12T12:15:49Z</time>
      </trkpt>
      <trkpt lat="45.3655" lon="4.49267">
        <ele>1073.93</ele>
        <time>2017-04-12T12:16:02Z</time>
      </trkpt>
      <trkpt lat="45.36544" lon="4.49222">
        <ele>1073.93</ele>
        <time>2017-04-12T12:16:11Z</time>
      </trkpt>
      <trkpt lat="45.36574" lon="4.492">
        <ele>1074.89</ele>
        <time>2017-04-12T12:16:24Z</time>
      </trkpt>
      <trkpt lat="45.36615" lon="4.49191">
        <ele>1075.85</ele>
        <time>2017-04-12T12:16:39Z</time>
      </trkpt>
      <trkpt lat="45.36659" lon="4.49198">
        <ele>1076.81</ele>
        <time>2017-04-12T12:16:56Z</time>
      </trkpt>
      <trkpt lat="45.36689" lon="4.49206">
        <ele>1078.74</ele>
        <time>2017-04-12T12:17:10Z</time>
      </trkpt>
      <trkpt lat="45.36723" lon="4.49182">
        <ele>1079.7</ele>
        <time>2017-04-12T12:17:26Z</time>
      </trkpt>
      <trkpt lat="45.36749" lon="4.4913">
        <ele>1081.14</ele>
        <time>2017-04-12T12:17:43Z</time>
      </trkpt>
      <trkpt lat="45.36792" lon="4.49086">
        <ele>1082.1</ele>
        <time>2017-04-12T12:18:01Z</time>
      </trkpt>
      <trkpt lat="45.36829" lon="4.49055">
        <ele>1084.02</ele>
        <time>2017-04-12T12:18:16Z</time>
      </trkpt>
      <trkpt lat="45.36857" lon="4.49036">
        <ele>1086.91</ele>
        <time>2017-04-12T12:18:31Z</time>
      </trkpt>
      <trkpt lat="45.36884" lon="4.49011">
        <ele>1089.31</ele>
        <time>2017-04-12T12:18:47Z</time>
      </trkpt>
      <trkpt lat="45.36899" lon="4.48994">
        <ele>1091.23</ele>
        <time>2017-04-12T12:18:57Z</time>
      </trkpt>
      <trkpt lat="45.36919" lon="4.48974">
        <ele>1091.71</ele>
        <time>2017-04-12T12:19:10Z</time>
      </trkpt>
      <trkpt lat="45.36942" lon="4.48951">
        <ele>1093.64</ele>
        <time>2017-04-12T12:19:25Z</time>
      </trkpt>
      <trkpt lat="45.36955" lon="4.48945">
        <ele>1094.6</ele>
        <time>2017-04-12T12:19:32Z</time>
      </trkpt>
      <trkpt lat="45.36956" lon="4.48944">
        <ele>1094.6</ele>
        <time>2017-04-12T12:19:33Z</time>
      </trkpt>
      <trkpt lat="45.36983" lon="4.48932">
        <ele>1097</ele>
        <time>2017-04-12T12:19:49Z</time>
      </trkpt>
      <trkpt lat="45.37004" lon="4.48927">
        <ele>1098.92</ele>
        <time>2017-04-12T12:20:00Z</time>
      </trkpt>
      <trkpt lat="45.37006" lon="4.48926">
        <ele>1098.92</ele>
        <time>2017-04-12T12:20:01Z</time>
      </trkpt>
      <trkpt lat="45.37039" lon="4.48918">
        <ele>1101.33</ele>
        <time>2017-04-12T12:20:15Z</time>
      </trkpt>
      <trkpt lat="45.37081" lon="4.48915">
        <ele>1103.25</ele>
        <time>2017-04-12T12:20:31Z</time>
      </trkpt>
      <trkpt lat="45.37111" lon="4.4893">
        <ele>1105.17</ele>
        <time>2017-04-12T12:20:45Z</time>
      </trkpt>
      <trkpt lat="45.37147" lon="4.48932">
        <ele>1105.65</ele>
        <time>2017-04-12T12:20:58Z</time>
      </trkpt>
      <trkpt lat="45.37211" lon="4.48929">
        <ele>1103.73</ele>
        <time>2017-04-12T12:21:12Z</time>
      </trkpt>
      <trkpt lat="45.37252" lon="4.48928">
        <ele>1100.85</ele>
        <time>2017-04-12T12:21:18Z</time>
      </trkpt>
      <trkpt lat="45.37272" lon="4.48923">
        <ele>1098.44</ele>
        <time>2017-04-12T12:21:21Z</time>
      </trkpt>
      <trkpt lat="45.37278" lon="4.4892">
        <ele>1097.48</ele>
        <time>2017-04-12T12:21:22Z</time>
      </trkpt>
      <trkpt lat="45.37284" lon="4.48916">
        <ele>1096.52</ele>
        <time>2017-04-12T12:21:23Z</time>
      </trkpt>
      <trkpt lat="45.37295" lon="4.48907">
        <ele>1095.08</ele>
        <time>2017-04-12T12:21:25Z</time>
      </trkpt>
      <trkpt lat="45.37304" lon="4.48898">
        <ele>1094.12</ele>
        <time>2017-04-12T12:21:27Z</time>
      </trkpt>
      <trkpt lat="45.3731" lon="4.48896">
        <ele>1093.16</ele>
        <time>2017-04-12T12:21:28Z</time>
      </trkpt>
      <trkpt lat="45.37315" lon="4.48896">
        <ele>1093.64</ele>
        <time>2017-04-12T12:21:29Z</time>
      </trkpt>
      <trkpt lat="45.37338" lon="4.48901">
        <ele>1092.2</ele>
        <time>2017-04-12T12:21:33Z</time>
      </trkpt>
      <trkpt lat="45.37344" lon="4.48901">
        <ele>1091.23</ele>
        <time>2017-04-12T12:21:34Z</time>
      </trkpt>
      <trkpt lat="45.37357" lon="4.48902">
        <ele>1090.75</ele>
        <time>2017-04-12T12:21:36Z</time>
      </trkpt>
      <trkpt lat="45.37363" lon="4.48905">
        <ele>1090.75</ele>
        <time>2017-04-12T12:21:37Z</time>
      </trkpt>
      <trkpt lat="45.37402" lon="4.48929">
        <ele>1089.79</ele>
        <time>2017-04-12T12:21:44Z</time>
      </trkpt>
      <trkpt lat="45.37407" lon="4.48932">
        <ele>1089.79</ele>
        <time>2017-04-12T12:21:45Z</time>
      </trkpt>
      <trkpt lat="45.37412" lon="4.48935">
        <ele>1089.79</ele>
        <time>2017-04-12T12:21:46Z</time>
      </trkpt>
      <trkpt lat="45.37417" lon="4.48937">
        <ele>1089.31</ele>
        <time>2017-04-12T12:21:47Z</time>
      </trkpt>
      <trkpt lat="45.37421" lon="4.48936">
        <ele>1088.35</ele>
        <time>2017-04-12T12:21:48Z</time>
      </trkpt>
      <trkpt lat="45.3743" lon="4.48909">
        <ele>1087.39</ele>
        <time>2017-04-12T12:21:54Z</time>
      </trkpt>
      <trkpt lat="45.3743" lon="4.48908">
        <ele>1087.39</ele>
        <time>2017-04-12T12:22:03Z</time>
      </trkpt>
      <trkpt lat="45.3743" lon="4.48907">
        <ele>1087.39</ele>
        <time>2017-04-12T12:22:29Z</time>
      </trkpt>
    </trkseg>
  </trk>
</gpx>